<?xml version='1.0' encoding='UTF-8'?><gpx version="1.1" creator="JPX - https://github.com/jenetics/jpx" xmlns="http://www.topografix.com/GPX/1/1"><trk><trkseg><trkpt lat="43.7789061" lon="11.2058085"><ele>40.0</ele><time>2026-05-01T08:11:07.299Z</time></trkpt><trkpt lat="43.7788198" lon="11.2058402"><ele>40.0</ele><time>2026-05-01T08:11:11.599Z</time></trkpt><trkpt lat="43.7788954" lon="11.2058424"><ele>40.0</ele><time>2026-05-01T08:12:24.598Z</time></trkpt><trkpt lat="43.7790205" lon="11.2058007"><ele>40.0</ele><time>2026-05-01T08:16:28.598Z</time></trkpt><trkpt lat="43.7791072" lon="11.2057989"><ele>40.0</ele><time>2026-05-01T08:16:46.598Z</time></trkpt><trkpt lat="43.779166" lon="11.2058528"><ele>40.0</ele><time>2026-05-01T08:18:15.598Z</time></trkpt><trkpt lat="43.779219" lon="11.2059202"><ele>40.0</ele><time>2026-05-01T08:19:15.598Z</time></trkpt><trkpt lat="43.779287" lon="11.2059298"><ele>40.0</ele><time>2026-05-01T08:19:19.598Z</time></trkpt><trkpt lat="43.7793062" lon="11.2060231"><ele>40.0</ele><time>2026-05-01T08:19:24.596Z</time></trkpt><trkpt lat="43.7793606" lon="11.2059443"><ele>40.0</ele><time>2026-05-01T08:19:31.597Z</time></trkpt><trkpt lat="43.7794033" lon="11.2056734"><ele>39.5</ele><time>2026-05-01T08:19:40.598Z</time></trkpt><trkpt lat="43.7794354" lon="11.2055691"><ele>39.0</ele><time>2026-05-01T08:19:43.597Z</time></trkpt><trkpt lat="43.7794685" lon="11.2054777"><ele>38.5</ele><time>2026-05-01T08:19:47.598Z</time></trkpt><trkpt lat="43.7794914" lon="11.2053848"><ele>38.0</ele><time>2026-05-01T08:19:50.597Z</time></trkpt><trkpt lat="43.7795135" lon="11.2052716"><ele>37.5</ele><time>2026-05-01T08:19:53.597Z</time></trkpt><trkpt lat="43.7795311" lon="11.2051748"><ele>37.0</ele><time>2026-05-01T08:19:58.598Z</time></trkpt><trkpt lat="43.779491" lon="11.205077"><ele>37.0</ele><time>2026-05-01T08:20:49.598Z</time></trkpt><trkpt lat="43.7795175" lon="11.2049834"><ele>37.0</ele><time>2026-05-01T08:20:52.598Z</time></trkpt><trkpt lat="43.7795854" lon="11.2049264"><ele>37.0</ele><time>2026-05-01T08:20:55.598Z</time></trkpt><trkpt lat="43.7796588" lon="11.2049556"><ele>37.0</ele><time>2026-05-01T08:20:58.598Z</time></trkpt><trkpt lat="43.7797264" lon="11.2049592"><ele>37.0</ele><time>2026-05-01T08:21:01.598Z</time></trkpt><trkpt lat="43.7798146" lon="11.2049404"><ele>37.0</ele><time>2026-05-01T08:21:04.598Z</time></trkpt><trkpt lat="43.7798978" lon="11.2049069"><ele>37.0</ele><time>2026-05-01T08:21:07.598Z</time></trkpt><trkpt lat="43.7799826" lon="11.2048789"><ele>37.0</ele><time>2026-05-01T08:21:10.597Z</time></trkpt><trkpt lat="43.7800455" lon="11.2048614"><ele>37.0</ele><time>2026-05-01T08:21:13.597Z</time></trkpt><trkpt lat="43.7801128" lon="11.204842"><ele>37.0</ele><time>2026-05-01T08:21:16.598Z</time></trkpt><trkpt lat="43.7801939" lon="11.2048148"><ele>37.0</ele><time>2026-05-01T08:21:19.598Z</time></trkpt><trkpt lat="43.7802613" lon="11.2047904"><ele>37.0</ele><time>2026-05-01T08:21:21.597Z</time></trkpt><trkpt lat="43.7803234" lon="11.2047727"><ele>37.0</ele><time>2026-05-01T08:21:23.597Z</time></trkpt><trkpt lat="43.7804062" lon="11.2047478"><ele>37.16666666666667</ele><time>2026-05-01T08:21:26.597Z</time></trkpt><trkpt lat="43.7804862" lon="11.2047281"><ele>37.333333333333336</ele><time>2026-05-01T08:21:29.597Z</time></trkpt><trkpt lat="43.7805674" lon="11.2047068"><ele>37.5</ele><time>2026-05-01T08:21:32.598Z</time></trkpt><trkpt lat="43.7806491" lon="11.2046842"><ele>37.666666666666664</ele><time>2026-05-01T08:21:35.597Z</time></trkpt><trkpt lat="43.7807283" lon="11.2046594"><ele>37.83333333333333</ele><time>2026-05-01T08:21:38.598Z</time></trkpt><trkpt lat="43.7808099" lon="11.2046297"><ele>38.0</ele><time>2026-05-01T08:21:41.597Z</time></trkpt><trkpt lat="43.7808841" lon="11.2046096"><ele>38.0</ele><time>2026-05-01T08:21:44.598Z</time></trkpt><trkpt lat="43.7809627" lon="11.2045906"><ele>38.0</ele><time>2026-05-01T08:21:47.597Z</time></trkpt><trkpt lat="43.7810472" lon="11.2045712"><ele>38.0</ele><time>2026-05-01T08:21:50.598Z</time></trkpt><trkpt lat="43.7811133" lon="11.2045526"><ele>38.0</ele><time>2026-05-01T08:21:52.598Z</time></trkpt><trkpt lat="43.7811778" lon="11.2045333"><ele>38.0</ele><time>2026-05-01T08:21:54.598Z</time></trkpt><trkpt lat="43.781267" lon="11.2045055"><ele>38.0</ele><time>2026-05-01T08:21:57.597Z</time></trkpt><trkpt lat="43.7813545" lon="11.2044796"><ele>38.166666666666664</ele><time>2026-05-01T08:22:00.598Z</time></trkpt><trkpt lat="43.7814414" lon="11.2044503"><ele>38.33333333333333</ele><time>2026-05-01T08:22:03.597Z</time></trkpt><trkpt lat="43.781519" lon="11.2044238"><ele>38.5</ele><time>2026-05-01T08:22:06.597Z</time></trkpt><trkpt lat="43.7815885" lon="11.2044207"><ele>38.666666666666664</ele><time>2026-05-01T08:22:09.598Z</time></trkpt><trkpt lat="43.7816609" lon="11.2044497"><ele>38.833333333333336</ele><time>2026-05-01T08:22:13.598Z</time></trkpt><trkpt lat="43.7817076" lon="11.2045416"><ele>39.0</ele><time>2026-05-01T08:22:17.596Z</time></trkpt><trkpt lat="43.7817882" lon="11.2045642"><ele>39.0</ele><time>2026-05-01T08:22:21.599Z</time></trkpt><trkpt lat="43.7819345" lon="11.2045628"><ele>39.0</ele><time>2026-05-01T08:22:27.597Z</time></trkpt><trkpt lat="43.7820158" lon="11.2045579"><ele>39.0</ele><time>2026-05-01T08:22:30.598Z</time></trkpt><trkpt lat="43.7820622" lon="11.204789"><ele>39.0</ele><time>2026-05-01T08:22:38.597Z</time></trkpt><trkpt lat="43.7821192" lon="11.2048271"><ele>39.0</ele><time>2026-05-01T08:22:43.597Z</time></trkpt><trkpt lat="43.7821371" lon="11.2047375"><ele>39.0</ele><time>2026-05-01T08:22:45.597Z</time></trkpt><trkpt lat="43.7821487" lon="11.2046513"><ele>39.0</ele><time>2026-05-01T08:22:46.597Z</time></trkpt><trkpt lat="43.7821674" lon="11.2045238"><ele>39.0</ele><time>2026-05-01T08:22:48.597Z</time></trkpt><trkpt lat="43.7821897" lon="11.2043786"><ele>39.0</ele><time>2026-05-01T08:22:50.599Z</time></trkpt><trkpt lat="43.7822072" lon="11.2042605"><ele>39.0</ele><time>2026-05-01T08:22:52.597Z</time></trkpt><trkpt lat="43.78223" lon="11.2041267"><ele>39.0</ele><time>2026-05-01T08:22:54.597Z</time></trkpt><trkpt lat="43.7822582" lon="11.2040159"><ele>39.0</ele><time>2026-05-01T08:22:56.597Z</time></trkpt><trkpt lat="43.7823122" lon="11.2039319"><ele>39.0</ele><time>2026-05-01T08:22:58.598Z</time></trkpt><trkpt lat="43.7823804" lon="11.2038883"><ele>39.0</ele><time>2026-05-01T08:23:00.598Z</time></trkpt><trkpt lat="43.7824432" lon="11.203913"><ele>39.0</ele><time>2026-05-01T08:23:02.598Z</time></trkpt><trkpt lat="43.7825116" lon="11.203937"><ele>39.0</ele><time>2026-05-01T08:23:04.598Z</time></trkpt><trkpt lat="43.7825832" lon="11.2039716"><ele>39.0</ele><time>2026-05-01T08:23:06.598Z</time></trkpt><trkpt lat="43.7826586" lon="11.2040024"><ele>39.0</ele><time>2026-05-01T08:23:08.597Z</time></trkpt><trkpt lat="43.7827321" lon="11.2040236"><ele>39.0</ele><time>2026-05-01T08:23:10.597Z</time></trkpt><trkpt lat="43.7828045" lon="11.2040464"><ele>39.0</ele><time>2026-05-01T08:23:12.597Z</time></trkpt><trkpt lat="43.7828749" lon="11.2040744"><ele>39.0</ele><time>2026-05-01T08:23:14.597Z</time></trkpt><trkpt lat="43.7829432" lon="11.204098"><ele>39.0</ele><time>2026-05-01T08:23:16.597Z</time></trkpt><trkpt lat="43.7830037" lon="11.2041252"><ele>39.0</ele><time>2026-05-01T08:23:18.597Z</time></trkpt><trkpt lat="43.7830893" lon="11.2041588"><ele>39.166666666666664</ele><time>2026-05-01T08:23:21.597Z</time></trkpt><trkpt lat="43.7831749" lon="11.2041894"><ele>39.333333333333336</ele><time>2026-05-01T08:23:24.597Z</time></trkpt><trkpt lat="43.7832379" lon="11.2042131"><ele>39.5</ele><time>2026-05-01T08:23:26.596Z</time></trkpt><trkpt lat="43.7832994" lon="11.2042421"><ele>39.66666666666667</ele><time>2026-05-01T08:23:28.598Z</time></trkpt><trkpt lat="43.7833881" lon="11.2042734"><ele>39.833333333333336</ele><time>2026-05-01T08:23:31.597Z</time></trkpt><trkpt lat="43.7834579" lon="11.2042961"><ele>40.0</ele><time>2026-05-01T08:23:33.598Z</time></trkpt><trkpt lat="43.7835315" lon="11.2043304"><ele>40.0</ele><time>2026-05-01T08:23:35.597Z</time></trkpt><trkpt lat="43.783613" lon="11.2043717"><ele>40.0</ele><time>2026-05-01T08:23:37.598Z</time></trkpt><trkpt lat="43.7836744" lon="11.2043944"><ele>40.0</ele><time>2026-05-01T08:23:39.598Z</time></trkpt><trkpt lat="43.7837369" lon="11.2044166"><ele>40.0</ele><time>2026-05-01T08:23:41.597Z</time></trkpt><trkpt lat="43.7838215" lon="11.2044527"><ele>40.0</ele><time>2026-05-01T08:23:44.596Z</time></trkpt><trkpt lat="43.7839109" lon="11.204472"><ele>40.0</ele><time>2026-05-01T08:23:47.598Z</time></trkpt><trkpt lat="43.7839747" lon="11.2044814"><ele>40.0</ele><time>2026-05-01T08:23:49.597Z</time></trkpt><trkpt lat="43.784043" lon="11.2045121"><ele>40.0</ele><time>2026-05-01T08:23:51.597Z</time></trkpt><trkpt lat="43.7841149" lon="11.2045384"><ele>40.0</ele><time>2026-05-01T08:23:53.598Z</time></trkpt><trkpt lat="43.7841872" lon="11.2045546"><ele>40.0</ele><time>2026-05-01T08:23:55.598Z</time></trkpt><trkpt lat="43.7842525" lon="11.204572"><ele>40.0</ele><time>2026-05-01T08:23:57.598Z</time></trkpt><trkpt lat="43.7843422" lon="11.2046059"><ele>40.0</ele><time>2026-05-01T08:24:00.596Z</time></trkpt><trkpt lat="43.7844133" lon="11.2046308"><ele>40.0</ele><time>2026-05-01T08:24:02.598Z</time></trkpt><trkpt lat="43.7844855" lon="11.2046584"><ele>40.0</ele><time>2026-05-01T08:24:04.598Z</time></trkpt><trkpt lat="43.7845544" lon="11.2046908"><ele>40.0</ele><time>2026-05-01T08:24:06.598Z</time></trkpt><trkpt lat="43.7846214" lon="11.2047151"><ele>40.0</ele><time>2026-05-01T08:24:08.599Z</time></trkpt><trkpt lat="43.784685" lon="11.2047394"><ele>40.0</ele><time>2026-05-01T08:24:10.596Z</time></trkpt><trkpt lat="43.7847682" lon="11.2047749"><ele>40.0</ele><time>2026-05-01T08:24:13.597Z</time></trkpt><trkpt lat="43.7848298" lon="11.2048024"><ele>40.0</ele><time>2026-05-01T08:24:15.597Z</time></trkpt><trkpt lat="43.7848914" lon="11.2048295"><ele>39.857142857142854</ele><time>2026-05-01T08:24:17.597Z</time></trkpt><trkpt lat="43.7849574" lon="11.2048603"><ele>39.714285714285715</ele><time>2026-05-01T08:24:19.596Z</time></trkpt><trkpt lat="43.7850212" lon="11.2048883"><ele>39.57142857142857</ele><time>2026-05-01T08:24:21.596Z</time></trkpt><trkpt lat="43.78508" lon="11.2049537"><ele>39.42857142857143</ele><time>2026-05-01T08:24:24.596Z</time></trkpt><trkpt lat="43.7850759" lon="11.2050415"><ele>39.285714285714285</ele><time>2026-05-01T08:24:27.597Z</time></trkpt><trkpt lat="43.7850354" lon="11.2051569"><ele>39.142857142857146</ele><time>2026-05-01T08:24:30.596Z</time></trkpt><trkpt lat="43.7849998" lon="11.2052382"><ele>39.0</ele><time>2026-05-01T08:24:32.598Z</time></trkpt><trkpt lat="43.7849633" lon="11.2053228"><ele>39.0</ele><time>2026-05-01T08:24:34.597Z</time></trkpt><trkpt lat="43.7849271" lon="11.2054097"><ele>39.0</ele><time>2026-05-01T08:24:36.597Z</time></trkpt><trkpt lat="43.7848885" lon="11.2054979"><ele>39.0</ele><time>2026-05-01T08:24:38.597Z</time></trkpt><trkpt lat="43.784851" lon="11.205585"><ele>39.0</ele><time>2026-05-01T08:24:40.598Z</time></trkpt><trkpt lat="43.7848105" lon="11.2056677"><ele>39.0</ele><time>2026-05-01T08:24:42.597Z</time></trkpt><trkpt lat="43.7847696" lon="11.2057483"><ele>39.0</ele><time>2026-05-01T08:24:44.597Z</time></trkpt><trkpt lat="43.784731" lon="11.2058294"><ele>39.0</ele><time>2026-05-01T08:24:46.597Z</time></trkpt><trkpt lat="43.7846934" lon="11.2059125"><ele>39.166666666666664</ele><time>2026-05-01T08:24:48.597Z</time></trkpt><trkpt lat="43.784653" lon="11.2059965"><ele>39.333333333333336</ele><time>2026-05-01T08:24:50.598Z</time></trkpt><trkpt lat="43.7846053" lon="11.2060899"><ele>39.5</ele><time>2026-05-01T08:24:52.596Z</time></trkpt><trkpt lat="43.7845601" lon="11.2061849"><ele>39.66666666666667</ele><time>2026-05-01T08:24:54.598Z</time></trkpt><trkpt lat="43.7845189" lon="11.2062706"><ele>39.833333333333336</ele><time>2026-05-01T08:24:56.596Z</time></trkpt><trkpt lat="43.7844764" lon="11.2063504"><ele>40.0</ele><time>2026-05-01T08:24:58.597Z</time></trkpt><trkpt lat="43.7844396" lon="11.2064348"><ele>40.0</ele><time>2026-05-01T08:25:00.597Z</time></trkpt><trkpt lat="43.7844028" lon="11.2065238"><ele>40.0</ele><time>2026-05-01T08:25:02.597Z</time></trkpt><trkpt lat="43.7843656" lon="11.2066092"><ele>40.0</ele><time>2026-05-01T08:25:04.597Z</time></trkpt><trkpt lat="43.7843307" lon="11.2066887"><ele>40.0</ele><time>2026-05-01T08:25:06.598Z</time></trkpt><trkpt lat="43.7842909" lon="11.2067672"><ele>40.0</ele><time>2026-05-01T08:25:08.597Z</time></trkpt><trkpt lat="43.7842544" lon="11.2068483"><ele>40.0</ele><time>2026-05-01T08:25:10.597Z</time></trkpt><trkpt lat="43.7842143" lon="11.2069296"><ele>40.0</ele><time>2026-05-01T08:25:12.597Z</time></trkpt><trkpt lat="43.7841739" lon="11.2070095"><ele>40.0</ele><time>2026-05-01T08:25:14.596Z</time></trkpt><trkpt lat="43.7841312" lon="11.2070918"><ele>40.0</ele><time>2026-05-01T08:25:16.597Z</time></trkpt><trkpt lat="43.7840913" lon="11.2071766"><ele>40.0</ele><time>2026-05-01T08:25:18.596Z</time></trkpt><trkpt lat="43.7840519" lon="11.207255"><ele>40.0</ele><time>2026-05-01T08:25:20.597Z</time></trkpt><trkpt lat="43.7840164" lon="11.2073334"><ele>40.0</ele><time>2026-05-01T08:25:22.596Z</time></trkpt><trkpt lat="43.7839777" lon="11.2074087"><ele>40.0</ele><time>2026-05-01T08:25:24.597Z</time></trkpt><trkpt lat="43.7839388" lon="11.2074888"><ele>40.0</ele><time>2026-05-01T08:25:26.596Z</time></trkpt><trkpt lat="43.7839029" lon="11.207571"><ele>39.714285714285715</ele><time>2026-05-01T08:25:28.597Z</time></trkpt><trkpt lat="43.7838679" lon="11.207656"><ele>39.42857142857143</ele><time>2026-05-01T08:25:30.597Z</time></trkpt><trkpt lat="43.7838362" lon="11.2077475"><ele>39.14285714285714</ele><time>2026-05-01T08:25:32.596Z</time></trkpt><trkpt lat="43.783806" lon="11.2078361"><ele>38.85714285714286</ele><time>2026-05-01T08:25:34.597Z</time></trkpt><trkpt lat="43.783767" lon="11.2079153"><ele>38.57142857142858</ele><time>2026-05-01T08:25:36.596Z</time></trkpt><trkpt lat="43.7837283" lon="11.207987"><ele>38.285714285714285</ele><time>2026-05-01T08:25:38.596Z</time></trkpt><trkpt lat="43.78369" lon="11.2080905"><ele>38.0</ele><time>2026-05-01T08:25:41.597Z</time></trkpt><trkpt lat="43.7836753" lon="11.2081958"><ele>37.57142857142857</ele><time>2026-05-01T08:25:44.596Z</time></trkpt><trkpt lat="43.7836549" lon="11.2082794"><ele>37.142857142857146</ele><time>2026-05-01T08:25:46.597Z</time></trkpt><trkpt lat="43.7836155" lon="11.2083714"><ele>36.714285714285715</ele><time>2026-05-01T08:25:48.597Z</time></trkpt><trkpt lat="43.7835733" lon="11.2084545"><ele>36.285714285714285</ele><time>2026-05-01T08:25:50.596Z</time></trkpt><trkpt lat="43.7835271" lon="11.2085271"><ele>35.85714285714286</ele><time>2026-05-01T08:25:52.597Z</time></trkpt><trkpt lat="43.7834871" lon="11.2085955"><ele>35.42857142857143</ele><time>2026-05-01T08:25:54.596Z</time></trkpt><trkpt lat="43.7834544" lon="11.2086728"><ele>35.0</ele><time>2026-05-01T08:25:56.595Z</time></trkpt><trkpt lat="43.7834337" lon="11.2087618"><ele>35.57142857142857</ele><time>2026-05-01T08:25:58.596Z</time></trkpt><trkpt lat="43.7834181" lon="11.2088532"><ele>36.14285714285714</ele><time>2026-05-01T08:26:00.596Z</time></trkpt><trkpt lat="43.7833945" lon="11.2089796"><ele>36.714285714285715</ele><time>2026-05-01T08:26:03.598Z</time></trkpt><trkpt lat="43.7833787" lon="11.2090698"><ele>37.285714285714285</ele><time>2026-05-01T08:26:05.599Z</time></trkpt><trkpt lat="43.7833525" lon="11.2091673"><ele>37.857142857142854</ele><time>2026-05-01T08:26:07.598Z</time></trkpt><trkpt lat="43.7833233" lon="11.2092628"><ele>38.42857142857143</ele><time>2026-05-01T08:26:09.597Z</time></trkpt><trkpt lat="43.7832934" lon="11.209349"><ele>39.0</ele><time>2026-05-01T08:26:11.597Z</time></trkpt><trkpt lat="43.7832469" lon="11.2094427"><ele>39.0</ele><time>2026-05-01T08:26:14.598Z</time></trkpt><trkpt lat="43.7831963" lon="11.2095502"><ele>39.0</ele><time>2026-05-01T08:26:17.597Z</time></trkpt><trkpt lat="43.783158" lon="11.2096273"><ele>39.0</ele><time>2026-05-01T08:26:19.596Z</time></trkpt><trkpt lat="43.7831008" lon="11.2097224"><ele>39.0</ele><time>2026-05-01T08:26:22.597Z</time></trkpt><trkpt lat="43.7830512" lon="11.2097799"><ele>39.0</ele><time>2026-05-01T08:26:24.598Z</time></trkpt><trkpt lat="43.7829984" lon="11.2098531"><ele>39.0</ele><time>2026-05-01T08:26:26.597Z</time></trkpt><trkpt lat="43.7829563" lon="11.2099404"><ele>38.333333333333336</ele><time>2026-05-01T08:26:28.598Z</time></trkpt><trkpt lat="43.7829256" lon="11.2100283"><ele>37.666666666666664</ele><time>2026-05-01T08:26:30.598Z</time></trkpt><trkpt lat="43.7828915" lon="11.2101404"><ele>37.0</ele><time>2026-05-01T08:26:33.598Z</time></trkpt><trkpt lat="43.7828596" lon="11.2102559"><ele>36.33333333333333</ele><time>2026-05-01T08:26:36.596Z</time></trkpt><trkpt lat="43.7828191" lon="11.2103717"><ele>35.666666666666664</ele><time>2026-05-01T08:26:39.597Z</time></trkpt><trkpt lat="43.7827818" lon="11.2104491"><ele>35.0</ele><time>2026-05-01T08:26:41.598Z</time></trkpt><trkpt lat="43.7827431" lon="11.2105211"><ele>35.0</ele><time>2026-05-01T08:26:43.597Z</time></trkpt><trkpt lat="43.7827044" lon="11.2105976"><ele>35.0</ele><time>2026-05-01T08:26:45.598Z</time></trkpt><trkpt lat="43.7826661" lon="11.210673"><ele>35.0</ele><time>2026-05-01T08:26:47.597Z</time></trkpt><trkpt lat="43.7826014" lon="11.2107588"><ele>35.0</ele><time>2026-05-01T08:26:50.596Z</time></trkpt><trkpt lat="43.7825565" lon="11.2108417"><ele>35.0</ele><time>2026-05-01T08:26:53.596Z</time></trkpt><trkpt lat="43.782512" lon="11.2109658"><ele>35.0</ele><time>2026-05-01T08:26:56.596Z</time></trkpt><trkpt lat="43.7824792" lon="11.2110584"><ele>35.285714285714285</ele><time>2026-05-01T08:26:58.597Z</time></trkpt><trkpt lat="43.782447" lon="11.211145"><ele>35.57142857142857</ele><time>2026-05-01T08:27:00.597Z</time></trkpt><trkpt lat="43.782414" lon="11.2112378"><ele>35.85714285714286</ele><time>2026-05-01T08:27:02.596Z</time></trkpt><trkpt lat="43.7823814" lon="11.2113316"><ele>36.14285714285714</ele><time>2026-05-01T08:27:04.596Z</time></trkpt><trkpt lat="43.782348" lon="11.2114252"><ele>36.42857142857143</ele><time>2026-05-01T08:27:06.596Z</time></trkpt><trkpt lat="43.7823063" lon="11.2115105"><ele>36.714285714285715</ele><time>2026-05-01T08:27:08.596Z</time></trkpt><trkpt lat="43.7822637" lon="11.2115901"><ele>37.0</ele><time>2026-05-01T08:27:10.596Z</time></trkpt><trkpt lat="43.7822184" lon="11.2116702"><ele>36.42857142857143</ele><time>2026-05-01T08:27:12.596Z</time></trkpt><trkpt lat="43.7821745" lon="11.2117548"><ele>35.857142857142854</ele><time>2026-05-01T08:27:14.597Z</time></trkpt><trkpt lat="43.7821317" lon="11.2118377"><ele>35.285714285714285</ele><time>2026-05-01T08:27:16.598Z</time></trkpt><trkpt lat="43.7820889" lon="11.2119189"><ele>34.714285714285715</ele><time>2026-05-01T08:27:18.596Z</time></trkpt><trkpt lat="43.7820525" lon="11.212003"><ele>34.142857142857146</ele><time>2026-05-01T08:27:20.596Z</time></trkpt><trkpt lat="43.7820181" lon="11.2120837"><ele>33.57142857142857</ele><time>2026-05-01T08:27:22.599Z</time></trkpt><trkpt lat="43.7819859" lon="11.2121594"><ele>33.0</ele><time>2026-05-01T08:27:24.596Z</time></trkpt><trkpt lat="43.7819495" lon="11.212237"><ele>33.0</ele><time>2026-05-01T08:27:26.597Z</time></trkpt><trkpt lat="43.7819081" lon="11.21232"><ele>33.0</ele><time>2026-05-01T08:27:28.597Z</time></trkpt><trkpt lat="43.7818721" lon="11.2123956"><ele>33.0</ele><time>2026-05-01T08:27:30.597Z</time></trkpt><trkpt lat="43.7818261" lon="11.212499"><ele>33.0</ele><time>2026-05-01T08:27:33.596Z</time></trkpt><trkpt lat="43.7817837" lon="11.2125895"><ele>33.0</ele><time>2026-05-01T08:27:36.597Z</time></trkpt><trkpt lat="43.7817427" lon="11.2126841"><ele>33.0</ele><time>2026-05-01T08:27:39.597Z</time></trkpt><trkpt lat="43.7816937" lon="11.2127765"><ele>33.5</ele><time>2026-05-01T08:27:42.596Z</time></trkpt><trkpt lat="43.7816581" lon="11.2128529"><ele>34.0</ele><time>2026-05-01T08:27:44.597Z</time></trkpt><trkpt lat="43.7816198" lon="11.2129225"><ele>34.5</ele><time>2026-05-01T08:27:46.597Z</time></trkpt><trkpt lat="43.7815809" lon="11.212999"><ele>35.0</ele><time>2026-05-01T08:27:48.598Z</time></trkpt><trkpt lat="43.7815315" lon="11.2131047"><ele>35.5</ele><time>2026-05-01T08:27:51.597Z</time></trkpt><trkpt lat="43.7814809" lon="11.2132041"><ele>36.0</ele><time>2026-05-01T08:27:54.597Z</time></trkpt><trkpt lat="43.7814266" lon="11.2133112"><ele>36.00000000000001</ele><time>2026-05-01T08:27:57.596Z</time></trkpt><trkpt lat="43.7813942" lon="11.21339"><ele>36.0</ele><time>2026-05-01T08:27:59.596Z</time></trkpt><trkpt lat="43.7813623" lon="11.2134663"><ele>36.0</ele><time>2026-05-01T08:28:01.597Z</time></trkpt><trkpt lat="43.7813092" lon="11.2135749"><ele>36.0</ele><time>2026-05-01T08:28:04.596Z</time></trkpt><trkpt lat="43.7812632" lon="11.2136384"><ele>36.0</ele><time>2026-05-01T08:28:06.597Z</time></trkpt><trkpt lat="43.7812139" lon="11.2136955"><ele>36.00000000000001</ele><time>2026-05-01T08:28:08.597Z</time></trkpt><trkpt lat="43.7811493" lon="11.2137858"><ele>36.0</ele><time>2026-05-01T08:28:11.596Z</time></trkpt><trkpt lat="43.7811101" lon="11.2138569"><ele>36.00000000000001</ele><time>2026-05-01T08:28:13.596Z</time></trkpt><trkpt lat="43.7810783" lon="11.2139395"><ele>36.0</ele><time>2026-05-01T08:28:15.596Z</time></trkpt><trkpt lat="43.7810399" lon="11.2140119"><ele>36.0</ele><time>2026-05-01T08:28:17.597Z</time></trkpt><trkpt lat="43.7809963" lon="11.2141147"><ele>36.0</ele><time>2026-05-01T08:28:20.598Z</time></trkpt><trkpt lat="43.7809586" lon="11.2141996"><ele>36.0</ele><time>2026-05-01T08:28:23.597Z</time></trkpt><trkpt lat="43.7809189" lon="11.2142994"><ele>36.00000000000001</ele><time>2026-05-01T08:28:26.597Z</time></trkpt><trkpt lat="43.7808855" lon="11.2143744"><ele>36.0</ele><time>2026-05-01T08:28:28.596Z</time></trkpt><trkpt lat="43.780838" lon="11.2144787"><ele>36.42857142857143</ele><time>2026-05-01T08:28:31.596Z</time></trkpt><trkpt lat="43.7807853" lon="11.2145706"><ele>36.85714285714286</ele><time>2026-05-01T08:28:34.596Z</time></trkpt><trkpt lat="43.7807417" lon="11.2146599"><ele>37.28571428571429</ele><time>2026-05-01T08:28:37.596Z</time></trkpt><trkpt lat="43.7807108" lon="11.2147413"><ele>37.714285714285715</ele><time>2026-05-01T08:28:39.597Z</time></trkpt><trkpt lat="43.7806792" lon="11.2148208"><ele>38.14285714285714</ele><time>2026-05-01T08:28:41.597Z</time></trkpt><trkpt lat="43.7806473" lon="11.2149018"><ele>38.57142857142858</ele><time>2026-05-01T08:28:43.596Z</time></trkpt><trkpt lat="43.7806177" lon="11.2149879"><ele>39.0</ele><time>2026-05-01T08:28:45.597Z</time></trkpt><trkpt lat="43.7805862" lon="11.2150682"><ele>39.0</ele><time>2026-05-01T08:28:47.595Z</time></trkpt><trkpt lat="43.7805455" lon="11.2151727"><ele>39.0</ele><time>2026-05-01T08:28:50.597Z</time></trkpt><trkpt lat="43.7804975" lon="11.2152884"><ele>39.0</ele><time>2026-05-01T08:28:53.597Z</time></trkpt><trkpt lat="43.7804578" lon="11.2153721"><ele>39.0</ele><time>2026-05-01T08:28:55.597Z</time></trkpt><trkpt lat="43.7804171" lon="11.2154566"><ele>39.0</ele><time>2026-05-01T08:28:57.596Z</time></trkpt><trkpt lat="43.7803738" lon="11.2155401"><ele>39.0</ele><time>2026-05-01T08:28:59.596Z</time></trkpt><trkpt lat="43.7803323" lon="11.2156208"><ele>38.666666666666664</ele><time>2026-05-01T08:29:01.596Z</time></trkpt><trkpt lat="43.7802793" lon="11.2157301"><ele>38.333333333333336</ele><time>2026-05-01T08:29:04.597Z</time></trkpt><trkpt lat="43.7802407" lon="11.2158184"><ele>38.0</ele><time>2026-05-01T08:29:06.597Z</time></trkpt><trkpt lat="43.7802078" lon="11.2159006"><ele>37.66666666666667</ele><time>2026-05-01T08:29:08.596Z</time></trkpt><trkpt lat="43.7801674" lon="11.2159928"><ele>37.333333333333336</ele><time>2026-05-01T08:29:10.598Z</time></trkpt><trkpt lat="43.7801267" lon="11.2160975"><ele>37.0</ele><time>2026-05-01T08:29:12.595Z</time></trkpt><trkpt lat="43.7801088" lon="11.2162097"><ele>37.8</ele><time>2026-05-01T08:29:14.598Z</time></trkpt><trkpt lat="43.7799667" lon="11.2162783"><ele>38.6</ele><time>2026-05-01T08:29:18.299Z</time></trkpt><trkpt lat="43.7799701" lon="11.216405"><ele>39.4</ele><time>2026-05-01T08:29:20.299Z</time></trkpt><trkpt lat="43.7799525" lon="11.2165305"><ele>40.199999999999996</ele><time>2026-05-01T08:29:22.595Z</time></trkpt><trkpt lat="43.7799125" lon="11.2166277"><ele>41.0</ele><time>2026-05-01T08:29:24.596Z</time></trkpt><trkpt lat="43.7798721" lon="11.2167275"><ele>40.99999999999999</ele><time>2026-05-01T08:29:26.597Z</time></trkpt><trkpt lat="43.7798366" lon="11.2168154"><ele>41.0</ele><time>2026-05-01T08:29:28.596Z</time></trkpt><trkpt lat="43.779797" lon="11.2169125"><ele>41.0</ele><time>2026-05-01T08:29:31.597Z</time></trkpt><trkpt lat="43.779781" lon="11.2170238"><ele>41.0</ele><time>2026-05-01T08:29:34.596Z</time></trkpt><trkpt lat="43.779801" lon="11.2171119"><ele>41.0</ele><time>2026-05-01T08:29:36.596Z</time></trkpt><trkpt lat="43.7798198" lon="11.2172106"><ele>40.99999999999999</ele><time>2026-05-01T08:29:38.597Z</time></trkpt><trkpt lat="43.7797914" lon="11.2172947"><ele>41.0</ele><time>2026-05-01T08:29:40.596Z</time></trkpt><trkpt lat="43.7797379" lon="11.2173921"><ele>40.83333333333333</ele><time>2026-05-01T08:29:43.596Z</time></trkpt><trkpt lat="43.7796941" lon="11.2175045"><ele>40.666666666666664</ele><time>2026-05-01T08:29:46.596Z</time></trkpt><trkpt lat="43.7796586" lon="11.2176059"><ele>40.5</ele><time>2026-05-01T08:29:49.596Z</time></trkpt><trkpt lat="43.7796179" lon="11.2177072"><ele>40.333333333333336</ele><time>2026-05-01T08:29:53.597Z</time></trkpt><trkpt lat="43.7795631" lon="11.2177728"><ele>40.16666666666667</ele><time>2026-05-01T08:29:56.597Z</time></trkpt><trkpt lat="43.7795269" lon="11.2178569"><ele>40.0</ele><time>2026-05-01T08:29:59.596Z</time></trkpt><trkpt lat="43.7795129" lon="11.2179789"><ele>40.0</ele><time>2026-05-01T08:30:02.597Z</time></trkpt><trkpt lat="43.7794927" lon="11.2180954"><ele>40.0</ele><time>2026-05-01T08:30:05.597Z</time></trkpt><trkpt lat="43.7794543" lon="11.2182114"><ele>40.0</ele><time>2026-05-01T08:30:08.596Z</time></trkpt><trkpt lat="43.7794311" lon="11.2183041"><ele>40.0</ele><time>2026-05-01T08:30:10.597Z</time></trkpt><trkpt lat="43.7794078" lon="11.218394"><ele>40.0</ele><time>2026-05-01T08:30:12.597Z</time></trkpt><trkpt lat="43.7793746" lon="11.218482"><ele>40.0</ele><time>2026-05-01T08:30:14.597Z</time></trkpt><trkpt lat="43.7793364" lon="11.2185584"><ele>40.16666666666667</ele><time>2026-05-01T08:30:16.597Z</time></trkpt><trkpt lat="43.7792937" lon="11.2186245"><ele>40.333333333333336</ele><time>2026-05-01T08:30:18.596Z</time></trkpt><trkpt lat="43.7792347" lon="11.2186615"><ele>40.5</ele><time>2026-05-01T08:30:20.595Z</time></trkpt><trkpt lat="43.7791606" lon="11.2187139"><ele>40.666666666666664</ele><time>2026-05-01T08:30:23.598Z</time></trkpt><trkpt lat="43.7791322" lon="11.2188053"><ele>40.83333333333333</ele><time>2026-05-01T08:30:26.597Z</time></trkpt><trkpt lat="43.7790888" lon="11.218926"><ele>41.0</ele><time>2026-05-01T08:30:29.597Z</time></trkpt><trkpt lat="43.7790535" lon="11.2190146"><ele>41.0</ele><time>2026-05-01T08:30:31.598Z</time></trkpt><trkpt lat="43.7790092" lon="11.2191161"><ele>41.0</ele><time>2026-05-01T08:30:34.596Z</time></trkpt><trkpt lat="43.7789635" lon="11.21921"><ele>41.0</ele><time>2026-05-01T08:30:37.596Z</time></trkpt><trkpt lat="43.7789211" lon="11.2193159"><ele>41.0</ele><time>2026-05-01T08:30:40.596Z</time></trkpt><trkpt lat="43.7788867" lon="11.2193915"><ele>41.0</ele><time>2026-05-01T08:30:42.596Z</time></trkpt><trkpt lat="43.778848" lon="11.2194779"><ele>41.0</ele><time>2026-05-01T08:30:44.596Z</time></trkpt><trkpt lat="43.7788094" lon="11.2195883"><ele>41.0</ele><time>2026-05-01T08:30:46.595Z</time></trkpt><trkpt lat="43.7787705" lon="11.2196975"><ele>41.0</ele><time>2026-05-01T08:30:48.596Z</time></trkpt><trkpt lat="43.7787363" lon="11.2197978"><ele>41.0</ele><time>2026-05-01T08:30:50.597Z</time></trkpt><trkpt lat="43.7787026" lon="11.2199099"><ele>41.0</ele><time>2026-05-01T08:30:53.596Z</time></trkpt><trkpt lat="43.7786619" lon="11.2200151"><ele>41.0</ele><time>2026-05-01T08:30:56.597Z</time></trkpt><trkpt lat="43.7786323" lon="11.2201"><ele>41.0</ele><time>2026-05-01T08:30:58.596Z</time></trkpt><trkpt lat="43.7785926" lon="11.2202006"><ele>41.166666666666664</ele><time>2026-05-01T08:31:01.596Z</time></trkpt><trkpt lat="43.778556" lon="11.2202935"><ele>41.33333333333333</ele><time>2026-05-01T08:31:04.597Z</time></trkpt><trkpt lat="43.7785246" lon="11.2203762"><ele>41.5</ele><time>2026-05-01T08:31:06.596Z</time></trkpt><trkpt lat="43.7784853" lon="11.2204584"><ele>41.666666666666664</ele><time>2026-05-01T08:31:08.596Z</time></trkpt><trkpt lat="43.7784398" lon="11.2205606"><ele>41.833333333333336</ele><time>2026-05-01T08:31:11.596Z</time></trkpt><trkpt lat="43.7783959" lon="11.2206798"><ele>42.0</ele><time>2026-05-01T08:31:14.596Z</time></trkpt><trkpt lat="43.7783692" lon="11.2207631"><ele>42.666666666666664</ele><time>2026-05-01T08:31:16.596Z</time></trkpt><trkpt lat="43.7783318" lon="11.2208769"><ele>43.333333333333336</ele><time>2026-05-01T08:31:19.597Z</time></trkpt><trkpt lat="43.7782853" lon="11.2209849"><ele>44.0</ele><time>2026-05-01T08:31:22.597Z</time></trkpt><trkpt lat="43.7782439" lon="11.2210772"><ele>44.66666666666667</ele><time>2026-05-01T08:31:24.596Z</time></trkpt><trkpt lat="43.7782099" lon="11.2211696"><ele>45.333333333333336</ele><time>2026-05-01T08:31:26.597Z</time></trkpt><trkpt lat="43.7781752" lon="11.2212613"><ele>46.0</ele><time>2026-05-01T08:31:28.596Z</time></trkpt><trkpt lat="43.7781421" lon="11.2213505"><ele>46.0</ele><time>2026-05-01T08:31:30.597Z</time></trkpt><trkpt lat="43.778107" lon="11.2214343"><ele>46.0</ele><time>2026-05-01T08:31:32.596Z</time></trkpt><trkpt lat="43.7780736" lon="11.2215189"><ele>46.0</ele><time>2026-05-01T08:31:34.597Z</time></trkpt><trkpt lat="43.7780437" lon="11.2215969"><ele>46.0</ele><time>2026-05-01T08:31:36.595Z</time></trkpt><trkpt lat="43.7780261" lon="11.2216874"><ele>46.0</ele><time>2026-05-01T08:31:39.596Z</time></trkpt><trkpt lat="43.7780341" lon="11.2217991"><ele>46.0</ele><time>2026-05-01T08:31:42.596Z</time></trkpt><trkpt lat="43.7780231" lon="11.2219139"><ele>46.0</ele><time>2026-05-01T08:31:46.596Z</time></trkpt><trkpt lat="43.7779988" lon="11.2220032"><ele>46.0</ele><time>2026-05-01T08:31:48.597Z</time></trkpt><trkpt lat="43.7779785" lon="11.2220882"><ele>46.0</ele><time>2026-05-01T08:31:50.597Z</time></trkpt><trkpt lat="43.7779443" lon="11.2222034"><ele>46.0</ele><time>2026-05-01T08:31:53.596Z</time></trkpt><trkpt lat="43.7779177" lon="11.2222843"><ele>46.0</ele><time>2026-05-01T08:31:55.596Z</time></trkpt><trkpt lat="43.7778935" lon="11.2223681"><ele>46.0</ele><time>2026-05-01T08:31:57.597Z</time></trkpt><trkpt lat="43.7778482" lon="11.2224909"><ele>46.0</ele><time>2026-05-01T08:32:00.597Z</time></trkpt><trkpt lat="43.7778142" lon="11.2225865"><ele>46.0</ele><time>2026-05-01T08:32:02.597Z</time></trkpt><trkpt lat="43.7777837" lon="11.222684"><ele>46.0</ele><time>2026-05-01T08:32:04.596Z</time></trkpt><trkpt lat="43.7777501" lon="11.2227789"><ele>46.0</ele><time>2026-05-01T08:32:06.595Z</time></trkpt><trkpt lat="43.7777159" lon="11.2228684"><ele>46.0</ele><time>2026-05-01T08:32:08.596Z</time></trkpt><trkpt lat="43.7776898" lon="11.2229523"><ele>46.0</ele><time>2026-05-01T08:32:10.597Z</time></trkpt><trkpt lat="43.7776608" lon="11.2230387"><ele>46.0</ele><time>2026-05-01T08:32:12.597Z</time></trkpt><trkpt lat="43.777628" lon="11.2231374"><ele>46.0</ele><time>2026-05-01T08:32:14.596Z</time></trkpt><trkpt lat="43.7775979" lon="11.2232316"><ele>45.57142857142858</ele><time>2026-05-01T08:32:16.596Z</time></trkpt><trkpt lat="43.7775571" lon="11.223342"><ele>45.14285714285714</ele><time>2026-05-01T08:32:18.596Z</time></trkpt><trkpt lat="43.7775213" lon="11.2234346"><ele>44.714285714285715</ele><time>2026-05-01T08:32:20.596Z</time></trkpt><trkpt lat="43.7774897" lon="11.2235223"><ele>44.28571428571429</ele><time>2026-05-01T08:32:22.595Z</time></trkpt><trkpt lat="43.7774626" lon="11.2236054"><ele>43.85714285714286</ele><time>2026-05-01T08:32:24.595Z</time></trkpt><trkpt lat="43.7774192" lon="11.2236938"><ele>43.42857142857143</ele><time>2026-05-01T08:32:27.596Z</time></trkpt><trkpt lat="43.7773592" lon="11.2237299"><ele>43.0</ele><time>2026-05-01T08:32:29.596Z</time></trkpt><trkpt lat="43.777316" lon="11.2237987"><ele>43.0</ele><time>2026-05-01T08:32:31.595Z</time></trkpt><trkpt lat="43.7772774" lon="11.2239049"><ele>43.0</ele><time>2026-05-01T08:32:33.596Z</time></trkpt><trkpt lat="43.7772322" lon="11.2240113"><ele>43.0</ele><time>2026-05-01T08:32:35.595Z</time></trkpt><trkpt lat="43.7771901" lon="11.2241089"><ele>43.0</ele><time>2026-05-01T08:32:37.596Z</time></trkpt><trkpt lat="43.7771658" lon="11.2242282"><ele>43.0</ele><time>2026-05-01T08:32:40.595Z</time></trkpt><trkpt lat="43.7771842" lon="11.2243116"><ele>43.0</ele><time>2026-05-01T08:32:42.596Z</time></trkpt><trkpt lat="43.7772106" lon="11.2244245"><ele>42.833333333333336</ele><time>2026-05-01T08:32:44.595Z</time></trkpt><trkpt lat="43.7772162" lon="11.2245381"><ele>42.66666666666667</ele><time>2026-05-01T08:32:46.595Z</time></trkpt><trkpt lat="43.7771969" lon="11.2246536"><ele>42.5</ele><time>2026-05-01T08:32:48.596Z</time></trkpt><trkpt lat="43.777162" lon="11.2247609"><ele>42.333333333333336</ele><time>2026-05-01T08:32:50.596Z</time></trkpt><trkpt lat="43.7771251" lon="11.2248664"><ele>42.166666666666664</ele><time>2026-05-01T08:32:52.594Z</time></trkpt><trkpt lat="43.7770907" lon="11.224972"><ele>42.0</ele><time>2026-05-01T08:32:54.596Z</time></trkpt><trkpt lat="43.7770625" lon="11.2250752"><ele>42.0</ele><time>2026-05-01T08:32:56.597Z</time></trkpt><trkpt lat="43.7770385" lon="11.2251852"><ele>42.0</ele><time>2026-05-01T08:32:58.596Z</time></trkpt><trkpt lat="43.777008" lon="11.2252944"><ele>42.0</ele><time>2026-05-01T08:33:00.596Z</time></trkpt><trkpt lat="43.7769783" lon="11.2253899"><ele>42.0</ele><time>2026-05-01T08:33:02.596Z</time></trkpt><trkpt lat="43.7769524" lon="11.2254818"><ele>42.0</ele><time>2026-05-01T08:33:04.596Z</time></trkpt><trkpt lat="43.7769262" lon="11.2255792"><ele>42.0</ele><time>2026-05-01T08:33:06.596Z</time></trkpt><trkpt lat="43.7768966" lon="11.2256681"><ele>42.166666666666664</ele><time>2026-05-01T08:33:08.597Z</time></trkpt><trkpt lat="43.7768635" lon="11.2257539"><ele>42.333333333333336</ele><time>2026-05-01T08:33:10.596Z</time></trkpt><trkpt lat="43.7768401" lon="11.225848"><ele>42.5</ele><time>2026-05-01T08:33:12.596Z</time></trkpt><trkpt lat="43.7768213" lon="11.2259549"><ele>42.66666666666667</ele><time>2026-05-01T08:33:14.595Z</time></trkpt><trkpt lat="43.7767914" lon="11.2260591"><ele>42.833333333333336</ele><time>2026-05-01T08:33:16.596Z</time></trkpt><trkpt lat="43.7767567" lon="11.2261581"><ele>43.0</ele><time>2026-05-01T08:33:18.595Z</time></trkpt><trkpt lat="43.7767247" lon="11.2262574"><ele>43.0</ele><time>2026-05-01T08:33:20.595Z</time></trkpt><trkpt lat="43.7766836" lon="11.2263533"><ele>43.0</ele><time>2026-05-01T08:33:22.596Z</time></trkpt><trkpt lat="43.7766369" lon="11.2264528"><ele>43.0</ele><time>2026-05-01T08:33:24.595Z</time></trkpt><trkpt lat="43.7765985" lon="11.2265506"><ele>43.0</ele><time>2026-05-01T08:33:26.594Z</time></trkpt><trkpt lat="43.7765636" lon="11.2266561"><ele>43.0</ele><time>2026-05-01T08:33:28.595Z</time></trkpt><trkpt lat="43.7765331" lon="11.2267558"><ele>43.0</ele><time>2026-05-01T08:33:30.596Z</time></trkpt><trkpt lat="43.7765042" lon="11.2268613"><ele>43.0</ele><time>2026-05-01T08:33:32.597Z</time></trkpt><trkpt lat="43.776477" lon="11.2269693"><ele>43.0</ele><time>2026-05-01T08:33:34.596Z</time></trkpt><trkpt lat="43.7764481" lon="11.2270766"><ele>43.0</ele><time>2026-05-01T08:33:36.597Z</time></trkpt><trkpt lat="43.7764111" lon="11.2271696"><ele>43.0</ele><time>2026-05-01T08:33:38.596Z</time></trkpt><trkpt lat="43.7763741" lon="11.2272572"><ele>43.0</ele><time>2026-05-01T08:33:40.596Z</time></trkpt><trkpt lat="43.7763345" lon="11.2273474"><ele>43.0</ele><time>2026-05-01T08:33:42.596Z</time></trkpt><trkpt lat="43.776299" lon="11.2274391"><ele>43.0</ele><time>2026-05-01T08:33:44.595Z</time></trkpt><trkpt lat="43.7762657" lon="11.227533"><ele>43.0</ele><time>2026-05-01T08:33:46.597Z</time></trkpt><trkpt lat="43.7762335" lon="11.2276324"><ele>43.0</ele><time>2026-05-01T08:33:48.597Z</time></trkpt><trkpt lat="43.7762052" lon="11.2277301"><ele>43.0</ele><time>2026-05-01T08:33:50.597Z</time></trkpt><trkpt lat="43.7761724" lon="11.2278295"><ele>43.0</ele><time>2026-05-01T08:33:52.595Z</time></trkpt><trkpt lat="43.7761385" lon="11.2279281"><ele>43.0</ele><time>2026-05-01T08:33:54.597Z</time></trkpt><trkpt lat="43.7761051" lon="11.2280288"><ele>43.00000000000001</ele><time>2026-05-01T08:33:56.596Z</time></trkpt><trkpt lat="43.7760746" lon="11.2281254"><ele>43.0</ele><time>2026-05-01T08:33:58.596Z</time></trkpt><trkpt lat="43.7760392" lon="11.2282165"><ele>43.0</ele><time>2026-05-01T08:34:00.597Z</time></trkpt><trkpt lat="43.776005" lon="11.2283067"><ele>43.0</ele><time>2026-05-01T08:34:02.596Z</time></trkpt><trkpt lat="43.7759789" lon="11.2284001"><ele>43.0</ele><time>2026-05-01T08:34:04.597Z</time></trkpt><trkpt lat="43.7759522" lon="11.2284931"><ele>43.00000000000001</ele><time>2026-05-01T08:34:06.596Z</time></trkpt><trkpt lat="43.7759226" lon="11.2285856"><ele>43.0</ele><time>2026-05-01T08:34:08.597Z</time></trkpt><trkpt lat="43.7758964" lon="11.2286678"><ele>43.0</ele><time>2026-05-01T08:34:10.595Z</time></trkpt><trkpt lat="43.7758653" lon="11.2287829"><ele>43.0</ele><time>2026-05-01T08:34:13.596Z</time></trkpt><trkpt lat="43.7758477" lon="11.2289089"><ele>43.0</ele><time>2026-05-01T08:34:16.596Z</time></trkpt><trkpt lat="43.7758927" lon="11.2289974"><ele>43.0</ele><time>2026-05-01T08:34:19.596Z</time></trkpt><trkpt lat="43.7759709" lon="11.2290498"><ele>43.0</ele><time>2026-05-01T08:34:22.596Z</time></trkpt><trkpt lat="43.7760435" lon="11.2291041"><ele>43.0</ele><time>2026-05-01T08:34:25.597Z</time></trkpt><trkpt lat="43.7761212" lon="11.2291612"><ele>42.833333333333336</ele><time>2026-05-01T08:34:28.596Z</time></trkpt><trkpt lat="43.7761874" lon="11.2292035"><ele>42.66666666666667</ele><time>2026-05-01T08:34:32.596Z</time></trkpt><trkpt lat="43.7762439" lon="11.2292432"><ele>42.5</ele><time>2026-05-01T08:34:36.596Z</time></trkpt><trkpt lat="43.7763155" lon="11.229287"><ele>42.333333333333336</ele><time>2026-05-01T08:34:39.597Z</time></trkpt><trkpt lat="43.7763956" lon="11.2293539"><ele>42.166666666666664</ele><time>2026-05-01T08:34:42.595Z</time></trkpt><trkpt lat="43.7764692" lon="11.2294153"><ele>42.0</ele><time>2026-05-01T08:34:45.596Z</time></trkpt><trkpt lat="43.7765292" lon="11.2294648"><ele>42.0</ele><time>2026-05-01T08:34:48.595Z</time></trkpt><trkpt lat="43.7765982" lon="11.2295183"><ele>42.0</ele><time>2026-05-01T08:34:51.597Z</time></trkpt><trkpt lat="43.7766797" lon="11.229575"><ele>42.0</ele><time>2026-05-01T08:34:54.596Z</time></trkpt><trkpt lat="43.7767426" lon="11.2296086"><ele>42.0</ele><time>2026-05-01T08:34:56.596Z</time></trkpt><trkpt lat="43.776811" lon="11.2296496"><ele>42.0</ele><time>2026-05-01T08:34:58.597Z</time></trkpt><trkpt lat="43.7768649" lon="11.2297122"><ele>42.0</ele><time>2026-05-01T08:35:00.596Z</time></trkpt><trkpt lat="43.7769166" lon="11.2298475"><ele>42.2</ele><time>2026-05-01T08:35:02.597Z</time></trkpt><trkpt lat="43.7769241" lon="11.2299763"><ele>42.400000000000006</ele><time>2026-05-01T08:35:04.596Z</time></trkpt><trkpt lat="43.7769099" lon="11.2301024"><ele>42.599999999999994</ele><time>2026-05-01T08:35:06.595Z</time></trkpt><trkpt lat="43.7768785" lon="11.2302316"><ele>42.8</ele><time>2026-05-01T08:35:08.595Z</time></trkpt><trkpt lat="43.7768542" lon="11.2303518"><ele>43.0</ele><time>2026-05-01T08:35:10.595Z</time></trkpt><trkpt lat="43.7768151" lon="11.2304522"><ele>43.0</ele><time>2026-05-01T08:35:12.596Z</time></trkpt><trkpt lat="43.7767827" lon="11.2305477"><ele>43.0</ele><time>2026-05-01T08:35:14.596Z</time></trkpt><trkpt lat="43.7767325" lon="11.2306526"><ele>43.0</ele><time>2026-05-01T08:35:16.596Z</time></trkpt><trkpt lat="43.7767058" lon="11.2307739"><ele>43.0</ele><time>2026-05-01T08:35:18.595Z</time></trkpt><trkpt lat="43.7766737" lon="11.2308915"><ele>43.0</ele><time>2026-05-01T08:35:20.597Z</time></trkpt><trkpt lat="43.7766383" lon="11.2310003"><ele>43.0</ele><time>2026-05-01T08:35:22.595Z</time></trkpt><trkpt lat="43.7766076" lon="11.2311068"><ele>43.16666666666667</ele><time>2026-05-01T08:35:24.596Z</time></trkpt><trkpt lat="43.7765773" lon="11.2312176"><ele>43.333333333333336</ele><time>2026-05-01T08:35:26.596Z</time></trkpt><trkpt lat="43.7765494" lon="11.2313266"><ele>43.5</ele><time>2026-05-01T08:35:28.595Z</time></trkpt><trkpt lat="43.7765168" lon="11.2314316"><ele>43.666666666666664</ele><time>2026-05-01T08:35:30.596Z</time></trkpt><trkpt lat="43.7764829" lon="11.2315391"><ele>43.83333333333333</ele><time>2026-05-01T08:35:32.596Z</time></trkpt><trkpt lat="43.7764597" lon="11.2316504"><ele>44.0</ele><time>2026-05-01T08:35:34.595Z</time></trkpt><trkpt lat="43.7764354" lon="11.2317586"><ele>44.666666666666664</ele><time>2026-05-01T08:35:36.595Z</time></trkpt><trkpt lat="43.7764084" lon="11.2318653"><ele>45.33333333333333</ele><time>2026-05-01T08:35:38.596Z</time></trkpt><trkpt lat="43.7763779" lon="11.2319655"><ele>46.0</ele><time>2026-05-01T08:35:40.597Z</time></trkpt><trkpt lat="43.7763481" lon="11.2320704"><ele>46.666666666666664</ele><time>2026-05-01T08:35:42.596Z</time></trkpt><trkpt lat="43.7763185" lon="11.2321727"><ele>47.333333333333336</ele><time>2026-05-01T08:35:44.595Z</time></trkpt><trkpt lat="43.776286" lon="11.2322724"><ele>48.0</ele><time>2026-05-01T08:35:46.597Z</time></trkpt><trkpt lat="43.7762515" lon="11.2323681"><ele>48.333333333333336</ele><time>2026-05-01T08:35:48.596Z</time></trkpt><trkpt lat="43.77622" lon="11.2324628"><ele>48.66666666666667</ele><time>2026-05-01T08:35:50.595Z</time></trkpt><trkpt lat="43.7761872" lon="11.2325553"><ele>49.0</ele><time>2026-05-01T08:35:52.597Z</time></trkpt><trkpt lat="43.7761523" lon="11.2326493"><ele>49.333333333333336</ele><time>2026-05-01T08:35:54.594Z</time></trkpt><trkpt lat="43.776121" lon="11.2327456"><ele>49.66666666666667</ele><time>2026-05-01T08:35:56.595Z</time></trkpt><trkpt lat="43.7760866" lon="11.232839"><ele>50.0</ele><time>2026-05-01T08:35:58.595Z</time></trkpt><trkpt lat="43.7760535" lon="11.2329344"><ele>50.00000000000001</ele><time>2026-05-01T08:36:00.596Z</time></trkpt><trkpt lat="43.7760287" lon="11.2330311"><ele>50.0</ele><time>2026-05-01T08:36:02.597Z</time></trkpt><trkpt lat="43.7760037" lon="11.2331244"><ele>50.0</ele><time>2026-05-01T08:36:04.596Z</time></trkpt><trkpt lat="43.7759769" lon="11.2332177"><ele>50.0</ele><time>2026-05-01T08:36:06.597Z</time></trkpt><trkpt lat="43.7759528" lon="11.2333097"><ele>50.0</ele><time>2026-05-01T08:36:08.596Z</time></trkpt><trkpt lat="43.7759315" lon="11.2334036"><ele>50.00000000000001</ele><time>2026-05-01T08:36:10.596Z</time></trkpt><trkpt lat="43.775913" lon="11.2334895"><ele>50.0</ele><time>2026-05-01T08:36:12.595Z</time></trkpt><trkpt lat="43.7758964" lon="11.2335743"><ele>49.142857142857146</ele><time>2026-05-01T08:36:14.596Z</time></trkpt><trkpt lat="43.7758819" lon="11.2336637"><ele>48.285714285714285</ele><time>2026-05-01T08:36:16.597Z</time></trkpt><trkpt lat="43.7758652" lon="11.2337501"><ele>47.42857142857143</ele><time>2026-05-01T08:36:18.596Z</time></trkpt><trkpt lat="43.7758697" lon="11.2338825"><ele>46.57142857142857</ele><time>2026-05-01T08:36:21.596Z</time></trkpt><trkpt lat="43.7758592" lon="11.2339821"><ele>45.714285714285715</ele><time>2026-05-01T08:36:23.597Z</time></trkpt><trkpt lat="43.7758495" lon="11.2340818"><ele>44.85714285714286</ele><time>2026-05-01T08:36:25.596Z</time></trkpt><trkpt lat="43.775847" lon="11.2341812"><ele>44.0</ele><time>2026-05-01T08:36:27.596Z</time></trkpt><trkpt lat="43.7758455" lon="11.2342779"><ele>44.0</ele><time>2026-05-01T08:36:29.595Z</time></trkpt><trkpt lat="43.7758521" lon="11.2343718"><ele>44.0</ele><time>2026-05-01T08:36:31.596Z</time></trkpt><trkpt lat="43.7758758" lon="11.2344643"><ele>44.0</ele><time>2026-05-01T08:36:33.596Z</time></trkpt><trkpt lat="43.7759014" lon="11.2345526"><ele>44.0</ele><time>2026-05-01T08:36:35.596Z</time></trkpt><trkpt lat="43.775937" lon="11.2346387"><ele>44.0</ele><time>2026-05-01T08:36:37.596Z</time></trkpt><trkpt lat="43.7759796" lon="11.2347187"><ele>44.0</ele><time>2026-05-01T08:36:39.597Z</time></trkpt><trkpt lat="43.7760253" lon="11.2347937"><ele>44.0</ele><time>2026-05-01T08:36:41.595Z</time></trkpt><trkpt lat="43.7760639" lon="11.2348801"><ele>44.0</ele><time>2026-05-01T08:36:43.595Z</time></trkpt><trkpt lat="43.7760961" lon="11.2349735"><ele>44.0</ele><time>2026-05-01T08:36:45.596Z</time></trkpt><trkpt lat="43.7761166" lon="11.2350765"><ele>44.0</ele><time>2026-05-01T08:36:47.594Z</time></trkpt><trkpt lat="43.776126" lon="11.2351774"><ele>44.0</ele><time>2026-05-01T08:36:49.596Z</time></trkpt><trkpt lat="43.7761186" lon="11.2352829"><ele>44.0</ele><time>2026-05-01T08:36:51.596Z</time></trkpt><trkpt lat="43.7761142" lon="11.235391"><ele>44.0</ele><time>2026-05-01T08:36:53.596Z</time></trkpt><trkpt lat="43.7760986" lon="11.2354927"><ele>44.0</ele><time>2026-05-01T08:36:55.595Z</time></trkpt><trkpt lat="43.7760746" lon="11.2355936"><ele>44.0</ele><time>2026-05-01T08:36:57.596Z</time></trkpt><trkpt lat="43.7760386" lon="11.235691"><ele>44.0</ele><time>2026-05-01T08:36:59.594Z</time></trkpt><trkpt lat="43.7760029" lon="11.2357735"><ele>44.0</ele><time>2026-05-01T08:37:01.595Z</time></trkpt><trkpt lat="43.775972" lon="11.2358586"><ele>44.0</ele><time>2026-05-01T08:37:03.596Z</time></trkpt><trkpt lat="43.7759508" lon="11.2359408"><ele>44.0</ele><time>2026-05-01T08:37:05.595Z</time></trkpt><trkpt lat="43.7759184" lon="11.2360575"><ele>44.0</ele><time>2026-05-01T08:37:08.594Z</time></trkpt><trkpt lat="43.7758892" lon="11.2361419"><ele>44.285714285714285</ele><time>2026-05-01T08:37:10.559Z</time></trkpt><trkpt lat="43.7758699" lon="11.2362381"><ele>44.57142857142857</ele><time>2026-05-01T08:37:12.596Z</time></trkpt><trkpt lat="43.7758621" lon="11.2363428"><ele>44.85714285714286</ele><time>2026-05-01T08:37:14.595Z</time></trkpt><trkpt lat="43.7758446" lon="11.2364548"><ele>45.14285714285714</ele><time>2026-05-01T08:37:16.596Z</time></trkpt><trkpt lat="43.7758073" lon="11.2365609"><ele>45.42857142857142</ele><time>2026-05-01T08:37:18.596Z</time></trkpt><trkpt lat="43.775782" lon="11.2366457"><ele>45.714285714285715</ele><time>2026-05-01T08:37:20.596Z</time></trkpt><trkpt lat="43.7757295" lon="11.2366943"><ele>46.0</ele><time>2026-05-01T08:37:22.595Z</time></trkpt><trkpt lat="43.7756492" lon="11.236697"><ele>46.16666666666667</ele><time>2026-05-01T08:37:25.597Z</time></trkpt><trkpt lat="43.7756076" lon="11.236768"><ele>46.333333333333336</ele><time>2026-05-01T08:37:27.597Z</time></trkpt><trkpt lat="43.7755308" lon="11.2367376"><ele>46.5</ele><time>2026-05-01T08:37:31.596Z</time></trkpt><trkpt lat="43.7754633" lon="11.2366946"><ele>46.666666666666664</ele><time>2026-05-01T08:37:33.595Z</time></trkpt><trkpt lat="43.7753842" lon="11.2366272"><ele>46.83333333333333</ele><time>2026-05-01T08:37:35.595Z</time></trkpt><trkpt lat="43.7753129" lon="11.2365686"><ele>47.0</ele><time>2026-05-01T08:37:37.595Z</time></trkpt><trkpt lat="43.7752445" lon="11.2365156"><ele>47.166666666666664</ele><time>2026-05-01T08:37:39.594Z</time></trkpt><trkpt lat="43.7751831" lon="11.2364654"><ele>47.33333333333333</ele><time>2026-05-01T08:37:41.597Z</time></trkpt><trkpt lat="43.7751191" lon="11.2364103"><ele>47.5</ele><time>2026-05-01T08:37:43.596Z</time></trkpt><trkpt lat="43.775051" lon="11.2363865"><ele>47.666666666666664</ele><time>2026-05-01T08:37:45.596Z</time></trkpt><trkpt lat="43.775" lon="11.236438"><ele>47.833333333333336</ele><time>2026-05-01T08:37:47.596Z</time></trkpt><trkpt lat="43.7749653" lon="11.2365398"><ele>48.0</ele><time>2026-05-01T08:37:49.597Z</time></trkpt><trkpt lat="43.7749354" lon="11.2366561"><ele>48.0</ele><time>2026-05-01T08:37:51.595Z</time></trkpt><trkpt lat="43.7749087" lon="11.2367701"><ele>48.0</ele><time>2026-05-01T08:37:53.596Z</time></trkpt><trkpt lat="43.7748796" lon="11.2368755"><ele>48.0</ele><time>2026-05-01T08:37:55.597Z</time></trkpt><trkpt lat="43.7748573" lon="11.2369785"><ele>48.0</ele><time>2026-05-01T08:37:57.596Z</time></trkpt><trkpt lat="43.7748281" lon="11.2370709"><ele>48.0</ele><time>2026-05-01T08:37:59.596Z</time></trkpt><trkpt lat="43.7747953" lon="11.2371649"><ele>48.0</ele><time>2026-05-01T08:38:01.597Z</time></trkpt><trkpt lat="43.7747629" lon="11.237253"><ele>48.42857142857142</ele><time>2026-05-01T08:38:03.596Z</time></trkpt><trkpt lat="43.7747332" lon="11.2373373"><ele>48.857142857142854</ele><time>2026-05-01T08:38:05.596Z</time></trkpt><trkpt lat="43.774705" lon="11.2374258"><ele>49.285714285714285</ele><time>2026-05-01T08:38:07.595Z</time></trkpt><trkpt lat="43.774686" lon="11.2375206"><ele>49.71428571428571</ele><time>2026-05-01T08:38:09.595Z</time></trkpt><trkpt lat="43.7746666" lon="11.2376219"><ele>50.142857142857146</ele><time>2026-05-01T08:38:11.596Z</time></trkpt><trkpt lat="43.7746463" lon="11.2377285"><ele>50.57142857142857</ele><time>2026-05-01T08:38:13.596Z</time></trkpt><trkpt lat="43.7746266" lon="11.2378328"><ele>51.0</ele><time>2026-05-01T08:38:15.596Z</time></trkpt><trkpt lat="43.7746041" lon="11.2379426"><ele>51.0</ele><time>2026-05-01T08:38:17.597Z</time></trkpt><trkpt lat="43.7745756" lon="11.238053"><ele>51.0</ele><time>2026-05-01T08:38:19.596Z</time></trkpt><trkpt lat="43.7745487" lon="11.2381477"><ele>51.0</ele><time>2026-05-01T08:38:21.596Z</time></trkpt><trkpt lat="43.7745194" lon="11.2382403"><ele>51.0</ele><time>2026-05-01T08:38:23.595Z</time></trkpt><trkpt lat="43.7744794" lon="11.2383205"><ele>51.0</ele><time>2026-05-01T08:38:25.595Z</time></trkpt><trkpt lat="43.7744429" lon="11.2384004"><ele>51.0</ele><time>2026-05-01T08:38:27.597Z</time></trkpt><trkpt lat="43.7744091" lon="11.238491"><ele>51.0</ele><time>2026-05-01T08:38:29.595Z</time></trkpt><trkpt lat="43.7743885" lon="11.2385794"><ele>51.142857142857146</ele><time>2026-05-01T08:38:31.596Z</time></trkpt><trkpt lat="43.7743679" lon="11.2386725"><ele>51.28571428571429</ele><time>2026-05-01T08:38:33.596Z</time></trkpt><trkpt lat="43.7743467" lon="11.2387686"><ele>51.42857142857143</ele><time>2026-05-01T08:38:35.596Z</time></trkpt><trkpt lat="43.774325" lon="11.2388618"><ele>51.57142857142857</ele><time>2026-05-01T08:38:37.595Z</time></trkpt><trkpt lat="43.774303" lon="11.2389478"><ele>51.714285714285715</ele><time>2026-05-01T08:38:39.594Z</time></trkpt><trkpt lat="43.774284" lon="11.2390362"><ele>51.857142857142854</ele><time>2026-05-01T08:38:41.596Z</time></trkpt><trkpt lat="43.774252" lon="11.2391301"><ele>52.0</ele><time>2026-05-01T08:38:43.596Z</time></trkpt><trkpt lat="43.774225" lon="11.2392149"><ele>51.666666666666664</ele><time>2026-05-01T08:38:45.596Z</time></trkpt><trkpt lat="43.7741904" lon="11.2393287"><ele>51.33333333333333</ele><time>2026-05-01T08:38:48.595Z</time></trkpt><trkpt lat="43.7741557" lon="11.2394072"><ele>51.0</ele><time>2026-05-01T08:38:51.595Z</time></trkpt><trkpt lat="43.7740765" lon="11.2394552"><ele>50.66666666666667</ele><time>2026-05-01T08:39:13.596Z</time></trkpt><trkpt lat="43.7740518" lon="11.2395494"><ele>50.333333333333336</ele><time>2026-05-01T08:39:17.595Z</time></trkpt><trkpt lat="43.7740176" lon="11.2396301"><ele>50.0</ele><time>2026-05-01T08:39:21.596Z</time></trkpt><trkpt lat="43.7739789" lon="11.239718"><ele>50.28571428571429</ele><time>2026-05-01T08:39:26.596Z</time></trkpt><trkpt lat="43.7739469" lon="11.2398109"><ele>50.57142857142857</ele><time>2026-05-01T08:39:31.595Z</time></trkpt><trkpt lat="43.7739134" lon="11.2398924"><ele>50.85714285714286</ele><time>2026-05-01T08:39:36.595Z</time></trkpt><trkpt lat="43.7738894" lon="11.2399798"><ele>51.142857142857146</ele><time>2026-05-01T08:39:41.596Z</time></trkpt><trkpt lat="43.7738656" lon="11.2400616"><ele>51.42857142857143</ele><time>2026-05-01T08:39:46.594Z</time></trkpt><trkpt lat="43.7738361" lon="11.2401434"><ele>51.714285714285715</ele><time>2026-05-01T08:39:51.595Z</time></trkpt><trkpt lat="43.7738127" lon="11.2402257"><ele>52.0</ele><time>2026-05-01T08:39:56.595Z</time></trkpt><trkpt lat="43.7737817" lon="11.2403203"><ele>52.0</ele><time>2026-05-01T08:40:02.595Z</time></trkpt><trkpt lat="43.773746" lon="11.2404063"><ele>52.0</ele><time>2026-05-01T08:40:08.595Z</time></trkpt><trkpt lat="43.7737077" lon="11.2404939"><ele>52.0</ele><time>2026-05-01T08:40:14.595Z</time></trkpt><trkpt lat="43.7736739" lon="11.2405763"><ele>52.0</ele><time>2026-05-01T08:40:20.596Z</time></trkpt><trkpt lat="43.7736407" lon="11.2406549"><ele>52.0</ele><time>2026-05-01T08:40:26.596Z</time></trkpt><trkpt lat="43.7736071" lon="11.2407435"><ele>52.0</ele><time>2026-05-01T08:40:32.595Z</time></trkpt><trkpt lat="43.7735839" lon="11.2408402"><ele>52.0</ele><time>2026-05-01T08:40:40.595Z</time></trkpt><trkpt lat="43.773546" lon="11.24095"><ele>51.0</ele><time>2026-05-01T08:40:43.596Z</time></trkpt><trkpt lat="43.7735187" lon="11.2410349"><ele>50.0</ele><time>2026-05-01T08:40:45.596Z</time></trkpt><trkpt lat="43.7734891" lon="11.2411311"><ele>49.0</ele><time>2026-05-01T08:40:47.595Z</time></trkpt><trkpt lat="43.7734533" lon="11.2412275"><ele>48.0</ele><time>2026-05-01T08:40:49.596Z</time></trkpt><trkpt lat="43.7734192" lon="11.2413233"><ele>47.0</ele><time>2026-05-01T08:40:51.595Z</time></trkpt><trkpt lat="43.7733885" lon="11.2414174"><ele>46.0</ele><time>2026-05-01T08:40:53.596Z</time></trkpt><trkpt lat="43.7733545" lon="11.2415095"><ele>45.0</ele><time>2026-05-01T08:40:55.596Z</time></trkpt><trkpt lat="43.7733235" lon="11.2416071"><ele>44.857142857142854</ele><time>2026-05-01T08:40:57.594Z</time></trkpt><trkpt lat="43.7732932" lon="11.2416939"><ele>44.714285714285715</ele><time>2026-05-01T08:40:59.594Z</time></trkpt><trkpt lat="43.7732603" lon="11.2417812"><ele>44.57142857142857</ele><time>2026-05-01T08:41:01.595Z</time></trkpt><trkpt lat="43.7732249" lon="11.2418674"><ele>44.42857142857143</ele><time>2026-05-01T08:41:03.595Z</time></trkpt><trkpt lat="43.7731897" lon="11.2419597"><ele>44.285714285714285</ele><time>2026-05-01T08:41:05.594Z</time></trkpt><trkpt lat="43.7731586" lon="11.2420578"><ele>44.142857142857146</ele><time>2026-05-01T08:41:07.595Z</time></trkpt><trkpt lat="43.7731336" lon="11.2421523"><ele>44.0</ele><time>2026-05-01T08:41:09.595Z</time></trkpt><trkpt lat="43.7731046" lon="11.2422404"><ele>45.166666666666664</ele><time>2026-05-01T08:41:11.594Z</time></trkpt><trkpt lat="43.77307" lon="11.2423273"><ele>46.33333333333333</ele><time>2026-05-01T08:41:13.595Z</time></trkpt><trkpt lat="43.7730401" lon="11.2424276"><ele>47.5</ele><time>2026-05-01T08:41:15.596Z</time></trkpt><trkpt lat="43.7730129" lon="11.2425203"><ele>48.666666666666664</ele><time>2026-05-01T08:41:17.596Z</time></trkpt><trkpt lat="43.772986" lon="11.242625"><ele>49.833333333333336</ele><time>2026-05-01T08:41:20.594Z</time></trkpt><trkpt lat="43.7729556" lon="11.2427192"><ele>51.0</ele><time>2026-05-01T08:41:22.596Z</time></trkpt><trkpt lat="43.7729234" lon="11.2428099"><ele>51.0</ele><time>2026-05-01T08:41:24.594Z</time></trkpt><trkpt lat="43.7728944" lon="11.2428952"><ele>51.0</ele><time>2026-05-01T08:41:26.595Z</time></trkpt><trkpt lat="43.7728661" lon="11.2429799"><ele>51.0</ele><time>2026-05-01T08:41:28.594Z</time></trkpt><trkpt lat="43.7728392" lon="11.2430598"><ele>51.0</ele><time>2026-05-01T08:41:30.594Z</time></trkpt><trkpt lat="43.7728035" lon="11.2431767"><ele>51.0</ele><time>2026-05-01T08:41:33.595Z</time></trkpt><trkpt lat="43.7727683" lon="11.2432735"><ele>51.0</ele><time>2026-05-01T08:41:36.595Z</time></trkpt><trkpt lat="43.7727324" lon="11.2433623"><ele>51.0</ele><time>2026-05-01T08:41:41.595Z</time></trkpt><trkpt lat="43.772694" lon="11.2434537"><ele>50.333333333333336</ele><time>2026-05-01T08:41:46.594Z</time></trkpt><trkpt lat="43.7726442" lon="11.2435524"><ele>49.666666666666664</ele><time>2026-05-01T08:41:49.595Z</time></trkpt><trkpt lat="43.7726058" lon="11.243633"><ele>49.0</ele><time>2026-05-01T08:41:51.596Z</time></trkpt><trkpt lat="43.7725652" lon="11.2437305"><ele>48.33333333333333</ele><time>2026-05-01T08:41:53.595Z</time></trkpt><trkpt lat="43.7725244" lon="11.2438488"><ele>47.666666666666664</ele><time>2026-05-01T08:41:55.595Z</time></trkpt><trkpt lat="43.772479" lon="11.2439577"><ele>47.0</ele><time>2026-05-01T08:41:57.597Z</time></trkpt><trkpt lat="43.7724379" lon="11.2440623"><ele>48.14285714285714</ele><time>2026-05-01T08:41:59.594Z</time></trkpt><trkpt lat="43.7724037" lon="11.2441547"><ele>49.285714285714285</ele><time>2026-05-01T08:42:01.596Z</time></trkpt><trkpt lat="43.7723709" lon="11.2442429"><ele>50.42857142857143</ele><time>2026-05-01T08:42:03.595Z</time></trkpt><trkpt lat="43.7723324" lon="11.2443329"><ele>51.57142857142857</ele><time>2026-05-01T08:42:05.595Z</time></trkpt><trkpt lat="43.7722968" lon="11.2444176"><ele>52.714285714285715</ele><time>2026-05-01T08:42:07.596Z</time></trkpt><trkpt lat="43.7722713" lon="11.2445055"><ele>53.857142857142854</ele><time>2026-05-01T08:42:09.595Z</time></trkpt><trkpt lat="43.7722417" lon="11.2445918"><ele>55.0</ele><time>2026-05-01T08:42:11.595Z</time></trkpt><trkpt lat="43.7722058" lon="11.2447048"><ele>54.83333333333333</ele><time>2026-05-01T08:42:14.595Z</time></trkpt><trkpt lat="43.772172" lon="11.2448051"><ele>54.666666666666664</ele><time>2026-05-01T08:42:17.595Z</time></trkpt><trkpt lat="43.7721344" lon="11.2448758"><ele>54.5</ele><time>2026-05-01T08:42:21.593Z</time></trkpt><trkpt lat="43.7720765" lon="11.2449734"><ele>54.33333333333333</ele><time>2026-05-01T08:42:24.595Z</time></trkpt><trkpt lat="43.7720243" lon="11.2450852"><ele>54.166666666666664</ele><time>2026-05-01T08:42:27.594Z</time></trkpt><trkpt lat="43.7719771" lon="11.2451583"><ele>54.0</ele><time>2026-05-01T08:42:29.594Z</time></trkpt><trkpt lat="43.7719293" lon="11.2452423"><ele>54.0</ele><time>2026-05-01T08:42:31.595Z</time></trkpt><trkpt lat="43.7718917" lon="11.2453303"><ele>54.0</ele><time>2026-05-01T08:42:33.596Z</time></trkpt><trkpt lat="43.7718537" lon="11.2454219"><ele>54.0</ele><time>2026-05-01T08:42:35.595Z</time></trkpt><trkpt lat="43.7718155" lon="11.2455211"><ele>54.0</ele><time>2026-05-01T08:42:37.593Z</time></trkpt><trkpt lat="43.7717736" lon="11.2456255"><ele>54.0</ele><time>2026-05-01T08:42:39.596Z</time></trkpt><trkpt lat="43.7717307" lon="11.2457254"><ele>54.0</ele><time>2026-05-01T08:42:41.593Z</time></trkpt><trkpt lat="43.771686" lon="11.2458227"><ele>55.666666666666664</ele><time>2026-05-01T08:42:43.595Z</time></trkpt><trkpt lat="43.7716437" lon="11.2459104"><ele>57.33333333333333</ele><time>2026-05-01T08:42:45.595Z</time></trkpt><trkpt lat="43.7716023" lon="11.2460059"><ele>59.0</ele><time>2026-05-01T08:42:47.594Z</time></trkpt><trkpt lat="43.771561" lon="11.2461095"><ele>60.666666666666664</ele><time>2026-05-01T08:42:49.594Z</time></trkpt><trkpt lat="43.7715248" lon="11.246205"><ele>62.33333333333333</ele><time>2026-05-01T08:42:51.595Z</time></trkpt><trkpt lat="43.7714892" lon="11.2463011"><ele>64.0</ele><time>2026-05-01T08:42:53.596Z</time></trkpt><trkpt lat="43.7714507" lon="11.2463987"><ele>62.83333333333333</ele><time>2026-05-01T08:42:55.595Z</time></trkpt><trkpt lat="43.7714164" lon="11.2464986"><ele>61.666666666666664</ele><time>2026-05-01T08:42:57.594Z</time></trkpt><trkpt lat="43.7713787" lon="11.2465904"><ele>60.5</ele><time>2026-05-01T08:42:59.596Z</time></trkpt><trkpt lat="43.7713413" lon="11.2466888"><ele>59.33333333333333</ele><time>2026-05-01T08:43:01.596Z</time></trkpt><trkpt lat="43.7713025" lon="11.246791"><ele>58.166666666666664</ele><time>2026-05-01T08:43:03.596Z</time></trkpt><trkpt lat="43.7712668" lon="11.2468904"><ele>57.0</ele><time>2026-05-01T08:43:05.596Z</time></trkpt><trkpt lat="43.7712372" lon="11.2469813"><ele>57.0</ele><time>2026-05-01T08:43:07.595Z</time></trkpt><trkpt lat="43.7711961" lon="11.2470608"><ele>56.99999999999999</ele><time>2026-05-01T08:43:09.594Z</time></trkpt><trkpt lat="43.7711569" lon="11.2471372"><ele>57.0</ele><time>2026-05-01T08:43:11.594Z</time></trkpt><trkpt lat="43.7711236" lon="11.2472266"><ele>57.0</ele><time>2026-05-01T08:43:13.596Z</time></trkpt><trkpt lat="43.7710908" lon="11.2473117"><ele>56.99999999999999</ele><time>2026-05-01T08:43:15.596Z</time></trkpt><trkpt lat="43.7710627" lon="11.247399"><ele>57.0</ele><time>2026-05-01T08:43:17.594Z</time></trkpt><trkpt lat="43.7710326" lon="11.2474818"><ele>57.0</ele><time>2026-05-01T08:43:19.594Z</time></trkpt><trkpt lat="43.7709984" lon="11.2475812"><ele>56.0</ele><time>2026-05-01T08:43:21.594Z</time></trkpt><trkpt lat="43.7709575" lon="11.2476725"><ele>55.0</ele><time>2026-05-01T08:43:23.595Z</time></trkpt><trkpt lat="43.7709111" lon="11.2477455"><ele>54.0</ele><time>2026-05-01T08:43:25.594Z</time></trkpt><trkpt lat="43.7708691" lon="11.2478137"><ele>53.0</ele><time>2026-05-01T08:43:27.595Z</time></trkpt><trkpt lat="43.7708293" lon="11.2478938"><ele>52.0</ele><time>2026-05-01T08:43:29.595Z</time></trkpt><trkpt lat="43.7707815" lon="11.2479903"><ele>51.0</ele><time>2026-05-01T08:43:31.594Z</time></trkpt><trkpt lat="43.770731" lon="11.2481161"><ele>51.599999999999994</ele><time>2026-05-01T08:43:33.595Z</time></trkpt><trkpt lat="43.7706673" lon="11.2482425"><ele>52.2</ele><time>2026-05-01T08:43:35.595Z</time></trkpt><trkpt lat="43.7706351" lon="11.2483632"><ele>52.800000000000004</ele><time>2026-05-01T08:43:37.594Z</time></trkpt><trkpt lat="43.770593" lon="11.2484521"><ele>53.400000000000006</ele><time>2026-05-01T08:43:39.595Z</time></trkpt><trkpt lat="43.7705422" lon="11.2485804"><ele>54.0</ele><time>2026-05-01T08:43:41.596Z</time></trkpt><trkpt lat="43.7704951" lon="11.2486817"><ele>54.0</ele><time>2026-05-01T08:43:43.595Z</time></trkpt><trkpt lat="43.770442" lon="11.248777"><ele>54.0</ele><time>2026-05-01T08:43:45.595Z</time></trkpt><trkpt lat="43.770387" lon="11.2488575"><ele>54.0</ele><time>2026-05-01T08:43:47.594Z</time></trkpt><trkpt lat="43.7703308" lon="11.248951"><ele>54.0</ele><time>2026-05-01T08:43:49.594Z</time></trkpt><trkpt lat="43.7702888" lon="11.2490468"><ele>54.0</ele><time>2026-05-01T08:43:51.596Z</time></trkpt><trkpt lat="43.7702469" lon="11.2491488"><ele>54.0</ele><time>2026-05-01T08:43:53.594Z</time></trkpt><trkpt lat="43.7702022" lon="11.2492445"><ele>53.833333333333336</ele><time>2026-05-01T08:43:55.594Z</time></trkpt><trkpt lat="43.770156" lon="11.2493424"><ele>53.66666666666667</ele><time>2026-05-01T08:43:57.596Z</time></trkpt><trkpt lat="43.7701099" lon="11.2494337"><ele>53.5</ele><time>2026-05-01T08:43:59.595Z</time></trkpt><trkpt lat="43.7700657" lon="11.2495258"><ele>53.333333333333336</ele><time>2026-05-01T08:44:01.595Z</time></trkpt><trkpt lat="43.7700231" lon="11.2496159"><ele>53.16666666666667</ele><time>2026-05-01T08:44:03.594Z</time></trkpt><trkpt lat="43.7699776" lon="11.2497169"><ele>53.0</ele><time>2026-05-01T08:44:05.595Z</time></trkpt><trkpt lat="43.7699299" lon="11.2498126"><ele>52.85714285714286</ele><time>2026-05-01T08:44:07.594Z</time></trkpt><trkpt lat="43.7698849" lon="11.2498963"><ele>52.71428571428571</ele><time>2026-05-01T08:44:09.594Z</time></trkpt><trkpt lat="43.7698441" lon="11.249979"><ele>52.57142857142857</ele><time>2026-05-01T08:44:11.595Z</time></trkpt><trkpt lat="43.769811" lon="11.2500544"><ele>52.42857142857143</ele><time>2026-05-01T08:44:13.594Z</time></trkpt><trkpt lat="43.7697672" lon="11.2501426"><ele>52.28571428571429</ele><time>2026-05-01T08:44:15.594Z</time></trkpt><trkpt lat="43.7697278" lon="11.2502371"><ele>52.14285714285714</ele><time>2026-05-01T08:44:17.594Z</time></trkpt><trkpt lat="43.769689" lon="11.2503221"><ele>52.0</ele><time>2026-05-01T08:44:19.595Z</time></trkpt><trkpt lat="43.7696377" lon="11.250428"><ele>51.99999999999999</ele><time>2026-05-01T08:44:22.595Z</time></trkpt><trkpt lat="43.7695896" lon="11.2505244"><ele>52.0</ele><time>2026-05-01T08:44:25.595Z</time></trkpt><trkpt lat="43.7695303" lon="11.2505755"><ele>52.0</ele><time>2026-05-01T08:44:28.594Z</time></trkpt><trkpt lat="43.7694501" lon="11.2505242"><ele>52.0</ele><time>2026-05-01T08:44:31.595Z</time></trkpt><trkpt lat="43.769371" lon="11.2504525"><ele>51.99999999999999</ele><time>2026-05-01T08:44:34.595Z</time></trkpt><trkpt lat="43.769308" lon="11.2504139"><ele>52.0</ele><time>2026-05-01T08:44:36.593Z</time></trkpt><trkpt lat="43.7692483" lon="11.2503792"><ele>51.49999999999999</ele><time>2026-05-01T08:44:38.595Z</time></trkpt><trkpt lat="43.769188" lon="11.2503408"><ele>51.0</ele><time>2026-05-01T08:44:40.594Z</time></trkpt><trkpt lat="43.7691089" lon="11.2502832"><ele>50.5</ele><time>2026-05-01T08:44:43.595Z</time></trkpt><trkpt lat="43.769028" lon="11.2502349"><ele>50.0</ele><time>2026-05-01T08:44:46.595Z</time></trkpt><trkpt lat="43.7689617" lon="11.2501921"><ele>49.49999999999999</ele><time>2026-05-01T08:44:48.595Z</time></trkpt><trkpt lat="43.7688968" lon="11.2501489"><ele>49.0</ele><time>2026-05-01T08:44:50.594Z</time></trkpt><trkpt lat="43.7688304" lon="11.2501074"><ele>48.99999999999999</ele><time>2026-05-01T08:44:52.595Z</time></trkpt><trkpt lat="43.7687601" lon="11.2500672"><ele>49.0</ele><time>2026-05-01T08:44:54.595Z</time></trkpt><trkpt lat="43.7686859" lon="11.2500207"><ele>49.0</ele><time>2026-05-01T08:44:56.593Z</time></trkpt><trkpt lat="43.7686015" lon="11.2499697"><ele>49.0</ele><time>2026-05-01T08:44:58.595Z</time></trkpt><trkpt lat="43.7685189" lon="11.249908"><ele>48.99999999999999</ele><time>2026-05-01T08:45:00.595Z</time></trkpt><trkpt lat="43.7684389" lon="11.2498579"><ele>49.0</ele><time>2026-05-01T08:45:02.594Z</time></trkpt><trkpt lat="43.7683751" lon="11.2498222"><ele>50.166666666666664</ele><time>2026-05-01T08:45:04.595Z</time></trkpt><trkpt lat="43.7682994" lon="11.2497845"><ele>51.33333333333333</ele><time>2026-05-01T08:45:08.594Z</time></trkpt><trkpt lat="43.768219" lon="11.2498091"><ele>52.5</ele><time>2026-05-01T08:45:49.594Z</time></trkpt><trkpt lat="43.7681451" lon="11.2498599"><ele>53.66666666666667</ele><time>2026-05-01T08:45:51.594Z</time></trkpt><trkpt lat="43.7680755" lon="11.2499099"><ele>54.833333333333336</ele><time>2026-05-01T08:45:53.595Z</time></trkpt><trkpt lat="43.768003" lon="11.2499549"><ele>56.0</ele><time>2026-05-01T08:45:55.594Z</time></trkpt><trkpt lat="43.7679229" lon="11.2499982"><ele>56.00000000000001</ele><time>2026-05-01T08:45:57.595Z</time></trkpt><trkpt lat="43.7678418" lon="11.250038"><ele>56.0</ele><time>2026-05-01T08:45:59.595Z</time></trkpt><trkpt lat="43.7677772" lon="11.25007"><ele>56.0</ele><time>2026-05-01T08:46:01.594Z</time></trkpt><trkpt lat="43.7677024" lon="11.2501084"><ele>56.0</ele><time>2026-05-01T08:46:03.595Z</time></trkpt><trkpt lat="43.767624" lon="11.2501544"><ele>56.00000000000001</ele><time>2026-05-01T08:46:05.595Z</time></trkpt><trkpt lat="43.7675503" lon="11.2501995"><ele>56.0</ele><time>2026-05-01T08:46:07.594Z</time></trkpt><trkpt lat="43.7674783" lon="11.2502492"><ele>56.66666666666667</ele><time>2026-05-01T08:46:09.594Z</time></trkpt><trkpt lat="43.7674151" lon="11.2502952"><ele>57.333333333333336</ele><time>2026-05-01T08:46:11.593Z</time></trkpt><trkpt lat="43.7673396" lon="11.2503519"><ele>58.0</ele><time>2026-05-01T08:46:14.595Z</time></trkpt><trkpt lat="43.7672619" lon="11.2504013"><ele>58.66666666666667</ele><time>2026-05-01T08:46:17.595Z</time></trkpt><trkpt lat="43.7671993" lon="11.2504408"><ele>59.333333333333336</ele><time>2026-05-01T08:46:19.595Z</time></trkpt><trkpt lat="43.7671425" lon="11.2504984"><ele>60.0</ele><time>2026-05-01T08:46:21.594Z</time></trkpt><trkpt lat="43.7670973" lon="11.25057"><ele>60.142857142857146</ele><time>2026-05-01T08:46:23.594Z</time></trkpt><trkpt lat="43.767052" lon="11.2506423"><ele>60.28571428571428</ele><time>2026-05-01T08:46:25.595Z</time></trkpt><trkpt lat="43.7670099" lon="11.2507158"><ele>60.42857142857142</ele><time>2026-05-01T08:46:27.595Z</time></trkpt><trkpt lat="43.7669711" lon="11.2507871"><ele>60.57142857142857</ele><time>2026-05-01T08:46:29.595Z</time></trkpt><trkpt lat="43.7669188" lon="11.2508816"><ele>60.71428571428571</ele><time>2026-05-01T08:46:32.594Z</time></trkpt><trkpt lat="43.7668585" lon="11.2509648"><ele>60.85714285714285</ele><time>2026-05-01T08:46:36.595Z</time></trkpt><trkpt lat="43.7668122" lon="11.251029"><ele>60.99999999999999</ele><time>2026-05-01T08:46:42.594Z</time></trkpt><trkpt lat="43.7667602" lon="11.2511102"><ele>61.33333333333333</ele><time>2026-05-01T08:46:47.595Z</time></trkpt><trkpt lat="43.7667661" lon="11.251235"><ele>61.666666666666664</ele><time>2026-05-01T08:46:51.594Z</time></trkpt><trkpt lat="43.7667968" lon="11.2513253"><ele>62.0</ele><time>2026-05-01T08:46:53.595Z</time></trkpt><trkpt lat="43.7668316" lon="11.2514096"><ele>62.33333333333333</ele><time>2026-05-01T08:46:55.595Z</time></trkpt><trkpt lat="43.7668692" lon="11.2514849"><ele>62.666666666666664</ele><time>2026-05-01T08:46:57.595Z</time></trkpt><trkpt lat="43.7668997" lon="11.2515633"><ele>63.0</ele><time>2026-05-01T08:46:59.595Z</time></trkpt><trkpt lat="43.7669404" lon="11.2516752"><ele>63.333333333333336</ele><time>2026-05-01T08:47:02.594Z</time></trkpt><trkpt lat="43.766981" lon="11.2517694"><ele>63.66666666666667</ele><time>2026-05-01T08:47:05.594Z</time></trkpt><trkpt lat="43.7670234" lon="11.2518837"><ele>64.0</ele><time>2026-05-01T08:47:08.594Z</time></trkpt><trkpt lat="43.7670578" lon="11.2519759"><ele>64.33333333333334</ele><time>2026-05-01T08:47:10.595Z</time></trkpt><trkpt lat="43.767092" lon="11.2520687"><ele>64.66666666666667</ele><time>2026-05-01T08:47:12.595Z</time></trkpt><trkpt lat="43.767127" lon="11.2521528"><ele>65.0</ele><time>2026-05-01T08:47:14.594Z</time></trkpt><trkpt lat="43.7671656" lon="11.2522346"><ele>64.5</ele><time>2026-05-01T08:47:16.594Z</time></trkpt><trkpt lat="43.7672128" lon="11.2523194"><ele>64.0</ele><time>2026-05-01T08:47:18.594Z</time></trkpt><trkpt lat="43.7672598" lon="11.2524034"><ele>63.5</ele><time>2026-05-01T08:47:20.594Z</time></trkpt><trkpt lat="43.7673036" lon="11.2524861"><ele>63.0</ele><time>2026-05-01T08:47:22.595Z</time></trkpt><trkpt lat="43.7673398" lon="11.2525732"><ele>62.50000000000001</ele><time>2026-05-01T08:47:24.594Z</time></trkpt><trkpt lat="43.7673574" lon="11.2526793"><ele>62.0</ele><time>2026-05-01T08:47:26.594Z</time></trkpt><trkpt lat="43.7673566" lon="11.2527814"><ele>62.0</ele><time>2026-05-01T08:47:28.594Z</time></trkpt><trkpt lat="43.7673478" lon="11.2528751"><ele>62.00000000000001</ele><time>2026-05-01T08:47:31.595Z</time></trkpt><trkpt lat="43.7673285" lon="11.252971"><ele>62.0</ele><time>2026-05-01T08:47:33.595Z</time></trkpt><trkpt lat="43.7673033" lon="11.2530732"><ele>62.0</ele><time>2026-05-01T08:47:35.594Z</time></trkpt><trkpt lat="43.7672764" lon="11.2531672"><ele>62.00000000000001</ele><time>2026-05-01T08:47:37.594Z</time></trkpt><trkpt lat="43.7672488" lon="11.2532575"><ele>62.0</ele><time>2026-05-01T08:47:39.595Z</time></trkpt><trkpt lat="43.7672202" lon="11.2533437"><ele>62.0</ele><time>2026-05-01T08:47:41.595Z</time></trkpt><trkpt lat="43.7671854" lon="11.2534471"><ele>61.333333333333336</ele><time>2026-05-01T08:47:44.595Z</time></trkpt><trkpt lat="43.7671547" lon="11.2535598"><ele>60.66666666666667</ele><time>2026-05-01T08:47:47.594Z</time></trkpt><trkpt lat="43.7671294" lon="11.2536469"><ele>60.0</ele><time>2026-05-01T08:47:49.594Z</time></trkpt><trkpt lat="43.7671035" lon="11.2537392"><ele>59.33333333333333</ele><time>2026-05-01T08:47:51.595Z</time></trkpt><trkpt lat="43.7670753" lon="11.2538351"><ele>58.666666666666664</ele><time>2026-05-01T08:47:53.595Z</time></trkpt><trkpt lat="43.7670523" lon="11.2539418"><ele>58.0</ele><time>2026-05-01T08:47:55.594Z</time></trkpt><trkpt lat="43.7670426" lon="11.2540492"><ele>57.85714285714286</ele><time>2026-05-01T08:47:57.594Z</time></trkpt><trkpt lat="43.767039" lon="11.2541494"><ele>57.714285714285715</ele><time>2026-05-01T08:47:59.594Z</time></trkpt><trkpt lat="43.767023" lon="11.2542523"><ele>57.57142857142857</ele><time>2026-05-01T08:48:01.595Z</time></trkpt><trkpt lat="43.766989" lon="11.2543513"><ele>57.42857142857143</ele><time>2026-05-01T08:48:03.595Z</time></trkpt><trkpt lat="43.7669422" lon="11.2544358"><ele>57.28571428571428</ele><time>2026-05-01T08:48:05.595Z</time></trkpt><trkpt lat="43.7668982" lon="11.2545129"><ele>57.14285714285714</ele><time>2026-05-01T08:48:07.595Z</time></trkpt><trkpt lat="43.7668552" lon="11.2545943"><ele>57.0</ele><time>2026-05-01T08:48:09.594Z</time></trkpt><trkpt lat="43.7668124" lon="11.2546916"><ele>57.833333333333336</ele><time>2026-05-01T08:48:11.594Z</time></trkpt><trkpt lat="43.7667773" lon="11.254792"><ele>58.66666666666667</ele><time>2026-05-01T08:48:13.595Z</time></trkpt><trkpt lat="43.7667365" lon="11.2548934"><ele>59.5</ele><time>2026-05-01T08:48:15.594Z</time></trkpt><trkpt lat="43.766709" lon="11.2550109"><ele>60.333333333333336</ele><time>2026-05-01T08:48:17.595Z</time></trkpt><trkpt lat="43.7666776" lon="11.2551342"><ele>61.16666666666667</ele><time>2026-05-01T08:48:19.595Z</time></trkpt><trkpt lat="43.7666217" lon="11.2552316"><ele>62.0</ele><time>2026-05-01T08:48:21.595Z</time></trkpt><trkpt lat="43.7665711" lon="11.2553567"><ele>62.00000000000001</ele><time>2026-05-01T08:48:23.593Z</time></trkpt><trkpt lat="43.7665371" lon="11.2554553"><ele>62.0</ele><time>2026-05-01T08:48:25.593Z</time></trkpt><trkpt lat="43.7665128" lon="11.255569"><ele>62.0</ele><time>2026-05-01T08:48:27.595Z</time></trkpt><trkpt lat="43.7664873" lon="11.2556689"><ele>62.0</ele><time>2026-05-01T08:48:29.595Z</time></trkpt><trkpt lat="43.7664332" lon="11.2557732"><ele>62.00000000000001</ele><time>2026-05-01T08:48:31.595Z</time></trkpt><trkpt lat="43.7664045" lon="11.255888"><ele>62.0</ele><time>2026-05-01T08:48:33.593Z</time></trkpt><trkpt lat="43.7663641" lon="11.2560074"><ele>61.400000000000006</ele><time>2026-05-01T08:48:35.594Z</time></trkpt><trkpt lat="43.7663258" lon="11.2561236"><ele>60.800000000000004</ele><time>2026-05-01T08:48:37.594Z</time></trkpt><trkpt lat="43.7662829" lon="11.2562373"><ele>60.2</ele><time>2026-05-01T08:48:39.594Z</time></trkpt><trkpt lat="43.7662402" lon="11.2563477"><ele>59.6</ele><time>2026-05-01T08:48:41.594Z</time></trkpt><trkpt lat="43.7661912" lon="11.2564688"><ele>59.0</ele><time>2026-05-01T08:48:43.595Z</time></trkpt><trkpt lat="43.7661457" lon="11.2565796"><ele>59.2</ele><time>2026-05-01T08:48:45.594Z</time></trkpt><trkpt lat="43.7660951" lon="11.2566874"><ele>59.400000000000006</ele><time>2026-05-01T08:48:47.595Z</time></trkpt><trkpt lat="43.7660554" lon="11.2567939"><ele>59.6</ele><time>2026-05-01T08:48:49.595Z</time></trkpt><trkpt lat="43.7660131" lon="11.256909"><ele>59.8</ele><time>2026-05-01T08:48:51.594Z</time></trkpt><trkpt lat="43.7659675" lon="11.257014"><ele>60.0</ele><time>2026-05-01T08:48:53.595Z</time></trkpt><trkpt lat="43.7659323" lon="11.2571436"><ele>60.0</ele><time>2026-05-01T08:48:55.594Z</time></trkpt><trkpt lat="43.7658829" lon="11.2572414"><ele>60.0</ele><time>2026-05-01T08:48:57.593Z</time></trkpt><trkpt lat="43.7658507" lon="11.2573741"><ele>60.0</ele><time>2026-05-01T08:48:59.594Z</time></trkpt><trkpt lat="43.7658099" lon="11.2574695"><ele>60.0</ele><time>2026-05-01T08:49:01.593Z</time></trkpt><trkpt lat="43.7657832" lon="11.2575878"><ele>60.0</ele><time>2026-05-01T08:49:03.593Z</time></trkpt><trkpt lat="43.7657552" lon="11.2577055"><ele>60.0</ele><time>2026-05-01T08:49:05.594Z</time></trkpt><trkpt lat="43.7657191" lon="11.2578051"><ele>58.57142857142858</ele><time>2026-05-01T08:49:07.594Z</time></trkpt><trkpt lat="43.7656683" lon="11.2579066"><ele>57.14285714285714</ele><time>2026-05-01T08:49:09.595Z</time></trkpt><trkpt lat="43.7656231" lon="11.2579949"><ele>55.714285714285715</ele><time>2026-05-01T08:49:11.593Z</time></trkpt><trkpt lat="43.7655858" lon="11.2580822"><ele>54.28571428571429</ele><time>2026-05-01T08:49:13.594Z</time></trkpt><trkpt lat="43.7655506" lon="11.2581707"><ele>52.85714285714286</ele><time>2026-05-01T08:49:15.594Z</time></trkpt><trkpt lat="43.765519" lon="11.2582543"><ele>51.42857142857143</ele><time>2026-05-01T08:49:17.593Z</time></trkpt><trkpt lat="43.7654948" lon="11.2583392"><ele>50.0</ele><time>2026-05-01T08:49:21.595Z</time></trkpt><trkpt lat="43.7654696" lon="11.2584615"><ele>49.00000000000001</ele><time>2026-05-01T08:49:24.594Z</time></trkpt><trkpt lat="43.7654635" lon="11.2585734"><ele>48.0</ele><time>2026-05-01T08:49:26.593Z</time></trkpt><trkpt lat="43.7654558" lon="11.2586918"><ele>47.0</ele><time>2026-05-01T08:49:28.593Z</time></trkpt><trkpt lat="43.7654454" lon="11.2588114"><ele>46.0</ele><time>2026-05-01T08:49:30.594Z</time></trkpt><trkpt lat="43.7654469" lon="11.2589307"><ele>45.0</ele><time>2026-05-01T08:49:32.594Z</time></trkpt><trkpt lat="43.7654632" lon="11.2590458"><ele>44.0</ele><time>2026-05-01T08:49:34.594Z</time></trkpt><trkpt lat="43.7654693" lon="11.2591503"><ele>43.83333333333333</ele><time>2026-05-01T08:49:36.593Z</time></trkpt><trkpt lat="43.7654627" lon="11.2592467"><ele>43.666666666666664</ele><time>2026-05-01T08:49:38.593Z</time></trkpt><trkpt lat="43.7654521" lon="11.2593446"><ele>43.5</ele><time>2026-05-01T08:49:40.594Z</time></trkpt><trkpt lat="43.7654428" lon="11.2594517"><ele>43.333333333333336</ele><time>2026-05-01T08:49:42.595Z</time></trkpt><trkpt lat="43.7654344" lon="11.2595664"><ele>43.16666666666667</ele><time>2026-05-01T08:49:44.592Z</time></trkpt><trkpt lat="43.7654284" lon="11.2596803"><ele>43.0</ele><time>2026-05-01T08:49:46.593Z</time></trkpt><trkpt lat="43.76542" lon="11.2597924"><ele>43.333333333333336</ele><time>2026-05-01T08:49:48.594Z</time></trkpt><trkpt lat="43.7654112" lon="11.2599048"><ele>43.66666666666667</ele><time>2026-05-01T08:49:50.594Z</time></trkpt><trkpt lat="43.7653999" lon="11.2600169"><ele>44.0</ele><time>2026-05-01T08:49:52.593Z</time></trkpt><trkpt lat="43.7653853" lon="11.2601327"><ele>44.333333333333336</ele><time>2026-05-01T08:49:54.593Z</time></trkpt><trkpt lat="43.7653734" lon="11.2602488"><ele>44.666666666666664</ele><time>2026-05-01T08:49:56.593Z</time></trkpt><trkpt lat="43.7653637" lon="11.2603666"><ele>45.0</ele><time>2026-05-01T08:49:58.595Z</time></trkpt><trkpt lat="43.7653538" lon="11.2604845"><ele>45.0</ele><time>2026-05-01T08:50:00.594Z</time></trkpt><trkpt lat="43.7653405" lon="11.260598"><ele>45.0</ele><time>2026-05-01T08:50:02.594Z</time></trkpt><trkpt lat="43.7653277" lon="11.2607099"><ele>45.0</ele><time>2026-05-01T08:50:04.595Z</time></trkpt><trkpt lat="43.7653138" lon="11.2608241"><ele>45.0</ele><time>2026-05-01T08:50:06.595Z</time></trkpt><trkpt lat="43.7653" lon="11.2609403"><ele>45.0</ele><time>2026-05-01T08:50:08.594Z</time></trkpt><trkpt lat="43.7652847" lon="11.2610534"><ele>45.0</ele><time>2026-05-01T08:50:10.593Z</time></trkpt><trkpt lat="43.765273" lon="11.2611609"><ele>45.5</ele><time>2026-05-01T08:50:12.594Z</time></trkpt><trkpt lat="43.7652613" lon="11.2612703"><ele>46.0</ele><time>2026-05-01T08:50:14.593Z</time></trkpt><trkpt lat="43.7652485" lon="11.2613792"><ele>46.5</ele><time>2026-05-01T08:50:16.594Z</time></trkpt><trkpt lat="43.7652359" lon="11.2614951"><ele>47.0</ele><time>2026-05-01T08:50:18.593Z</time></trkpt><trkpt lat="43.7652302" lon="11.261618"><ele>47.5</ele><time>2026-05-01T08:50:20.594Z</time></trkpt><trkpt lat="43.7652215" lon="11.2617331"><ele>48.0</ele><time>2026-05-01T08:50:22.593Z</time></trkpt><trkpt lat="43.7652091" lon="11.2618423"><ele>48.166666666666664</ele><time>2026-05-01T08:50:24.593Z</time></trkpt><trkpt lat="43.7651985" lon="11.2619506"><ele>48.33333333333333</ele><time>2026-05-01T08:50:26.594Z</time></trkpt><trkpt lat="43.7651879" lon="11.2620596"><ele>48.5</ele><time>2026-05-01T08:50:28.593Z</time></trkpt><trkpt lat="43.7651745" lon="11.2621693"><ele>48.666666666666664</ele><time>2026-05-01T08:50:30.593Z</time></trkpt><trkpt lat="43.7651634" lon="11.2622731"><ele>48.83333333333333</ele><time>2026-05-01T08:50:32.594Z</time></trkpt><trkpt lat="43.7651509" lon="11.2623785"><ele>49.0</ele><time>2026-05-01T08:50:34.593Z</time></trkpt><trkpt lat="43.7651379" lon="11.2624861"><ele>49.166666666666664</ele><time>2026-05-01T08:50:36.593Z</time></trkpt><trkpt lat="43.7651278" lon="11.262596"><ele>49.33333333333333</ele><time>2026-05-01T08:50:38.593Z</time></trkpt><trkpt lat="43.7651194" lon="11.2627076"><ele>49.5</ele><time>2026-05-01T08:50:40.594Z</time></trkpt><trkpt lat="43.7651125" lon="11.2628203"><ele>49.66666666666667</ele><time>2026-05-01T08:50:42.594Z</time></trkpt><trkpt lat="43.7651056" lon="11.2629343"><ele>49.833333333333336</ele><time>2026-05-01T08:50:44.592Z</time></trkpt><trkpt lat="43.7650962" lon="11.2630511"><ele>50.0</ele><time>2026-05-01T08:50:46.593Z</time></trkpt><trkpt lat="43.7650846" lon="11.2631596"><ele>50.00000000000001</ele><time>2026-05-01T08:50:48.593Z</time></trkpt><trkpt lat="43.7650639" lon="11.2632642"><ele>50.0</ele><time>2026-05-01T08:50:50.592Z</time></trkpt><trkpt lat="43.7650523" lon="11.2633712"><ele>50.0</ele><time>2026-05-01T08:50:52.594Z</time></trkpt><trkpt lat="43.7650408" lon="11.2634763"><ele>50.0</ele><time>2026-05-01T08:50:54.594Z</time></trkpt><trkpt lat="43.7650289" lon="11.2635802"><ele>50.00000000000001</ele><time>2026-05-01T08:50:56.595Z</time></trkpt><trkpt lat="43.7650128" lon="11.2636842"><ele>50.0</ele><time>2026-05-01T08:50:58.594Z</time></trkpt><trkpt lat="43.7649966" lon="11.2637901"><ele>50.00000000000001</ele><time>2026-05-01T08:51:00.594Z</time></trkpt><trkpt lat="43.7649817" lon="11.2639013"><ele>50.0</ele><time>2026-05-01T08:51:02.594Z</time></trkpt><trkpt lat="43.7649703" lon="11.2640119"><ele>50.0</ele><time>2026-05-01T08:51:04.593Z</time></trkpt><trkpt lat="43.7649639" lon="11.2641257"><ele>50.0</ele><time>2026-05-01T08:51:06.594Z</time></trkpt><trkpt lat="43.7649569" lon="11.2642438"><ele>50.00000000000001</ele><time>2026-05-01T08:51:08.594Z</time></trkpt><trkpt lat="43.7649459" lon="11.2643541"><ele>50.0</ele><time>2026-05-01T08:51:10.594Z</time></trkpt><trkpt lat="43.7649333" lon="11.2644675"><ele>50.50000000000001</ele><time>2026-05-01T08:51:12.594Z</time></trkpt><trkpt lat="43.7649218" lon="11.2645748"><ele>51.0</ele><time>2026-05-01T08:51:14.594Z</time></trkpt><trkpt lat="43.7649138" lon="11.2646806"><ele>51.5</ele><time>2026-05-01T08:51:16.593Z</time></trkpt><trkpt lat="43.7649055" lon="11.2647868"><ele>52.0</ele><time>2026-05-01T08:51:18.594Z</time></trkpt><trkpt lat="43.764899" lon="11.2648915"><ele>52.50000000000001</ele><time>2026-05-01T08:51:20.593Z</time></trkpt><trkpt lat="43.7648903" lon="11.2649949"><ele>53.0</ele><time>2026-05-01T08:51:22.594Z</time></trkpt><trkpt lat="43.7648825" lon="11.2651076"><ele>53.2</ele><time>2026-05-01T08:51:24.594Z</time></trkpt><trkpt lat="43.764854" lon="11.2652047"><ele>53.4</ele><time>2026-05-01T08:51:26.593Z</time></trkpt><trkpt lat="43.7647881" lon="11.2653108"><ele>53.60000000000001</ele><time>2026-05-01T08:51:28.594Z</time></trkpt><trkpt lat="43.7647651" lon="11.2654264"><ele>53.800000000000004</ele><time>2026-05-01T08:51:30.594Z</time></trkpt><trkpt lat="43.7647541" lon="11.2655599"><ele>54.0</ele><time>2026-05-01T08:51:32.594Z</time></trkpt><trkpt lat="43.7647534" lon="11.2656941"><ele>53.333333333333336</ele><time>2026-05-01T08:51:34.594Z</time></trkpt><trkpt lat="43.7647474" lon="11.2657988"><ele>52.66666666666667</ele><time>2026-05-01T08:51:36.593Z</time></trkpt><trkpt lat="43.7647362" lon="11.26591"><ele>52.0</ele><time>2026-05-01T08:51:38.594Z</time></trkpt><trkpt lat="43.7647253" lon="11.2660249"><ele>51.333333333333336</ele><time>2026-05-01T08:51:40.594Z</time></trkpt><trkpt lat="43.7647128" lon="11.2661433"><ele>50.66666666666667</ele><time>2026-05-01T08:51:42.593Z</time></trkpt><trkpt lat="43.7646977" lon="11.2662667"><ele>50.0</ele><time>2026-05-01T08:51:44.593Z</time></trkpt><trkpt lat="43.7646865" lon="11.266385"><ele>50.16666666666667</ele><time>2026-05-01T08:51:46.592Z</time></trkpt><trkpt lat="43.7646774" lon="11.2664962"><ele>50.333333333333336</ele><time>2026-05-01T08:51:48.594Z</time></trkpt><trkpt lat="43.7646631" lon="11.2666079"><ele>50.5</ele><time>2026-05-01T08:51:50.593Z</time></trkpt><trkpt lat="43.7646558" lon="11.2667213"><ele>50.66666666666667</ele><time>2026-05-01T08:51:52.594Z</time></trkpt><trkpt lat="43.7646462" lon="11.2668318"><ele>50.833333333333336</ele><time>2026-05-01T08:51:54.594Z</time></trkpt><trkpt lat="43.7646272" lon="11.2669445"><ele>51.0</ele><time>2026-05-01T08:51:56.593Z</time></trkpt><trkpt lat="43.7646133" lon="11.2670559"><ele>51.0</ele><time>2026-05-01T08:51:58.593Z</time></trkpt><trkpt lat="43.764607" lon="11.2671682"><ele>51.0</ele><time>2026-05-01T08:52:00.594Z</time></trkpt><trkpt lat="43.764599" lon="11.2672769"><ele>51.0</ele><time>2026-05-01T08:52:02.594Z</time></trkpt><trkpt lat="43.7645876" lon="11.2673866"><ele>51.0</ele><time>2026-05-01T08:52:04.594Z</time></trkpt><trkpt lat="43.7645678" lon="11.2674938"><ele>51.0</ele><time>2026-05-01T08:52:06.593Z</time></trkpt><trkpt lat="43.7645514" lon="11.2676041"><ele>51.0</ele><time>2026-05-01T08:52:08.593Z</time></trkpt><trkpt lat="43.7645399" lon="11.2677189"><ele>50.833333333333336</ele><time>2026-05-01T08:52:10.593Z</time></trkpt><trkpt lat="43.7645227" lon="11.2678212"><ele>50.66666666666667</ele><time>2026-05-01T08:52:12.593Z</time></trkpt><trkpt lat="43.764508" lon="11.2679268"><ele>50.5</ele><time>2026-05-01T08:52:14.594Z</time></trkpt><trkpt lat="43.7644971" lon="11.2680368"><ele>50.333333333333336</ele><time>2026-05-01T08:52:16.594Z</time></trkpt><trkpt lat="43.7644856" lon="11.26815"><ele>50.16666666666667</ele><time>2026-05-01T08:52:18.591Z</time></trkpt><trkpt lat="43.7644757" lon="11.2682592"><ele>50.0</ele><time>2026-05-01T08:52:20.592Z</time></trkpt><trkpt lat="43.7644645" lon="11.2683716"><ele>50.00000000000001</ele><time>2026-05-01T08:52:22.593Z</time></trkpt><trkpt lat="43.7644517" lon="11.2684805"><ele>50.0</ele><time>2026-05-01T08:52:24.593Z</time></trkpt><trkpt lat="43.7644325" lon="11.2685817"><ele>50.0</ele><time>2026-05-01T08:52:26.593Z</time></trkpt><trkpt lat="43.7644159" lon="11.2686855"><ele>50.0</ele><time>2026-05-01T08:52:28.593Z</time></trkpt><trkpt lat="43.7644036" lon="11.2687849"><ele>50.00000000000001</ele><time>2026-05-01T08:52:30.592Z</time></trkpt><trkpt lat="43.7643917" lon="11.2688896"><ele>50.0</ele><time>2026-05-01T08:52:32.593Z</time></trkpt><trkpt lat="43.7643772" lon="11.268997"><ele>50.333333333333336</ele><time>2026-05-01T08:52:34.591Z</time></trkpt><trkpt lat="43.764362" lon="11.2691045"><ele>50.66666666666667</ele><time>2026-05-01T08:52:36.594Z</time></trkpt><trkpt lat="43.7643536" lon="11.2692098"><ele>51.0</ele><time>2026-05-01T08:52:38.594Z</time></trkpt><trkpt lat="43.7643461" lon="11.2693161"><ele>51.33333333333333</ele><time>2026-05-01T08:52:40.593Z</time></trkpt><trkpt lat="43.7643319" lon="11.2694185"><ele>51.666666666666664</ele><time>2026-05-01T08:52:42.593Z</time></trkpt><trkpt lat="43.7643093" lon="11.2695149"><ele>52.0</ele><time>2026-05-01T08:52:44.592Z</time></trkpt><trkpt lat="43.7642846" lon="11.2696144"><ele>51.99999999999999</ele><time>2026-05-01T08:52:46.593Z</time></trkpt><trkpt lat="43.7642565" lon="11.2697118"><ele>52.0</ele><time>2026-05-01T08:52:48.593Z</time></trkpt><trkpt lat="43.7642313" lon="11.2698104"><ele>52.0</ele><time>2026-05-01T08:52:50.594Z</time></trkpt><trkpt lat="43.7641996" lon="11.2699082"><ele>52.0</ele><time>2026-05-01T08:52:52.593Z</time></trkpt><trkpt lat="43.7641574" lon="11.2700017"><ele>51.99999999999999</ele><time>2026-05-01T08:52:54.593Z</time></trkpt><trkpt lat="43.7641161" lon="11.2700968"><ele>52.0</ele><time>2026-05-01T08:52:56.593Z</time></trkpt><trkpt lat="43.7640762" lon="11.2701834"><ele>51.666666666666664</ele><time>2026-05-01T08:52:58.594Z</time></trkpt><trkpt lat="43.7640303" lon="11.2702631"><ele>51.33333333333333</ele><time>2026-05-01T08:53:00.594Z</time></trkpt><trkpt lat="43.763988" lon="11.270339"><ele>51.0</ele><time>2026-05-01T08:53:02.592Z</time></trkpt><trkpt lat="43.7639326" lon="11.2704492"><ele>50.66666666666667</ele><time>2026-05-01T08:53:05.593Z</time></trkpt><trkpt lat="43.7638731" lon="11.2705548"><ele>50.333333333333336</ele><time>2026-05-01T08:53:07.593Z</time></trkpt><trkpt lat="43.7638239" lon="11.2706595"><ele>50.0</ele><time>2026-05-01T08:53:09.592Z</time></trkpt><trkpt lat="43.763778" lon="11.2707617"><ele>49.833333333333336</ele><time>2026-05-01T08:53:11.594Z</time></trkpt><trkpt lat="43.7637363" lon="11.2708642"><ele>49.66666666666667</ele><time>2026-05-01T08:53:13.593Z</time></trkpt><trkpt lat="43.7636919" lon="11.270971"><ele>49.5</ele><time>2026-05-01T08:53:15.592Z</time></trkpt><trkpt lat="43.7636569" lon="11.2710766"><ele>49.33333333333333</ele><time>2026-05-01T08:53:17.592Z</time></trkpt><trkpt lat="43.7636303" lon="11.2711637"><ele>49.166666666666664</ele><time>2026-05-01T08:53:19.594Z</time></trkpt><trkpt lat="43.7636066" lon="11.2712566"><ele>49.0</ele><time>2026-05-01T08:53:21.594Z</time></trkpt><trkpt lat="43.7635824" lon="11.2713456"><ele>49.142857142857146</ele><time>2026-05-01T08:53:23.593Z</time></trkpt><trkpt lat="43.7635538" lon="11.2714423"><ele>49.285714285714285</ele><time>2026-05-01T08:53:26.592Z</time></trkpt><trkpt lat="43.7635319" lon="11.2715394"><ele>49.42857142857143</ele><time>2026-05-01T08:53:31.591Z</time></trkpt><trkpt lat="43.7635115" lon="11.2716369"><ele>49.57142857142857</ele><time>2026-05-01T08:54:08.593Z</time></trkpt><trkpt lat="43.7635103" lon="11.27174"><ele>49.714285714285715</ele><time>2026-05-01T08:54:11.593Z</time></trkpt><trkpt lat="43.7634785" lon="11.2718204"><ele>49.85714285714286</ele><time>2026-05-01T08:54:14.592Z</time></trkpt><trkpt lat="43.7634342" lon="11.2719018"><ele>50.0</ele><time>2026-05-01T08:54:18.592Z</time></trkpt><trkpt lat="43.7634435" lon="11.2719896"><ele>50.28571428571429</ele><time>2026-05-01T08:54:23.592Z</time></trkpt><trkpt lat="43.763412" lon="11.2720712"><ele>50.57142857142857</ele><time>2026-05-01T08:54:29.593Z</time></trkpt><trkpt lat="43.7634743" lon="11.2721054"><ele>50.85714285714286</ele><time>2026-05-01T09:21:42.591Z</time></trkpt><trkpt lat="43.7635003" lon="11.2721885"><ele>51.142857142857146</ele><time>2026-05-01T09:21:45.59Z</time></trkpt><trkpt lat="43.7635093" lon="11.272283"><ele>51.42857142857143</ele><time>2026-05-01T09:21:47.592Z</time></trkpt><trkpt lat="43.7634994" lon="11.2723806"><ele>51.714285714285715</ele><time>2026-05-01T09:21:49.592Z</time></trkpt><trkpt lat="43.7635091" lon="11.2725157"><ele>52.0</ele><time>2026-05-01T09:21:51.592Z</time></trkpt><trkpt lat="43.7635191" lon="11.272608"><ele>52.33333333333333</ele><time>2026-05-01T09:21:53.592Z</time></trkpt><trkpt lat="43.7634999" lon="11.2727131"><ele>52.666666666666664</ele><time>2026-05-01T09:21:55.591Z</time></trkpt><trkpt lat="43.7634675" lon="11.2728374"><ele>53.0</ele><time>2026-05-01T09:21:57.591Z</time></trkpt><trkpt lat="43.7634505" lon="11.2729342"><ele>53.33333333333333</ele><time>2026-05-01T09:21:59.592Z</time></trkpt><trkpt lat="43.7634358" lon="11.2730281"><ele>53.666666666666664</ele><time>2026-05-01T09:22:01.592Z</time></trkpt><trkpt lat="43.7634344" lon="11.2731332"><ele>54.0</ele><time>2026-05-01T09:22:03.592Z</time></trkpt><trkpt lat="43.7634195" lon="11.2732464"><ele>54.5</ele><time>2026-05-01T09:22:05.591Z</time></trkpt><trkpt lat="43.7634039" lon="11.2733527"><ele>55.0</ele><time>2026-05-01T09:22:07.591Z</time></trkpt><trkpt lat="43.7633895" lon="11.2734552"><ele>55.5</ele><time>2026-05-01T09:22:09.591Z</time></trkpt><trkpt lat="43.7633769" lon="11.2735547"><ele>56.0</ele><time>2026-05-01T09:22:11.592Z</time></trkpt><trkpt lat="43.7633633" lon="11.2736656"><ele>56.5</ele><time>2026-05-01T09:22:13.591Z</time></trkpt><trkpt lat="43.7633436" lon="11.2737784"><ele>57.0</ele><time>2026-05-01T09:22:15.591Z</time></trkpt><trkpt lat="43.7633243" lon="11.2738886"><ele>56.5</ele><time>2026-05-01T09:22:17.591Z</time></trkpt><trkpt lat="43.7633115" lon="11.2739923"><ele>56.0</ele><time>2026-05-01T09:22:19.592Z</time></trkpt><trkpt lat="43.7632997" lon="11.274096"><ele>55.5</ele><time>2026-05-01T09:22:21.592Z</time></trkpt><trkpt lat="43.7632903" lon="11.2742078"><ele>55.0</ele><time>2026-05-01T09:22:23.591Z</time></trkpt><trkpt lat="43.763293" lon="11.2743193"><ele>54.5</ele><time>2026-05-01T09:22:25.591Z</time></trkpt><trkpt lat="43.7632988" lon="11.2744362"><ele>54.0</ele><time>2026-05-01T09:22:27.592Z</time></trkpt><trkpt lat="43.7632984" lon="11.2745471"><ele>54.0</ele><time>2026-05-01T09:22:29.591Z</time></trkpt><trkpt lat="43.7632987" lon="11.2746469"><ele>54.0</ele><time>2026-05-01T09:22:31.591Z</time></trkpt><trkpt lat="43.7632955" lon="11.2747354"><ele>54.0</ele><time>2026-05-01T09:22:33.59Z</time></trkpt><trkpt lat="43.7632895" lon="11.2748565"><ele>54.0</ele><time>2026-05-01T09:22:36.592Z</time></trkpt><trkpt lat="43.7632813" lon="11.2749462"><ele>54.0</ele><time>2026-05-01T09:22:39.592Z</time></trkpt><trkpt lat="43.7633077" lon="11.275029"><ele>54.0</ele><time>2026-05-01T09:22:46.591Z</time></trkpt><trkpt lat="43.763297" lon="11.2751387"><ele>54.0</ele><time>2026-05-01T09:22:49.591Z</time></trkpt><trkpt lat="43.7633009" lon="11.2752458"><ele>53.833333333333336</ele><time>2026-05-01T09:22:52.591Z</time></trkpt><trkpt lat="43.7633132" lon="11.2753428"><ele>53.66666666666667</ele><time>2026-05-01T09:22:54.592Z</time></trkpt><trkpt lat="43.763334" lon="11.2754623"><ele>53.5</ele><time>2026-05-01T09:22:56.592Z</time></trkpt><trkpt lat="43.7633416" lon="11.2755694"><ele>53.333333333333336</ele><time>2026-05-01T09:22:58.592Z</time></trkpt><trkpt lat="43.7633301" lon="11.2756719"><ele>53.16666666666667</ele><time>2026-05-01T09:23:00.592Z</time></trkpt><trkpt lat="43.7633163" lon="11.2757919"><ele>53.0</ele><time>2026-05-01T09:23:03.591Z</time></trkpt><trkpt lat="43.7633226" lon="11.2758914"><ele>52.833333333333336</ele><time>2026-05-01T09:23:05.591Z</time></trkpt><trkpt lat="43.7633072" lon="11.2759892"><ele>52.66666666666667</ele><time>2026-05-01T09:23:09.591Z</time></trkpt><trkpt lat="43.7633003" lon="11.2760843"><ele>52.5</ele><time>2026-05-01T09:23:11.591Z</time></trkpt><trkpt lat="43.7633193" lon="11.2762196"><ele>52.33333333333333</ele><time>2026-05-01T09:23:13.591Z</time></trkpt><trkpt lat="43.7633351" lon="11.2763613"><ele>52.166666666666664</ele><time>2026-05-01T09:23:15.592Z</time></trkpt><trkpt lat="43.7633352" lon="11.276496"><ele>52.0</ele><time>2026-05-01T09:23:17.592Z</time></trkpt><trkpt lat="43.7633332" lon="11.2766303"><ele>51.99999999999999</ele><time>2026-05-01T09:23:19.59Z</time></trkpt><trkpt lat="43.7633276" lon="11.276728"><ele>52.0</ele><time>2026-05-01T09:23:21.591Z</time></trkpt><trkpt lat="43.763314" lon="11.2768269"><ele>52.0</ele><time>2026-05-01T09:23:23.59Z</time></trkpt><trkpt lat="43.7633115" lon="11.2769414"><ele>52.0</ele><time>2026-05-01T09:23:25.589Z</time></trkpt><trkpt lat="43.7633115" lon="11.2770532"><ele>51.99999999999999</ele><time>2026-05-01T09:23:27.591Z</time></trkpt><trkpt lat="43.7633106" lon="11.2771699"><ele>52.0</ele><time>2026-05-01T09:23:30.591Z</time></trkpt><trkpt lat="43.763294" lon="11.2772662"><ele>52.0</ele><time>2026-05-01T09:23:33.59Z</time></trkpt><trkpt lat="43.7632689" lon="11.2774029"><ele>52.0</ele><time>2026-05-01T09:23:36.589Z</time></trkpt><trkpt lat="43.7632745" lon="11.2775285"><ele>52.0</ele><time>2026-05-01T09:23:38.591Z</time></trkpt><trkpt lat="43.763285" lon="11.2776671"><ele>52.0</ele><time>2026-05-01T09:23:40.59Z</time></trkpt><trkpt lat="43.7632971" lon="11.2777789"><ele>52.0</ele><time>2026-05-01T09:23:42.59Z</time></trkpt><trkpt lat="43.763304" lon="11.2778841"><ele>51.99999999999999</ele><time>2026-05-01T09:23:44.59Z</time></trkpt><trkpt lat="43.7633021" lon="11.277984"><ele>52.0</ele><time>2026-05-01T09:23:46.591Z</time></trkpt><trkpt lat="43.7632945" lon="11.278085"><ele>52.0</ele><time>2026-05-01T09:23:48.59Z</time></trkpt><trkpt lat="43.7632878" lon="11.2782118"><ele>52.0</ele><time>2026-05-01T09:23:50.591Z</time></trkpt><trkpt lat="43.7632871" lon="11.2783427"><ele>51.99999999999999</ele><time>2026-05-01T09:23:51.591Z</time></trkpt><trkpt lat="43.7632689" lon="11.2784272"><ele>52.0</ele><time>2026-05-01T09:23:54.59Z</time></trkpt><trkpt lat="43.7632816" lon="11.2785342"><ele>51.99999999999999</ele><time>2026-05-01T09:23:56.591Z</time></trkpt><trkpt lat="43.7632802" lon="11.2786333"><ele>52.0</ele><time>2026-05-01T09:23:58.591Z</time></trkpt><trkpt lat="43.7632655" lon="11.2787743"><ele>52.0</ele><time>2026-05-01T09:24:00.591Z</time></trkpt><trkpt lat="43.7632689" lon="11.2788833"><ele>52.0</ele><time>2026-05-01T09:24:02.591Z</time></trkpt><trkpt lat="43.7632579" lon="11.2789829"><ele>51.99999999999999</ele><time>2026-05-01T09:24:04.591Z</time></trkpt><trkpt lat="43.7632444" lon="11.2790835"><ele>52.0</ele><time>2026-05-01T09:24:06.591Z</time></trkpt><trkpt lat="43.7632397" lon="11.279207"><ele>51.99999999999999</ele><time>2026-05-01T09:24:09.59Z</time></trkpt><trkpt lat="43.7632379" lon="11.2793272"><ele>52.0</ele><time>2026-05-01T09:24:12.59Z</time></trkpt><trkpt lat="43.7632368" lon="11.2794451"><ele>52.0</ele><time>2026-05-01T09:24:14.592Z</time></trkpt><trkpt lat="43.7632332" lon="11.2795583"><ele>52.0</ele><time>2026-05-01T09:24:16.591Z</time></trkpt><trkpt lat="43.7632298" lon="11.2796672"><ele>51.99999999999999</ele><time>2026-05-01T09:24:18.591Z</time></trkpt><trkpt lat="43.7632363" lon="11.2797713"><ele>52.0</ele><time>2026-05-01T09:24:20.592Z</time></trkpt><trkpt lat="43.7632469" lon="11.2798673"><ele>52.166666666666664</ele><time>2026-05-01T09:24:22.59Z</time></trkpt><trkpt lat="43.7632589" lon="11.2799694"><ele>52.33333333333333</ele><time>2026-05-01T09:24:24.591Z</time></trkpt><trkpt lat="43.763267" lon="11.2800582"><ele>52.5</ele><time>2026-05-01T09:24:26.59Z</time></trkpt><trkpt lat="43.7632729" lon="11.2801489"><ele>52.66666666666667</ele><time>2026-05-01T09:24:28.592Z</time></trkpt><trkpt lat="43.7633088" lon="11.2802676"><ele>52.833333333333336</ele><time>2026-05-01T09:24:31.591Z</time></trkpt><trkpt lat="43.76333" lon="11.2803537"><ele>53.0</ele><time>2026-05-01T09:24:33.591Z</time></trkpt><trkpt lat="43.7633532" lon="11.2804682"><ele>53.00000000000001</ele><time>2026-05-01T09:24:36.589Z</time></trkpt><trkpt lat="43.7633812" lon="11.280566"><ele>53.0</ele><time>2026-05-01T09:24:38.59Z</time></trkpt><trkpt lat="43.7634086" lon="11.2806594"><ele>53.0</ele><time>2026-05-01T09:24:40.591Z</time></trkpt><trkpt lat="43.7634399" lon="11.2807493"><ele>53.0</ele><time>2026-05-01T09:24:42.591Z</time></trkpt><trkpt lat="43.7634798" lon="11.2808367"><ele>53.00000000000001</ele><time>2026-05-01T09:24:45.59Z</time></trkpt><trkpt lat="43.7635139" lon="11.2809462"><ele>53.0</ele><time>2026-05-01T09:24:48.591Z</time></trkpt><trkpt lat="43.7635078" lon="11.2810944"><ele>53.00000000000001</ele><time>2026-05-01T09:24:51.591Z</time></trkpt><trkpt lat="43.7635063" lon="11.281197"><ele>53.0</ele><time>2026-05-01T09:24:53.591Z</time></trkpt><trkpt lat="43.7635168" lon="11.2812943"><ele>53.0</ele><time>2026-05-01T09:24:56.591Z</time></trkpt><trkpt lat="43.7635506" lon="11.2813895"><ele>53.0</ele><time>2026-05-01T09:25:00.589Z</time></trkpt><trkpt lat="43.7636241" lon="11.2814115"><ele>53.00000000000001</ele><time>2026-05-01T09:25:04.589Z</time></trkpt><trkpt lat="43.7636839" lon="11.2813712"><ele>53.0</ele><time>2026-05-01T09:25:07.591Z</time></trkpt><trkpt lat="43.763754" lon="11.2812983"><ele>53.0</ele><time>2026-05-01T09:25:10.59Z</time></trkpt><trkpt lat="43.7638099" lon="11.2812468"><ele>53.0</ele><time>2026-05-01T09:25:13.591Z</time></trkpt><trkpt lat="43.7638738" lon="11.2812496"><ele>53.0</ele><time>2026-05-01T09:25:18.591Z</time></trkpt><trkpt lat="43.7639441" lon="11.2812201"><ele>53.0</ele><time>2026-05-01T09:25:37.592Z</time></trkpt><trkpt lat="43.7640237" lon="11.2812522"><ele>53.0</ele><time>2026-05-01T09:25:40.589Z</time></trkpt><trkpt lat="43.7640821" lon="11.2813334"><ele>53.0</ele><time>2026-05-01T09:25:43.592Z</time></trkpt><trkpt lat="43.7641361" lon="11.2813886"><ele>53.0</ele><time>2026-05-01T09:25:47.591Z</time></trkpt><trkpt lat="43.7641688" lon="11.2814792"><ele>53.00000000000001</ele><time>2026-05-01T09:25:52.59Z</time></trkpt><trkpt lat="43.7641624" lon="11.2815973"><ele>53.0</ele><time>2026-05-01T09:25:55.59Z</time></trkpt><trkpt lat="43.7641854" lon="11.2817133"><ele>53.0</ele><time>2026-05-01T09:25:58.591Z</time></trkpt><trkpt lat="43.7642466" lon="11.2817792"><ele>53.0</ele><time>2026-05-01T09:26:01.592Z</time></trkpt><trkpt lat="43.7643101" lon="11.2817636"><ele>53.00000000000001</ele><time>2026-05-01T09:26:03.591Z</time></trkpt><trkpt lat="43.7643822" lon="11.2817649"><ele>53.0</ele><time>2026-05-01T09:26:05.591Z</time></trkpt><trkpt lat="43.7644567" lon="11.2817754"><ele>52.66666666666667</ele><time>2026-05-01T09:26:07.592Z</time></trkpt><trkpt lat="43.7645366" lon="11.281786"><ele>52.333333333333336</ele><time>2026-05-01T09:26:09.591Z</time></trkpt><trkpt lat="43.7646195" lon="11.281799"><ele>52.0</ele><time>2026-05-01T09:26:11.591Z</time></trkpt><trkpt lat="43.7646975" lon="11.281814"><ele>51.66666666666667</ele><time>2026-05-01T09:26:13.591Z</time></trkpt><trkpt lat="43.7647781" lon="11.2818225"><ele>51.333333333333336</ele><time>2026-05-01T09:26:15.59Z</time></trkpt><trkpt lat="43.7648557" lon="11.2818294"><ele>51.0</ele><time>2026-05-01T09:26:17.59Z</time></trkpt><trkpt lat="43.7649339" lon="11.2818354"><ele>51.0</ele><time>2026-05-01T09:26:19.591Z</time></trkpt><trkpt lat="43.7650137" lon="11.2818475"><ele>51.0</ele><time>2026-05-01T09:26:21.591Z</time></trkpt><trkpt lat="43.7650939" lon="11.2818564"><ele>51.0</ele><time>2026-05-01T09:26:23.59Z</time></trkpt><trkpt lat="43.7651746" lon="11.2818673"><ele>51.0</ele><time>2026-05-01T09:26:25.591Z</time></trkpt><trkpt lat="43.7652511" lon="11.2818803"><ele>51.0</ele><time>2026-05-01T09:26:27.592Z</time></trkpt><trkpt lat="43.7653209" lon="11.2818991"><ele>51.0</ele><time>2026-05-01T09:26:29.591Z</time></trkpt><trkpt lat="43.7653994" lon="11.2819177"><ele>51.42857142857143</ele><time>2026-05-01T09:26:31.592Z</time></trkpt><trkpt lat="43.7654768" lon="11.2819214"><ele>51.85714285714286</ele><time>2026-05-01T09:26:33.591Z</time></trkpt><trkpt lat="43.7655518" lon="11.281928"><ele>52.285714285714285</ele><time>2026-05-01T09:26:35.591Z</time></trkpt><trkpt lat="43.7656279" lon="11.2819411"><ele>52.714285714285715</ele><time>2026-05-01T09:26:37.59Z</time></trkpt><trkpt lat="43.7656784" lon="11.2819988"><ele>53.14285714285714</ele><time>2026-05-01T09:26:39.591Z</time></trkpt><trkpt lat="43.7656819" lon="11.2820881"><ele>53.57142857142857</ele><time>2026-05-01T09:26:41.59Z</time></trkpt><trkpt lat="43.7656703" lon="11.2821767"><ele>54.0</ele><time>2026-05-01T09:26:43.592Z</time></trkpt><trkpt lat="43.7656775" lon="11.2823062"><ele>54.0</ele><time>2026-05-01T09:26:45.592Z</time></trkpt><trkpt lat="43.7656928" lon="11.2824319"><ele>54.0</ele><time>2026-05-01T09:26:47.592Z</time></trkpt><trkpt lat="43.7656996" lon="11.2825713"><ele>54.0</ele><time>2026-05-01T09:26:49.59Z</time></trkpt><trkpt lat="43.7657084" lon="11.2826862"><ele>54.0</ele><time>2026-05-01T09:26:51.591Z</time></trkpt><trkpt lat="43.7657285" lon="11.2827739"><ele>54.0</ele><time>2026-05-01T09:26:53.591Z</time></trkpt><trkpt lat="43.7657301" lon="11.2828759"><ele>54.0</ele><time>2026-05-01T09:26:55.59Z</time></trkpt><trkpt lat="43.765736" lon="11.2829762"><ele>54.0</ele><time>2026-05-01T09:26:57.59Z</time></trkpt><trkpt lat="43.7657442" lon="11.2830913"><ele>54.0</ele><time>2026-05-01T09:26:59.591Z</time></trkpt><trkpt lat="43.7657544" lon="11.2831909"><ele>54.0</ele><time>2026-05-01T09:27:01.592Z</time></trkpt><trkpt lat="43.7657743" lon="11.2832787"><ele>54.0</ele><time>2026-05-01T09:27:03.591Z</time></trkpt><trkpt lat="43.765795" lon="11.2833618"><ele>54.0</ele><time>2026-05-01T09:27:05.591Z</time></trkpt><trkpt lat="43.7657622" lon="11.2834637"><ele>54.0</ele><time>2026-05-01T09:28:13.59Z</time></trkpt><trkpt lat="43.7657744" lon="11.2835792"><ele>53.57142857142857</ele><time>2026-05-01T09:28:16.591Z</time></trkpt><trkpt lat="43.765802" lon="11.2836734"><ele>53.14285714285714</ele><time>2026-05-01T09:28:19.591Z</time></trkpt><trkpt lat="43.7658294" lon="11.2837836"><ele>52.714285714285715</ele><time>2026-05-01T09:28:23.591Z</time></trkpt><trkpt lat="43.7658485" lon="11.28387"><ele>52.285714285714285</ele><time>2026-05-01T09:28:26.59Z</time></trkpt><trkpt lat="43.7658752" lon="11.283967"><ele>51.85714285714286</ele><time>2026-05-01T09:28:30.591Z</time></trkpt><trkpt lat="43.7658474" lon="11.284056"><ele>51.42857142857143</ele><time>2026-05-01T09:28:48.591Z</time></trkpt><trkpt lat="43.7657968" lon="11.2839946"><ele>51.0</ele><time>2026-05-01T09:28:51.589Z</time></trkpt><trkpt lat="43.7657466" lon="11.283897"><ele>51.0</ele><time>2026-05-01T09:28:54.591Z</time></trkpt><trkpt lat="43.7656755" lon="11.283882"><ele>51.0</ele><time>2026-05-01T09:28:57.591Z</time></trkpt><trkpt lat="43.7656995" lon="11.2839662"><ele>51.0</ele><time>2026-05-01T09:29:01.591Z</time></trkpt><trkpt lat="43.7657635" lon="11.2839426"><ele>51.0</ele><time>2026-05-01T09:29:06.591Z</time></trkpt><trkpt lat="43.765817" lon="11.284012"><ele>51.0</ele><time>2026-05-01T09:29:40.591Z</time></trkpt><trkpt lat="43.765874" lon="11.2839504"><ele>51.0</ele><time>2026-05-01T09:29:45.592Z</time></trkpt><trkpt lat="43.7658472" lon="11.2838558"><ele>51.0</ele><time>2026-05-01T09:29:48.59Z</time></trkpt><trkpt lat="43.765831" lon="11.2837647"><ele>51.0</ele><time>2026-05-01T09:29:51.59Z</time></trkpt><trkpt lat="43.7658155" lon="11.2836673"><ele>51.0</ele><time>2026-05-01T09:29:54.59Z</time></trkpt><trkpt lat="43.7658026" lon="11.283569"><ele>51.0</ele><time>2026-05-01T09:29:57.591Z</time></trkpt><trkpt lat="43.7657888" lon="11.2834622"><ele>51.0</ele><time>2026-05-01T09:30:00.59Z</time></trkpt><trkpt lat="43.7657725" lon="11.2833407"><ele>51.0</ele><time>2026-05-01T09:30:03.592Z</time></trkpt><trkpt lat="43.7657554" lon="11.2832205"><ele>51.0</ele><time>2026-05-01T09:30:06.591Z</time></trkpt><trkpt lat="43.765739" lon="11.283113"><ele>51.5</ele><time>2026-05-01T09:30:09.589Z</time></trkpt><trkpt lat="43.7657256" lon="11.2829965"><ele>52.0</ele><time>2026-05-01T09:30:12.591Z</time></trkpt><trkpt lat="43.7657306" lon="11.282904"><ele>52.5</ele><time>2026-05-01T09:30:14.59Z</time></trkpt><trkpt lat="43.7657362" lon="11.2828134"><ele>53.0</ele><time>2026-05-01T09:30:16.591Z</time></trkpt><trkpt lat="43.7657364" lon="11.2826873"><ele>53.5</ele><time>2026-05-01T09:30:19.591Z</time></trkpt><trkpt lat="43.765732" lon="11.2825638"><ele>54.0</ele><time>2026-05-01T09:30:22.59Z</time></trkpt><trkpt lat="43.7657306" lon="11.2824361"><ele>54.0</ele><time>2026-05-01T09:30:25.589Z</time></trkpt><trkpt lat="43.7657325" lon="11.2823082"><ele>54.0</ele><time>2026-05-01T09:30:28.59Z</time></trkpt><trkpt lat="43.7657403" lon="11.2821891"><ele>54.0</ele><time>2026-05-01T09:30:31.592Z</time></trkpt><trkpt lat="43.7657336" lon="11.2820923"><ele>54.0</ele><time>2026-05-01T09:30:34.59Z</time></trkpt><trkpt lat="43.7658105" lon="11.2821384"><ele>54.0</ele><time>2026-05-01T09:30:39.591Z</time></trkpt><trkpt lat="43.7658378" lon="11.2822479"><ele>54.0</ele><time>2026-05-01T09:30:41.591Z</time></trkpt><trkpt lat="43.7658537" lon="11.2823418"><ele>54.0</ele><time>2026-05-01T09:30:43.591Z</time></trkpt><trkpt lat="43.7658693" lon="11.2824469"><ele>54.0</ele><time>2026-05-01T09:30:46.589Z</time></trkpt><trkpt lat="43.7658782" lon="11.2825569"><ele>54.0</ele><time>2026-05-01T09:30:49.59Z</time></trkpt><trkpt lat="43.7659051" lon="11.2826744"><ele>54.0</ele><time>2026-05-01T09:30:52.591Z</time></trkpt><trkpt lat="43.7659259" lon="11.2827627"><ele>54.0</ele><time>2026-05-01T09:30:54.591Z</time></trkpt><trkpt lat="43.7659442" lon="11.2828524"><ele>54.0</ele><time>2026-05-01T09:30:56.59Z</time></trkpt><trkpt lat="43.7659591" lon="11.2829438"><ele>54.0</ele><time>2026-05-01T09:30:58.591Z</time></trkpt><trkpt lat="43.7659818" lon="11.2830624"><ele>53.5</ele><time>2026-05-01T09:31:01.589Z</time></trkpt><trkpt lat="43.7660001" lon="11.2831686"><ele>53.0</ele><time>2026-05-01T09:31:04.59Z</time></trkpt><trkpt lat="43.7660375" lon="11.2833498"><ele>52.5</ele><time>2026-05-01T09:31:07.59Z</time></trkpt><trkpt lat="43.7660047" lon="11.2834707"><ele>52.0</ele><time>2026-05-01T09:31:11.591Z</time></trkpt><trkpt lat="43.765978" lon="11.2835569"><ele>51.5</ele><time>2026-05-01T09:31:19.59Z</time></trkpt><trkpt lat="43.7659925" lon="11.2836533"><ele>51.0</ele><time>2026-05-01T09:31:21.589Z</time></trkpt><trkpt lat="43.7660156" lon="11.2837554"><ele>52.333333333333336</ele><time>2026-05-01T09:31:24.59Z</time></trkpt><trkpt lat="43.7660312" lon="11.283872"><ele>53.66666666666667</ele><time>2026-05-01T09:31:28.591Z</time></trkpt><trkpt lat="43.766035" lon="11.2839739"><ele>55.0</ele><time>2026-05-01T09:31:31.592Z</time></trkpt><trkpt lat="43.7660494" lon="11.2840791"><ele>56.333333333333336</ele><time>2026-05-01T09:31:35.59Z</time></trkpt><trkpt lat="43.7660541" lon="11.2842016"><ele>57.66666666666667</ele><time>2026-05-01T09:31:38.591Z</time></trkpt><trkpt lat="43.7660598" lon="11.2842945"><ele>59.0</ele><time>2026-05-01T09:31:40.589Z</time></trkpt><trkpt lat="43.7660676" lon="11.2844002"><ele>59.00000000000001</ele><time>2026-05-01T09:31:42.591Z</time></trkpt><trkpt lat="43.7660797" lon="11.2845275"><ele>59.0</ele><time>2026-05-01T09:31:44.59Z</time></trkpt><trkpt lat="43.766092" lon="11.2846538"><ele>59.0</ele><time>2026-05-01T09:31:46.59Z</time></trkpt><trkpt lat="43.7661078" lon="11.2847678"><ele>59.0</ele><time>2026-05-01T09:31:48.591Z</time></trkpt><trkpt lat="43.7661303" lon="11.284861"><ele>59.00000000000001</ele><time>2026-05-01T09:31:50.591Z</time></trkpt><trkpt lat="43.7661528" lon="11.2849516"><ele>59.0</ele><time>2026-05-01T09:31:52.59Z</time></trkpt><trkpt lat="43.7661685" lon="11.2850454"><ele>58.57142857142857</ele><time>2026-05-01T09:31:54.592Z</time></trkpt><trkpt lat="43.7661837" lon="11.2851356"><ele>58.142857142857146</ele><time>2026-05-01T09:31:56.59Z</time></trkpt><trkpt lat="43.7662151" lon="11.2852423"><ele>57.714285714285715</ele><time>2026-05-01T09:31:59.589Z</time></trkpt><trkpt lat="43.7662375" lon="11.2853266"><ele>57.285714285714285</ele><time>2026-05-01T09:32:01.59Z</time></trkpt><trkpt lat="43.7662516" lon="11.2854129"><ele>56.85714285714286</ele><time>2026-05-01T09:32:03.591Z</time></trkpt><trkpt lat="43.7662634" lon="11.2855011"><ele>56.42857142857143</ele><time>2026-05-01T09:32:05.591Z</time></trkpt><trkpt lat="43.7662875" lon="11.2856185"><ele>56.0</ele><time>2026-05-01T09:32:08.59Z</time></trkpt><trkpt lat="43.7663146" lon="11.2857097"><ele>56.0</ele><time>2026-05-01T09:32:10.591Z</time></trkpt><trkpt lat="43.7663236" lon="11.2858035"><ele>56.0</ele><time>2026-05-01T09:32:12.591Z</time></trkpt><trkpt lat="43.7663234" lon="11.2858935"><ele>56.0</ele><time>2026-05-01T09:32:14.589Z</time></trkpt><trkpt lat="43.7663232" lon="11.2859827"><ele>56.0</ele><time>2026-05-01T09:32:16.59Z</time></trkpt><trkpt lat="43.7663223" lon="11.2860705"><ele>56.0</ele><time>2026-05-01T09:32:18.59Z</time></trkpt><trkpt lat="43.7663122" lon="11.2861974"><ele>56.0</ele><time>2026-05-01T09:32:21.59Z</time></trkpt><trkpt lat="43.7663142" lon="11.2862859"><ele>56.0</ele><time>2026-05-01T09:32:23.591Z</time></trkpt><trkpt lat="43.7663195" lon="11.2864065"><ele>55.833333333333336</ele><time>2026-05-01T09:32:26.589Z</time></trkpt><trkpt lat="43.7663239" lon="11.2865103"><ele>55.66666666666667</ele><time>2026-05-01T09:32:29.591Z</time></trkpt><trkpt lat="43.7663236" lon="11.2865994"><ele>55.5</ele><time>2026-05-01T09:32:32.589Z</time></trkpt><trkpt lat="43.7663161" lon="11.2867092"><ele>55.33333333333333</ele><time>2026-05-01T09:32:35.589Z</time></trkpt><trkpt lat="43.7663197" lon="11.2868254"><ele>55.166666666666664</ele><time>2026-05-01T09:32:38.589Z</time></trkpt><trkpt lat="43.7663269" lon="11.2869305"><ele>55.0</ele><time>2026-05-01T09:32:41.59Z</time></trkpt><trkpt lat="43.7663364" lon="11.2870359"><ele>54.99999999999999</ele><time>2026-05-01T09:32:45.589Z</time></trkpt><trkpt lat="43.7663546" lon="11.2871587"><ele>55.0</ele><time>2026-05-01T09:32:48.59Z</time></trkpt><trkpt lat="43.766374" lon="11.2872763"><ele>55.0</ele><time>2026-05-01T09:32:52.591Z</time></trkpt><trkpt lat="43.7663836" lon="11.2873664"><ele>55.0</ele><time>2026-05-01T09:32:54.59Z</time></trkpt><trkpt lat="43.7663927" lon="11.2874607"><ele>54.99999999999999</ele><time>2026-05-01T09:32:56.589Z</time></trkpt><trkpt lat="43.7663995" lon="11.2875542"><ele>55.0</ele><time>2026-05-01T09:32:58.591Z</time></trkpt><trkpt lat="43.766404" lon="11.2876714"><ele>54.99999999999999</ele><time>2026-05-01T09:33:00.589Z</time></trkpt><trkpt lat="43.766392" lon="11.287771"><ele>55.0</ele><time>2026-05-01T09:33:02.589Z</time></trkpt><trkpt lat="43.7663977" lon="11.287884"><ele>55.0</ele><time>2026-05-01T09:33:04.59Z</time></trkpt><trkpt lat="43.7664167" lon="11.2879907"><ele>55.0</ele><time>2026-05-01T09:33:06.59Z</time></trkpt><trkpt lat="43.7664345" lon="11.2880812"><ele>54.99999999999999</ele><time>2026-05-01T09:33:08.591Z</time></trkpt><trkpt lat="43.7664503" lon="11.2881859"><ele>55.0</ele><time>2026-05-01T09:33:10.59Z</time></trkpt><trkpt lat="43.7664608" lon="11.2882903"><ele>54.99999999999999</ele><time>2026-05-01T09:33:12.591Z</time></trkpt><trkpt lat="43.7664678" lon="11.2883821"><ele>55.0</ele><time>2026-05-01T09:33:14.59Z</time></trkpt><trkpt lat="43.7664711" lon="11.2884774"><ele>55.0</ele><time>2026-05-01T09:33:16.591Z</time></trkpt><trkpt lat="43.7664769" lon="11.2885673"><ele>55.0</ele><time>2026-05-01T09:33:18.59Z</time></trkpt><trkpt lat="43.7664898" lon="11.288662"><ele>55.0</ele><time>2026-05-01T09:33:20.59Z</time></trkpt><trkpt lat="43.7665017" lon="11.2887588"><ele>54.99999999999999</ele><time>2026-05-01T09:33:22.59Z</time></trkpt><trkpt lat="43.7665096" lon="11.2888547"><ele>55.0</ele><time>2026-05-01T09:33:24.59Z</time></trkpt><trkpt lat="43.7665221" lon="11.2889403"><ele>55.166666666666664</ele><time>2026-05-01T09:33:26.591Z</time></trkpt><trkpt lat="43.7665393" lon="11.2890677"><ele>55.33333333333333</ele><time>2026-05-01T09:33:29.59Z</time></trkpt><trkpt lat="43.7665463" lon="11.2891604"><ele>55.5</ele><time>2026-05-01T09:33:31.59Z</time></trkpt><trkpt lat="43.7665648" lon="11.289244"><ele>55.66666666666667</ele><time>2026-05-01T09:33:33.591Z</time></trkpt><trkpt lat="43.7665778" lon="11.289338"><ele>55.833333333333336</ele><time>2026-05-01T09:33:35.59Z</time></trkpt><trkpt lat="43.766597" lon="11.2894312"><ele>56.0</ele><time>2026-05-01T09:33:37.591Z</time></trkpt><trkpt lat="43.7666216" lon="11.2895529"><ele>56.0</ele><time>2026-05-01T09:33:40.59Z</time></trkpt><trkpt lat="43.7666327" lon="11.289643"><ele>56.0</ele><time>2026-05-01T09:33:42.588Z</time></trkpt><trkpt lat="43.7666411" lon="11.2897332"><ele>56.0</ele><time>2026-05-01T09:33:44.589Z</time></trkpt><trkpt lat="43.7666473" lon="11.2898288"><ele>56.0</ele><time>2026-05-01T09:33:46.59Z</time></trkpt><trkpt lat="43.7666516" lon="11.2899219"><ele>56.0</ele><time>2026-05-01T09:33:48.59Z</time></trkpt><trkpt lat="43.7666658" lon="11.2900296"><ele>56.0</ele><time>2026-05-01T09:33:50.589Z</time></trkpt><trkpt lat="43.7666803" lon="11.2901239"><ele>56.0</ele><time>2026-05-01T09:33:52.589Z</time></trkpt><trkpt lat="43.7666946" lon="11.2902235"><ele>56.0</ele><time>2026-05-01T09:33:54.59Z</time></trkpt><trkpt lat="43.7667129" lon="11.2903222"><ele>56.0</ele><time>2026-05-01T09:33:56.59Z</time></trkpt><trkpt lat="43.7667294" lon="11.2904188"><ele>56.0</ele><time>2026-05-01T09:33:58.59Z</time></trkpt><trkpt lat="43.7667451" lon="11.2905153"><ele>56.0</ele><time>2026-05-01T09:34:00.59Z</time></trkpt><trkpt lat="43.7667588" lon="11.2906017"><ele>56.0</ele><time>2026-05-01T09:34:02.589Z</time></trkpt><trkpt lat="43.7667646" lon="11.2907056"><ele>56.0</ele><time>2026-05-01T09:34:05.589Z</time></trkpt><trkpt lat="43.7667744" lon="11.2907966"><ele>56.0</ele><time>2026-05-01T09:34:07.589Z</time></trkpt><trkpt lat="43.7667886" lon="11.2908898"><ele>56.0</ele><time>2026-05-01T09:34:09.589Z</time></trkpt><trkpt lat="43.7668009" lon="11.2909949"><ele>56.0</ele><time>2026-05-01T09:34:11.589Z</time></trkpt><trkpt lat="43.7668169" lon="11.2910988"><ele>56.0</ele><time>2026-05-01T09:34:13.59Z</time></trkpt><trkpt lat="43.7668342" lon="11.2912033"><ele>56.0</ele><time>2026-05-01T09:34:15.589Z</time></trkpt><trkpt lat="43.7668425" lon="11.2913008"><ele>56.0</ele><time>2026-05-01T09:34:17.588Z</time></trkpt><trkpt lat="43.7668495" lon="11.2913983"><ele>56.0</ele><time>2026-05-01T09:34:19.589Z</time></trkpt><trkpt lat="43.7668589" lon="11.291494"><ele>56.0</ele><time>2026-05-01T09:34:21.59Z</time></trkpt><trkpt lat="43.7668682" lon="11.2915878"><ele>56.0</ele><time>2026-05-01T09:34:23.592Z</time></trkpt><trkpt lat="43.7668782" lon="11.2916803"><ele>56.0</ele><time>2026-05-01T09:34:25.589Z</time></trkpt><trkpt lat="43.7668881" lon="11.2917734"><ele>56.0</ele><time>2026-05-01T09:34:27.59Z</time></trkpt><trkpt lat="43.7668888" lon="11.291898"><ele>56.0</ele><time>2026-05-01T09:34:30.591Z</time></trkpt><trkpt lat="43.7668915" lon="11.2919874"><ele>56.0</ele><time>2026-05-01T09:34:32.59Z</time></trkpt><trkpt lat="43.7668942" lon="11.2920804"><ele>56.0</ele><time>2026-05-01T09:34:34.59Z</time></trkpt><trkpt lat="43.7668994" lon="11.292175"><ele>56.0</ele><time>2026-05-01T09:34:36.589Z</time></trkpt><trkpt lat="43.7669089" lon="11.2922978"><ele>55.857142857142854</ele><time>2026-05-01T09:34:39.589Z</time></trkpt><trkpt lat="43.7669172" lon="11.2923862"><ele>55.714285714285715</ele><time>2026-05-01T09:34:41.59Z</time></trkpt><trkpt lat="43.7669229" lon="11.2924841"><ele>55.57142857142857</ele><time>2026-05-01T09:34:43.59Z</time></trkpt><trkpt lat="43.7669306" lon="11.2925871"><ele>55.42857142857143</ele><time>2026-05-01T09:34:45.589Z</time></trkpt><trkpt lat="43.7669442" lon="11.2926817"><ele>55.285714285714285</ele><time>2026-05-01T09:34:47.589Z</time></trkpt><trkpt lat="43.7669497" lon="11.29277"><ele>55.14285714285714</ele><time>2026-05-01T09:34:49.59Z</time></trkpt><trkpt lat="43.7669596" lon="11.2928628"><ele>55.0</ele><time>2026-05-01T09:34:51.59Z</time></trkpt><trkpt lat="43.7669657" lon="11.2929575"><ele>54.99999999999999</ele><time>2026-05-01T09:34:53.589Z</time></trkpt><trkpt lat="43.7669778" lon="11.2930506"><ele>55.0</ele><time>2026-05-01T09:34:55.589Z</time></trkpt><trkpt lat="43.7669906" lon="11.2931451"><ele>55.0</ele><time>2026-05-01T09:34:57.589Z</time></trkpt><trkpt lat="43.7670015" lon="11.2932422"><ele>55.0</ele><time>2026-05-01T09:34:59.59Z</time></trkpt><trkpt lat="43.7670127" lon="11.293343"><ele>55.0</ele><time>2026-05-01T09:35:01.589Z</time></trkpt><trkpt lat="43.7670223" lon="11.2934428"><ele>54.99999999999999</ele><time>2026-05-01T09:35:03.59Z</time></trkpt><trkpt lat="43.767032" lon="11.2935385"><ele>55.0</ele><time>2026-05-01T09:35:05.589Z</time></trkpt><trkpt lat="43.7670446" lon="11.2936313"><ele>54.99999999999999</ele><time>2026-05-01T09:35:07.589Z</time></trkpt><trkpt lat="43.7670554" lon="11.2937248"><ele>55.0</ele><time>2026-05-01T09:35:09.589Z</time></trkpt><trkpt lat="43.7670625" lon="11.2938225"><ele>55.0</ele><time>2026-05-01T09:35:11.59Z</time></trkpt><trkpt lat="43.7670682" lon="11.2939161"><ele>55.0</ele><time>2026-05-01T09:35:13.589Z</time></trkpt><trkpt lat="43.7670734" lon="11.294006"><ele>54.99999999999999</ele><time>2026-05-01T09:35:15.589Z</time></trkpt><trkpt lat="43.7670796" lon="11.29413"><ele>55.0</ele><time>2026-05-01T09:35:18.589Z</time></trkpt><trkpt lat="43.7670731" lon="11.2942586"><ele>54.99999999999999</ele><time>2026-05-01T09:35:21.59Z</time></trkpt><trkpt lat="43.7670738" lon="11.2943515"><ele>55.0</ele><time>2026-05-01T09:35:23.59Z</time></trkpt><trkpt lat="43.7670718" lon="11.2944443"><ele>55.0</ele><time>2026-05-01T09:35:25.589Z</time></trkpt><trkpt lat="43.7670728" lon="11.2945367"><ele>55.0</ele><time>2026-05-01T09:35:27.59Z</time></trkpt><trkpt lat="43.7670524" lon="11.2946612"><ele>54.99999999999999</ele><time>2026-05-01T09:35:30.589Z</time></trkpt><trkpt lat="43.7670294" lon="11.2947871"><ele>55.0</ele><time>2026-05-01T09:35:33.59Z</time></trkpt><trkpt lat="43.767009" lon="11.2948747"><ele>54.71428571428571</ele><time>2026-05-01T09:35:35.59Z</time></trkpt><trkpt lat="43.766988" lon="11.294967"><ele>54.42857142857143</ele><time>2026-05-01T09:35:37.589Z</time></trkpt><trkpt lat="43.7669735" lon="11.2950624"><ele>54.14285714285714</ele><time>2026-05-01T09:35:39.589Z</time></trkpt><trkpt lat="43.766956" lon="11.2951567"><ele>53.857142857142854</ele><time>2026-05-01T09:35:41.59Z</time></trkpt><trkpt lat="43.7669362" lon="11.295247"><ele>53.57142857142857</ele><time>2026-05-01T09:35:43.589Z</time></trkpt><trkpt lat="43.7669113" lon="11.295367"><ele>53.285714285714285</ele><time>2026-05-01T09:35:46.588Z</time></trkpt><trkpt lat="43.7668918" lon="11.2954613"><ele>53.0</ele><time>2026-05-01T09:35:48.59Z</time></trkpt><trkpt lat="43.766867" lon="11.2955472"><ele>53.00000000000001</ele><time>2026-05-01T09:35:50.589Z</time></trkpt><trkpt lat="43.7668462" lon="11.295632"><ele>53.0</ele><time>2026-05-01T09:35:52.588Z</time></trkpt><trkpt lat="43.7668283" lon="11.2957552"><ele>53.0</ele><time>2026-05-01T09:35:55.588Z</time></trkpt><trkpt lat="43.7667999" lon="11.2958854"><ele>53.0</ele><time>2026-05-01T09:35:58.589Z</time></trkpt><trkpt lat="43.766782" lon="11.2959777"><ele>53.00000000000001</ele><time>2026-05-01T09:36:00.59Z</time></trkpt><trkpt lat="43.7667628" lon="11.2960666"><ele>53.0</ele><time>2026-05-01T09:36:02.589Z</time></trkpt><trkpt lat="43.766743" lon="11.2961583"><ele>53.00000000000001</ele><time>2026-05-01T09:36:04.589Z</time></trkpt><trkpt lat="43.7667282" lon="11.2962838"><ele>53.0</ele><time>2026-05-01T09:36:07.588Z</time></trkpt><trkpt lat="43.7667203" lon="11.2964032"><ele>53.0</ele><time>2026-05-01T09:36:10.59Z</time></trkpt><trkpt lat="43.7666808" lon="11.2964934"><ele>53.0</ele><time>2026-05-01T09:36:13.589Z</time></trkpt><trkpt lat="43.7666235" lon="11.2965347"><ele>53.00000000000001</ele><time>2026-05-01T09:36:15.59Z</time></trkpt><trkpt lat="43.7665407" lon="11.2965681"><ele>53.0</ele><time>2026-05-01T09:36:19.589Z</time></trkpt><trkpt lat="43.7664613" lon="11.2965232"><ele>53.00000000000001</ele><time>2026-05-01T09:36:22.59Z</time></trkpt><trkpt lat="43.7664004" lon="11.2964827"><ele>53.0</ele><time>2026-05-01T09:36:24.589Z</time></trkpt><trkpt lat="43.7663354" lon="11.2964423"><ele>53.0</ele><time>2026-05-01T09:36:26.589Z</time></trkpt><trkpt lat="43.7662581" lon="11.2964003"><ele>53.0</ele><time>2026-05-01T09:36:29.59Z</time></trkpt><trkpt lat="43.7661844" lon="11.2964316"><ele>53.00000000000001</ele><time>2026-05-01T09:36:33.588Z</time></trkpt><trkpt lat="43.7661422" lon="11.2965371"><ele>53.0</ele><time>2026-05-01T09:36:36.59Z</time></trkpt><trkpt lat="43.7661245" lon="11.2966303"><ele>53.0</ele><time>2026-05-01T09:36:38.591Z</time></trkpt><trkpt lat="43.7660992" lon="11.2967377"><ele>53.0</ele><time>2026-05-01T09:36:40.59Z</time></trkpt><trkpt lat="43.7660732" lon="11.296842"><ele>53.0</ele><time>2026-05-01T09:36:42.589Z</time></trkpt><trkpt lat="43.76605" lon="11.2969314"><ele>53.0</ele><time>2026-05-01T09:36:44.59Z</time></trkpt><trkpt lat="43.766026" lon="11.2970193"><ele>53.0</ele><time>2026-05-01T09:36:46.589Z</time></trkpt><trkpt lat="43.7660025" lon="11.2971119"><ele>53.0</ele><time>2026-05-01T09:36:48.59Z</time></trkpt><trkpt lat="43.765972" lon="11.2972106"><ele>53.0</ele><time>2026-05-01T09:36:50.59Z</time></trkpt><trkpt lat="43.7659439" lon="11.297309"><ele>52.714285714285715</ele><time>2026-05-01T09:36:52.589Z</time></trkpt><trkpt lat="43.7659253" lon="11.2974046"><ele>52.42857142857142</ele><time>2026-05-01T09:36:54.589Z</time></trkpt><trkpt lat="43.7658963" lon="11.2974985"><ele>52.14285714285714</ele><time>2026-05-01T09:36:56.588Z</time></trkpt><trkpt lat="43.765869" lon="11.2975922"><ele>51.85714285714286</ele><time>2026-05-01T09:36:58.589Z</time></trkpt><trkpt lat="43.7658444" lon="11.2976821"><ele>51.57142857142857</ele><time>2026-05-01T09:37:00.59Z</time></trkpt><trkpt lat="43.7658172" lon="11.29778"><ele>51.285714285714285</ele><time>2026-05-01T09:37:02.59Z</time></trkpt><trkpt lat="43.7657837" lon="11.2978773"><ele>51.0</ele><time>2026-05-01T09:37:04.588Z</time></trkpt><trkpt lat="43.7657487" lon="11.2979705"><ele>51.0</ele><time>2026-05-01T09:37:06.588Z</time></trkpt><trkpt lat="43.7657154" lon="11.2980688"><ele>51.0</ele><time>2026-05-01T09:37:08.59Z</time></trkpt><trkpt lat="43.7656767" lon="11.2981604"><ele>51.0</ele><time>2026-05-01T09:37:10.591Z</time></trkpt><trkpt lat="43.7656395" lon="11.2982586"><ele>51.0</ele><time>2026-05-01T09:37:12.589Z</time></trkpt><trkpt lat="43.7656078" lon="11.2983576"><ele>51.0</ele><time>2026-05-01T09:37:14.588Z</time></trkpt><trkpt lat="43.7655788" lon="11.2984525"><ele>51.0</ele><time>2026-05-01T09:37:16.589Z</time></trkpt><trkpt lat="43.7655492" lon="11.2985496"><ele>51.0</ele><time>2026-05-01T09:37:18.59Z</time></trkpt><trkpt lat="43.7655213" lon="11.2986429"><ele>51.0</ele><time>2026-05-01T09:37:20.588Z</time></trkpt><trkpt lat="43.765497" lon="11.2987352"><ele>51.0</ele><time>2026-05-01T09:37:22.589Z</time></trkpt><trkpt lat="43.7654715" lon="11.2988256"><ele>51.0</ele><time>2026-05-01T09:37:24.589Z</time></trkpt><trkpt lat="43.7654412" lon="11.2989249"><ele>51.0</ele><time>2026-05-01T09:37:26.59Z</time></trkpt><trkpt lat="43.7654125" lon="11.2990238"><ele>51.0</ele><time>2026-05-01T09:37:28.588Z</time></trkpt><trkpt lat="43.765384" lon="11.2991206"><ele>51.0</ele><time>2026-05-01T09:37:30.589Z</time></trkpt><trkpt lat="43.7653547" lon="11.2992141"><ele>51.0</ele><time>2026-05-01T09:37:32.589Z</time></trkpt><trkpt lat="43.7653238" lon="11.2993044"><ele>51.0</ele><time>2026-05-01T09:37:34.589Z</time></trkpt><trkpt lat="43.7652984" lon="11.2993902"><ele>51.0</ele><time>2026-05-01T09:37:36.589Z</time></trkpt><trkpt lat="43.7652717" lon="11.2994727"><ele>51.0</ele><time>2026-05-01T09:37:38.589Z</time></trkpt><trkpt lat="43.7652257" lon="11.2995871"><ele>51.0</ele><time>2026-05-01T09:37:41.589Z</time></trkpt><trkpt lat="43.7651907" lon="11.2996675"><ele>51.0</ele><time>2026-05-01T09:37:43.588Z</time></trkpt><trkpt lat="43.7651608" lon="11.2997584"><ele>51.0</ele><time>2026-05-01T09:37:45.59Z</time></trkpt><trkpt lat="43.7651326" lon="11.2998416"><ele>51.166666666666664</ele><time>2026-05-01T09:37:47.588Z</time></trkpt><trkpt lat="43.7650957" lon="11.2999539"><ele>51.33333333333333</ele><time>2026-05-01T09:37:50.589Z</time></trkpt><trkpt lat="43.7650731" lon="11.3000662"><ele>51.5</ele><time>2026-05-01T09:37:53.589Z</time></trkpt><trkpt lat="43.7650394" lon="11.3001825"><ele>51.666666666666664</ele><time>2026-05-01T09:37:56.589Z</time></trkpt><trkpt lat="43.7650177" lon="11.3002678"><ele>51.83333333333333</ele><time>2026-05-01T09:37:58.59Z</time></trkpt><trkpt lat="43.7649876" lon="11.3003479"><ele>52.0</ele><time>2026-05-01T09:38:00.59Z</time></trkpt><trkpt lat="43.7649552" lon="11.3004244"><ele>51.99999999999999</ele><time>2026-05-01T09:38:02.589Z</time></trkpt><trkpt lat="43.7649266" lon="11.3005095"><ele>52.0</ele><time>2026-05-01T09:38:04.588Z</time></trkpt><trkpt lat="43.7648949" lon="11.3006245"><ele>52.0</ele><time>2026-05-01T09:38:07.589Z</time></trkpt><trkpt lat="43.7648719" lon="11.3007276"><ele>52.0</ele><time>2026-05-01T09:38:10.588Z</time></trkpt><trkpt lat="43.7648303" lon="11.3008167"><ele>51.99999999999999</ele><time>2026-05-01T09:38:13.59Z</time></trkpt><trkpt lat="43.7647908" lon="11.3009365"><ele>52.0</ele><time>2026-05-01T09:38:16.589Z</time></trkpt><trkpt lat="43.7647645" lon="11.3010261"><ele>51.99999999999999</ele><time>2026-05-01T09:38:18.589Z</time></trkpt><trkpt lat="43.7647345" lon="11.301107"><ele>52.0</ele><time>2026-05-01T09:38:20.589Z</time></trkpt><trkpt lat="43.764706" lon="11.3012101"><ele>52.0</ele><time>2026-05-01T09:38:23.588Z</time></trkpt><trkpt lat="43.7646799" lon="11.3012928"><ele>52.0</ele><time>2026-05-01T09:38:26.587Z</time></trkpt><trkpt lat="43.7646485" lon="11.3013998"><ele>51.99999999999999</ele><time>2026-05-01T09:38:29.588Z</time></trkpt><trkpt lat="43.7646274" lon="11.3015298"><ele>52.0</ele><time>2026-05-01T09:38:32.589Z</time></trkpt><trkpt lat="43.7646034" lon="11.3016192"><ele>52.0</ele><time>2026-05-01T09:38:34.589Z</time></trkpt><trkpt lat="43.7645834" lon="11.3017058"><ele>52.0</ele><time>2026-05-01T09:38:36.589Z</time></trkpt><trkpt lat="43.7645595" lon="11.3017986"><ele>52.0</ele><time>2026-05-01T09:38:38.59Z</time></trkpt><trkpt lat="43.7645297" lon="11.3018933"><ele>52.0</ele><time>2026-05-01T09:38:40.588Z</time></trkpt><trkpt lat="43.7645047" lon="11.3019867"><ele>52.0</ele><time>2026-05-01T09:38:42.589Z</time></trkpt><trkpt lat="43.7644755" lon="11.3020755"><ele>52.0</ele><time>2026-05-01T09:38:44.589Z</time></trkpt><trkpt lat="43.7644466" lon="11.3021651"><ele>52.0</ele><time>2026-05-01T09:38:46.587Z</time></trkpt><trkpt lat="43.7644108" lon="11.3022557"><ele>52.14285714285714</ele><time>2026-05-01T09:38:48.59Z</time></trkpt><trkpt lat="43.7643779" lon="11.3023443"><ele>52.28571428571429</ele><time>2026-05-01T09:38:50.589Z</time></trkpt><trkpt lat="43.7643459" lon="11.3024384"><ele>52.42857142857143</ele><time>2026-05-01T09:38:52.589Z</time></trkpt><trkpt lat="43.7643192" lon="11.3025332"><ele>52.57142857142857</ele><time>2026-05-01T09:38:54.59Z</time></trkpt><trkpt lat="43.7642961" lon="11.3026286"><ele>52.71428571428571</ele><time>2026-05-01T09:38:56.589Z</time></trkpt><trkpt lat="43.7642735" lon="11.3027303"><ele>52.85714285714286</ele><time>2026-05-01T09:38:58.589Z</time></trkpt><trkpt lat="43.7642535" lon="11.3028317"><ele>53.0</ele><time>2026-05-01T09:39:00.589Z</time></trkpt><trkpt lat="43.7642367" lon="11.3029349"><ele>53.142857142857146</ele><time>2026-05-01T09:39:02.588Z</time></trkpt><trkpt lat="43.7642191" lon="11.3030358"><ele>53.285714285714285</ele><time>2026-05-01T09:39:04.589Z</time></trkpt><trkpt lat="43.7642069" lon="11.303132"><ele>53.42857142857143</ele><time>2026-05-01T09:39:06.589Z</time></trkpt><trkpt lat="43.7641943" lon="11.3032213"><ele>53.57142857142857</ele><time>2026-05-01T09:39:08.589Z</time></trkpt><trkpt lat="43.764186" lon="11.3033089"><ele>53.71428571428571</ele><time>2026-05-01T09:39:10.589Z</time></trkpt><trkpt lat="43.7641765" lon="11.3034202"><ele>53.857142857142854</ele><time>2026-05-01T09:39:13.589Z</time></trkpt><trkpt lat="43.7641624" lon="11.303519"><ele>54.0</ele><time>2026-05-01T09:39:16.59Z</time></trkpt><trkpt lat="43.7641548" lon="11.3036084"><ele>53.166666666666664</ele><time>2026-05-01T09:39:19.589Z</time></trkpt><trkpt lat="43.7641568" lon="11.3036978"><ele>52.33333333333333</ele><time>2026-05-01T09:39:21.588Z</time></trkpt><trkpt lat="43.7641459" lon="11.3038022"><ele>51.5</ele><time>2026-05-01T09:39:23.589Z</time></trkpt><trkpt lat="43.7641263" lon="11.3038986"><ele>50.666666666666664</ele><time>2026-05-01T09:39:25.588Z</time></trkpt><trkpt lat="43.7641042" lon="11.3040058"><ele>49.83333333333333</ele><time>2026-05-01T09:39:27.589Z</time></trkpt><trkpt lat="43.7640725" lon="11.3041063"><ele>49.0</ele><time>2026-05-01T09:39:29.587Z</time></trkpt><trkpt lat="43.764042" lon="11.3042057"><ele>48.57142857142857</ele><time>2026-05-01T09:39:31.589Z</time></trkpt><trkpt lat="43.7640212" lon="11.3043002"><ele>48.14285714285714</ele><time>2026-05-01T09:39:33.588Z</time></trkpt><trkpt lat="43.764007" lon="11.3043891"><ele>47.714285714285715</ele><time>2026-05-01T09:39:35.589Z</time></trkpt><trkpt lat="43.7639919" lon="11.3044753"><ele>47.285714285714285</ele><time>2026-05-01T09:39:37.589Z</time></trkpt><trkpt lat="43.7639727" lon="11.3045607"><ele>46.857142857142854</ele><time>2026-05-01T09:39:39.588Z</time></trkpt><trkpt lat="43.7639598" lon="11.3046543"><ele>46.42857142857143</ele><time>2026-05-01T09:39:41.587Z</time></trkpt><trkpt lat="43.7639455" lon="11.3047497"><ele>46.0</ele><time>2026-05-01T09:39:43.588Z</time></trkpt><trkpt lat="43.763933" lon="11.3048461"><ele>47.142857142857146</ele><time>2026-05-01T09:39:45.589Z</time></trkpt><trkpt lat="43.7639173" lon="11.3049445"><ele>48.285714285714285</ele><time>2026-05-01T09:39:47.59Z</time></trkpt><trkpt lat="43.7639003" lon="11.3050358"><ele>49.42857142857143</ele><time>2026-05-01T09:39:49.588Z</time></trkpt><trkpt lat="43.7638805" lon="11.3051202"><ele>50.57142857142857</ele><time>2026-05-01T09:39:51.589Z</time></trkpt><trkpt lat="43.7638502" lon="11.3052413"><ele>51.71428571428571</ele><time>2026-05-01T09:39:54.589Z</time></trkpt><trkpt lat="43.7638258" lon="11.3053227"><ele>52.857142857142854</ele><time>2026-05-01T09:39:56.589Z</time></trkpt><trkpt lat="43.7638082" lon="11.305419"><ele>54.0</ele><time>2026-05-01T09:39:58.588Z</time></trkpt><trkpt lat="43.7637936" lon="11.3055157"><ele>54.0</ele><time>2026-05-01T09:40:00.59Z</time></trkpt><trkpt lat="43.7637725" lon="11.305614"><ele>54.0</ele><time>2026-05-01T09:40:02.589Z</time></trkpt><trkpt lat="43.7637539" lon="11.305706"><ele>54.0</ele><time>2026-05-01T09:40:04.589Z</time></trkpt><trkpt lat="43.7637345" lon="11.3058113"><ele>54.0</ele><time>2026-05-01T09:40:06.589Z</time></trkpt><trkpt lat="43.7637164" lon="11.3059155"><ele>54.0</ele><time>2026-05-01T09:40:08.589Z</time></trkpt><trkpt lat="43.7636995" lon="11.3060149"><ele>54.0</ele><time>2026-05-01T09:40:10.588Z</time></trkpt><trkpt lat="43.7636884" lon="11.3061021"><ele>54.0</ele><time>2026-05-01T09:40:12.589Z</time></trkpt><trkpt lat="43.763684" lon="11.3061902"><ele>54.0</ele><time>2026-05-01T09:40:14.589Z</time></trkpt><trkpt lat="43.7636954" lon="11.3062928"><ele>54.0</ele><time>2026-05-01T09:40:16.589Z</time></trkpt><trkpt lat="43.7637249" lon="11.306375"><ele>54.0</ele><time>2026-05-01T09:40:18.589Z</time></trkpt><trkpt lat="43.7637661" lon="11.3064444"><ele>54.0</ele><time>2026-05-01T09:40:20.588Z</time></trkpt><trkpt lat="43.7638142" lon="11.306509"><ele>54.0</ele><time>2026-05-01T09:40:22.588Z</time></trkpt><trkpt lat="43.7638511" lon="11.3065812"><ele>54.0</ele><time>2026-05-01T09:40:24.589Z</time></trkpt><trkpt lat="43.7638564" lon="11.3066714"><ele>54.0</ele><time>2026-05-01T09:40:26.588Z</time></trkpt><trkpt lat="43.7638296" lon="11.3067558"><ele>54.0</ele><time>2026-05-01T09:40:28.59Z</time></trkpt><trkpt lat="43.7638006" lon="11.3068353"><ele>54.0</ele><time>2026-05-01T09:40:30.59Z</time></trkpt><trkpt lat="43.7637854" lon="11.3069206"><ele>54.0</ele><time>2026-05-01T09:40:32.588Z</time></trkpt><trkpt lat="43.7637664" lon="11.3070146"><ele>54.0</ele><time>2026-05-01T09:40:34.589Z</time></trkpt><trkpt lat="43.7637447" lon="11.3071155"><ele>54.0</ele><time>2026-05-01T09:40:36.588Z</time></trkpt><trkpt lat="43.7637215" lon="11.3072243"><ele>54.0</ele><time>2026-05-01T09:40:38.589Z</time></trkpt><trkpt lat="43.7636949" lon="11.3073343"><ele>54.0</ele><time>2026-05-01T09:40:40.589Z</time></trkpt><trkpt lat="43.7636702" lon="11.3074417"><ele>54.0</ele><time>2026-05-01T09:40:42.589Z</time></trkpt><trkpt lat="43.7636511" lon="11.3075473"><ele>54.0</ele><time>2026-05-01T09:40:44.588Z</time></trkpt><trkpt lat="43.7636361" lon="11.3076512"><ele>54.0</ele><time>2026-05-01T09:40:46.588Z</time></trkpt><trkpt lat="43.7636196" lon="11.3077497"><ele>54.0</ele><time>2026-05-01T09:40:48.588Z</time></trkpt><trkpt lat="43.7636026" lon="11.307849"><ele>54.0</ele><time>2026-05-01T09:40:50.589Z</time></trkpt><trkpt lat="43.763585" lon="11.3079509"><ele>54.0</ele><time>2026-05-01T09:40:52.588Z</time></trkpt><trkpt lat="43.7635722" lon="11.3080554"><ele>54.0</ele><time>2026-05-01T09:40:54.588Z</time></trkpt><trkpt lat="43.7635616" lon="11.3081638"><ele>54.0</ele><time>2026-05-01T09:40:56.588Z</time></trkpt><trkpt lat="43.7635511" lon="11.3082725"><ele>54.0</ele><time>2026-05-01T09:40:58.587Z</time></trkpt><trkpt lat="43.7635401" lon="11.308382"><ele>54.0</ele><time>2026-05-01T09:41:00.589Z</time></trkpt><trkpt lat="43.7635298" lon="11.3084869"><ele>54.0</ele><time>2026-05-01T09:41:02.587Z</time></trkpt><trkpt lat="43.7635171" lon="11.3085954"><ele>54.0</ele><time>2026-05-01T09:41:04.589Z</time></trkpt><trkpt lat="43.7635061" lon="11.3087153"><ele>53.666666666666664</ele><time>2026-05-01T09:41:06.589Z</time></trkpt><trkpt lat="43.7634918" lon="11.30883"><ele>53.33333333333333</ele><time>2026-05-01T09:41:08.589Z</time></trkpt><trkpt lat="43.7634726" lon="11.3089452"><ele>53.0</ele><time>2026-05-01T09:41:10.589Z</time></trkpt><trkpt lat="43.7634592" lon="11.3090542"><ele>52.666666666666664</ele><time>2026-05-01T09:41:12.588Z</time></trkpt><trkpt lat="43.7634483" lon="11.3091608"><ele>52.33333333333333</ele><time>2026-05-01T09:41:14.589Z</time></trkpt><trkpt lat="43.7634363" lon="11.3092688"><ele>52.0</ele><time>2026-05-01T09:41:16.588Z</time></trkpt><trkpt lat="43.7634243" lon="11.3093784"><ele>51.99999999999999</ele><time>2026-05-01T09:41:18.589Z</time></trkpt><trkpt lat="43.7634122" lon="11.3094853"><ele>52.0</ele><time>2026-05-01T09:41:20.589Z</time></trkpt><trkpt lat="43.7634002" lon="11.309591"><ele>52.0</ele><time>2026-05-01T09:41:22.588Z</time></trkpt><trkpt lat="43.763392" lon="11.3096932"><ele>52.0</ele><time>2026-05-01T09:41:24.587Z</time></trkpt><trkpt lat="43.7633773" lon="11.3097952"><ele>51.99999999999999</ele><time>2026-05-01T09:41:26.587Z</time></trkpt><trkpt lat="43.7633651" lon="11.3098958"><ele>52.0</ele><time>2026-05-01T09:41:28.589Z</time></trkpt><trkpt lat="43.7633474" lon="11.3100175"><ele>51.99999999999999</ele><time>2026-05-01T09:41:31.588Z</time></trkpt><trkpt lat="43.7633303" lon="11.3101217"><ele>52.0</ele><time>2026-05-01T09:41:34.588Z</time></trkpt><trkpt lat="43.7633152" lon="11.3102332"><ele>52.0</ele><time>2026-05-01T09:41:37.588Z</time></trkpt><trkpt lat="43.7632964" lon="11.3103579"><ele>52.0</ele><time>2026-05-01T09:41:40.589Z</time></trkpt><trkpt lat="43.763284" lon="11.3104527"><ele>51.99999999999999</ele><time>2026-05-01T09:41:42.589Z</time></trkpt><trkpt lat="43.7632697" lon="11.3105473"><ele>52.0</ele><time>2026-05-01T09:41:44.589Z</time></trkpt><trkpt lat="43.7632573" lon="11.3106451"><ele>51.99999999999999</ele><time>2026-05-01T09:41:46.587Z</time></trkpt><trkpt lat="43.7632458" lon="11.3107439"><ele>52.0</ele><time>2026-05-01T09:41:48.589Z</time></trkpt><trkpt lat="43.763236" lon="11.3108392"><ele>52.0</ele><time>2026-05-01T09:41:50.587Z</time></trkpt><trkpt lat="43.7632323" lon="11.310964"><ele>52.0</ele><time>2026-05-01T09:41:53.589Z</time></trkpt><trkpt lat="43.7632225" lon="11.3110609"><ele>51.99999999999999</ele><time>2026-05-01T09:41:56.588Z</time></trkpt><trkpt lat="43.7632019" lon="11.3111742"><ele>52.0</ele><time>2026-05-01T09:42:00.588Z</time></trkpt><trkpt lat="43.7631732" lon="11.3112835"><ele>52.0</ele><time>2026-05-01T09:42:03.587Z</time></trkpt><trkpt lat="43.7631504" lon="11.3114137"><ele>52.0</ele><time>2026-05-01T09:42:06.589Z</time></trkpt><trkpt lat="43.763138" lon="11.3115086"><ele>52.0</ele><time>2026-05-01T09:42:08.587Z</time></trkpt><trkpt lat="43.7631348" lon="11.3115968"><ele>52.0</ele><time>2026-05-01T09:42:10.588Z</time></trkpt><trkpt lat="43.7631256" lon="11.3116847"><ele>52.0</ele><time>2026-05-01T09:42:12.587Z</time></trkpt><trkpt lat="43.7631182" lon="11.3117756"><ele>52.0</ele><time>2026-05-01T09:42:14.589Z</time></trkpt><trkpt lat="43.7631121" lon="11.31187"><ele>52.0</ele><time>2026-05-01T09:42:16.588Z</time></trkpt><trkpt lat="43.7630983" lon="11.3120011"><ele>52.0</ele><time>2026-05-01T09:42:19.589Z</time></trkpt><trkpt lat="43.7630861" lon="11.3120942"><ele>52.0</ele><time>2026-05-01T09:42:21.587Z</time></trkpt><trkpt lat="43.7630657" lon="11.3121839"><ele>52.0</ele><time>2026-05-01T09:42:23.588Z</time></trkpt><trkpt lat="43.7630534" lon="11.312282"><ele>52.0</ele><time>2026-05-01T09:42:25.588Z</time></trkpt><trkpt lat="43.7630437" lon="11.3123874"><ele>52.0</ele><time>2026-05-01T09:42:27.589Z</time></trkpt><trkpt lat="43.7630354" lon="11.3124945"><ele>52.0</ele><time>2026-05-01T09:42:29.587Z</time></trkpt><trkpt lat="43.7630242" lon="11.3126112"><ele>52.0</ele><time>2026-05-01T09:42:31.588Z</time></trkpt><trkpt lat="43.763015" lon="11.3127276"><ele>51.99999999999999</ele><time>2026-05-01T09:42:33.589Z</time></trkpt><trkpt lat="43.76301" lon="11.3128341"><ele>52.0</ele><time>2026-05-01T09:42:35.587Z</time></trkpt><trkpt lat="43.7630073" lon="11.3129376"><ele>52.0</ele><time>2026-05-01T09:42:37.588Z</time></trkpt><trkpt lat="43.7630062" lon="11.3130364"><ele>52.0</ele><time>2026-05-01T09:42:39.587Z</time></trkpt><trkpt lat="43.7629957" lon="11.313134"><ele>51.99999999999999</ele><time>2026-05-01T09:42:41.588Z</time></trkpt><trkpt lat="43.7629679" lon="11.313242"><ele>52.0</ele><time>2026-05-01T09:42:44.589Z</time></trkpt><trkpt lat="43.7629355" lon="11.3133447"><ele>52.0</ele><time>2026-05-01T09:42:47.587Z</time></trkpt><trkpt lat="43.7629341" lon="11.3134473"><ele>52.0</ele><time>2026-05-01T09:42:50.586Z</time></trkpt><trkpt lat="43.7629925" lon="11.313523"><ele>52.0</ele><time>2026-05-01T09:42:53.589Z</time></trkpt><trkpt lat="43.7630557" lon="11.3135728"><ele>52.0</ele><time>2026-05-01T09:42:55.588Z</time></trkpt><trkpt lat="43.7631151" lon="11.3136398"><ele>52.0</ele><time>2026-05-01T09:42:57.588Z</time></trkpt><trkpt lat="43.7631695" lon="11.3137094"><ele>52.0</ele><time>2026-05-01T09:42:59.587Z</time></trkpt><trkpt lat="43.7632245" lon="11.3137733"><ele>52.0</ele><time>2026-05-01T09:43:01.587Z</time></trkpt><trkpt lat="43.7632856" lon="11.3138381"><ele>51.99999999999999</ele><time>2026-05-01T09:43:03.588Z</time></trkpt><trkpt lat="43.7633442" lon="11.3138981"><ele>52.0</ele><time>2026-05-01T09:43:05.587Z</time></trkpt><trkpt lat="43.7634079" lon="11.3139719"><ele>52.0</ele><time>2026-05-01T09:43:08.586Z</time></trkpt><trkpt lat="43.7634632" lon="11.3140348"><ele>52.0</ele><time>2026-05-01T09:43:11.588Z</time></trkpt><trkpt lat="43.7635035" lon="11.3141319"><ele>51.99999999999999</ele><time>2026-05-01T09:43:14.588Z</time></trkpt><trkpt lat="43.7635246" lon="11.3142519"><ele>52.0</ele><time>2026-05-01T09:43:17.588Z</time></trkpt><trkpt lat="43.7635461" lon="11.3143622"><ele>51.83333333333333</ele><time>2026-05-01T09:43:20.588Z</time></trkpt><trkpt lat="43.7635611" lon="11.3144793"><ele>51.666666666666664</ele><time>2026-05-01T09:43:23.588Z</time></trkpt><trkpt lat="43.7635698" lon="11.3145979"><ele>51.5</ele><time>2026-05-01T09:43:26.588Z</time></trkpt><trkpt lat="43.7635516" lon="11.3147188"><ele>51.33333333333333</ele><time>2026-05-01T09:43:29.588Z</time></trkpt><trkpt lat="43.7635271" lon="11.3148469"><ele>51.166666666666664</ele><time>2026-05-01T09:43:32.587Z</time></trkpt><trkpt lat="43.763509" lon="11.3149325"><ele>51.0</ele><time>2026-05-01T09:43:34.588Z</time></trkpt><trkpt lat="43.763495" lon="11.315019"><ele>51.0</ele><time>2026-05-01T09:43:36.588Z</time></trkpt><trkpt lat="43.7634841" lon="11.3151078"><ele>51.0</ele><time>2026-05-01T09:43:38.589Z</time></trkpt><trkpt lat="43.7634775" lon="11.3151997"><ele>51.0</ele><time>2026-05-01T09:43:40.589Z</time></trkpt><trkpt lat="43.7634781" lon="11.3152922"><ele>51.0</ele><time>2026-05-01T09:43:42.587Z</time></trkpt><trkpt lat="43.7634842" lon="11.3153818"><ele>51.0</ele><time>2026-05-01T09:43:44.589Z</time></trkpt><trkpt lat="43.7634911" lon="11.3154749"><ele>51.0</ele><time>2026-05-01T09:43:46.587Z</time></trkpt><trkpt lat="43.7634967" lon="11.3155735"><ele>51.0</ele><time>2026-05-01T09:43:48.586Z</time></trkpt><trkpt lat="43.7635031" lon="11.3156733"><ele>51.285714285714285</ele><time>2026-05-01T09:43:50.589Z</time></trkpt><trkpt lat="43.7635134" lon="11.3157705"><ele>51.57142857142857</ele><time>2026-05-01T09:43:52.589Z</time></trkpt><trkpt lat="43.7635221" lon="11.3158651"><ele>51.85714285714286</ele><time>2026-05-01T09:43:54.587Z</time></trkpt><trkpt lat="43.76353" lon="11.3159689"><ele>52.14285714285714</ele><time>2026-05-01T09:43:56.587Z</time></trkpt><trkpt lat="43.7635382" lon="11.316075"><ele>52.42857142857142</ele><time>2026-05-01T09:43:58.587Z</time></trkpt><trkpt lat="43.763546" lon="11.3161739"><ele>52.714285714285715</ele><time>2026-05-01T09:44:00.588Z</time></trkpt><trkpt lat="43.7635559" lon="11.3162722"><ele>53.0</ele><time>2026-05-01T09:44:02.589Z</time></trkpt><trkpt lat="43.7635677" lon="11.3163688"><ele>53.0</ele><time>2026-05-01T09:44:04.588Z</time></trkpt><trkpt lat="43.763576" lon="11.3164674"><ele>53.0</ele><time>2026-05-01T09:44:06.589Z</time></trkpt><trkpt lat="43.7635809" lon="11.3165609"><ele>53.0</ele><time>2026-05-01T09:44:08.589Z</time></trkpt><trkpt lat="43.7635769" lon="11.3166534"><ele>53.0</ele><time>2026-05-01T09:44:10.588Z</time></trkpt><trkpt lat="43.7635806" lon="11.3167476"><ele>53.0</ele><time>2026-05-01T09:44:12.588Z</time></trkpt><trkpt lat="43.7635827" lon="11.3168484"><ele>53.0</ele><time>2026-05-01T09:44:14.588Z</time></trkpt><trkpt lat="43.7635885" lon="11.3169525"><ele>53.0</ele><time>2026-05-01T09:44:16.587Z</time></trkpt><trkpt lat="43.7635934" lon="11.3170588"><ele>53.0</ele><time>2026-05-01T09:44:18.588Z</time></trkpt><trkpt lat="43.7635998" lon="11.3171588"><ele>53.0</ele><time>2026-05-01T09:44:20.587Z</time></trkpt><trkpt lat="43.7636069" lon="11.3172506"><ele>53.0</ele><time>2026-05-01T09:44:22.588Z</time></trkpt><trkpt lat="43.7636178" lon="11.3173503"><ele>53.0</ele><time>2026-05-01T09:44:24.588Z</time></trkpt><trkpt lat="43.7636301" lon="11.3174589"><ele>53.0</ele><time>2026-05-01T09:44:26.589Z</time></trkpt><trkpt lat="43.7636395" lon="11.31756"><ele>53.0</ele><time>2026-05-01T09:44:28.587Z</time></trkpt><trkpt lat="43.7636503" lon="11.3176653"><ele>53.0</ele><time>2026-05-01T09:44:30.587Z</time></trkpt><trkpt lat="43.7636558" lon="11.3177676"><ele>53.142857142857146</ele><time>2026-05-01T09:44:32.588Z</time></trkpt><trkpt lat="43.7636652" lon="11.3178751"><ele>53.285714285714285</ele><time>2026-05-01T09:44:34.588Z</time></trkpt><trkpt lat="43.7636763" lon="11.3179789"><ele>53.42857142857143</ele><time>2026-05-01T09:44:36.588Z</time></trkpt><trkpt lat="43.7636816" lon="11.3180808"><ele>53.57142857142857</ele><time>2026-05-01T09:44:38.587Z</time></trkpt><trkpt lat="43.7636917" lon="11.3181783"><ele>53.71428571428571</ele><time>2026-05-01T09:44:40.589Z</time></trkpt><trkpt lat="43.7637062" lon="11.3182781"><ele>53.857142857142854</ele><time>2026-05-01T09:44:42.587Z</time></trkpt><trkpt lat="43.7637337" lon="11.3183757"><ele>54.0</ele><time>2026-05-01T09:44:44.588Z</time></trkpt><trkpt lat="43.7637615" lon="11.3184674"><ele>54.14285714285714</ele><time>2026-05-01T09:44:46.587Z</time></trkpt><trkpt lat="43.7637877" lon="11.3185637"><ele>54.285714285714285</ele><time>2026-05-01T09:44:48.587Z</time></trkpt><trkpt lat="43.7638211" lon="11.3186617"><ele>54.42857142857143</ele><time>2026-05-01T09:44:50.588Z</time></trkpt><trkpt lat="43.763847" lon="11.3187508"><ele>54.57142857142857</ele><time>2026-05-01T09:44:52.588Z</time></trkpt><trkpt lat="43.7638652" lon="11.3188412"><ele>54.714285714285715</ele><time>2026-05-01T09:44:54.588Z</time></trkpt><trkpt lat="43.7638846" lon="11.318932"><ele>54.857142857142854</ele><time>2026-05-01T09:44:56.588Z</time></trkpt><trkpt lat="43.7639045" lon="11.3190227"><ele>55.0</ele><time>2026-05-01T09:44:58.59Z</time></trkpt><trkpt lat="43.7639229" lon="11.3191072"><ele>54.99999999999999</ele><time>2026-05-01T09:45:00.588Z</time></trkpt><trkpt lat="43.7639553" lon="11.3191863"><ele>55.0</ele><time>2026-05-01T09:45:02.588Z</time></trkpt><trkpt lat="43.7639916" lon="11.3192682"><ele>55.0</ele><time>2026-05-01T09:45:04.588Z</time></trkpt><trkpt lat="43.764028" lon="11.3193478"><ele>55.0</ele><time>2026-05-01T09:45:06.588Z</time></trkpt><trkpt lat="43.7640658" lon="11.3194348"><ele>55.0</ele><time>2026-05-01T09:45:08.587Z</time></trkpt><trkpt lat="43.7641022" lon="11.3195229"><ele>54.99999999999999</ele><time>2026-05-01T09:45:10.588Z</time></trkpt><trkpt lat="43.7641323" lon="11.3196011"><ele>55.0</ele><time>2026-05-01T09:45:12.588Z</time></trkpt><trkpt lat="43.7641609" lon="11.3196801"><ele>54.99999999999999</ele><time>2026-05-01T09:45:14.588Z</time></trkpt><trkpt lat="43.7641901" lon="11.3197643"><ele>55.0</ele><time>2026-05-01T09:45:16.587Z</time></trkpt><trkpt lat="43.7642162" lon="11.3198561"><ele>55.0</ele><time>2026-05-01T09:45:18.587Z</time></trkpt><trkpt lat="43.7642416" lon="11.3199503"><ele>55.0</ele><time>2026-05-01T09:45:20.587Z</time></trkpt><trkpt lat="43.7642703" lon="11.3200378"><ele>55.0</ele><time>2026-05-01T09:45:22.588Z</time></trkpt><trkpt lat="43.7642994" lon="11.3201265"><ele>54.99999999999999</ele><time>2026-05-01T09:45:24.587Z</time></trkpt><trkpt lat="43.7643295" lon="11.3202083"><ele>55.0</ele><time>2026-05-01T09:45:26.588Z</time></trkpt><trkpt lat="43.7643549" lon="11.3202977"><ele>54.99999999999999</ele><time>2026-05-01T09:45:28.588Z</time></trkpt><trkpt lat="43.764383" lon="11.3203902"><ele>55.0</ele><time>2026-05-01T09:45:30.588Z</time></trkpt><trkpt lat="43.7644102" lon="11.3204767"><ele>55.0</ele><time>2026-05-01T09:45:32.588Z</time></trkpt><trkpt lat="43.7644414" lon="11.3205602"><ele>55.0</ele><time>2026-05-01T09:45:34.587Z</time></trkpt><trkpt lat="43.764471" lon="11.3206437"><ele>55.0</ele><time>2026-05-01T09:45:36.588Z</time></trkpt><trkpt lat="43.7645027" lon="11.3207371"><ele>54.99999999999999</ele><time>2026-05-01T09:45:38.588Z</time></trkpt><trkpt lat="43.7645287" lon="11.3208226"><ele>55.0</ele><time>2026-05-01T09:45:40.587Z</time></trkpt><trkpt lat="43.7645567" lon="11.3209072"><ele>54.99999999999999</ele><time>2026-05-01T09:45:42.587Z</time></trkpt><trkpt lat="43.764579" lon="11.3209926"><ele>55.0</ele><time>2026-05-01T09:45:44.507Z</time></trkpt><trkpt lat="43.7646048" lon="11.321086"><ele>55.0</ele><time>2026-05-01T09:45:46.587Z</time></trkpt><trkpt lat="43.7646351" lon="11.3211764"><ele>55.0</ele><time>2026-05-01T09:45:48.587Z</time></trkpt><trkpt lat="43.7646661" lon="11.3212664"><ele>55.0</ele><time>2026-05-01T09:45:50.587Z</time></trkpt><trkpt lat="43.764698" lon="11.3213534"><ele>54.99999999999999</ele><time>2026-05-01T09:45:52.587Z</time></trkpt><trkpt lat="43.7647288" lon="11.3214374"><ele>55.0</ele><time>2026-05-01T09:45:54.588Z</time></trkpt><trkpt lat="43.7647593" lon="11.3215238"><ele>54.99999999999999</ele><time>2026-05-01T09:45:56.588Z</time></trkpt><trkpt lat="43.7647958" lon="11.3216055"><ele>55.0</ele><time>2026-05-01T09:45:58.587Z</time></trkpt><trkpt lat="43.7648371" lon="11.3216809"><ele>55.0</ele><time>2026-05-01T09:46:00.587Z</time></trkpt><trkpt lat="43.7648705" lon="11.3217648"><ele>55.0</ele><time>2026-05-01T09:46:02.604Z</time></trkpt><trkpt lat="43.7648924" lon="11.3218577"><ele>55.0</ele><time>2026-05-01T09:46:04.588Z</time></trkpt><trkpt lat="43.7649236" lon="11.3219411"><ele>54.99999999999999</ele><time>2026-05-01T09:46:06.588Z</time></trkpt><trkpt lat="43.7649588" lon="11.3220215"><ele>55.0</ele><time>2026-05-01T09:46:08.588Z</time></trkpt><trkpt lat="43.7649963" lon="11.3221048"><ele>54.99999999999999</ele><time>2026-05-01T09:46:10.587Z</time></trkpt><trkpt lat="43.7650375" lon="11.3221849"><ele>55.0</ele><time>2026-05-01T09:46:12.587Z</time></trkpt><trkpt lat="43.7650787" lon="11.3222679"><ele>55.0</ele><time>2026-05-01T09:46:14.587Z</time></trkpt><trkpt lat="43.7651242" lon="11.3223516"><ele>55.0</ele><time>2026-05-01T09:46:16.587Z</time></trkpt><trkpt lat="43.7651637" lon="11.3224402"><ele>55.0</ele><time>2026-05-01T09:46:18.469Z</time></trkpt><trkpt lat="43.765212" lon="11.3225233"><ele>54.99999999999999</ele><time>2026-05-01T09:46:20.586Z</time></trkpt><trkpt lat="43.7652599" lon="11.322592"><ele>55.0</ele><time>2026-05-01T09:46:22.588Z</time></trkpt><trkpt lat="43.7653026" lon="11.3226611"><ele>55.14285714285714</ele><time>2026-05-01T09:46:24.587Z</time></trkpt><trkpt lat="43.7653398" lon="11.3227373"><ele>55.285714285714285</ele><time>2026-05-01T09:46:26.588Z</time></trkpt><trkpt lat="43.7653774" lon="11.3228103"><ele>55.42857142857143</ele><time>2026-05-01T09:46:28.588Z</time></trkpt><trkpt lat="43.7654208" lon="11.3228752"><ele>55.57142857142857</ele><time>2026-05-01T09:46:30.588Z</time></trkpt><trkpt lat="43.7654634" lon="11.3229479"><ele>55.714285714285715</ele><time>2026-05-01T09:46:32.588Z</time></trkpt><trkpt lat="43.7655064" lon="11.3230192"><ele>55.857142857142854</ele><time>2026-05-01T09:46:34.588Z</time></trkpt><trkpt lat="43.7655443" lon="11.3230932"><ele>56.0</ele><time>2026-05-01T09:46:36.587Z</time></trkpt><trkpt lat="43.7655971" lon="11.3232016"><ele>56.0</ele><time>2026-05-01T09:46:39.587Z</time></trkpt><trkpt lat="43.7656348" lon="11.3232801"><ele>56.0</ele><time>2026-05-01T09:46:41.587Z</time></trkpt><trkpt lat="43.7656702" lon="11.3233581"><ele>56.0</ele><time>2026-05-01T09:46:43.588Z</time></trkpt><trkpt lat="43.7657027" lon="11.3234424"><ele>56.0</ele><time>2026-05-01T09:46:45.587Z</time></trkpt><trkpt lat="43.7657404" lon="11.3235194"><ele>56.0</ele><time>2026-05-01T09:46:47.588Z</time></trkpt><trkpt lat="43.7657846" lon="11.3236008"><ele>56.0</ele><time>2026-05-01T09:46:49.588Z</time></trkpt><trkpt lat="43.7658262" lon="11.3236992"><ele>56.0</ele><time>2026-05-01T09:46:51.587Z</time></trkpt><trkpt lat="43.7658734" lon="11.3238015"><ele>56.00000000000001</ele><time>2026-05-01T09:46:53.588Z</time></trkpt><trkpt lat="43.7659188" lon="11.3238691"><ele>56.0</ele><time>2026-05-01T09:46:55.588Z</time></trkpt><trkpt lat="43.7659801" lon="11.3239434"><ele>56.0</ele><time>2026-05-01T09:46:57.586Z</time></trkpt><trkpt lat="43.7660515" lon="11.3240041"><ele>56.0</ele><time>2026-05-01T09:46:59.587Z</time></trkpt><trkpt lat="43.7661135" lon="11.3240769"><ele>56.00000000000001</ele><time>2026-05-01T09:47:01.588Z</time></trkpt><trkpt lat="43.766178" lon="11.324138"><ele>56.0</ele><time>2026-05-01T09:47:03.588Z</time></trkpt><trkpt lat="43.7662427" lon="11.3241651"><ele>56.333333333333336</ele><time>2026-05-01T09:47:05.588Z</time></trkpt><trkpt lat="43.766312" lon="11.3242468"><ele>56.66666666666667</ele><time>2026-05-01T09:47:08.586Z</time></trkpt><trkpt lat="43.7663502" lon="11.324318"><ele>57.0</ele><time>2026-05-01T09:47:10.588Z</time></trkpt><trkpt lat="43.766404" lon="11.3243673"><ele>57.33333333333333</ele><time>2026-05-01T09:47:12.588Z</time></trkpt><trkpt lat="43.7664866" lon="11.3244368"><ele>57.666666666666664</ele><time>2026-05-01T09:47:15.588Z</time></trkpt><trkpt lat="43.7665426" lon="11.3245005"><ele>58.0</ele><time>2026-05-01T09:47:17.588Z</time></trkpt><trkpt lat="43.7665857" lon="11.3245668"><ele>58.00000000000001</ele><time>2026-05-01T09:47:19.588Z</time></trkpt><trkpt lat="43.7666297" lon="11.3246477"><ele>58.0</ele><time>2026-05-01T09:47:21.587Z</time></trkpt><trkpt lat="43.7666876" lon="11.3247178"><ele>58.00000000000001</ele><time>2026-05-01T09:47:23.588Z</time></trkpt><trkpt lat="43.766749" lon="11.3247859"><ele>58.00000000000001</ele><time>2026-05-01T09:47:25.587Z</time></trkpt><trkpt lat="43.7668059" lon="11.3248553"><ele>58.0</ele><time>2026-05-01T09:47:27.586Z</time></trkpt><trkpt lat="43.7668617" lon="11.3249226"><ele>58.00000000000001</ele><time>2026-05-01T09:47:29.588Z</time></trkpt><trkpt lat="43.7669152" lon="11.3249792"><ele>58.00000000000001</ele><time>2026-05-01T09:47:31.588Z</time></trkpt><trkpt lat="43.7669701" lon="11.3250498"><ele>57.71428571428572</ele><time>2026-05-01T09:47:33.587Z</time></trkpt><trkpt lat="43.7670262" lon="11.3251168"><ele>57.42857142857143</ele><time>2026-05-01T09:47:35.587Z</time></trkpt><trkpt lat="43.767081" lon="11.3251841"><ele>57.142857142857146</ele><time>2026-05-01T09:47:37.586Z</time></trkpt><trkpt lat="43.7671369" lon="11.3252562"><ele>56.85714285714286</ele><time>2026-05-01T09:47:39.588Z</time></trkpt><trkpt lat="43.7671896" lon="11.3253242"><ele>56.57142857142857</ele><time>2026-05-01T09:47:41.587Z</time></trkpt><trkpt lat="43.767237" lon="11.3253904"><ele>56.285714285714285</ele><time>2026-05-01T09:47:43.587Z</time></trkpt><trkpt lat="43.7672866" lon="11.3254583"><ele>56.0</ele><time>2026-05-01T09:47:45.588Z</time></trkpt><trkpt lat="43.7673363" lon="11.3255353"><ele>56.285714285714285</ele><time>2026-05-01T09:47:47.588Z</time></trkpt><trkpt lat="43.7673849" lon="11.3256061"><ele>56.57142857142857</ele><time>2026-05-01T09:47:49.587Z</time></trkpt><trkpt lat="43.7674365" lon="11.3256822"><ele>56.85714285714286</ele><time>2026-05-01T09:47:51.587Z</time></trkpt><trkpt lat="43.7674915" lon="11.3257568"><ele>57.142857142857146</ele><time>2026-05-01T09:47:53.588Z</time></trkpt><trkpt lat="43.7675495" lon="11.3258204"><ele>57.42857142857143</ele><time>2026-05-01T09:47:55.587Z</time></trkpt><trkpt lat="43.7676045" lon="11.3258787"><ele>57.71428571428572</ele><time>2026-05-01T09:47:57.588Z</time></trkpt><trkpt lat="43.7676608" lon="11.3259409"><ele>58.00000000000001</ele><time>2026-05-01T09:47:59.588Z</time></trkpt><trkpt lat="43.7677168" lon="11.326013"><ele>57.99999999999999</ele><time>2026-05-01T09:48:01.588Z</time></trkpt><trkpt lat="43.7677731" lon="11.3260858"><ele>58.0</ele><time>2026-05-01T09:48:03.587Z</time></trkpt><trkpt lat="43.7678286" lon="11.3261589"><ele>58.0</ele><time>2026-05-01T09:48:05.587Z</time></trkpt><trkpt lat="43.7678793" lon="11.3262423"><ele>58.0</ele><time>2026-05-01T09:48:07.586Z</time></trkpt><trkpt lat="43.7679296" lon="11.3263309"><ele>57.99999999999999</ele><time>2026-05-01T09:48:09.586Z</time></trkpt><trkpt lat="43.7679792" lon="11.3264237"><ele>58.0</ele><time>2026-05-01T09:48:11.587Z</time></trkpt><trkpt lat="43.7680291" lon="11.3265091"><ele>57.57142857142858</ele><time>2026-05-01T09:48:13.587Z</time></trkpt><trkpt lat="43.7680777" lon="11.3265906"><ele>57.142857142857146</ele><time>2026-05-01T09:48:15.586Z</time></trkpt><trkpt lat="43.7681272" lon="11.3266531"><ele>56.714285714285715</ele><time>2026-05-01T09:48:17.586Z</time></trkpt><trkpt lat="43.7681736" lon="11.3267246"><ele>56.28571428571429</ele><time>2026-05-01T09:48:19.587Z</time></trkpt><trkpt lat="43.7682171" lon="11.3268022"><ele>55.85714285714286</ele><time>2026-05-01T09:48:21.585Z</time></trkpt><trkpt lat="43.7682548" lon="11.3268778"><ele>55.42857142857142</ele><time>2026-05-01T09:48:23.587Z</time></trkpt><trkpt lat="43.7682881" lon="11.3269534"><ele>55.0</ele><time>2026-05-01T09:48:26.587Z</time></trkpt><trkpt lat="43.7683245" lon="11.3270371"><ele>54.99999999999999</ele><time>2026-05-01T09:48:28.587Z</time></trkpt><trkpt lat="43.7683559" lon="11.327126"><ele>55.0</ele><time>2026-05-01T09:48:30.587Z</time></trkpt><trkpt lat="43.7683894" lon="11.3272168"><ele>55.0</ele><time>2026-05-01T09:48:32.587Z</time></trkpt><trkpt lat="43.7684263" lon="11.3272954"><ele>55.0</ele><time>2026-05-01T09:48:34.586Z</time></trkpt><trkpt lat="43.7684616" lon="11.327396"><ele>54.99999999999999</ele><time>2026-05-01T09:48:36.586Z</time></trkpt><trkpt lat="43.7684996" lon="11.3275028"><ele>55.0</ele><time>2026-05-01T09:48:38.587Z</time></trkpt><trkpt lat="43.7685327" lon="11.3276081"><ele>56.166666666666664</ele><time>2026-05-01T09:48:40.587Z</time></trkpt><trkpt lat="43.7685664" lon="11.3277074"><ele>57.33333333333333</ele><time>2026-05-01T09:48:42.587Z</time></trkpt><trkpt lat="43.7686043" lon="11.3278048"><ele>58.5</ele><time>2026-05-01T09:48:44.587Z</time></trkpt><trkpt lat="43.7686349" lon="11.327904"><ele>59.66666666666667</ele><time>2026-05-01T09:48:46.587Z</time></trkpt><trkpt lat="43.7686666" lon="11.3280047"><ele>60.833333333333336</ele><time>2026-05-01T09:48:48.583Z</time></trkpt><trkpt lat="43.7687115" lon="11.3280831"><ele>62.0</ele><time>2026-05-01T09:48:50.585Z</time></trkpt><trkpt lat="43.7687526" lon="11.3281569"><ele>62.00000000000001</ele><time>2026-05-01T09:48:52.577Z</time></trkpt><trkpt lat="43.7688185" lon="11.3282552"><ele>62.0</ele><time>2026-05-01T09:48:55.586Z</time></trkpt><trkpt lat="43.7688578" lon="11.3283331"><ele>62.0</ele><time>2026-05-01T09:48:57.587Z</time></trkpt><trkpt lat="43.7688874" lon="11.328414"><ele>62.0</ele><time>2026-05-01T09:48:59.588Z</time></trkpt><trkpt lat="43.7689151" lon="11.3285365"><ele>62.00000000000001</ele><time>2026-05-01T09:49:02.587Z</time></trkpt><trkpt lat="43.7689311" lon="11.3286244"><ele>62.0</ele><time>2026-05-01T09:49:04.537Z</time></trkpt><trkpt lat="43.7689475" lon="11.3287197"><ele>62.0</ele><time>2026-05-01T09:49:06.586Z</time></trkpt><trkpt lat="43.7689807" lon="11.3288088"><ele>62.00000000000001</ele><time>2026-05-01T09:49:08.587Z</time></trkpt><trkpt lat="43.7690192" lon="11.3289025"><ele>62.0</ele><time>2026-05-01T09:49:10.587Z</time></trkpt><trkpt lat="43.7690535" lon="11.3289994"><ele>62.0</ele><time>2026-05-01T09:49:12.587Z</time></trkpt><trkpt lat="43.7690875" lon="11.3290959"><ele>62.00000000000001</ele><time>2026-05-01T09:49:14.587Z</time></trkpt><trkpt lat="43.769121" lon="11.3291804"><ele>62.0</ele><time>2026-05-01T09:49:16.587Z</time></trkpt><trkpt lat="43.7691511" lon="11.3292619"><ele>62.0</ele><time>2026-05-01T09:49:18.588Z</time></trkpt><trkpt lat="43.7691789" lon="11.3293522"><ele>61.833333333333336</ele><time>2026-05-01T09:49:20.587Z</time></trkpt><trkpt lat="43.7692075" lon="11.3294337"><ele>61.66666666666667</ele><time>2026-05-01T09:49:22.587Z</time></trkpt><trkpt lat="43.7692505" lon="11.329541"><ele>61.5</ele><time>2026-05-01T09:49:25.586Z</time></trkpt><trkpt lat="43.7692834" lon="11.3296307"><ele>61.33333333333333</ele><time>2026-05-01T09:49:27.51Z</time></trkpt><trkpt lat="43.7693395" lon="11.3297295"><ele>61.166666666666664</ele><time>2026-05-01T09:49:30.519Z</time></trkpt><trkpt lat="43.7693906" lon="11.3298364"><ele>61.0</ele><time>2026-05-01T09:49:33.587Z</time></trkpt><trkpt lat="43.7694129" lon="11.3299214"><ele>62.28571428571428</ele><time>2026-05-01T09:49:35.586Z</time></trkpt><trkpt lat="43.7694333" lon="11.3300081"><ele>63.57142857142857</ele><time>2026-05-01T09:49:37.586Z</time></trkpt><trkpt lat="43.769457" lon="11.3300965"><ele>64.85714285714286</ele><time>2026-05-01T09:49:39.586Z</time></trkpt><trkpt lat="43.7694804" lon="11.3301776"><ele>66.14285714285714</ele><time>2026-05-01T09:49:41.586Z</time></trkpt><trkpt lat="43.7695155" lon="11.330302"><ele>67.42857142857143</ele><time>2026-05-01T09:49:44.588Z</time></trkpt><trkpt lat="43.7695415" lon="11.330391"><ele>68.71428571428571</ele><time>2026-05-01T09:49:46.586Z</time></trkpt><trkpt lat="43.7695733" lon="11.3304839"><ele>70.0</ele><time>2026-05-01T09:49:48.587Z</time></trkpt><trkpt lat="43.7696015" lon="11.3305829"><ele>70.0</ele><time>2026-05-01T09:49:50.587Z</time></trkpt><trkpt lat="43.769627" lon="11.3306807"><ele>70.0</ele><time>2026-05-01T09:49:52.587Z</time></trkpt><trkpt lat="43.7696518" lon="11.3307693"><ele>70.0</ele><time>2026-05-01T09:49:54.587Z</time></trkpt><trkpt lat="43.7696795" lon="11.3308592"><ele>70.0</ele><time>2026-05-01T09:49:56.588Z</time></trkpt><trkpt lat="43.7697095" lon="11.3309445"><ele>70.0</ele><time>2026-05-01T09:49:58.585Z</time></trkpt><trkpt lat="43.7697343" lon="11.3310275"><ele>70.0</ele><time>2026-05-01T09:50:00.587Z</time></trkpt><trkpt lat="43.7697624" lon="11.3311072"><ele>70.0</ele><time>2026-05-01T09:50:02.588Z</time></trkpt><trkpt lat="43.7697851" lon="11.3311898"><ele>70.0</ele><time>2026-05-01T09:50:04.587Z</time></trkpt><trkpt lat="43.7698189" lon="11.3313101"><ele>70.0</ele><time>2026-05-01T09:50:07.587Z</time></trkpt><trkpt lat="43.7698443" lon="11.3313992"><ele>70.0</ele><time>2026-05-01T09:50:09.585Z</time></trkpt><trkpt lat="43.7698729" lon="11.33148"><ele>70.0</ele><time>2026-05-01T09:50:11.587Z</time></trkpt><trkpt lat="43.7699006" lon="11.3315662"><ele>70.0</ele><time>2026-05-01T09:50:13.587Z</time></trkpt><trkpt lat="43.7699295" lon="11.3316476"><ele>70.0</ele><time>2026-05-01T09:50:15.587Z</time></trkpt><trkpt lat="43.7699577" lon="11.3317276"><ele>70.0</ele><time>2026-05-01T09:50:17.587Z</time></trkpt><trkpt lat="43.7699891" lon="11.331806"><ele>69.0</ele><time>2026-05-01T09:50:19.586Z</time></trkpt><trkpt lat="43.7700221" lon="11.3319014"><ele>68.0</ele><time>2026-05-01T09:50:21.587Z</time></trkpt><trkpt lat="43.7700563" lon="11.3320019"><ele>67.0</ele><time>2026-05-01T09:50:23.586Z</time></trkpt><trkpt lat="43.7700813" lon="11.3321013"><ele>66.0</ele><time>2026-05-01T09:50:25.586Z</time></trkpt><trkpt lat="43.7701012" lon="11.3322003"><ele>65.0</ele><time>2026-05-01T09:50:27.587Z</time></trkpt><trkpt lat="43.7701162" lon="11.3322923"><ele>64.0</ele><time>2026-05-01T09:50:29.586Z</time></trkpt><trkpt lat="43.7701247" lon="11.3323877"><ele>63.0</ele><time>2026-05-01T09:50:31.587Z</time></trkpt><trkpt lat="43.7701291" lon="11.3324811"><ele>62.666666666666664</ele><time>2026-05-01T09:50:33.585Z</time></trkpt><trkpt lat="43.7701322" lon="11.33258"><ele>62.33333333333333</ele><time>2026-05-01T09:50:35.587Z</time></trkpt><trkpt lat="43.7701306" lon="11.3326826"><ele>62.0</ele><time>2026-05-01T09:50:37.586Z</time></trkpt><trkpt lat="43.7701264" lon="11.3327926"><ele>61.666666666666664</ele><time>2026-05-01T09:50:39.587Z</time></trkpt><trkpt lat="43.7701161" lon="11.3329085"><ele>61.33333333333333</ele><time>2026-05-01T09:50:41.587Z</time></trkpt><trkpt lat="43.7701109" lon="11.3330196"><ele>61.0</ele><time>2026-05-01T09:50:43.586Z</time></trkpt><trkpt lat="43.7701093" lon="11.3331215"><ele>60.99999999999999</ele><time>2026-05-01T09:50:45.587Z</time></trkpt><trkpt lat="43.7701062" lon="11.3332154"><ele>61.0</ele><time>2026-05-01T09:50:47.587Z</time></trkpt><trkpt lat="43.7700994" lon="11.3333386"><ele>61.0</ele><time>2026-05-01T09:50:50.585Z</time></trkpt><trkpt lat="43.7700892" lon="11.3334295"><ele>61.0</ele><time>2026-05-01T09:50:52.586Z</time></trkpt><trkpt lat="43.770072" lon="11.3335161"><ele>60.99999999999999</ele><time>2026-05-01T09:50:54.587Z</time></trkpt><trkpt lat="43.7700452" lon="11.33364"><ele>61.0</ele><time>2026-05-01T09:50:57.586Z</time></trkpt><trkpt lat="43.7700189" lon="11.3337559"><ele>60.99999999999999</ele><time>2026-05-01T09:51:00.586Z</time></trkpt><trkpt lat="43.7699905" lon="11.3338762"><ele>61.0</ele><time>2026-05-01T09:51:03.587Z</time></trkpt><trkpt lat="43.7699686" lon="11.3339825"><ele>61.0</ele><time>2026-05-01T09:51:06.587Z</time></trkpt><trkpt lat="43.7699528" lon="11.3341033"><ele>61.0</ele><time>2026-05-01T09:51:09.587Z</time></trkpt><trkpt lat="43.7699107" lon="11.334203"><ele>60.99999999999999</ele><time>2026-05-01T09:51:12.587Z</time></trkpt><trkpt lat="43.7698381" lon="11.3342812"><ele>61.0</ele><time>2026-05-01T09:51:15.585Z</time></trkpt><trkpt lat="43.7697784" lon="11.3343788"><ele>60.99999999999999</ele><time>2026-05-01T09:51:18.584Z</time></trkpt><trkpt lat="43.7697173" lon="11.3344637"><ele>61.0</ele><time>2026-05-01T09:51:21.587Z</time></trkpt><trkpt lat="43.7696516" lon="11.3345225"><ele>61.0</ele><time>2026-05-01T09:51:24.587Z</time></trkpt><trkpt lat="43.7696108" lon="11.3346277"><ele>61.0</ele><time>2026-05-01T09:51:28.586Z</time></trkpt><trkpt lat="43.7696191" lon="11.3347371"><ele>60.99999999999999</ele><time>2026-05-01T09:51:31.586Z</time></trkpt><trkpt lat="43.7696715" lon="11.3347915"><ele>61.0</ele><time>2026-05-01T09:51:34.587Z</time></trkpt><trkpt lat="43.7696168" lon="11.3348539"><ele>61.666666666666664</ele><time>2026-05-01T09:51:40.587Z</time></trkpt><trkpt lat="43.7695526" lon="11.3348754"><ele>62.33333333333333</ele><time>2026-05-01T09:51:46.587Z</time></trkpt><trkpt lat="43.7694782" lon="11.3348767"><ele>63.0</ele><time>2026-05-01T09:51:51.586Z</time></trkpt><trkpt lat="43.7693965" lon="11.3349083"><ele>63.66666666666667</ele><time>2026-05-01T09:51:54.587Z</time></trkpt><trkpt lat="43.7693106" lon="11.3349256"><ele>64.33333333333334</ele><time>2026-05-01T09:51:57.587Z</time></trkpt><trkpt lat="43.769244" lon="11.3349361"><ele>65.0</ele><time>2026-05-01T09:52:00.586Z</time></trkpt><trkpt lat="43.7691894" lon="11.3350131"><ele>63.66666666666667</ele><time>2026-05-01T09:57:06.586Z</time></trkpt><trkpt lat="43.7691135" lon="11.3350151"><ele>62.333333333333336</ele><time>2026-05-01T09:57:09.585Z</time></trkpt><trkpt lat="43.7690327" lon="11.3350171"><ele>61.0</ele><time>2026-05-01T09:57:12.586Z</time></trkpt><trkpt lat="43.7689565" lon="11.3350074"><ele>59.66666666666667</ele><time>2026-05-01T09:57:15.584Z</time></trkpt><trkpt lat="43.7688759" lon="11.3350064"><ele>58.333333333333336</ele><time>2026-05-01T09:57:18.584Z</time></trkpt><trkpt lat="43.768797" lon="11.3350167"><ele>57.0</ele><time>2026-05-01T09:57:21.585Z</time></trkpt><trkpt lat="43.7687247" lon="11.3350201"><ele>57.0</ele><time>2026-05-01T09:57:24.586Z</time></trkpt><trkpt lat="43.7686495" lon="11.3350302"><ele>57.0</ele><time>2026-05-01T09:57:27.585Z</time></trkpt><trkpt lat="43.768596" lon="11.3351165"><ele>57.0</ele><time>2026-05-01T09:57:30.585Z</time></trkpt><trkpt lat="43.7685983" lon="11.3352069"><ele>57.0</ele><time>2026-05-01T09:57:32.587Z</time></trkpt><trkpt lat="43.768601" lon="11.3353394"><ele>57.0</ele><time>2026-05-01T09:57:35.586Z</time></trkpt><trkpt lat="43.7685899" lon="11.3354502"><ele>57.0</ele><time>2026-05-01T09:57:38.584Z</time></trkpt><trkpt lat="43.7686335" lon="11.3355406"><ele>57.0</ele><time>2026-05-01T09:57:50.586Z</time></trkpt><trkpt lat="43.7687013" lon="11.3355465"><ele>56.99999999999999</ele><time>2026-05-01T09:57:52.584Z</time></trkpt><trkpt lat="43.7687727" lon="11.335525"><ele>57.0</ele><time>2026-05-01T09:57:54.585Z</time></trkpt><trkpt lat="43.768838" lon="11.3354916"><ele>57.0</ele><time>2026-05-01T09:57:56.586Z</time></trkpt><trkpt lat="43.7689059" lon="11.3354589"><ele>56.99999999999999</ele><time>2026-05-01T09:57:58.584Z</time></trkpt><trkpt lat="43.768971" lon="11.3354303"><ele>57.0</ele><time>2026-05-01T09:58:00.584Z</time></trkpt><trkpt lat="43.7690498" lon="11.3354012"><ele>57.0</ele><time>2026-05-01T09:58:03.585Z</time></trkpt><trkpt lat="43.7691176" lon="11.3353784"><ele>57.0</ele><time>2026-05-01T09:58:06.586Z</time></trkpt><trkpt lat="43.7691912" lon="11.3354179"><ele>57.0</ele><time>2026-05-01T09:58:11.585Z</time></trkpt><trkpt lat="43.7692663" lon="11.3353848"><ele>57.0</ele><time>2026-05-01T09:58:15.585Z</time></trkpt><trkpt lat="43.7693427" lon="11.3353654"><ele>57.0</ele><time>2026-05-01T09:58:18.586Z</time></trkpt><trkpt lat="43.7694237" lon="11.3353421"><ele>57.0</ele><time>2026-05-01T09:58:21.586Z</time></trkpt><trkpt lat="43.7695013" lon="11.3352701"><ele>57.0</ele><time>2026-05-01T09:58:24.586Z</time></trkpt><trkpt lat="43.7695517" lon="11.3352072"><ele>58.14285714285714</ele><time>2026-05-01T09:58:26.587Z</time></trkpt><trkpt lat="43.7696067" lon="11.3351559"><ele>59.28571428571428</ele><time>2026-05-01T09:58:28.585Z</time></trkpt><trkpt lat="43.7696853" lon="11.3350976"><ele>60.42857142857143</ele><time>2026-05-01T09:58:31.585Z</time></trkpt><trkpt lat="43.7697505" lon="11.3350799"><ele>61.57142857142857</ele><time>2026-05-01T09:58:33.584Z</time></trkpt><trkpt lat="43.7698136" lon="11.3350583"><ele>62.714285714285715</ele><time>2026-05-01T09:58:35.584Z</time></trkpt><trkpt lat="43.7698839" lon="11.335044"><ele>63.85714285714286</ele><time>2026-05-01T09:58:38.586Z</time></trkpt><trkpt lat="43.7699226" lon="11.3351237"><ele>65.0</ele><time>2026-05-01T09:58:41.585Z</time></trkpt><trkpt lat="43.7699125" lon="11.3352352"><ele>65.0</ele><time>2026-05-01T09:58:44.584Z</time></trkpt><trkpt lat="43.7698921" lon="11.3353322"><ele>65.0</ele><time>2026-05-01T09:58:47.584Z</time></trkpt><trkpt lat="43.7698904" lon="11.3354445"><ele>65.0</ele><time>2026-05-01T09:58:50.586Z</time></trkpt><trkpt lat="43.7698928" lon="11.3355542"><ele>65.0</ele><time>2026-05-01T09:58:53.586Z</time></trkpt><trkpt lat="43.7698809" lon="11.3356571"><ele>65.0</ele><time>2026-05-01T09:58:56.585Z</time></trkpt><trkpt lat="43.7698808" lon="11.3357688"><ele>65.0</ele><time>2026-05-01T09:58:59.586Z</time></trkpt><trkpt lat="43.7698907" lon="11.3358896"><ele>65.57142857142858</ele><time>2026-05-01T09:59:02.585Z</time></trkpt><trkpt lat="43.7699012" lon="11.3359985"><ele>66.14285714285714</ele><time>2026-05-01T09:59:05.586Z</time></trkpt><trkpt lat="43.7698974" lon="11.3360968"><ele>66.71428571428572</ele><time>2026-05-01T09:59:08.586Z</time></trkpt><trkpt lat="43.7698846" lon="11.3361854"><ele>67.28571428571429</ele><time>2026-05-01T09:59:11.586Z</time></trkpt><trkpt lat="43.7698932" lon="11.3362877"><ele>67.85714285714286</ele><time>2026-05-01T09:59:15.586Z</time></trkpt><trkpt lat="43.7699017" lon="11.3363916"><ele>68.42857142857143</ele><time>2026-05-01T09:59:18.586Z</time></trkpt><trkpt lat="43.7699022" lon="11.3364874"><ele>69.0</ele><time>2026-05-01T09:59:21.586Z</time></trkpt><trkpt lat="43.7698989" lon="11.3365879"><ele>69.16666666666667</ele><time>2026-05-01T09:59:24.586Z</time></trkpt><trkpt lat="43.7699101" lon="11.3366769"><ele>69.33333333333333</ele><time>2026-05-01T09:59:27.585Z</time></trkpt><trkpt lat="43.7699144" lon="11.3367789"><ele>69.5</ele><time>2026-05-01T09:59:30.586Z</time></trkpt><trkpt lat="43.769927" lon="11.3368846"><ele>69.66666666666666</ele><time>2026-05-01T09:59:33.586Z</time></trkpt><trkpt lat="43.7699392" lon="11.3369947"><ele>69.83333333333333</ele><time>2026-05-01T09:59:36.585Z</time></trkpt><trkpt lat="43.7699562" lon="11.337103"><ele>70.0</ele><time>2026-05-01T09:59:39.586Z</time></trkpt><trkpt lat="43.7699613" lon="11.3372134"><ele>70.0</ele><time>2026-05-01T09:59:42.585Z</time></trkpt><trkpt lat="43.7699666" lon="11.3373199"><ele>70.0</ele><time>2026-05-01T09:59:45.584Z</time></trkpt><trkpt lat="43.7699804" lon="11.3374204"><ele>70.0</ele><time>2026-05-01T09:59:48.586Z</time></trkpt><trkpt lat="43.7700068" lon="11.3375394"><ele>70.0</ele><time>2026-05-01T09:59:51.585Z</time></trkpt><trkpt lat="43.7700354" lon="11.337639"><ele>70.0</ele><time>2026-05-01T09:59:54.585Z</time></trkpt><trkpt lat="43.7700596" lon="11.3377542"><ele>70.0</ele><time>2026-05-01T09:59:57.586Z</time></trkpt><trkpt lat="43.7700714" lon="11.3378633"><ele>70.0</ele><time>2026-05-01T10:00:00.586Z</time></trkpt><trkpt lat="43.7700875" lon="11.337968"><ele>70.0</ele><time>2026-05-01T10:00:03.585Z</time></trkpt><trkpt lat="43.7701073" lon="11.3380869"><ele>70.0</ele><time>2026-05-01T10:00:06.585Z</time></trkpt><trkpt lat="43.7701211" lon="11.3381892"><ele>70.0</ele><time>2026-05-01T10:00:09.586Z</time></trkpt><trkpt lat="43.7701157" lon="11.3382772"><ele>70.0</ele><time>2026-05-01T10:00:14.586Z</time></trkpt><trkpt lat="43.7701098" lon="11.338365"><ele>70.0</ele><time>2026-05-01T10:00:16.586Z</time></trkpt><trkpt lat="43.770097" lon="11.3384738"><ele>70.0</ele><time>2026-05-01T10:00:18.586Z</time></trkpt><trkpt lat="43.7700795" lon="11.3385869"><ele>70.16666666666666</ele><time>2026-05-01T10:00:20.586Z</time></trkpt><trkpt lat="43.7700574" lon="11.3386971"><ele>70.33333333333333</ele><time>2026-05-01T10:00:22.585Z</time></trkpt><trkpt lat="43.7700314" lon="11.3387994"><ele>70.5</ele><time>2026-05-01T10:00:24.586Z</time></trkpt><trkpt lat="43.7700011" lon="11.3389116"><ele>70.66666666666667</ele><time>2026-05-01T10:00:26.585Z</time></trkpt><trkpt lat="43.769982" lon="11.3390404"><ele>70.83333333333334</ele><time>2026-05-01T10:00:28.585Z</time></trkpt><trkpt lat="43.7699627" lon="11.3391594"><ele>71.0</ele><time>2026-05-01T10:00:30.585Z</time></trkpt><trkpt lat="43.7699467" lon="11.339266"><ele>71.0</ele><time>2026-05-01T10:00:32.585Z</time></trkpt><trkpt lat="43.7699318" lon="11.3393655"><ele>71.0</ele><time>2026-05-01T10:00:34.584Z</time></trkpt><trkpt lat="43.7699209" lon="11.3394721"><ele>71.0</ele><time>2026-05-01T10:00:36.585Z</time></trkpt><trkpt lat="43.7699042" lon="11.3395613"><ele>71.0</ele><time>2026-05-01T10:00:38.587Z</time></trkpt><trkpt lat="43.7698842" lon="11.339671"><ele>71.0</ele><time>2026-05-01T10:00:41.583Z</time></trkpt><trkpt lat="43.7698665" lon="11.3397571"><ele>71.0</ele><time>2026-05-01T10:00:43.584Z</time></trkpt><trkpt lat="43.7698522" lon="11.3398516"><ele>71.0</ele><time>2026-05-01T10:00:45.585Z</time></trkpt><trkpt lat="43.7698389" lon="11.3399404"><ele>70.57142857142857</ele><time>2026-05-01T10:00:47.586Z</time></trkpt><trkpt lat="43.7698172" lon="11.3400234"><ele>70.14285714285714</ele><time>2026-05-01T10:00:59.585Z</time></trkpt><trkpt lat="43.7697899" lon="11.3401118"><ele>69.71428571428571</ele><time>2026-05-01T10:01:03.583Z</time></trkpt><trkpt lat="43.7697151" lon="11.3401188"><ele>69.28571428571428</ele><time>2026-05-01T10:01:06.584Z</time></trkpt><trkpt lat="43.7696399" lon="11.3401308"><ele>68.85714285714286</ele><time>2026-05-01T10:01:09.585Z</time></trkpt><trkpt lat="43.7696151" lon="11.3402203"><ele>68.42857142857142</ele><time>2026-05-01T10:01:13.584Z</time></trkpt><trkpt lat="43.7696795" lon="11.3402441"><ele>68.0</ele><time>2026-05-01T10:01:17.585Z</time></trkpt><trkpt lat="43.7697363" lon="11.3403022"><ele>68.0</ele><time>2026-05-01T10:02:43.584Z</time></trkpt><trkpt lat="43.7698273" lon="11.3403321"><ele>68.0</ele><time>2026-05-01T10:02:46.584Z</time></trkpt><trkpt lat="43.7699103" lon="11.3403456"><ele>68.0</ele><time>2026-05-01T10:02:48.585Z</time></trkpt><trkpt lat="43.7699916" lon="11.3403524"><ele>68.0</ele><time>2026-05-01T10:02:50.586Z</time></trkpt><trkpt lat="43.7700696" lon="11.3403644"><ele>68.0</ele><time>2026-05-01T10:02:52.584Z</time></trkpt><trkpt lat="43.7701422" lon="11.3403914"><ele>68.0</ele><time>2026-05-01T10:02:54.584Z</time></trkpt><trkpt lat="43.7702046" lon="11.3404269"><ele>69.66666666666667</ele><time>2026-05-01T10:02:56.584Z</time></trkpt><trkpt lat="43.7702538" lon="11.3404864"><ele>71.33333333333334</ele><time>2026-05-01T10:02:58.585Z</time></trkpt><trkpt lat="43.7703103" lon="11.3405453"><ele>73.0</ele><time>2026-05-01T10:03:00.585Z</time></trkpt><trkpt lat="43.7703662" lon="11.3405999"><ele>74.66666666666667</ele><time>2026-05-01T10:03:02.584Z</time></trkpt><trkpt lat="43.7704179" lon="11.3406535"><ele>76.33333333333333</ele><time>2026-05-01T10:03:04.585Z</time></trkpt><trkpt lat="43.7704754" lon="11.3406966"><ele>78.0</ele><time>2026-05-01T10:03:06.585Z</time></trkpt><trkpt lat="43.7705877" lon="11.3405977"><ele>78.33333333333333</ele><time>2026-05-01T10:03:12.585Z</time></trkpt><trkpt lat="43.7705757" lon="11.3404739"><ele>78.66666666666667</ele><time>2026-05-01T10:03:15.585Z</time></trkpt><trkpt lat="43.7705546" lon="11.340353"><ele>79.0</ele><time>2026-05-01T10:03:18.585Z</time></trkpt><trkpt lat="43.770537" lon="11.3402653"><ele>79.33333333333334</ele><time>2026-05-01T10:03:20.583Z</time></trkpt><trkpt lat="43.7705268" lon="11.3401395"><ele>79.66666666666667</ele><time>2026-05-01T10:03:23.583Z</time></trkpt><trkpt lat="43.7705154" lon="11.3400248"><ele>80.0</ele><time>2026-05-01T10:03:26.584Z</time></trkpt><trkpt lat="43.7705071" lon="11.3399051"><ele>80.0</ele><time>2026-05-01T10:03:29.584Z</time></trkpt><trkpt lat="43.7705" lon="11.3398059"><ele>80.0</ele><time>2026-05-01T10:03:32.585Z</time></trkpt><trkpt lat="43.7704875" lon="11.3397195"><ele>80.0</ele><time>2026-05-01T10:03:35.584Z</time></trkpt><trkpt lat="43.7704735" lon="11.3396301"><ele>80.0</ele><time>2026-05-01T10:03:45.584Z</time></trkpt><trkpt lat="43.7704489" lon="11.3395305"><ele>80.0</ele><time>2026-05-01T10:03:49.583Z</time></trkpt><trkpt lat="43.7704281" lon="11.339438"><ele>80.0</ele><time>2026-05-01T10:03:52.583Z</time></trkpt><trkpt lat="43.7704388" lon="11.3393341"><ele>80.0</ele><time>2026-05-01T10:03:56.584Z</time></trkpt><trkpt lat="43.7705083" lon="11.3392942"><ele>79.85714285714286</ele><time>2026-05-01T10:04:00.586Z</time></trkpt><trkpt lat="43.7705743" lon="11.3392608"><ele>79.71428571428572</ele><time>2026-05-01T10:04:04.584Z</time></trkpt><trkpt lat="43.7706252" lon="11.3391702"><ele>79.57142857142858</ele><time>2026-05-01T10:04:08.583Z</time></trkpt><trkpt lat="43.7706463" lon="11.3390742"><ele>79.42857142857143</ele><time>2026-05-01T10:04:12.584Z</time></trkpt><trkpt lat="43.7706683" lon="11.3389838"><ele>79.28571428571429</ele><time>2026-05-01T10:04:15.584Z</time></trkpt><trkpt lat="43.7706854" lon="11.3388702"><ele>79.14285714285715</ele><time>2026-05-01T10:04:19.585Z</time></trkpt><trkpt lat="43.7707015" lon="11.3387773"><ele>79.0</ele><time>2026-05-01T10:04:22.584Z</time></trkpt><trkpt lat="43.7707097" lon="11.3386727"><ele>80.00000000000001</ele><time>2026-05-01T10:04:26.583Z</time></trkpt><trkpt lat="43.770723" lon="11.3385795"><ele>81.0</ele><time>2026-05-01T10:04:29.583Z</time></trkpt><trkpt lat="43.7707484" lon="11.3384818"><ele>82.0</ele><time>2026-05-01T10:04:33.583Z</time></trkpt><trkpt lat="43.7707667" lon="11.3383826"><ele>83.0</ele><time>2026-05-01T10:04:37.584Z</time></trkpt><trkpt lat="43.7707744" lon="11.3382905"><ele>84.0</ele><time>2026-05-01T10:04:40.585Z</time></trkpt><trkpt lat="43.7707891" lon="11.3381959"><ele>85.00000000000001</ele><time>2026-05-01T10:04:43.585Z</time></trkpt><trkpt lat="43.7708127" lon="11.3381136"><ele>86.0</ele><time>2026-05-01T10:04:46.584Z</time></trkpt><trkpt lat="43.7708289" lon="11.3380149"><ele>86.83333333333334</ele><time>2026-05-01T10:04:49.584Z</time></trkpt><trkpt lat="43.7708482" lon="11.3379033"><ele>87.66666666666667</ele><time>2026-05-01T10:04:53.585Z</time></trkpt><trkpt lat="43.7708658" lon="11.3378173"><ele>88.5</ele><time>2026-05-01T10:04:56.585Z</time></trkpt><trkpt lat="43.7708804" lon="11.3377066"><ele>89.33333333333333</ele><time>2026-05-01T10:05:00.583Z</time></trkpt><trkpt lat="43.7709006" lon="11.3376003"><ele>90.16666666666666</ele><time>2026-05-01T10:05:04.584Z</time></trkpt><trkpt lat="43.7709121" lon="11.3375089"><ele>91.0</ele><time>2026-05-01T10:05:07.584Z</time></trkpt><trkpt lat="43.7709343" lon="11.3373982"><ele>91.0</ele><time>2026-05-01T10:05:11.584Z</time></trkpt><trkpt lat="43.7709699" lon="11.3373172"><ele>91.0</ele><time>2026-05-01T10:05:14.584Z</time></trkpt><trkpt lat="43.7709999" lon="11.337236"><ele>91.0</ele><time>2026-05-01T10:05:17.585Z</time></trkpt><trkpt lat="43.7710341" lon="11.3371588"><ele>91.0</ele><time>2026-05-01T10:05:20.585Z</time></trkpt><trkpt lat="43.771085" lon="11.3370702"><ele>91.0</ele><time>2026-05-01T10:05:24.584Z</time></trkpt><trkpt lat="43.7711341" lon="11.3370121"><ele>91.0</ele><time>2026-05-01T10:05:27.584Z</time></trkpt><trkpt lat="43.7711709" lon="11.3369349"><ele>91.0</ele><time>2026-05-01T10:05:30.584Z</time></trkpt><trkpt lat="43.7712008" lon="11.3368537"><ele>92.42857142857143</ele><time>2026-05-01T10:05:33.583Z</time></trkpt><trkpt lat="43.7712413" lon="11.3367805"><ele>93.85714285714286</ele><time>2026-05-01T10:05:36.584Z</time></trkpt><trkpt lat="43.7712754" lon="11.3367059"><ele>95.28571428571428</ele><time>2026-05-01T10:05:39.585Z</time></trkpt><trkpt lat="43.7713118" lon="11.3366315"><ele>96.71428571428572</ele><time>2026-05-01T10:05:42.584Z</time></trkpt><trkpt lat="43.7713513" lon="11.3365602"><ele>98.14285714285714</ele><time>2026-05-01T10:05:45.583Z</time></trkpt><trkpt lat="43.7713897" lon="11.3364865"><ele>99.57142857142857</ele><time>2026-05-01T10:05:48.584Z</time></trkpt><trkpt lat="43.7714344" lon="11.3363905"><ele>101.0</ele><time>2026-05-01T10:05:52.585Z</time></trkpt><trkpt lat="43.7714773" lon="11.3363179"><ele>100.99999999999999</ele><time>2026-05-01T10:05:55.584Z</time></trkpt><trkpt lat="43.7715408" lon="11.3362571"><ele>101.0</ele><time>2026-05-01T10:05:59.584Z</time></trkpt><trkpt lat="43.7716" lon="11.336179"><ele>101.0</ele><time>2026-05-01T10:06:03.584Z</time></trkpt><trkpt lat="43.7716625" lon="11.3361163"><ele>101.0</ele><time>2026-05-01T10:06:07.582Z</time></trkpt><trkpt lat="43.7717252" lon="11.336067"><ele>100.99999999999999</ele><time>2026-05-01T10:06:11.583Z</time></trkpt><trkpt lat="43.7718012" lon="11.3360184"><ele>101.0</ele><time>2026-05-01T10:06:15.584Z</time></trkpt><trkpt lat="43.7718701" lon="11.335969"><ele>102.49999999999999</ele><time>2026-05-01T10:06:19.584Z</time></trkpt><trkpt lat="43.7719353" lon="11.33593"><ele>104.0</ele><time>2026-05-01T10:06:23.583Z</time></trkpt><trkpt lat="43.7720013" lon="11.3358777"><ele>105.5</ele><time>2026-05-01T10:06:27.584Z</time></trkpt><trkpt lat="43.7720703" lon="11.3358282"><ele>107.0</ele><time>2026-05-01T10:06:31.583Z</time></trkpt><trkpt lat="43.7721376" lon="11.3357906"><ele>108.49999999999999</ele><time>2026-05-01T10:06:35.584Z</time></trkpt><trkpt lat="43.7722089" lon="11.3358014"><ele>110.0</ele><time>2026-05-01T10:06:39.585Z</time></trkpt><trkpt lat="43.7722905" lon="11.3358152"><ele>109.99999999999999</ele><time>2026-05-01T10:06:43.583Z</time></trkpt><trkpt lat="43.7723727" lon="11.3358402"><ele>110.0</ele><time>2026-05-01T10:06:47.584Z</time></trkpt><trkpt lat="43.7724409" lon="11.335858"><ele>110.0</ele><time>2026-05-01T10:06:51.583Z</time></trkpt><trkpt lat="43.7725076" lon="11.3358892"><ele>110.0</ele><time>2026-05-01T10:10:02.582Z</time></trkpt><trkpt lat="43.7725815" lon="11.3359207"><ele>109.99999999999999</ele><time>2026-05-01T10:10:05.582Z</time></trkpt><trkpt lat="43.7726596" lon="11.3359627"><ele>110.0</ele><time>2026-05-01T10:10:08.584Z</time></trkpt><trkpt lat="43.7727358" lon="11.3359852"><ele>110.85714285714285</ele><time>2026-05-01T10:10:11.582Z</time></trkpt><trkpt lat="43.7728058" lon="11.3360041"><ele>111.71428571428572</ele><time>2026-05-01T10:10:14.584Z</time></trkpt><trkpt lat="43.7728658" lon="11.3360335"><ele>112.57142857142858</ele><time>2026-05-01T10:10:17.582Z</time></trkpt><trkpt lat="43.7729429" lon="11.3360613"><ele>113.42857142857143</ele><time>2026-05-01T10:10:21.583Z</time></trkpt><trkpt lat="43.7730171" lon="11.3360848"><ele>114.28571428571429</ele><time>2026-05-01T10:10:25.583Z</time></trkpt><trkpt lat="43.773079" lon="11.3361199"><ele>115.14285714285715</ele><time>2026-05-01T10:10:29.584Z</time></trkpt><trkpt lat="43.7731537" lon="11.3361523"><ele>116.00000000000001</ele><time>2026-05-01T10:10:33.582Z</time></trkpt><trkpt lat="43.7732286" lon="11.3361953"><ele>116.00000000000001</ele><time>2026-05-01T10:10:37.584Z</time></trkpt><trkpt lat="43.7733025" lon="11.3362481"><ele>116.0</ele><time>2026-05-01T10:10:41.583Z</time></trkpt><trkpt lat="43.7733584" lon="11.3362932"><ele>116.00000000000001</ele><time>2026-05-01T10:10:44.582Z</time></trkpt><trkpt lat="43.7734243" lon="11.3363501"><ele>116.00000000000001</ele><time>2026-05-01T10:10:48.584Z</time></trkpt><trkpt lat="43.7734807" lon="11.3364078"><ele>116.0</ele><time>2026-05-01T10:10:51.583Z</time></trkpt><trkpt lat="43.7735388" lon="11.336483"><ele>116.00000000000001</ele><time>2026-05-01T10:10:54.583Z</time></trkpt><trkpt lat="43.7735903" lon="11.3365474"><ele>116.00000000000001</ele><time>2026-05-01T10:10:58.583Z</time></trkpt><trkpt lat="43.773662" lon="11.3365833"><ele>117.99999999999999</ele><time>2026-05-01T10:11:02.582Z</time></trkpt><trkpt lat="43.7737431" lon="11.3365881"><ele>120.0</ele><time>2026-05-01T10:11:06.584Z</time></trkpt><trkpt lat="43.7738248" lon="11.3365886"><ele>122.0</ele><time>2026-05-01T10:11:10.583Z</time></trkpt><trkpt lat="43.7738997" lon="11.3365882"><ele>124.0</ele><time>2026-05-01T10:11:14.582Z</time></trkpt><trkpt lat="43.7739838" lon="11.3365865"><ele>125.99999999999999</ele><time>2026-05-01T10:11:18.584Z</time></trkpt><trkpt lat="43.7740661" lon="11.336572"><ele>128.0</ele><time>2026-05-01T10:11:22.581Z</time></trkpt><trkpt lat="43.7741395" lon="11.3365645"><ele>128.0</ele><time>2026-05-01T10:11:26.581Z</time></trkpt><trkpt lat="43.7742027" lon="11.3365502"><ele>127.99999999999999</ele><time>2026-05-01T10:11:29.583Z</time></trkpt><trkpt lat="43.7742789" lon="11.3365547"><ele>128.0</ele><time>2026-05-01T10:11:33.582Z</time></trkpt><trkpt lat="43.7743442" lon="11.3365728"><ele>128.0</ele><time>2026-05-01T10:11:36.583Z</time></trkpt><trkpt lat="43.7744196" lon="11.3365856"><ele>127.99999999999999</ele><time>2026-05-01T10:11:40.582Z</time></trkpt><trkpt lat="43.7744907" lon="11.3365996"><ele>128.0</ele><time>2026-05-01T10:11:44.581Z</time></trkpt><trkpt lat="43.7745565" lon="11.3365962"><ele>128.0</ele><time>2026-05-01T10:11:48.583Z</time></trkpt><trkpt lat="43.7746325" lon="11.3366013"><ele>129.14285714285714</ele><time>2026-05-01T10:11:52.583Z</time></trkpt><trkpt lat="43.7746981" lon="11.3366285"><ele>130.28571428571428</ele><time>2026-05-01T10:11:55.583Z</time></trkpt><trkpt lat="43.7747629" lon="11.3366432"><ele>131.42857142857142</ele><time>2026-05-01T10:11:59.583Z</time></trkpt><trkpt lat="43.7748402" lon="11.3366404"><ele>132.57142857142856</ele><time>2026-05-01T10:12:03.582Z</time></trkpt><trkpt lat="43.7748767" lon="11.336732"><ele>133.71428571428572</ele><time>2026-05-01T10:12:09.582Z</time></trkpt><trkpt lat="43.7748723" lon="11.3368211"><ele>134.85714285714283</ele><time>2026-05-01T10:12:12.583Z</time></trkpt><trkpt lat="43.7748718" lon="11.3369085"><ele>136.0</ele><time>2026-05-01T10:12:15.583Z</time></trkpt><trkpt lat="43.7748655" lon="11.3370013"><ele>136.0</ele><time>2026-05-01T10:12:18.582Z</time></trkpt><trkpt lat="43.7748512" lon="11.3370953"><ele>136.0</ele><time>2026-05-01T10:12:21.583Z</time></trkpt><trkpt lat="43.7748269" lon="11.3371924"><ele>136.0</ele><time>2026-05-01T10:12:25.582Z</time></trkpt><trkpt lat="43.774807" lon="11.3372793"><ele>136.0</ele><time>2026-05-01T10:12:28.582Z</time></trkpt><trkpt lat="43.7747858" lon="11.3373841"><ele>136.0</ele><time>2026-05-01T10:12:31.582Z</time></trkpt><trkpt lat="43.7747647" lon="11.3375028"><ele>136.0</ele><time>2026-05-01T10:12:34.583Z</time></trkpt><trkpt lat="43.7747336" lon="11.3375997"><ele>136.83333333333334</ele><time>2026-05-01T10:12:37.583Z</time></trkpt><trkpt lat="43.7747169" lon="11.3377042"><ele>137.66666666666669</ele><time>2026-05-01T10:12:41.583Z</time></trkpt><trkpt lat="43.7747838" lon="11.3377777"><ele>138.5</ele><time>2026-05-01T10:12:45.583Z</time></trkpt><trkpt lat="43.7748476" lon="11.3378429"><ele>139.33333333333334</ele><time>2026-05-01T10:12:48.583Z</time></trkpt><trkpt lat="43.7749068" lon="11.3378946"><ele>140.16666666666666</ele><time>2026-05-01T10:12:51.583Z</time></trkpt><trkpt lat="43.7749779" lon="11.3379381"><ele>141.0</ele><time>2026-05-01T10:12:54.583Z</time></trkpt><trkpt lat="43.7750399" lon="11.3379798"><ele>141.0</ele><time>2026-05-01T10:12:57.582Z</time></trkpt><trkpt lat="43.775097" lon="11.3380176"><ele>141.0</ele><time>2026-05-01T10:13:00.583Z</time></trkpt><trkpt lat="43.7751749" lon="11.3380724"><ele>141.0</ele><time>2026-05-01T10:13:04.582Z</time></trkpt><trkpt lat="43.7752406" lon="11.3381138"><ele>141.0</ele><time>2026-05-01T10:13:07.583Z</time></trkpt><trkpt lat="43.7753003" lon="11.3381558"><ele>141.0</ele><time>2026-05-01T10:13:10.583Z</time></trkpt><trkpt lat="43.7753549" lon="11.3382039"><ele>141.0</ele><time>2026-05-01T10:13:13.582Z</time></trkpt><trkpt lat="43.7754131" lon="11.3382518"><ele>141.0</ele><time>2026-05-01T10:13:16.582Z</time></trkpt><trkpt lat="43.7754935" lon="11.3383051"><ele>143.42857142857144</ele><time>2026-05-01T10:13:20.582Z</time></trkpt><trkpt lat="43.775564" lon="11.3383607"><ele>145.85714285714286</ele><time>2026-05-01T10:13:23.581Z</time></trkpt><trkpt lat="43.7756283" lon="11.3384154"><ele>148.28571428571428</ele><time>2026-05-01T10:13:26.582Z</time></trkpt><trkpt lat="43.775685" lon="11.3384648"><ele>150.71428571428572</ele><time>2026-05-01T10:13:29.583Z</time></trkpt><trkpt lat="43.7757508" lon="11.3385144"><ele>153.14285714285714</ele><time>2026-05-01T10:13:33.583Z</time></trkpt><trkpt lat="43.7758203" lon="11.3385525"><ele>155.57142857142858</ele><time>2026-05-01T10:13:37.583Z</time></trkpt><trkpt lat="43.7758792" lon="11.3385838"><ele>158.0</ele><time>2026-05-01T10:13:40.583Z</time></trkpt><trkpt lat="43.7759406" lon="11.3386142"><ele>158.00000000000003</ele><time>2026-05-01T10:13:43.583Z</time></trkpt><trkpt lat="43.7760057" lon="11.3386598"><ele>158.0</ele><time>2026-05-01T10:13:46.583Z</time></trkpt><trkpt lat="43.7760655" lon="11.3387165"><ele>158.0</ele><time>2026-05-01T10:13:49.58Z</time></trkpt><trkpt lat="43.7761279" lon="11.3387732"><ele>158.0</ele><time>2026-05-01T10:13:52.582Z</time></trkpt><trkpt lat="43.7761908" lon="11.3388141"><ele>158.0</ele><time>2026-05-01T10:13:55.582Z</time></trkpt><trkpt lat="43.7762436" lon="11.3388676"><ele>158.00000000000003</ele><time>2026-05-01T10:13:58.582Z</time></trkpt><trkpt lat="43.7762983" lon="11.3389129"><ele>158.0</ele><time>2026-05-01T10:14:01.582Z</time></trkpt><trkpt lat="43.7763631" lon="11.3389379"><ele>160.2857142857143</ele><time>2026-05-01T10:14:06.581Z</time></trkpt><trkpt lat="43.7764195" lon="11.3388689"><ele>162.57142857142858</ele><time>2026-05-01T10:14:09.581Z</time></trkpt><trkpt lat="43.7764658" lon="11.3388057"><ele>164.85714285714286</ele><time>2026-05-01T10:14:12.581Z</time></trkpt><trkpt lat="43.7765184" lon="11.3387556"><ele>167.14285714285717</ele><time>2026-05-01T10:14:15.581Z</time></trkpt><trkpt lat="43.7765906" lon="11.338708"><ele>169.42857142857144</ele><time>2026-05-01T10:14:19.581Z</time></trkpt><trkpt lat="43.7766514" lon="11.3386754"><ele>171.71428571428572</ele><time>2026-05-01T10:14:22.58Z</time></trkpt><trkpt lat="43.7767181" lon="11.3386373"><ele>174.0</ele><time>2026-05-01T10:14:25.582Z</time></trkpt><trkpt lat="43.7767808" lon="11.3385901"><ele>175.42857142857142</ele><time>2026-05-01T10:14:28.581Z</time></trkpt><trkpt lat="43.7768531" lon="11.3385421"><ele>176.85714285714286</ele><time>2026-05-01T10:14:31.582Z</time></trkpt><trkpt lat="43.7769203" lon="11.338489"><ele>178.28571428571428</ele><time>2026-05-01T10:14:34.583Z</time></trkpt><trkpt lat="43.7769881" lon="11.3384488"><ele>179.71428571428572</ele><time>2026-05-01T10:14:37.581Z</time></trkpt><trkpt lat="43.7770464" lon="11.3384019"><ele>181.14285714285714</ele><time>2026-05-01T10:14:40.58Z</time></trkpt><trkpt lat="43.7771028" lon="11.3383561"><ele>182.57142857142858</ele><time>2026-05-01T10:14:43.582Z</time></trkpt><trkpt lat="43.7771601" lon="11.3383035"><ele>184.0</ele><time>2026-05-01T10:14:46.583Z</time></trkpt><trkpt lat="43.7771947" lon="11.3382117"><ele>184.0</ele><time>2026-05-01T10:14:50.581Z</time></trkpt><trkpt lat="43.7772038" lon="11.3381246"><ele>184.0</ele><time>2026-05-01T10:17:10.581Z</time></trkpt><trkpt lat="43.7772387" lon="11.3380268"><ele>184.0</ele><time>2026-05-01T10:17:14.581Z</time></trkpt><trkpt lat="43.7772743" lon="11.3379526"><ele>184.0</ele><time>2026-05-01T10:17:17.581Z</time></trkpt><trkpt lat="43.7772999" lon="11.3378541"><ele>184.0</ele><time>2026-05-01T10:17:20.582Z</time></trkpt><trkpt lat="43.7773291" lon="11.3377672"><ele>184.0</ele><time>2026-05-01T10:17:23.582Z</time></trkpt><trkpt lat="43.7773658" lon="11.3376748"><ele>184.0</ele><time>2026-05-01T10:17:26.581Z</time></trkpt><trkpt lat="43.7774014" lon="11.3376002"><ele>185.0</ele><time>2026-05-01T10:17:29.581Z</time></trkpt><trkpt lat="43.7774532" lon="11.3375155"><ele>186.0</ele><time>2026-05-01T10:17:33.582Z</time></trkpt><trkpt lat="43.7775081" lon="11.3374482"><ele>187.0</ele><time>2026-05-01T10:17:37.582Z</time></trkpt><trkpt lat="43.7775617" lon="11.3374"><ele>188.0</ele><time>2026-05-01T10:17:40.582Z</time></trkpt><trkpt lat="43.7776218" lon="11.3373498"><ele>189.0</ele><time>2026-05-01T10:17:43.581Z</time></trkpt><trkpt lat="43.7776785" lon="11.3372968"><ele>190.0</ele><time>2026-05-01T10:17:46.581Z</time></trkpt><trkpt lat="43.7777374" lon="11.337242"><ele>191.0</ele><time>2026-05-01T10:17:49.581Z</time></trkpt><trkpt lat="43.7777939" lon="11.3371866"><ele>192.57142857142858</ele><time>2026-05-01T10:17:52.581Z</time></trkpt><trkpt lat="43.7778396" lon="11.337121"><ele>194.14285714285714</ele><time>2026-05-01T10:17:55.58Z</time></trkpt><trkpt lat="43.7778838" lon="11.3370466"><ele>195.71428571428572</ele><time>2026-05-01T10:17:58.581Z</time></trkpt><trkpt lat="43.777945" lon="11.3369687"><ele>197.28571428571428</ele><time>2026-05-01T10:18:02.582Z</time></trkpt><trkpt lat="43.7779894" lon="11.3369023"><ele>198.85714285714283</ele><time>2026-05-01T10:18:05.581Z</time></trkpt><trkpt lat="43.7780381" lon="11.3368468"><ele>200.42857142857142</ele><time>2026-05-01T10:18:08.581Z</time></trkpt><trkpt lat="43.7781091" lon="11.3368014"><ele>202.0</ele><time>2026-05-01T10:18:12.582Z</time></trkpt><trkpt lat="43.7781733" lon="11.3367589"><ele>202.0</ele><time>2026-05-01T10:18:15.58Z</time></trkpt><trkpt lat="43.7782413" lon="11.3367153"><ele>202.0</ele><time>2026-05-01T10:18:18.581Z</time></trkpt><trkpt lat="43.7783083" lon="11.336693"><ele>202.0</ele><time>2026-05-01T10:18:21.581Z</time></trkpt><trkpt lat="43.7783743" lon="11.3366626"><ele>202.0</ele><time>2026-05-01T10:18:24.58Z</time></trkpt><trkpt lat="43.7784448" lon="11.3366443"><ele>202.0</ele><time>2026-05-01T10:18:27.58Z</time></trkpt><trkpt lat="43.7785177" lon="11.3366499"><ele>202.0</ele><time>2026-05-01T10:18:30.58Z</time></trkpt><trkpt lat="43.7785877" lon="11.3366807"><ele>202.0</ele><time>2026-05-01T10:18:33.581Z</time></trkpt><trkpt lat="43.7786591" lon="11.3367198"><ele>203.71428571428572</ele><time>2026-05-01T10:18:36.581Z</time></trkpt><trkpt lat="43.7787316" lon="11.3367549"><ele>205.42857142857142</ele><time>2026-05-01T10:18:39.582Z</time></trkpt><trkpt lat="43.778806" lon="11.3367864"><ele>207.14285714285717</ele><time>2026-05-01T10:18:42.58Z</time></trkpt><trkpt lat="43.7788709" lon="11.3368116"><ele>208.85714285714286</ele><time>2026-05-01T10:18:45.582Z</time></trkpt><trkpt lat="43.778931" lon="11.33684"><ele>210.57142857142858</ele><time>2026-05-01T10:18:48.581Z</time></trkpt><trkpt lat="43.7790045" lon="11.3368846"><ele>212.2857142857143</ele><time>2026-05-01T10:18:52.58Z</time></trkpt><trkpt lat="43.779072" lon="11.3368833"><ele>214.0</ele><time>2026-05-01T10:18:57.58Z</time></trkpt><trkpt lat="43.7791169" lon="11.3368051"><ele>213.99999999999997</ele><time>2026-05-01T10:19:03.581Z</time></trkpt><trkpt lat="43.7791459" lon="11.3367274"><ele>214.0</ele><time>2026-05-01T10:19:05.58Z</time></trkpt><trkpt lat="43.7791783" lon="11.3366524"><ele>214.0</ele><time>2026-05-01T10:19:07.582Z</time></trkpt><trkpt lat="43.7792182" lon="11.3365324"><ele>214.0</ele><time>2026-05-01T10:19:10.581Z</time></trkpt><trkpt lat="43.7792479" lon="11.3364366"><ele>213.99999999999997</ele><time>2026-05-01T10:19:12.579Z</time></trkpt><trkpt lat="43.7792821" lon="11.3363349"><ele>214.0</ele><time>2026-05-01T10:19:14.581Z</time></trkpt><trkpt lat="43.7793276" lon="11.3362166"><ele>213.16666666666666</ele><time>2026-05-01T10:19:16.581Z</time></trkpt><trkpt lat="43.7793794" lon="11.3361062"><ele>212.33333333333331</ele><time>2026-05-01T10:19:18.58Z</time></trkpt><trkpt lat="43.7794114" lon="11.3359969"><ele>211.5</ele><time>2026-05-01T10:19:20.581Z</time></trkpt><trkpt lat="43.7794117" lon="11.3358778"><ele>210.66666666666669</ele><time>2026-05-01T10:19:22.581Z</time></trkpt><trkpt lat="43.779373" lon="11.3357664"><ele>209.83333333333334</ele><time>2026-05-01T10:19:24.582Z</time></trkpt><trkpt lat="43.7793563" lon="11.3356705"><ele>209.0</ele><time>2026-05-01T10:19:26.58Z</time></trkpt><trkpt lat="43.7793387" lon="11.3355837"><ele>211.00000000000003</ele><time>2026-05-01T10:19:28.581Z</time></trkpt><trkpt lat="43.779323" lon="11.3354626"><ele>213.0</ele><time>2026-05-01T10:19:31.58Z</time></trkpt><trkpt lat="43.7793044" lon="11.3353601"><ele>215.0</ele><time>2026-05-01T10:19:34.58Z</time></trkpt><trkpt lat="43.7792445" lon="11.3352763"><ele>217.0</ele><time>2026-05-01T10:19:38.58Z</time></trkpt><trkpt lat="43.7791738" lon="11.3352536"><ele>219.00000000000003</ele><time>2026-05-01T10:19:41.582Z</time></trkpt><trkpt lat="43.7790897" lon="11.3351968"><ele>221.0</ele><time>2026-05-01T10:19:46.3Z</time></trkpt><trkpt lat="43.7790078" lon="11.335116"><ele>221.00000000000003</ele><time>2026-05-01T10:19:48.299Z</time></trkpt><trkpt lat="43.7789602" lon="11.3350427"><ele>221.0</ele><time>2026-05-01T10:19:54.581Z</time></trkpt><trkpt lat="43.7789159" lon="11.3349497"><ele>221.0</ele><time>2026-05-01T10:19:57.581Z</time></trkpt><trkpt lat="43.7788777" lon="11.3348493"><ele>221.0</ele><time>2026-05-01T10:20:00.581Z</time></trkpt><trkpt lat="43.7788396" lon="11.3347546"><ele>221.00000000000003</ele><time>2026-05-01T10:20:03.58Z</time></trkpt><trkpt lat="43.7788063" lon="11.3346513"><ele>221.0</ele><time>2026-05-01T10:20:06.58Z</time></trkpt><trkpt lat="43.7787699" lon="11.3345574"><ele>223.50000000000003</ele><time>2026-05-01T10:20:09.58Z</time></trkpt><trkpt lat="43.7787376" lon="11.3344714"><ele>226.0</ele><time>2026-05-01T10:20:12.58Z</time></trkpt><trkpt lat="43.7786984" lon="11.3343758"><ele>228.5</ele><time>2026-05-01T10:20:16.581Z</time></trkpt><trkpt lat="43.7786662" lon="11.3342891"><ele>231.0</ele><time>2026-05-01T10:20:20.458Z</time></trkpt><trkpt lat="43.7786392" lon="11.3342074"><ele>233.50000000000003</ele><time>2026-05-01T10:20:24.58Z</time></trkpt><trkpt lat="43.7786033" lon="11.3341"><ele>236.0</ele><time>2026-05-01T10:20:28.581Z</time></trkpt><trkpt lat="43.7785683" lon="11.3339968"><ele>236.0</ele><time>2026-05-01T10:20:32.579Z</time></trkpt><trkpt lat="43.778532" lon="11.3338986"><ele>236.0</ele><time>2026-05-01T10:20:35.58Z</time></trkpt><trkpt lat="43.7784979" lon="11.3338244"><ele>236.0</ele><time>2026-05-01T10:20:37.581Z</time></trkpt><trkpt lat="43.7784594" lon="11.3337359"><ele>236.0</ele><time>2026-05-01T10:20:39.581Z</time></trkpt><trkpt lat="43.7784139" lon="11.3336446"><ele>236.0</ele><time>2026-05-01T10:20:41.581Z</time></trkpt><trkpt lat="43.7783769" lon="11.3335615"><ele>236.0</ele><time>2026-05-01T10:20:43.583Z</time></trkpt><trkpt lat="43.7783447" lon="11.3334697"><ele>236.0</ele><time>2026-05-01T10:20:46.582Z</time></trkpt><trkpt lat="43.7783011" lon="11.3333994"><ele>233.33333333333334</ele><time>2026-05-01T10:20:49.581Z</time></trkpt><trkpt lat="43.7782699" lon="11.3333119"><ele>230.66666666666669</ele><time>2026-05-01T10:20:54.582Z</time></trkpt><trkpt lat="43.7783193" lon="11.3332347"><ele>228.0</ele><time>2026-05-01T10:21:03.58Z</time></trkpt><trkpt lat="43.7783961" lon="11.3331364"><ele>225.33333333333331</ele><time>2026-05-01T10:21:05.581Z</time></trkpt><trkpt lat="43.7784703" lon="11.3330565"><ele>222.66666666666666</ele><time>2026-05-01T10:21:07.581Z</time></trkpt><trkpt lat="43.7785483" lon="11.3329784"><ele>220.0</ele><time>2026-05-01T10:21:09.58Z</time></trkpt><trkpt lat="43.7786365" lon="11.3329474"><ele>218.0</ele><time>2026-05-01T10:21:11.58Z</time></trkpt><trkpt lat="43.7787012" lon="11.3328636"><ele>216.0</ele><time>2026-05-01T10:21:13.581Z</time></trkpt><trkpt lat="43.7787508" lon="11.3327216"><ele>214.0</ele><time>2026-05-01T10:21:15.581Z</time></trkpt><trkpt lat="43.7788082" lon="11.3325892"><ele>212.0</ele><time>2026-05-01T10:21:17.58Z</time></trkpt><trkpt lat="43.7788594" lon="11.3324604"><ele>210.0</ele><time>2026-05-01T10:21:19.58Z</time></trkpt><trkpt lat="43.7788855" lon="11.3323715"><ele>210.0</ele><time>2026-05-01T10:21:20.581Z</time></trkpt><trkpt lat="43.7789431" lon="11.3322799"><ele>210.0</ele><time>2026-05-01T10:21:22.58Z</time></trkpt><trkpt lat="43.7789838" lon="11.332171"><ele>210.0</ele><time>2026-05-01T10:21:24.58Z</time></trkpt><trkpt lat="43.7790265" lon="11.3320985"><ele>210.0</ele><time>2026-05-01T10:21:26.581Z</time></trkpt><trkpt lat="43.77907" lon="11.3319976"><ele>210.0</ele><time>2026-05-01T10:21:28.58Z</time></trkpt><trkpt lat="43.7791168" lon="11.3319225"><ele>210.0</ele><time>2026-05-01T10:21:30.581Z</time></trkpt><trkpt lat="43.7791869" lon="11.3318457"><ele>207.6</ele><time>2026-05-01T10:21:33.58Z</time></trkpt><trkpt lat="43.7792601" lon="11.3318248"><ele>205.2</ele><time>2026-05-01T10:21:35.581Z</time></trkpt><trkpt lat="43.7793638" lon="11.3318021"><ele>202.8</ele><time>2026-05-01T10:21:37.58Z</time></trkpt><trkpt lat="43.7794512" lon="11.3318495"><ele>200.4</ele><time>2026-05-01T10:21:39.581Z</time></trkpt><trkpt lat="43.7795441" lon="11.3319241"><ele>198.0</ele><time>2026-05-01T10:21:41.581Z</time></trkpt><trkpt lat="43.7796425" lon="11.3319356"><ele>198.0</ele><time>2026-05-01T10:21:43.58Z</time></trkpt><trkpt lat="43.7797442" lon="11.3318775"><ele>198.0</ele><time>2026-05-01T10:21:45.58Z</time></trkpt><trkpt lat="43.7798402" lon="11.3317839"><ele>198.0</ele><time>2026-05-01T10:21:47.581Z</time></trkpt><trkpt lat="43.779899" lon="11.3316395"><ele>198.0</ele><time>2026-05-01T10:21:49.581Z</time></trkpt><trkpt lat="43.7799394" lon="11.3315621"><ele>198.0</ele><time>2026-05-01T10:21:50.581Z</time></trkpt><trkpt lat="43.7799652" lon="11.3314706"><ele>197.16666666666666</ele><time>2026-05-01T10:21:51.58Z</time></trkpt><trkpt lat="43.7799887" lon="11.3313725"><ele>196.33333333333331</ele><time>2026-05-01T10:21:52.58Z</time></trkpt><trkpt lat="43.7800015" lon="11.3312754"><ele>195.5</ele><time>2026-05-01T10:21:53.58Z</time></trkpt><trkpt lat="43.7799935" lon="11.3311278"><ele>194.66666666666666</ele><time>2026-05-01T10:21:55.579Z</time></trkpt><trkpt lat="43.7799732" lon="11.3309773"><ele>193.83333333333331</ele><time>2026-05-01T10:21:57.581Z</time></trkpt><trkpt lat="43.7799795" lon="11.3308726"><ele>193.0</ele><time>2026-05-01T10:21:59.581Z</time></trkpt><trkpt lat="43.7799795" lon="11.330744"><ele>192.99999999999997</ele><time>2026-05-01T10:22:01.581Z</time></trkpt><trkpt lat="43.7799777" lon="11.3306533"><ele>193.0</ele><time>2026-05-01T10:22:03.579Z</time></trkpt><trkpt lat="43.7799606" lon="11.3305636"><ele>193.0</ele><time>2026-05-01T10:22:06.58Z</time></trkpt><trkpt lat="43.7799394" lon="11.3304546"><ele>193.0</ele><time>2026-05-01T10:22:09.58Z</time></trkpt><trkpt lat="43.7799517" lon="11.3303406"><ele>192.99999999999997</ele><time>2026-05-01T10:22:12.58Z</time></trkpt><trkpt lat="43.7799562" lon="11.3302228"><ele>193.0</ele><time>2026-05-01T10:22:15.579Z</time></trkpt><trkpt lat="43.7799617" lon="11.3301136"><ele>193.42857142857144</ele><time>2026-05-01T10:22:18.58Z</time></trkpt><trkpt lat="43.7799747" lon="11.3300114"><ele>193.85714285714286</ele><time>2026-05-01T10:22:21.58Z</time></trkpt><trkpt lat="43.7799836" lon="11.3299156"><ele>194.28571428571428</ele><time>2026-05-01T10:22:24.579Z</time></trkpt><trkpt lat="43.7799972" lon="11.3298116"><ele>194.71428571428572</ele><time>2026-05-01T10:22:27.58Z</time></trkpt><trkpt lat="43.7800205" lon="11.3297043"><ele>195.14285714285714</ele><time>2026-05-01T10:22:30.579Z</time></trkpt><trkpt lat="43.7800494" lon="11.3296076"><ele>195.57142857142858</ele><time>2026-05-01T10:22:33.58Z</time></trkpt><trkpt lat="43.7800713" lon="11.3295156"><ele>196.0</ele><time>2026-05-01T10:22:36.58Z</time></trkpt><trkpt lat="43.7800946" lon="11.3294331"><ele>196.0</ele><time>2026-05-01T10:22:39.582Z</time></trkpt><trkpt lat="43.7801204" lon="11.3293454"><ele>196.0</ele><time>2026-05-01T10:22:42.581Z</time></trkpt><trkpt lat="43.7801475" lon="11.3292592"><ele>196.0</ele><time>2026-05-01T10:22:45.579Z</time></trkpt><trkpt lat="43.7801767" lon="11.3291655"><ele>196.0</ele><time>2026-05-01T10:22:50.579Z</time></trkpt><trkpt lat="43.7802124" lon="11.3290906"><ele>196.0</ele><time>2026-05-01T10:22:58.581Z</time></trkpt><trkpt lat="43.7802916" lon="11.3290413"><ele>196.0</ele><time>2026-05-01T10:23:02.58Z</time></trkpt><trkpt lat="43.7803712" lon="11.3290106"><ele>196.0</ele><time>2026-05-01T10:23:05.58Z</time></trkpt><trkpt lat="43.7804586" lon="11.3289889"><ele>195.49999999999997</ele><time>2026-05-01T10:23:08.581Z</time></trkpt><trkpt lat="43.7805249" lon="11.3289694"><ele>195.0</ele><time>2026-05-01T10:23:10.579Z</time></trkpt><trkpt lat="43.7805996" lon="11.3289065"><ele>194.5</ele><time>2026-05-01T10:23:13.581Z</time></trkpt><trkpt lat="43.7806398" lon="11.3288275"><ele>194.0</ele><time>2026-05-01T10:23:15.58Z</time></trkpt><trkpt lat="43.7806776" lon="11.3287235"><ele>193.49999999999997</ele><time>2026-05-01T10:23:17.579Z</time></trkpt><trkpt lat="43.7807008" lon="11.3286299"><ele>193.0</ele><time>2026-05-01T10:23:19.579Z</time></trkpt><trkpt lat="43.7807184" lon="11.328518"><ele>192.99999999999997</ele><time>2026-05-01T10:23:21.58Z</time></trkpt><trkpt lat="43.7807439" lon="11.328407"><ele>193.0</ele><time>2026-05-01T10:23:23.58Z</time></trkpt><trkpt lat="43.7807664" lon="11.3283247"><ele>193.0</ele><time>2026-05-01T10:23:25.579Z</time></trkpt><trkpt lat="43.7807898" lon="11.3282102"><ele>193.0</ele><time>2026-05-01T10:23:28.579Z</time></trkpt><trkpt lat="43.7808067" lon="11.3281008"><ele>192.99999999999997</ele><time>2026-05-01T10:23:31.581Z</time></trkpt><trkpt lat="43.7808103" lon="11.3279812"><ele>193.0</ele><time>2026-05-01T10:23:34.578Z</time></trkpt><trkpt lat="43.7808039" lon="11.3278644"><ele>191.99999999999997</ele><time>2026-05-01T10:23:37.58Z</time></trkpt><trkpt lat="43.7808054" lon="11.3277476"><ele>191.0</ele><time>2026-05-01T10:23:40.579Z</time></trkpt><trkpt lat="43.7808087" lon="11.3276415"><ele>190.0</ele><time>2026-05-01T10:23:43.58Z</time></trkpt><trkpt lat="43.7808309" lon="11.3275393"><ele>189.0</ele><time>2026-05-01T10:23:46.581Z</time></trkpt><trkpt lat="43.7808755" lon="11.3274373"><ele>188.0</ele><time>2026-05-01T10:23:49.58Z</time></trkpt><trkpt lat="43.78093" lon="11.3273382"><ele>187.0</ele><time>2026-05-01T10:23:52.579Z</time></trkpt><trkpt lat="43.7809974" lon="11.3272452"><ele>186.83333333333334</ele><time>2026-05-01T10:23:55.579Z</time></trkpt><trkpt lat="43.7810582" lon="11.3271755"><ele>186.66666666666669</ele><time>2026-05-01T10:23:57.565Z</time></trkpt><trkpt lat="43.7811113" lon="11.3271091"><ele>186.5</ele><time>2026-05-01T10:23:59.582Z</time></trkpt><trkpt lat="43.7811622" lon="11.327025"><ele>186.33333333333334</ele><time>2026-05-01T10:24:01.58Z</time></trkpt><trkpt lat="43.7812302" lon="11.3269715"><ele>186.16666666666666</ele><time>2026-05-01T10:24:03.58Z</time></trkpt><trkpt lat="43.7813071" lon="11.3269094"><ele>186.0</ele><time>2026-05-01T10:24:06.58Z</time></trkpt><trkpt lat="43.7813302" lon="11.3268266"><ele>186.00000000000003</ele><time>2026-05-01T10:24:09.58Z</time></trkpt><trkpt lat="43.7813474" lon="11.3267296"><ele>186.0</ele><time>2026-05-01T10:24:12.581Z</time></trkpt><trkpt lat="43.7813654" lon="11.3266339"><ele>186.0</ele><time>2026-05-01T10:24:15.579Z</time></trkpt><trkpt lat="43.7814111" lon="11.3265295"><ele>186.0</ele><time>2026-05-01T10:24:18.579Z</time></trkpt><trkpt lat="43.7814612" lon="11.3264767"><ele>186.0</ele><time>2026-05-01T10:24:20.58Z</time></trkpt><trkpt lat="43.7815142" lon="11.3264163"><ele>186.00000000000003</ele><time>2026-05-01T10:24:22.58Z</time></trkpt><trkpt lat="43.7815696" lon="11.3263549"><ele>186.0</ele><time>2026-05-01T10:24:24.579Z</time></trkpt><trkpt lat="43.7816402" lon="11.3263119"><ele>183.8</ele><time>2026-05-01T10:24:27.58Z</time></trkpt><trkpt lat="43.7817136" lon="11.3262754"><ele>181.60000000000002</ele><time>2026-05-01T10:24:30.58Z</time></trkpt><trkpt lat="43.7817769" lon="11.326246"><ele>179.4</ele><time>2026-05-01T10:24:32.58Z</time></trkpt><trkpt lat="43.7818486" lon="11.3262051"><ele>177.2</ele><time>2026-05-01T10:24:34.581Z</time></trkpt><trkpt lat="43.7819583" lon="11.3261514"><ele>175.0</ele><time>2026-05-01T10:24:36.58Z</time></trkpt><trkpt lat="43.7820653" lon="11.3260987"><ele>174.2</ele><time>2026-05-01T10:24:38.579Z</time></trkpt><trkpt lat="43.7821832" lon="11.3260663"><ele>173.4</ele><time>2026-05-01T10:24:40.58Z</time></trkpt><trkpt lat="43.7822914" lon="11.3260194"><ele>172.60000000000002</ele><time>2026-05-01T10:24:42.579Z</time></trkpt><trkpt lat="43.7823545" lon="11.325955"><ele>171.8</ele><time>2026-05-01T10:24:44.579Z</time></trkpt><trkpt lat="43.7824189" lon="11.3258873"><ele>171.0</ele><time>2026-05-01T10:24:46.58Z</time></trkpt><trkpt lat="43.782508" lon="11.3258354"><ele>171.0</ele><time>2026-05-01T10:24:48.579Z</time></trkpt><trkpt lat="43.7825955" lon="11.3257568"><ele>171.0</ele><time>2026-05-01T10:24:50.579Z</time></trkpt><trkpt lat="43.7826695" lon="11.3256282"><ele>171.0</ele><time>2026-05-01T10:24:52.579Z</time></trkpt><trkpt lat="43.7827071" lon="11.3255386"><ele>171.0</ele><time>2026-05-01T10:24:53.579Z</time></trkpt><trkpt lat="43.7827501" lon="11.3253648"><ele>171.0</ele><time>2026-05-01T10:24:55.579Z</time></trkpt><trkpt lat="43.7827691" lon="11.3252706"><ele>171.5</ele><time>2026-05-01T10:24:56.58Z</time></trkpt><trkpt lat="43.7827979" lon="11.3251849"><ele>172.0</ele><time>2026-05-01T10:24:57.578Z</time></trkpt><trkpt lat="43.7828249" lon="11.32509"><ele>172.5</ele><time>2026-05-01T10:24:58.58Z</time></trkpt><trkpt lat="43.7828525" lon="11.3249919"><ele>173.0</ele><time>2026-05-01T10:24:59.579Z</time></trkpt><trkpt lat="43.7828829" lon="11.3248966"><ele>173.5</ele><time>2026-05-01T10:25:00.578Z</time></trkpt><trkpt lat="43.7829057" lon="11.3248066"><ele>174.0</ele><time>2026-05-01T10:25:01.58Z</time></trkpt><trkpt lat="43.7829479" lon="11.3246475"><ele>174.83333333333334</ele><time>2026-05-01T10:25:03.579Z</time></trkpt><trkpt lat="43.7829755" lon="11.3245249"><ele>175.66666666666666</ele><time>2026-05-01T10:25:05.581Z</time></trkpt><trkpt lat="43.7830079" lon="11.3244177"><ele>176.5</ele><time>2026-05-01T10:25:08.58Z</time></trkpt><trkpt lat="43.7830339" lon="11.3242985"><ele>177.33333333333331</ele><time>2026-05-01T10:25:11.579Z</time></trkpt><trkpt lat="43.7830541" lon="11.3241945"><ele>178.16666666666666</ele><time>2026-05-01T10:25:14.58Z</time></trkpt><trkpt lat="43.7830755" lon="11.324087"><ele>179.0</ele><time>2026-05-01T10:25:17.579Z</time></trkpt><trkpt lat="43.7830887" lon="11.3239799"><ele>179.0</ele><time>2026-05-01T10:25:20.581Z</time></trkpt><trkpt lat="43.7831027" lon="11.3238761"><ele>179.0</ele><time>2026-05-01T10:25:23.579Z</time></trkpt><trkpt lat="43.7831163" lon="11.3237698"><ele>179.0</ele><time>2026-05-01T10:25:26.578Z</time></trkpt><trkpt lat="43.7831353" lon="11.3236661"><ele>179.0</ele><time>2026-05-01T10:25:29.579Z</time></trkpt><trkpt lat="43.7831657" lon="11.3235726"><ele>179.0</ele><time>2026-05-01T10:25:32.579Z</time></trkpt><trkpt lat="43.7832123" lon="11.3234776"><ele>179.0</ele><time>2026-05-01T10:25:35.581Z</time></trkpt><trkpt lat="43.7832632" lon="11.3234035"><ele>179.00000000000003</ele><time>2026-05-01T10:25:38.58Z</time></trkpt><trkpt lat="43.7833126" lon="11.3233179"><ele>179.0</ele><time>2026-05-01T10:25:41.579Z</time></trkpt><trkpt lat="43.7833606" lon="11.323243"><ele>179.0</ele><time>2026-05-01T10:25:44.579Z</time></trkpt><trkpt lat="43.7834007" lon="11.323175"><ele>179.0</ele><time>2026-05-01T10:25:47.58Z</time></trkpt><trkpt lat="43.7834365" lon="11.3230945"><ele>179.0</ele><time>2026-05-01T10:25:51.58Z</time></trkpt><trkpt lat="43.7834705" lon="11.3229997"><ele>179.00000000000003</ele><time>2026-05-01T10:26:00.58Z</time></trkpt><trkpt lat="43.7834954" lon="11.3229171"><ele>179.0</ele><time>2026-05-01T10:26:04.579Z</time></trkpt><trkpt lat="43.7834646" lon="11.3228291"><ele>178.79999999999998</ele><time>2026-05-01T10:26:14.579Z</time></trkpt><trkpt lat="43.7834355" lon="11.3227042"><ele>178.6</ele><time>2026-05-01T10:26:17.58Z</time></trkpt><trkpt lat="43.7834207" lon="11.3226134"><ele>178.4</ele><time>2026-05-01T10:26:19.58Z</time></trkpt><trkpt lat="43.783362" lon="11.3224403"><ele>178.2</ele><time>2026-05-01T10:26:21.58Z</time></trkpt><trkpt lat="43.7833134" lon="11.322301"><ele>178.0</ele><time>2026-05-01T10:26:23.58Z</time></trkpt><trkpt lat="43.783266" lon="11.3221793"><ele>177.5</ele><time>2026-05-01T10:26:25.579Z</time></trkpt><trkpt lat="43.7832167" lon="11.3220475"><ele>177.0</ele><time>2026-05-01T10:26:27.578Z</time></trkpt><trkpt lat="43.7831779" lon="11.321913"><ele>176.5</ele><time>2026-05-01T10:26:29.578Z</time></trkpt><trkpt lat="43.7831271" lon="11.321796"><ele>176.0</ele><time>2026-05-01T10:26:31.58Z</time></trkpt><trkpt lat="43.7831145" lon="11.3217084"><ele>175.5</ele><time>2026-05-01T10:26:33.579Z</time></trkpt><trkpt lat="43.7830829" lon="11.3216327"><ele>175.0</ele><time>2026-05-01T10:26:35.58Z</time></trkpt><trkpt lat="43.7830582" lon="11.3215129"><ele>175.0</ele><time>2026-05-01T10:26:38.579Z</time></trkpt><trkpt lat="43.7830255" lon="11.3214023"><ele>175.0</ele><time>2026-05-01T10:26:41.58Z</time></trkpt><trkpt lat="43.7829762" lon="11.3212964"><ele>175.0</ele><time>2026-05-01T10:26:44.579Z</time></trkpt><trkpt lat="43.7829476" lon="11.3212059"><ele>175.0</ele><time>2026-05-01T10:26:46.579Z</time></trkpt><trkpt lat="43.7829146" lon="11.3211187"><ele>175.0</ele><time>2026-05-01T10:26:48.579Z</time></trkpt><trkpt lat="43.7828792" lon="11.3210316"><ele>175.0</ele><time>2026-05-01T10:26:50.58Z</time></trkpt><trkpt lat="43.7828528" lon="11.3209289"><ele>173.83333333333334</ele><time>2026-05-01T10:26:52.579Z</time></trkpt><trkpt lat="43.7828312" lon="11.3208357"><ele>172.66666666666669</ele><time>2026-05-01T10:26:54.58Z</time></trkpt><trkpt lat="43.7828206" lon="11.3207488"><ele>171.5</ele><time>2026-05-01T10:26:56.579Z</time></trkpt><trkpt lat="43.7828397" lon="11.3206657"><ele>170.33333333333334</ele><time>2026-05-01T10:26:58.58Z</time></trkpt><trkpt lat="43.7828831" lon="11.3205521"><ele>169.16666666666666</ele><time>2026-05-01T10:27:01.581Z</time></trkpt><trkpt lat="43.782914" lon="11.3204488"><ele>168.0</ele><time>2026-05-01T10:27:03.578Z</time></trkpt><trkpt lat="43.782947" lon="11.3203281"><ele>167.28571428571428</ele><time>2026-05-01T10:27:06.579Z</time></trkpt><trkpt lat="43.7829762" lon="11.3202238"><ele>166.57142857142856</ele><time>2026-05-01T10:27:08.58Z</time></trkpt><trkpt lat="43.7830055" lon="11.3201148"><ele>165.85714285714286</ele><time>2026-05-01T10:27:10.58Z</time></trkpt><trkpt lat="43.7830359" lon="11.3200143"><ele>165.14285714285714</ele><time>2026-05-01T10:27:12.579Z</time></trkpt><trkpt lat="43.7830811" lon="11.3199525"><ele>164.42857142857142</ele><time>2026-05-01T10:27:17.58Z</time></trkpt><trkpt lat="43.7830443" lon="11.3198702"><ele>163.71428571428572</ele><time>2026-05-01T10:29:49.578Z</time></trkpt><trkpt lat="43.782986" lon="11.3198286"><ele>163.0</ele><time>2026-05-01T10:29:54.579Z</time></trkpt><trkpt lat="43.7829274" lon="11.3197831"><ele>163.0</ele><time>2026-05-01T10:30:01.579Z</time></trkpt><trkpt lat="43.7829111" lon="11.3196922"><ele>163.0</ele><time>2026-05-01T10:30:06.578Z</time></trkpt><trkpt lat="43.7829016" lon="11.3196"><ele>163.0</ele><time>2026-05-01T10:30:12.579Z</time></trkpt><trkpt lat="43.7829925" lon="11.3195721"><ele>163.0</ele><time>2026-05-01T10:58:00.574Z</time></trkpt><trkpt lat="43.7829393" lon="11.3196259"><ele>163.0</ele><time>2026-05-01T10:58:09.574Z</time></trkpt><trkpt lat="43.7829207" lon="11.3197193"><ele>163.0</ele><time>2026-05-01T10:58:17.573Z</time></trkpt><trkpt lat="43.7829068" lon="11.3198052"><ele>163.0</ele><time>2026-05-01T10:58:26.573Z</time></trkpt><trkpt lat="43.782949" lon="11.3198752"><ele>163.0</ele><time>2026-05-01T10:58:35.573Z</time></trkpt><trkpt lat="43.7829987" lon="11.3199375"><ele>163.0</ele><time>2026-05-01T10:58:48.573Z</time></trkpt><trkpt lat="43.7830607" lon="11.3199153"><ele>163.0</ele><time>2026-05-01T10:59:00.574Z</time></trkpt><trkpt lat="43.7830753" lon="11.3200067"><ele>163.0</ele><time>2026-05-01T10:59:20.574Z</time></trkpt><trkpt lat="43.7830634" lon="11.320107"><ele>163.0</ele><time>2026-05-01T10:59:24.573Z</time></trkpt><trkpt lat="43.7830137" lon="11.3201978"><ele>163.0</ele><time>2026-05-01T10:59:27.573Z</time></trkpt><trkpt lat="43.7829756" lon="11.3202873"><ele>163.0</ele><time>2026-05-01T10:59:30.574Z</time></trkpt><trkpt lat="43.7829495" lon="11.3204013"><ele>163.0</ele><time>2026-05-01T10:59:35.574Z</time></trkpt><trkpt lat="43.7829147" lon="11.3205004"><ele>163.0</ele><time>2026-05-01T10:59:38.574Z</time></trkpt><trkpt lat="43.7828916" lon="11.320582"><ele>163.0</ele><time>2026-05-01T10:59:40.574Z</time></trkpt><trkpt lat="43.7828683" lon="11.3206837"><ele>163.0</ele><time>2026-05-01T10:59:44.573Z</time></trkpt><trkpt lat="43.7828623" lon="11.3207763"><ele>163.0</ele><time>2026-05-01T10:59:47.571Z</time></trkpt><trkpt lat="43.7828772" lon="11.3208643"><ele>163.0</ele><time>2026-05-01T10:59:50.571Z</time></trkpt><trkpt lat="43.7829024" lon="11.3209652"><ele>163.0</ele><time>2026-05-01T10:59:53.572Z</time></trkpt><trkpt lat="43.7829421" lon="11.3210631"><ele>163.71428571428572</ele><time>2026-05-01T10:59:56.572Z</time></trkpt><trkpt lat="43.7829891" lon="11.3211379"><ele>164.42857142857142</ele><time>2026-05-01T10:59:59.574Z</time></trkpt><trkpt lat="43.7830319" lon="11.3212137"><ele>165.14285714285714</ele><time>2026-05-01T11:00:03.573Z</time></trkpt><trkpt lat="43.7830736" lon="11.3213111"><ele>165.85714285714286</ele><time>2026-05-01T11:00:07.574Z</time></trkpt><trkpt lat="43.7830989" lon="11.3213937"><ele>166.57142857142856</ele><time>2026-05-01T11:00:10.574Z</time></trkpt><trkpt lat="43.7831124" lon="11.3214789"><ele>167.28571428571428</ele><time>2026-05-01T11:00:14.572Z</time></trkpt><trkpt lat="43.7831228" lon="11.3215819"><ele>168.0</ele><time>2026-05-01T11:00:18.574Z</time></trkpt><trkpt lat="43.78314" lon="11.3216778"><ele>169.16666666666666</ele><time>2026-05-01T11:00:22.573Z</time></trkpt><trkpt lat="43.7831655" lon="11.3217621"><ele>170.33333333333334</ele><time>2026-05-01T11:00:26.572Z</time></trkpt><trkpt lat="43.7831858" lon="11.3218603"><ele>171.5</ele><time>2026-05-01T11:01:41.573Z</time></trkpt><trkpt lat="43.7832426" lon="11.3219591"><ele>172.66666666666669</ele><time>2026-05-01T11:01:44.573Z</time></trkpt><trkpt lat="43.7832901" lon="11.3220557"><ele>173.83333333333334</ele><time>2026-05-01T11:01:47.572Z</time></trkpt><trkpt lat="43.7833244" lon="11.3221584"><ele>175.0</ele><time>2026-05-01T11:01:50.574Z</time></trkpt><trkpt lat="43.7833525" lon="11.3222545"><ele>175.5</ele><time>2026-05-01T11:01:54.574Z</time></trkpt><trkpt lat="43.7834005" lon="11.322353"><ele>176.0</ele><time>2026-05-01T11:01:58.573Z</time></trkpt><trkpt lat="43.7834277" lon="11.322468"><ele>176.5</ele><time>2026-05-01T11:02:01.573Z</time></trkpt><trkpt lat="43.7834378" lon="11.3225924"><ele>177.0</ele><time>2026-05-01T11:02:04.573Z</time></trkpt><trkpt lat="43.7834497" lon="11.3226836"><ele>177.5</ele><time>2026-05-01T11:02:07.572Z</time></trkpt><trkpt lat="43.7834621" lon="11.3227724"><ele>178.0</ele><time>2026-05-01T11:02:10.573Z</time></trkpt><trkpt lat="43.7834611" lon="11.3228686"><ele>178.0</ele><time>2026-05-01T11:02:14.574Z</time></trkpt><trkpt lat="43.7834749" lon="11.3229615"><ele>178.0</ele><time>2026-05-01T11:02:18.574Z</time></trkpt><trkpt lat="43.7834594" lon="11.323056"><ele>178.0</ele><time>2026-05-01T11:02:28.572Z</time></trkpt><trkpt lat="43.7833971" lon="11.3230885"><ele>178.0</ele><time>2026-05-01T11:02:34.573Z</time></trkpt><trkpt lat="43.7833494" lon="11.3231885"><ele>178.0</ele><time>2026-05-01T11:05:27.573Z</time></trkpt><trkpt lat="43.7832896" lon="11.3232886"><ele>178.0</ele><time>2026-05-01T11:05:30.573Z</time></trkpt><trkpt lat="43.783235" lon="11.3233923"><ele>178.16666666666669</ele><time>2026-05-01T11:05:33.573Z</time></trkpt><trkpt lat="43.7831925" lon="11.3234677"><ele>178.33333333333334</ele><time>2026-05-01T11:05:35.573Z</time></trkpt><trkpt lat="43.7831594" lon="11.3235636"><ele>178.5</ele><time>2026-05-01T11:05:37.572Z</time></trkpt><trkpt lat="43.7831384" lon="11.323672"><ele>178.66666666666666</ele><time>2026-05-01T11:05:39.572Z</time></trkpt><trkpt lat="43.7831188" lon="11.3237914"><ele>178.83333333333331</ele><time>2026-05-01T11:05:41.573Z</time></trkpt><trkpt lat="43.7831112" lon="11.3239239"><ele>179.0</ele><time>2026-05-01T11:05:43.573Z</time></trkpt><trkpt lat="43.7830764" lon="11.3240533"><ele>179.0</ele><time>2026-05-01T11:05:45.573Z</time></trkpt><trkpt lat="43.7830563" lon="11.3241965"><ele>179.0</ele><time>2026-05-01T11:05:47.573Z</time></trkpt><trkpt lat="43.7830326" lon="11.3243584"><ele>179.0</ele><time>2026-05-01T11:05:49.572Z</time></trkpt><trkpt lat="43.7830041" lon="11.3244819"><ele>179.0</ele><time>2026-05-01T11:05:50.574Z</time></trkpt><trkpt lat="43.7829827" lon="11.3245891"><ele>179.0</ele><time>2026-05-01T11:05:51.573Z</time></trkpt><trkpt lat="43.7829617" lon="11.3246894"><ele>178.16666666666666</ele><time>2026-05-01T11:05:52.572Z</time></trkpt><trkpt lat="43.7829179" lon="11.3247973"><ele>177.33333333333331</ele><time>2026-05-01T11:05:53.574Z</time></trkpt><trkpt lat="43.7828867" lon="11.3249013"><ele>176.5</ele><time>2026-05-01T11:05:54.573Z</time></trkpt><trkpt lat="43.7828569" lon="11.3250128"><ele>175.66666666666666</ele><time>2026-05-01T11:05:55.571Z</time></trkpt><trkpt lat="43.7828279" lon="11.3251199"><ele>174.83333333333334</ele><time>2026-05-01T11:05:56.573Z</time></trkpt><trkpt lat="43.782798" lon="11.3252097"><ele>174.0</ele><time>2026-05-01T11:05:57.571Z</time></trkpt><trkpt lat="43.7827862" lon="11.3252976"><ele>174.0</ele><time>2026-05-01T11:05:58.573Z</time></trkpt><trkpt lat="43.7827386" lon="11.3254194"><ele>174.0</ele><time>2026-05-01T11:06:00.573Z</time></trkpt><trkpt lat="43.7827135" lon="11.3255286"><ele>174.0</ele><time>2026-05-01T11:06:03.572Z</time></trkpt><trkpt lat="43.7826682" lon="11.3256408"><ele>174.0</ele><time>2026-05-01T11:06:06.573Z</time></trkpt><trkpt lat="43.7826158" lon="11.3257214"><ele>174.0</ele><time>2026-05-01T11:06:09.573Z</time></trkpt><trkpt lat="43.7825573" lon="11.3257992"><ele>174.0</ele><time>2026-05-01T11:06:12.573Z</time></trkpt><trkpt lat="43.7824846" lon="11.3258572"><ele>173.5</ele><time>2026-05-01T11:06:15.573Z</time></trkpt><trkpt lat="43.7824099" lon="11.3259102"><ele>173.0</ele><time>2026-05-01T11:06:18.571Z</time></trkpt><trkpt lat="43.7823489" lon="11.325952"><ele>172.5</ele><time>2026-05-01T11:06:21.573Z</time></trkpt><trkpt lat="43.7822741" lon="11.3259933"><ele>172.0</ele><time>2026-05-01T11:06:24.572Z</time></trkpt><trkpt lat="43.7821958" lon="11.3260271"><ele>171.5</ele><time>2026-05-01T11:06:27.573Z</time></trkpt><trkpt lat="43.7821099" lon="11.326052"><ele>171.0</ele><time>2026-05-01T11:06:30.573Z</time></trkpt><trkpt lat="43.7820347" lon="11.3260932"><ele>170.99999999999997</ele><time>2026-05-01T11:06:33.573Z</time></trkpt><trkpt lat="43.7819638" lon="11.3261349"><ele>171.0</ele><time>2026-05-01T11:06:36.573Z</time></trkpt><trkpt lat="43.7819006" lon="11.3261755"><ele>171.0</ele><time>2026-05-01T11:06:39.573Z</time></trkpt><trkpt lat="43.7818387" lon="11.3262128"><ele>171.0</ele><time>2026-05-01T11:06:43.572Z</time></trkpt><trkpt lat="43.7817598" lon="11.3262524"><ele>171.0</ele><time>2026-05-01T11:06:46.573Z</time></trkpt><trkpt lat="43.7816834" lon="11.3262827"><ele>170.99999999999997</ele><time>2026-05-01T11:06:50.571Z</time></trkpt><trkpt lat="43.7816244" lon="11.3263161"><ele>171.0</ele><time>2026-05-01T11:06:53.572Z</time></trkpt><trkpt lat="43.7815532" lon="11.3263753"><ele>173.5</ele><time>2026-05-01T11:06:57.573Z</time></trkpt><trkpt lat="43.7815028" lon="11.3264409"><ele>176.0</ele><time>2026-05-01T11:07:01.573Z</time></trkpt><trkpt lat="43.7814435" lon="11.3265063"><ele>178.5</ele><time>2026-05-01T11:07:05.573Z</time></trkpt><trkpt lat="43.7813944" lon="11.3265838"><ele>181.0</ele><time>2026-05-01T11:07:09.572Z</time></trkpt><trkpt lat="43.7813752" lon="11.326689"><ele>183.5</ele><time>2026-05-01T11:07:13.573Z</time></trkpt><trkpt lat="43.7813559" lon="11.3267807"><ele>186.0</ele><time>2026-05-01T11:07:16.573Z</time></trkpt><trkpt lat="43.78133" lon="11.3268962"><ele>186.0</ele><time>2026-05-01T11:07:19.573Z</time></trkpt><trkpt lat="43.7812736" lon="11.3270037"><ele>186.0</ele><time>2026-05-01T11:07:22.573Z</time></trkpt><trkpt lat="43.781201" lon="11.3270729"><ele>186.0</ele><time>2026-05-01T11:07:25.572Z</time></trkpt><trkpt lat="43.7811273" lon="11.3271391"><ele>186.0</ele><time>2026-05-01T11:07:28.573Z</time></trkpt><trkpt lat="43.781062" lon="11.3272196"><ele>186.0</ele><time>2026-05-01T11:07:31.572Z</time></trkpt><trkpt lat="43.7810024" lon="11.327305"><ele>186.0</ele><time>2026-05-01T11:07:34.573Z</time></trkpt><trkpt lat="43.780952" lon="11.3273631"><ele>186.16666666666666</ele><time>2026-05-01T11:07:37.572Z</time></trkpt><trkpt lat="43.780906" lon="11.3274379"><ele>186.33333333333334</ele><time>2026-05-01T11:07:40.572Z</time></trkpt><trkpt lat="43.7808694" lon="11.3275325"><ele>186.5</ele><time>2026-05-01T11:07:43.572Z</time></trkpt><trkpt lat="43.7808341" lon="11.3276279"><ele>186.66666666666669</ele><time>2026-05-01T11:07:46.572Z</time></trkpt><trkpt lat="43.7808234" lon="11.3277323"><ele>186.83333333333334</ele><time>2026-05-01T11:07:49.572Z</time></trkpt><trkpt lat="43.7808246" lon="11.3278451"><ele>187.0</ele><time>2026-05-01T11:07:52.572Z</time></trkpt><trkpt lat="43.7808268" lon="11.3279583"><ele>188.0</ele><time>2026-05-01T11:07:55.571Z</time></trkpt><trkpt lat="43.7808227" lon="11.3280633"><ele>189.0</ele><time>2026-05-01T11:07:58.573Z</time></trkpt><trkpt lat="43.7808168" lon="11.3281704"><ele>190.0</ele><time>2026-05-01T11:08:01.571Z</time></trkpt><trkpt lat="43.780802" lon="11.3282668"><ele>191.0</ele><time>2026-05-01T11:08:03.573Z</time></trkpt><trkpt lat="43.7807658" lon="11.328386"><ele>191.99999999999997</ele><time>2026-05-01T11:08:05.572Z</time></trkpt><trkpt lat="43.7807478" lon="11.3285172"><ele>193.0</ele><time>2026-05-01T11:08:07.573Z</time></trkpt><trkpt lat="43.780725" lon="11.3286424"><ele>192.99999999999997</ele><time>2026-05-01T11:08:09.572Z</time></trkpt><trkpt lat="43.7807008" lon="11.3287624"><ele>193.0</ele><time>2026-05-01T11:08:11.572Z</time></trkpt><trkpt lat="43.7806696" lon="11.3288612"><ele>193.0</ele><time>2026-05-01T11:08:14.573Z</time></trkpt><trkpt lat="43.7806335" lon="11.3289614"><ele>193.0</ele><time>2026-05-01T11:08:17.572Z</time></trkpt><trkpt lat="43.7805656" lon="11.3289908"><ele>192.99999999999997</ele><time>2026-05-01T11:08:20.572Z</time></trkpt><trkpt lat="43.7804783" lon="11.3290018"><ele>193.0</ele><time>2026-05-01T11:08:23.572Z</time></trkpt><trkpt lat="43.7804008" lon="11.3290013"><ele>193.42857142857144</ele><time>2026-05-01T11:08:26.573Z</time></trkpt><trkpt lat="43.7803305" lon="11.3290135"><ele>193.85714285714286</ele><time>2026-05-01T11:08:29.572Z</time></trkpt><trkpt lat="43.780265" lon="11.3290404"><ele>194.28571428571428</ele><time>2026-05-01T11:08:32.572Z</time></trkpt><trkpt lat="43.7801979" lon="11.3290783"><ele>194.71428571428572</ele><time>2026-05-01T11:08:36.572Z</time></trkpt><trkpt lat="43.7801718" lon="11.3291746"><ele>195.14285714285714</ele><time>2026-05-01T11:08:41.571Z</time></trkpt><trkpt lat="43.7801346" lon="11.3292656"><ele>195.57142857142858</ele><time>2026-05-01T11:08:46.571Z</time></trkpt><trkpt lat="43.7801074" lon="11.3293489"><ele>196.0</ele><time>2026-05-01T11:08:49.571Z</time></trkpt><trkpt lat="43.7800862" lon="11.3294361"><ele>195.99999999999997</ele><time>2026-05-01T11:08:52.57Z</time></trkpt><trkpt lat="43.7800552" lon="11.3295303"><ele>196.0</ele><time>2026-05-01T11:09:26.572Z</time></trkpt><trkpt lat="43.7800218" lon="11.3296477"><ele>196.0</ele><time>2026-05-01T11:09:29.572Z</time></trkpt><trkpt lat="43.7799948" lon="11.3297675"><ele>196.0</ele><time>2026-05-01T11:09:32.57Z</time></trkpt><trkpt lat="43.7800019" lon="11.3298772"><ele>195.99999999999997</ele><time>2026-05-01T11:09:35.572Z</time></trkpt><trkpt lat="43.7799935" lon="11.3300005"><ele>196.0</ele><time>2026-05-01T11:09:38.572Z</time></trkpt><trkpt lat="43.7799907" lon="11.3301007"><ele>196.16666666666666</ele><time>2026-05-01T11:09:40.573Z</time></trkpt><trkpt lat="43.7799961" lon="11.3302049"><ele>196.33333333333331</ele><time>2026-05-01T11:09:42.572Z</time></trkpt><trkpt lat="43.7799975" lon="11.3303203"><ele>196.5</ele><time>2026-05-01T11:09:44.573Z</time></trkpt><trkpt lat="43.7800047" lon="11.3304155"><ele>196.66666666666669</ele><time>2026-05-01T11:09:45.573Z</time></trkpt><trkpt lat="43.7799734" lon="11.3305424"><ele>196.83333333333334</ele><time>2026-05-01T11:09:47.571Z</time></trkpt><trkpt lat="43.7799644" lon="11.3306415"><ele>197.0</ele><time>2026-05-01T11:09:48.57Z</time></trkpt><trkpt lat="43.7799681" lon="11.3307785"><ele>197.16666666666669</ele><time>2026-05-01T11:09:50.573Z</time></trkpt><trkpt lat="43.7799637" lon="11.3309122"><ele>197.33333333333334</ele><time>2026-05-01T11:09:52.573Z</time></trkpt><trkpt lat="43.779966" lon="11.3310433"><ele>197.5</ele><time>2026-05-01T11:09:54.573Z</time></trkpt><trkpt lat="43.780001" lon="11.3311811"><ele>197.66666666666669</ele><time>2026-05-01T11:09:56.571Z</time></trkpt><trkpt lat="43.7800068" lon="11.3312844"><ele>197.83333333333334</ele><time>2026-05-01T11:09:58.571Z</time></trkpt><trkpt lat="43.7799753" lon="11.3313744"><ele>198.0</ele><time>2026-05-01T11:10:00.573Z</time></trkpt><trkpt lat="43.7799562" lon="11.3314714"><ele>198.0</ele><time>2026-05-01T11:10:02.571Z</time></trkpt><trkpt lat="43.7799244" lon="11.3315777"><ele>198.0</ele><time>2026-05-01T11:10:05.573Z</time></trkpt><trkpt lat="43.7798968" lon="11.331671"><ele>198.0</ele><time>2026-05-01T11:10:08.57Z</time></trkpt><trkpt lat="43.779842" lon="11.3317617"><ele>198.0</ele><time>2026-05-01T11:10:11.572Z</time></trkpt><trkpt lat="43.7797954" lon="11.3318404"><ele>198.0</ele><time>2026-05-01T11:10:14.573Z</time></trkpt><trkpt lat="43.779725" lon="11.331888"><ele>198.0</ele><time>2026-05-01T11:10:17.572Z</time></trkpt><trkpt lat="43.7796587" lon="11.331926"><ele>198.0</ele><time>2026-05-01T11:10:20.572Z</time></trkpt><trkpt lat="43.7795849" lon="11.3319338"><ele>198.0</ele><time>2026-05-01T11:10:23.571Z</time></trkpt><trkpt lat="43.7795041" lon="11.3318979"><ele>198.0</ele><time>2026-05-01T11:10:26.572Z</time></trkpt><trkpt lat="43.7794304" lon="11.3318472"><ele>198.0</ele><time>2026-05-01T11:10:29.571Z</time></trkpt><trkpt lat="43.7793578" lon="11.3318244"><ele>198.0</ele><time>2026-05-01T11:10:32.571Z</time></trkpt><trkpt lat="43.7792851" lon="11.3318462"><ele>198.0</ele><time>2026-05-01T11:10:35.572Z</time></trkpt><trkpt lat="43.7792181" lon="11.3318775"><ele>198.0</ele><time>2026-05-01T11:10:38.571Z</time></trkpt><trkpt lat="43.779161" lon="11.3319279"><ele>198.0</ele><time>2026-05-01T11:10:41.572Z</time></trkpt><trkpt lat="43.7790976" lon="11.3320043"><ele>198.0</ele><time>2026-05-01T11:10:45.572Z</time></trkpt><trkpt lat="43.7790523" lon="11.3320946"><ele>198.0</ele><time>2026-05-01T11:10:48.572Z</time></trkpt><trkpt lat="43.7790148" lon="11.3321797"><ele>198.0</ele><time>2026-05-01T11:10:51.572Z</time></trkpt><trkpt lat="43.7789785" lon="11.3322716"><ele>198.0</ele><time>2026-05-01T11:10:54.572Z</time></trkpt><trkpt lat="43.7789344" lon="11.3323568"><ele>199.71428571428572</ele><time>2026-05-01T11:10:57.572Z</time></trkpt><trkpt lat="43.7789009" lon="11.3324429"><ele>201.42857142857142</ele><time>2026-05-01T11:11:00.572Z</time></trkpt><trkpt lat="43.7788574" lon="11.3325153"><ele>203.14285714285714</ele><time>2026-05-01T11:11:03.556Z</time></trkpt><trkpt lat="43.7788081" lon="11.3325806"><ele>204.85714285714286</ele><time>2026-05-01T11:11:06.572Z</time></trkpt><trkpt lat="43.778769" lon="11.3326559"><ele>206.57142857142856</ele><time>2026-05-01T11:11:09.572Z</time></trkpt><trkpt lat="43.778734" lon="11.3327346"><ele>208.28571428571428</ele><time>2026-05-01T11:11:12.572Z</time></trkpt><trkpt lat="43.7786984" lon="11.3328224"><ele>210.0</ele><time>2026-05-01T11:11:15.495Z</time></trkpt><trkpt lat="43.7786623" lon="11.3329071"><ele>210.0</ele><time>2026-05-01T11:11:18.573Z</time></trkpt><trkpt lat="43.778601" lon="11.3329514"><ele>210.0</ele><time>2026-05-01T11:11:21.572Z</time></trkpt><trkpt lat="43.7785351" lon="11.3329663"><ele>210.0</ele><time>2026-05-01T11:11:24.573Z</time></trkpt><trkpt lat="43.7784804" lon="11.3330104"><ele>210.0</ele><time>2026-05-01T11:11:27.572Z</time></trkpt><trkpt lat="43.7784311" lon="11.3330968"><ele>210.0</ele><time>2026-05-01T11:11:31.57Z</time></trkpt><trkpt lat="43.7783793" lon="11.3331793"><ele>210.0</ele><time>2026-05-01T11:11:35.571Z</time></trkpt><trkpt lat="43.7783216" lon="11.3332543"><ele>210.0</ele><time>2026-05-01T11:11:39.571Z</time></trkpt><trkpt lat="43.7782714" lon="11.3333234"><ele>211.66666666666666</ele><time>2026-05-01T11:11:43.57Z</time></trkpt><trkpt lat="43.7782938" lon="11.3334227"><ele>213.33333333333331</ele><time>2026-05-01T11:11:48.572Z</time></trkpt><trkpt lat="43.7783521" lon="11.333467"><ele>215.0</ele><time>2026-05-01T11:11:52.571Z</time></trkpt><trkpt lat="43.7784007" lon="11.3335407"><ele>216.66666666666666</ele><time>2026-05-01T11:11:55.571Z</time></trkpt><trkpt lat="43.7784489" lon="11.333635"><ele>218.33333333333331</ele><time>2026-05-01T11:11:59.572Z</time></trkpt><trkpt lat="43.7784928" lon="11.3337213"><ele>220.0</ele><time>2026-05-01T11:12:03.571Z</time></trkpt><trkpt lat="43.7785394" lon="11.3338146"><ele>222.28571428571428</ele><time>2026-05-01T11:12:07.571Z</time></trkpt><trkpt lat="43.7785798" lon="11.3339016"><ele>224.57142857142856</ele><time>2026-05-01T11:12:10.571Z</time></trkpt><trkpt lat="43.7786166" lon="11.3339783"><ele>226.85714285714283</ele><time>2026-05-01T11:12:14.572Z</time></trkpt><trkpt lat="43.7786397" lon="11.3340643"><ele>229.14285714285714</ele><time>2026-05-01T11:12:18.572Z</time></trkpt><trkpt lat="43.7786683" lon="11.3341449"><ele>231.42857142857144</ele><time>2026-05-01T11:12:20.57Z</time></trkpt><trkpt lat="43.778702" lon="11.3342486"><ele>233.7142857142857</ele><time>2026-05-01T11:12:22.572Z</time></trkpt><trkpt lat="43.778731" lon="11.3343398"><ele>236.0</ele><time>2026-05-01T11:12:24.571Z</time></trkpt><trkpt lat="43.7787666" lon="11.3344507"><ele>236.0</ele><time>2026-05-01T11:12:27.57Z</time></trkpt><trkpt lat="43.7788016" lon="11.3345679"><ele>236.0</ele><time>2026-05-01T11:12:30.572Z</time></trkpt><trkpt lat="43.7788357" lon="11.3346495"><ele>236.0</ele><time>2026-05-01T11:12:32.571Z</time></trkpt><trkpt lat="43.7788672" lon="11.3347385"><ele>236.0</ele><time>2026-05-01T11:12:34.571Z</time></trkpt><trkpt lat="43.7788992" lon="11.3348237"><ele>236.0</ele><time>2026-05-01T11:12:36.572Z</time></trkpt><trkpt lat="43.7789309" lon="11.3349028"><ele>236.0</ele><time>2026-05-01T11:12:38.572Z</time></trkpt><trkpt lat="43.7789642" lon="11.334981"><ele>236.0</ele><time>2026-05-01T11:12:40.572Z</time></trkpt><trkpt lat="43.7790172" lon="11.3350977"><ele>236.00000000000003</ele><time>2026-05-01T11:12:42.57Z</time></trkpt><trkpt lat="43.7790698" lon="11.3351489"><ele>236.0</ele><time>2026-05-01T11:12:43.573Z</time></trkpt><trkpt lat="43.7791588" lon="11.3352006"><ele>236.0</ele><time>2026-05-01T11:12:45.572Z</time></trkpt><trkpt lat="43.779241" lon="11.3352525"><ele>236.0</ele><time>2026-05-01T11:12:47.572Z</time></trkpt><trkpt lat="43.7793029" lon="11.3353323"><ele>236.00000000000003</ele><time>2026-05-01T11:12:49.571Z</time></trkpt><trkpt lat="43.7793542" lon="11.3354391"><ele>236.0</ele><time>2026-05-01T11:12:51.572Z</time></trkpt><trkpt lat="43.7793416" lon="11.3356047"><ele>234.0</ele><time>2026-05-01T11:12:53.572Z</time></trkpt><trkpt lat="43.7793764" lon="11.3357958"><ele>232.00000000000003</ele><time>2026-05-01T11:12:55.572Z</time></trkpt><trkpt lat="43.7794197" lon="11.3359518"><ele>230.00000000000003</ele><time>2026-05-01T11:12:57.571Z</time></trkpt><trkpt lat="43.7793815" lon="11.3360222"><ele>228.0</ele><time>2026-05-01T11:12:58.571Z</time></trkpt><trkpt lat="43.7793569" lon="11.3361593"><ele>226.0</ele><time>2026-05-01T11:13:00.572Z</time></trkpt><trkpt lat="43.7793196" lon="11.3362512"><ele>223.99999999999997</ele><time>2026-05-01T11:13:02.57Z</time></trkpt><trkpt lat="43.7792846" lon="11.3363315"><ele>222.0</ele><time>2026-05-01T11:13:04.571Z</time></trkpt><trkpt lat="43.7792447" lon="11.3364219"><ele>220.0</ele><time>2026-05-01T11:13:06.571Z</time></trkpt><trkpt lat="43.7792149" lon="11.3365054"><ele>218.0</ele><time>2026-05-01T11:13:08.572Z</time></trkpt><trkpt lat="43.7791835" lon="11.3366112"><ele>215.99999999999997</ele><time>2026-05-01T11:13:11.572Z</time></trkpt><trkpt lat="43.7791486" lon="11.3367205"><ele>214.0</ele><time>2026-05-01T11:13:14.571Z</time></trkpt><trkpt lat="43.7790945" lon="11.3368194"><ele>213.99999999999997</ele><time>2026-05-01T11:13:17.571Z</time></trkpt><trkpt lat="43.7790397" lon="11.3368954"><ele>214.0</ele><time>2026-05-01T11:13:21.57Z</time></trkpt><trkpt lat="43.7789609" lon="11.3368861"><ele>214.0</ele><time>2026-05-01T11:13:24.572Z</time></trkpt><trkpt lat="43.7788848" lon="11.3368572"><ele>214.0</ele><time>2026-05-01T11:13:26.57Z</time></trkpt><trkpt lat="43.7788098" lon="11.3368242"><ele>213.99999999999997</ele><time>2026-05-01T11:13:28.571Z</time></trkpt><trkpt lat="43.7787301" lon="11.3367823"><ele>214.0</ele><time>2026-05-01T11:13:30.571Z</time></trkpt><trkpt lat="43.7786517" lon="11.3367439"><ele>214.0</ele><time>2026-05-01T11:13:32.571Z</time></trkpt><trkpt lat="43.7785606" lon="11.3367066"><ele>213.99999999999997</ele><time>2026-05-01T11:13:34.572Z</time></trkpt><trkpt lat="43.7784569" lon="11.3366867"><ele>213.99999999999997</ele><time>2026-05-01T11:13:36.57Z</time></trkpt><trkpt lat="43.7783606" lon="11.3366989"><ele>214.0</ele><time>2026-05-01T11:13:38.57Z</time></trkpt><trkpt lat="43.7782592" lon="11.3367354"><ele>214.0</ele><time>2026-05-01T11:13:40.57Z</time></trkpt><trkpt lat="43.778166" lon="11.3367972"><ele>211.6</ele><time>2026-05-01T11:13:42.57Z</time></trkpt><trkpt lat="43.7780914" lon="11.3368638"><ele>209.2</ele><time>2026-05-01T11:13:44.572Z</time></trkpt><trkpt lat="43.7780152" lon="11.3369284"><ele>206.79999999999998</ele><time>2026-05-01T11:13:46.57Z</time></trkpt><trkpt lat="43.7779243" lon="11.3370154"><ele>204.39999999999998</ele><time>2026-05-01T11:13:48.57Z</time></trkpt><trkpt lat="43.7778504" lon="11.3371185"><ele>202.0</ele><time>2026-05-01T11:13:50.569Z</time></trkpt><trkpt lat="43.7778114" lon="11.3371903"><ele>202.25</ele><time>2026-05-01T11:13:51.572Z</time></trkpt><trkpt lat="43.7777381" lon="11.337295"><ele>202.5</ele><time>2026-05-01T11:13:53.572Z</time></trkpt><trkpt lat="43.7776318" lon="11.337353"><ele>202.75</ele><time>2026-05-01T11:13:55.571Z</time></trkpt><trkpt lat="43.7775171" lon="11.3374278"><ele>203.0</ele><time>2026-05-01T11:13:57.572Z</time></trkpt><trkpt lat="43.7774363" lon="11.3375458"><ele>201.28571428571428</ele><time>2026-05-01T11:13:59.572Z</time></trkpt><trkpt lat="43.7774057" lon="11.3376265"><ele>199.57142857142856</ele><time>2026-05-01T11:14:00.572Z</time></trkpt><trkpt lat="43.7773711" lon="11.3377198"><ele>197.85714285714286</ele><time>2026-05-01T11:14:01.572Z</time></trkpt><trkpt lat="43.7773424" lon="11.337809"><ele>196.14285714285714</ele><time>2026-05-01T11:14:02.57Z</time></trkpt><trkpt lat="43.7773155" lon="11.3379132"><ele>194.42857142857142</ele><time>2026-05-01T11:14:03.571Z</time></trkpt><trkpt lat="43.7772859" lon="11.337997"><ele>192.71428571428572</ele><time>2026-05-01T11:14:04.571Z</time></trkpt><trkpt lat="43.7772547" lon="11.3380791"><ele>191.0</ele><time>2026-05-01T11:14:05.572Z</time></trkpt><trkpt lat="43.7771967" lon="11.3382273"><ele>189.83333333333331</ele><time>2026-05-01T11:14:07.571Z</time></trkpt><trkpt lat="43.7771257" lon="11.3383297"><ele>188.66666666666666</ele><time>2026-05-01T11:14:09.57Z</time></trkpt><trkpt lat="43.7770751" lon="11.3383842"><ele>187.5</ele><time>2026-05-01T11:14:10.572Z</time></trkpt><trkpt lat="43.7770105" lon="11.3384269"><ele>186.33333333333334</ele><time>2026-05-01T11:14:11.571Z</time></trkpt><trkpt lat="43.7769444" lon="11.3384848"><ele>185.16666666666669</ele><time>2026-05-01T11:14:12.571Z</time></trkpt><trkpt lat="43.7768811" lon="11.3385233"><ele>184.0</ele><time>2026-05-01T11:14:13.57Z</time></trkpt><trkpt lat="43.7768121" lon="11.3385681"><ele>182.33333333333334</ele><time>2026-05-01T11:14:14.57Z</time></trkpt><trkpt lat="43.7767538" lon="11.3386215"><ele>180.66666666666669</ele><time>2026-05-01T11:14:15.571Z</time></trkpt><trkpt lat="43.7766901" lon="11.338669"><ele>179.0</ele><time>2026-05-01T11:14:16.572Z</time></trkpt><trkpt lat="43.7765818" lon="11.3387589"><ele>177.33333333333334</ele><time>2026-05-01T11:14:18.571Z</time></trkpt><trkpt lat="43.7765269" lon="11.3388045"><ele>175.66666666666666</ele><time>2026-05-01T11:14:19.571Z</time></trkpt><trkpt lat="43.7764427" lon="11.3388677"><ele>174.0</ele><time>2026-05-01T11:14:21.571Z</time></trkpt><trkpt lat="43.7763406" lon="11.3388797"><ele>174.0</ele><time>2026-05-01T11:14:23.57Z</time></trkpt><trkpt lat="43.7762287" lon="11.3388078"><ele>174.0</ele><time>2026-05-01T11:14:25.572Z</time></trkpt><trkpt lat="43.7761672" lon="11.3387602"><ele>174.0</ele><time>2026-05-01T11:14:26.572Z</time></trkpt><trkpt lat="43.7760986" lon="11.3387089"><ele>174.0</ele><time>2026-05-01T11:14:27.569Z</time></trkpt><trkpt lat="43.7760196" lon="11.3386605"><ele>174.0</ele><time>2026-05-01T11:14:28.572Z</time></trkpt><trkpt lat="43.7759455" lon="11.3386163"><ele>174.0</ele><time>2026-05-01T11:14:29.571Z</time></trkpt><trkpt lat="43.7758899" lon="11.3385496"><ele>170.79999999999998</ele><time>2026-05-01T11:14:30.569Z</time></trkpt><trkpt lat="43.7758038" lon="11.3384974"><ele>167.6</ele><time>2026-05-01T11:14:31.571Z</time></trkpt><trkpt lat="43.7757134" lon="11.3384406"><ele>164.4</ele><time>2026-05-01T11:14:32.571Z</time></trkpt><trkpt lat="43.775624" lon="11.3383824"><ele>161.2</ele><time>2026-05-01T11:14:33.572Z</time></trkpt><trkpt lat="43.7755366" lon="11.3383134"><ele>158.0</ele><time>2026-05-01T11:14:34.572Z</time></trkpt><trkpt lat="43.775439" lon="11.3382376"><ele>158.0</ele><time>2026-05-01T11:14:35.572Z</time></trkpt><trkpt lat="43.7753319" lon="11.3381562"><ele>158.0</ele><time>2026-05-01T11:14:36.572Z</time></trkpt><trkpt lat="43.7752305" lon="11.338078"><ele>158.0</ele><time>2026-05-01T11:14:37.572Z</time></trkpt><trkpt lat="43.77513" lon="11.3379972"><ele>158.0</ele><time>2026-05-01T11:14:38.57Z</time></trkpt><trkpt lat="43.7750368" lon="11.3379396"><ele>155.16666666666666</ele><time>2026-05-01T11:14:39.572Z</time></trkpt><trkpt lat="43.7749587" lon="11.3378894"><ele>152.33333333333331</ele><time>2026-05-01T11:14:40.571Z</time></trkpt><trkpt lat="43.77489" lon="11.337837"><ele>149.5</ele><time>2026-05-01T11:14:41.571Z</time></trkpt><trkpt lat="43.7748303" lon="11.3377941"><ele>146.66666666666666</ele><time>2026-05-01T11:14:42.57Z</time></trkpt><trkpt lat="43.7747732" lon="11.3376831"><ele>143.83333333333334</ele><time>2026-05-01T11:14:44.572Z</time></trkpt><trkpt lat="43.7747823" lon="11.3375759"><ele>141.0</ele><time>2026-05-01T11:14:46.57Z</time></trkpt><trkpt lat="43.7748073" lon="11.3374538"><ele>141.0</ele><time>2026-05-01T11:14:48.569Z</time></trkpt><trkpt lat="43.7748377" lon="11.3373423"><ele>141.0</ele><time>2026-05-01T11:14:50.571Z</time></trkpt><trkpt lat="43.7748559" lon="11.3372312"><ele>141.0</ele><time>2026-05-01T11:14:52.57Z</time></trkpt><trkpt lat="43.7748704" lon="11.3371363"><ele>141.0</ele><time>2026-05-01T11:14:54.571Z</time></trkpt><trkpt lat="43.7748895" lon="11.337046"><ele>141.0</ele><time>2026-05-01T11:14:56.572Z</time></trkpt><trkpt lat="43.7749178" lon="11.3369518"><ele>141.0</ele><time>2026-05-01T11:14:58.572Z</time></trkpt><trkpt lat="43.7749304" lon="11.3368633"><ele>141.0</ele><time>2026-05-01T11:15:00.571Z</time></trkpt><trkpt lat="43.7749444" lon="11.3367741"><ele>140.16666666666666</ele><time>2026-05-01T11:15:02.57Z</time></trkpt><trkpt lat="43.7749438" lon="11.3366807"><ele>139.33333333333334</ele><time>2026-05-01T11:15:04.57Z</time></trkpt><trkpt lat="43.7748345" lon="11.3366536"><ele>138.5</ele><time>2026-05-01T11:15:07.571Z</time></trkpt><trkpt lat="43.7747347" lon="11.3366508"><ele>137.66666666666669</ele><time>2026-05-01T11:15:09.57Z</time></trkpt><trkpt lat="43.774636" lon="11.3366453"><ele>136.83333333333334</ele><time>2026-05-01T11:15:11.571Z</time></trkpt><trkpt lat="43.774572" lon="11.3366391"><ele>136.0</ele><time>2026-05-01T11:15:12.57Z</time></trkpt><trkpt lat="43.7744504" lon="11.336625"><ele>134.4</ele><time>2026-05-01T11:15:14.57Z</time></trkpt><trkpt lat="43.7743484" lon="11.3366098"><ele>132.8</ele><time>2026-05-01T11:15:16.571Z</time></trkpt><trkpt lat="43.7742346" lon="11.3365954"><ele>131.20000000000002</ele><time>2026-05-01T11:15:18.571Z</time></trkpt><trkpt lat="43.7741717" lon="11.3365843"><ele>129.6</ele><time>2026-05-01T11:15:19.57Z</time></trkpt><trkpt lat="43.7740627" lon="11.336573"><ele>128.0</ele><time>2026-05-01T11:15:21.571Z</time></trkpt><trkpt lat="43.7739666" lon="11.3365602"><ele>128.0</ele><time>2026-05-01T11:15:23.57Z</time></trkpt><trkpt lat="43.7738575" lon="11.3365559"><ele>128.0</ele><time>2026-05-01T11:15:25.57Z</time></trkpt><trkpt lat="43.7737652" lon="11.3365593"><ele>128.0</ele><time>2026-05-01T11:15:27.571Z</time></trkpt><trkpt lat="43.7736674" lon="11.3365491"><ele>128.0</ele><time>2026-05-01T11:15:29.571Z</time></trkpt><trkpt lat="43.7735813" lon="11.3364764"><ele>128.0</ele><time>2026-05-01T11:15:31.57Z</time></trkpt><trkpt lat="43.7735174" lon="11.3363558"><ele>126.28571428571428</ele><time>2026-05-01T11:15:33.571Z</time></trkpt><trkpt lat="43.7734457" lon="11.3362642"><ele>124.57142857142856</ele><time>2026-05-01T11:15:35.572Z</time></trkpt><trkpt lat="43.7733923" lon="11.3362108"><ele>122.85714285714286</ele><time>2026-05-01T11:15:36.571Z</time></trkpt><trkpt lat="43.7733266" lon="11.3361586"><ele>121.14285714285714</ele><time>2026-05-01T11:15:37.57Z</time></trkpt><trkpt lat="43.7732702" lon="11.3361051"><ele>119.42857142857143</ele><time>2026-05-01T11:15:38.571Z</time></trkpt><trkpt lat="43.7732089" lon="11.3360801"><ele>117.71428571428572</ele><time>2026-05-01T11:15:39.57Z</time></trkpt><trkpt lat="43.7731405" lon="11.3360527"><ele>116.00000000000001</ele><time>2026-05-01T11:15:40.57Z</time></trkpt><trkpt lat="43.7730738" lon="11.3360354"><ele>116.0</ele><time>2026-05-01T11:15:41.571Z</time></trkpt><trkpt lat="43.7730051" lon="11.3360254"><ele>116.0</ele><time>2026-05-01T11:15:42.571Z</time></trkpt><trkpt lat="43.7728818" lon="11.3359921"><ele>116.0</ele><time>2026-05-01T11:15:44.571Z</time></trkpt><trkpt lat="43.7727567" lon="11.3359507"><ele>116.0</ele><time>2026-05-01T11:15:46.57Z</time></trkpt><trkpt lat="43.7726804" lon="11.3359441"><ele>116.0</ele><time>2026-05-01T11:15:47.571Z</time></trkpt><trkpt lat="43.7726088" lon="11.3359254"><ele>114.8</ele><time>2026-05-01T11:15:48.571Z</time></trkpt><trkpt lat="43.7725288" lon="11.3359117"><ele>113.6</ele><time>2026-05-01T11:15:49.57Z</time></trkpt><trkpt lat="43.7724428" lon="11.335899"><ele>112.4</ele><time>2026-05-01T11:15:50.57Z</time></trkpt><trkpt lat="43.77232" lon="11.3358348"><ele>111.2</ele><time>2026-05-01T11:15:52.57Z</time></trkpt><trkpt lat="43.7722546" lon="11.3358144"><ele>110.0</ele><time>2026-05-01T11:15:53.57Z</time></trkpt><trkpt lat="43.7721485" lon="11.3358311"><ele>109.99999999999999</ele><time>2026-05-01T11:15:55.572Z</time></trkpt><trkpt lat="43.7720402" lon="11.3359063"><ele>110.0</ele><time>2026-05-01T11:15:57.571Z</time></trkpt><trkpt lat="43.7719845" lon="11.3359488"><ele>110.0</ele><time>2026-05-01T11:15:58.57Z</time></trkpt><trkpt lat="43.7718851" lon="11.3360334"><ele>110.0</ele><time>2026-05-01T11:16:00.57Z</time></trkpt><trkpt lat="43.7718268" lon="11.3360772"><ele>109.99999999999999</ele><time>2026-05-01T11:16:01.57Z</time></trkpt><trkpt lat="43.7717654" lon="11.3361272"><ele>110.0</ele><time>2026-05-01T11:16:02.571Z</time></trkpt><trkpt lat="43.7717082" lon="11.3361746"><ele>108.8</ele><time>2026-05-01T11:16:03.572Z</time></trkpt><trkpt lat="43.7716438" lon="11.3362297"><ele>107.6</ele><time>2026-05-01T11:16:04.571Z</time></trkpt><trkpt lat="43.7715425" lon="11.3363331"><ele>106.4</ele><time>2026-05-01T11:16:06.57Z</time></trkpt><trkpt lat="43.7714704" lon="11.3364576"><ele>105.2</ele><time>2026-05-01T11:16:08.571Z</time></trkpt><trkpt lat="43.7714034" lon="11.3365883"><ele>104.0</ele><time>2026-05-01T11:16:10.57Z</time></trkpt><trkpt lat="43.7713373" lon="11.336719"><ele>104.0</ele><time>2026-05-01T11:16:12.571Z</time></trkpt><trkpt lat="43.771276" lon="11.3368497"><ele>104.0</ele><time>2026-05-01T11:16:14.572Z</time></trkpt><trkpt lat="43.7712206" lon="11.3369715"><ele>104.0</ele><time>2026-05-01T11:16:16.57Z</time></trkpt><trkpt lat="43.7711448" lon="11.3370965"><ele>104.0</ele><time>2026-05-01T11:16:18.571Z</time></trkpt><trkpt lat="43.7710719" lon="11.3372291"><ele>100.75</ele><time>2026-05-01T11:16:20.57Z</time></trkpt><trkpt lat="43.7710073" lon="11.337366"><ele>97.5</ele><time>2026-05-01T11:16:22.571Z</time></trkpt><trkpt lat="43.7709734" lon="11.3375131"><ele>94.25</ele><time>2026-05-01T11:16:24.57Z</time></trkpt><trkpt lat="43.7709416" lon="11.3376659"><ele>91.0</ele><time>2026-05-01T11:16:26.57Z</time></trkpt><trkpt lat="43.7709203" lon="11.3378269"><ele>91.0</ele><time>2026-05-01T11:16:28.57Z</time></trkpt><trkpt lat="43.7708951" lon="11.3379703"><ele>91.0</ele><time>2026-05-01T11:16:30.57Z</time></trkpt><trkpt lat="43.7708863" lon="11.3381175"><ele>91.0</ele><time>2026-05-01T11:16:32.57Z</time></trkpt><trkpt lat="43.7708562" lon="11.3382547"><ele>91.0</ele><time>2026-05-01T11:16:34.571Z</time></trkpt><trkpt lat="43.7708234" lon="11.3384242"><ele>91.0</ele><time>2026-05-01T11:16:36.571Z</time></trkpt><trkpt lat="43.770792" lon="11.3385711"><ele>90.16666666666666</ele><time>2026-05-01T11:16:38.571Z</time></trkpt><trkpt lat="43.7707752" lon="11.3387136"><ele>89.33333333333333</ele><time>2026-05-01T11:16:40.572Z</time></trkpt><trkpt lat="43.7707607" lon="11.3388016"><ele>88.5</ele><time>2026-05-01T11:16:41.571Z</time></trkpt><trkpt lat="43.7707433" lon="11.3388881"><ele>87.66666666666667</ele><time>2026-05-01T11:16:42.571Z</time></trkpt><trkpt lat="43.7707222" lon="11.339043"><ele>86.83333333333334</ele><time>2026-05-01T11:16:44.572Z</time></trkpt><trkpt lat="43.7707041" lon="11.3391679"><ele>86.0</ele><time>2026-05-01T11:16:46.571Z</time></trkpt><trkpt lat="43.7706785" lon="11.3392619"><ele>84.83333333333334</ele><time>2026-05-01T11:16:48.571Z</time></trkpt><trkpt lat="43.7706282" lon="11.339345"><ele>83.66666666666667</ele><time>2026-05-01T11:16:51.571Z</time></trkpt><trkpt lat="43.7705211" lon="11.3393688"><ele>82.5</ele><time>2026-05-01T11:16:54.57Z</time></trkpt><trkpt lat="43.7704513" lon="11.3393611"><ele>81.33333333333333</ele><time>2026-05-01T11:16:57.569Z</time></trkpt><trkpt lat="43.7704437" lon="11.3394849"><ele>80.16666666666666</ele><time>2026-05-01T11:17:02.571Z</time></trkpt><trkpt lat="43.7704672" lon="11.3395768"><ele>79.0</ele><time>2026-05-01T11:17:04.57Z</time></trkpt><trkpt lat="43.7704904" lon="11.3396687"><ele>79.16666666666666</ele><time>2026-05-01T11:17:06.571Z</time></trkpt><trkpt lat="43.770525" lon="11.339783"><ele>79.33333333333333</ele><time>2026-05-01T11:17:16.571Z</time></trkpt><trkpt lat="43.7705446" lon="11.3399054"><ele>79.5</ele><time>2026-05-01T11:17:19.57Z</time></trkpt><trkpt lat="43.7705605" lon="11.340024"><ele>79.66666666666667</ele><time>2026-05-01T11:17:22.57Z</time></trkpt><trkpt lat="43.7705818" lon="11.3401504"><ele>79.83333333333334</ele><time>2026-05-01T11:17:25.571Z</time></trkpt><trkpt lat="43.7705885" lon="11.3402388"><ele>80.0</ele><time>2026-05-01T11:17:27.571Z</time></trkpt><trkpt lat="43.7706023" lon="11.3403349"><ele>80.0</ele><time>2026-05-01T11:17:29.57Z</time></trkpt><trkpt lat="43.770619" lon="11.3404247"><ele>80.0</ele><time>2026-05-01T11:17:31.571Z</time></trkpt><trkpt lat="43.7706279" lon="11.3405121"><ele>80.0</ele><time>2026-05-01T11:17:33.57Z</time></trkpt><trkpt lat="43.770578" lon="11.340619"><ele>80.0</ele><time>2026-05-01T11:17:36.57Z</time></trkpt><trkpt lat="43.770472" lon="11.3405817"><ele>80.0</ele><time>2026-05-01T11:17:38.571Z</time></trkpt><trkpt lat="43.7703681" lon="11.3404998"><ele>80.0</ele><time>2026-05-01T11:17:40.571Z</time></trkpt><trkpt lat="43.7703195" lon="11.3404423"><ele>80.0</ele><time>2026-05-01T11:17:41.57Z</time></trkpt><trkpt lat="43.770218" lon="11.3403825"><ele>80.0</ele><time>2026-05-01T11:17:43.571Z</time></trkpt><trkpt lat="43.7701244" lon="11.3403553"><ele>80.0</ele><time>2026-05-01T11:17:45.571Z</time></trkpt><trkpt lat="43.7700387" lon="11.3403399"><ele>80.0</ele><time>2026-05-01T11:17:47.571Z</time></trkpt><trkpt lat="43.769956" lon="11.3403333"><ele>80.0</ele><time>2026-05-01T11:17:50.57Z</time></trkpt><trkpt lat="43.7698679" lon="11.340273"><ele>78.0</ele><time>2026-05-01T11:18:02.571Z</time></trkpt><trkpt lat="43.7698037" lon="11.340213"><ele>76.0</ele><time>2026-05-01T11:18:04.571Z</time></trkpt><trkpt lat="43.7697398" lon="11.3401895"><ele>74.0</ele><time>2026-05-01T11:18:06.571Z</time></trkpt><trkpt lat="43.7696489" lon="11.3401746"><ele>72.0</ele><time>2026-05-01T11:18:09.569Z</time></trkpt><trkpt lat="43.7695766" lon="11.3401827"><ele>70.0</ele><time>2026-05-01T11:18:12.57Z</time></trkpt><trkpt lat="43.7695033" lon="11.3401605"><ele>68.0</ele><time>2026-05-01T11:18:17.57Z</time></trkpt><trkpt lat="43.7694512" lon="11.3400729"><ele>67.99999999999999</ele><time>2026-05-01T11:18:20.571Z</time></trkpt><trkpt lat="43.7694014" lon="11.3399672"><ele>68.0</ele><time>2026-05-01T11:18:23.57Z</time></trkpt><trkpt lat="43.7693732" lon="11.3398874"><ele>68.0</ele><time>2026-05-01T11:18:25.571Z</time></trkpt><trkpt lat="43.7693532" lon="11.3398035"><ele>68.0</ele><time>2026-05-01T11:18:27.57Z</time></trkpt><trkpt lat="43.7693342" lon="11.3396789"><ele>68.0</ele><time>2026-05-01T11:18:30.57Z</time></trkpt><trkpt lat="43.7693267" lon="11.3395818"><ele>67.99999999999999</ele><time>2026-05-01T11:18:32.57Z</time></trkpt><trkpt lat="43.7693149" lon="11.3394928"><ele>68.0</ele><time>2026-05-01T11:18:34.569Z</time></trkpt><trkpt lat="43.7693051" lon="11.3393969"><ele>67.57142857142857</ele><time>2026-05-01T11:18:36.571Z</time></trkpt><trkpt lat="43.769301" lon="11.3392972"><ele>67.14285714285714</ele><time>2026-05-01T11:18:38.569Z</time></trkpt><trkpt lat="43.7692975" lon="11.3391979"><ele>66.71428571428572</ele><time>2026-05-01T11:18:40.569Z</time></trkpt><trkpt lat="43.7692744" lon="11.339112"><ele>66.28571428571428</ele><time>2026-05-01T11:18:42.571Z</time></trkpt><trkpt lat="43.7691929" lon="11.3390888"><ele>65.85714285714286</ele><time>2026-05-01T11:18:45.57Z</time></trkpt><trkpt lat="43.7691252" lon="11.3391029"><ele>65.42857142857143</ele><time>2026-05-01T11:18:47.57Z</time></trkpt><trkpt lat="43.7690496" lon="11.3391255"><ele>65.0</ele><time>2026-05-01T11:18:49.57Z</time></trkpt><trkpt lat="43.7689696" lon="11.3391546"><ele>65.0</ele><time>2026-05-01T11:18:51.571Z</time></trkpt><trkpt lat="43.7688609" lon="11.3391756"><ele>65.0</ele><time>2026-05-01T11:18:53.57Z</time></trkpt><trkpt lat="43.7687718" lon="11.3391758"><ele>65.0</ele><time>2026-05-01T11:18:55.571Z</time></trkpt><trkpt lat="43.7686815" lon="11.339185"><ele>65.0</ele><time>2026-05-01T11:18:57.571Z</time></trkpt><trkpt lat="43.768591" lon="11.3391873"><ele>65.0</ele><time>2026-05-01T11:18:59.57Z</time></trkpt><trkpt lat="43.7684921" lon="11.3392094"><ele>65.0</ele><time>2026-05-01T11:19:01.571Z</time></trkpt><trkpt lat="43.7683916" lon="11.3392148"><ele>65.0</ele><time>2026-05-01T11:19:03.57Z</time></trkpt><trkpt lat="43.7683018" lon="11.3392387"><ele>65.0</ele><time>2026-05-01T11:19:05.571Z</time></trkpt><trkpt lat="43.7682136" lon="11.3392418"><ele>65.0</ele><time>2026-05-01T11:19:07.57Z</time></trkpt><trkpt lat="43.7681343" lon="11.3392791"><ele>65.0</ele><time>2026-05-01T11:19:09.57Z</time></trkpt><trkpt lat="43.7680581" lon="11.3392974"><ele>65.0</ele><time>2026-05-01T11:19:11.57Z</time></trkpt><trkpt lat="43.7679854" lon="11.3393041"><ele>65.0</ele><time>2026-05-01T11:19:13.57Z</time></trkpt><trkpt lat="43.7679124" lon="11.3393143"><ele>65.0</ele><time>2026-05-01T11:19:15.57Z</time></trkpt><trkpt lat="43.7678357" lon="11.3393284"><ele>65.0</ele><time>2026-05-01T11:19:17.569Z</time></trkpt><trkpt lat="43.7677536" lon="11.3393392"><ele>65.0</ele><time>2026-05-01T11:19:19.571Z</time></trkpt><trkpt lat="43.7676719" lon="11.3393497"><ele>65.0</ele><time>2026-05-01T11:19:21.57Z</time></trkpt><trkpt lat="43.7675951" lon="11.3393652"><ele>65.0</ele><time>2026-05-01T11:19:23.57Z</time></trkpt><trkpt lat="43.7675226" lon="11.3393797"><ele>64.71428571428572</ele><time>2026-05-01T11:19:25.571Z</time></trkpt><trkpt lat="43.7674477" lon="11.3393973"><ele>64.42857142857143</ele><time>2026-05-01T11:19:27.57Z</time></trkpt><trkpt lat="43.7673702" lon="11.3394173"><ele>64.14285714285714</ele><time>2026-05-01T11:19:29.569Z</time></trkpt><trkpt lat="43.7672952" lon="11.3394381"><ele>63.85714285714286</ele><time>2026-05-01T11:19:31.569Z</time></trkpt><trkpt lat="43.7672263" lon="11.3394552"><ele>63.57142857142857</ele><time>2026-05-01T11:19:33.571Z</time></trkpt><trkpt lat="43.7671623" lon="11.3394637"><ele>63.285714285714285</ele><time>2026-05-01T11:19:35.568Z</time></trkpt><trkpt lat="43.767095" lon="11.3393973"><ele>63.0</ele><time>2026-05-01T11:19:38.57Z</time></trkpt><trkpt lat="43.7670808" lon="11.3392856"><ele>63.0</ele><time>2026-05-01T11:19:41.57Z</time></trkpt><trkpt lat="43.7670727" lon="11.3391591"><ele>63.0</ele><time>2026-05-01T11:19:44.571Z</time></trkpt><trkpt lat="43.7670549" lon="11.3390336"><ele>63.0</ele><time>2026-05-01T11:19:47.57Z</time></trkpt><trkpt lat="43.7670451" lon="11.3389157"><ele>63.0</ele><time>2026-05-01T11:19:50.569Z</time></trkpt><trkpt lat="43.7670328" lon="11.3388081"><ele>63.0</ele><time>2026-05-01T11:19:53.569Z</time></trkpt><trkpt lat="43.7670291" lon="11.338685"><ele>63.0</ele><time>2026-05-01T11:19:56.57Z</time></trkpt><trkpt lat="43.767018" lon="11.3385949"><ele>63.0</ele><time>2026-05-01T11:19:58.57Z</time></trkpt><trkpt lat="43.7670055" lon="11.3384675"><ele>63.0</ele><time>2026-05-01T11:20:01.569Z</time></trkpt><trkpt lat="43.7669911" lon="11.3383453"><ele>63.0</ele><time>2026-05-01T11:20:04.57Z</time></trkpt><trkpt lat="43.7669893" lon="11.3382221"><ele>63.0</ele><time>2026-05-01T11:20:07.57Z</time></trkpt><trkpt lat="43.7669908" lon="11.3381281"><ele>63.0</ele><time>2026-05-01T11:20:09.569Z</time></trkpt><trkpt lat="43.7670005" lon="11.3380326"><ele>63.0</ele><time>2026-05-01T11:20:11.571Z</time></trkpt><trkpt lat="43.7670235" lon="11.3379431"><ele>62.714285714285715</ele><time>2026-05-01T11:20:13.571Z</time></trkpt><trkpt lat="43.7670509" lon="11.3378565"><ele>62.42857142857143</ele><time>2026-05-01T11:20:15.569Z</time></trkpt><trkpt lat="43.7670763" lon="11.3377762"><ele>62.14285714285714</ele><time>2026-05-01T11:20:17.57Z</time></trkpt><trkpt lat="43.7671074" lon="11.3376545"><ele>61.857142857142854</ele><time>2026-05-01T11:20:20.57Z</time></trkpt><trkpt lat="43.7671331" lon="11.3375726"><ele>61.57142857142857</ele><time>2026-05-01T11:20:22.571Z</time></trkpt><trkpt lat="43.7671519" lon="11.3374875"><ele>61.28571428571428</ele><time>2026-05-01T11:20:24.57Z</time></trkpt><trkpt lat="43.7671745" lon="11.3373995"><ele>60.99999999999999</ele><time>2026-05-01T11:20:26.569Z</time></trkpt><trkpt lat="43.7672003" lon="11.3373144"><ele>60.99999999999999</ele><time>2026-05-01T11:20:28.57Z</time></trkpt><trkpt lat="43.7672247" lon="11.3372267"><ele>61.0</ele><time>2026-05-01T11:20:30.568Z</time></trkpt><trkpt lat="43.7672353" lon="11.3371367"><ele>60.99999999999999</ele><time>2026-05-01T11:20:32.57Z</time></trkpt><trkpt lat="43.7672361" lon="11.3370417"><ele>60.99999999999999</ele><time>2026-05-01T11:20:34.571Z</time></trkpt><trkpt lat="43.7672334" lon="11.3369462"><ele>61.0</ele><time>2026-05-01T11:20:36.571Z</time></trkpt><trkpt lat="43.7672288" lon="11.336849"><ele>60.99999999999999</ele><time>2026-05-01T11:20:38.569Z</time></trkpt><trkpt lat="43.7672249" lon="11.3367507"><ele>60.99999999999999</ele><time>2026-05-01T11:20:40.57Z</time></trkpt><trkpt lat="43.7672226" lon="11.3366467"><ele>60.666666666666664</ele><time>2026-05-01T11:20:42.57Z</time></trkpt><trkpt lat="43.7672327" lon="11.3365451"><ele>60.33333333333333</ele><time>2026-05-01T11:20:44.568Z</time></trkpt><trkpt lat="43.767263" lon="11.3364493"><ele>60.0</ele><time>2026-05-01T11:20:46.569Z</time></trkpt><trkpt lat="43.767301" lon="11.3363504"><ele>59.66666666666667</ele><time>2026-05-01T11:20:48.57Z</time></trkpt><trkpt lat="43.7673371" lon="11.3362426"><ele>59.333333333333336</ele><time>2026-05-01T11:20:50.57Z</time></trkpt><trkpt lat="43.7673712" lon="11.3361307"><ele>59.0</ele><time>2026-05-01T11:20:52.57Z</time></trkpt><trkpt lat="43.767407" lon="11.3360155"><ele>59.00000000000001</ele><time>2026-05-01T11:20:54.569Z</time></trkpt><trkpt lat="43.7674409" lon="11.3359057"><ele>59.0</ele><time>2026-05-01T11:20:56.571Z</time></trkpt><trkpt lat="43.7674744" lon="11.3357967"><ele>59.0</ele><time>2026-05-01T11:20:58.569Z</time></trkpt><trkpt lat="43.767504" lon="11.3356893"><ele>59.0</ele><time>2026-05-01T11:21:00.568Z</time></trkpt><trkpt lat="43.7675284" lon="11.3355833"><ele>59.00000000000001</ele><time>2026-05-01T11:21:02.569Z</time></trkpt><trkpt lat="43.7675633" lon="11.3354861"><ele>59.0</ele><time>2026-05-01T11:21:04.57Z</time></trkpt><trkpt lat="43.7675955" lon="11.3354029"><ele>59.00000000000001</ele><time>2026-05-01T11:21:06.57Z</time></trkpt><trkpt lat="43.7676283" lon="11.3353097"><ele>59.0</ele><time>2026-05-01T11:21:10.569Z</time></trkpt><trkpt lat="43.767682" lon="11.3352639"><ele>59.0</ele><time>2026-05-01T11:21:14.569Z</time></trkpt><trkpt lat="43.7677656" lon="11.3352449"><ele>59.0</ele><time>2026-05-01T11:21:17.57Z</time></trkpt><trkpt lat="43.7678565" lon="11.3352468"><ele>59.00000000000001</ele><time>2026-05-01T11:21:20.57Z</time></trkpt><trkpt lat="43.7679506" lon="11.3352411"><ele>59.0</ele><time>2026-05-01T11:21:23.571Z</time></trkpt><trkpt lat="43.7680146" lon="11.3352457"><ele>58.71428571428571</ele><time>2026-05-01T11:21:25.57Z</time></trkpt><trkpt lat="43.7680791" lon="11.3352521"><ele>58.42857142857143</ele><time>2026-05-01T11:21:27.57Z</time></trkpt><trkpt lat="43.7681451" lon="11.3352681"><ele>58.14285714285714</ele><time>2026-05-01T11:21:29.57Z</time></trkpt><trkpt lat="43.7682166" lon="11.3352953"><ele>57.857142857142854</ele><time>2026-05-01T11:21:31.57Z</time></trkpt><trkpt lat="43.7682892" lon="11.3353335"><ele>57.57142857142857</ele><time>2026-05-01T11:21:33.569Z</time></trkpt><trkpt lat="43.7683587" lon="11.3353735"><ele>57.285714285714285</ele><time>2026-05-01T11:21:35.569Z</time></trkpt><trkpt lat="43.7684278" lon="11.3354191"><ele>57.0</ele><time>2026-05-01T11:21:37.57Z</time></trkpt><trkpt lat="43.7684962" lon="11.3354462"><ele>57.0</ele><time>2026-05-01T11:21:39.57Z</time></trkpt><trkpt lat="43.7685607" lon="11.33544"><ele>57.0</ele><time>2026-05-01T11:21:41.571Z</time></trkpt><trkpt lat="43.7686116" lon="11.3353293"><ele>57.0</ele><time>2026-05-01T11:21:44.57Z</time></trkpt><trkpt lat="43.7686318" lon="11.3352039"><ele>57.0</ele><time>2026-05-01T11:21:47.57Z</time></trkpt><trkpt lat="43.7686312" lon="11.3350799"><ele>57.0</ele><time>2026-05-01T11:21:50.57Z</time></trkpt><trkpt lat="43.7685686" lon="11.3350311"><ele>57.0</ele><time>2026-05-01T11:25:28.568Z</time></trkpt><trkpt lat="43.7684961" lon="11.334999"><ele>57.0</ele><time>2026-05-01T11:25:31.569Z</time></trkpt><trkpt lat="43.7684341" lon="11.3349476"><ele>56.99999999999999</ele><time>2026-05-01T11:25:34.569Z</time></trkpt><trkpt lat="43.7684175" lon="11.3348546"><ele>57.0</ele><time>2026-05-01T11:25:38.568Z</time></trkpt><trkpt lat="43.7684795" lon="11.3348264"><ele>57.0</ele><time>2026-05-01T11:25:41.569Z</time></trkpt><trkpt lat="43.7685638" lon="11.3348386"><ele>56.99999999999999</ele><time>2026-05-01T11:25:44.568Z</time></trkpt><trkpt lat="43.7686476" lon="11.3348463"><ele>57.0</ele><time>2026-05-01T11:25:47.569Z</time></trkpt><trkpt lat="43.7687208" lon="11.3348569"><ele>57.0</ele><time>2026-05-01T11:25:50.568Z</time></trkpt><trkpt lat="43.7687853" lon="11.334864"><ele>57.0</ele><time>2026-05-01T11:25:53.57Z</time></trkpt><trkpt lat="43.7688629" lon="11.334875"><ele>56.99999999999999</ele><time>2026-05-01T11:25:57.569Z</time></trkpt><trkpt lat="43.7689247" lon="11.3349018"><ele>57.0</ele><time>2026-05-01T11:26:03.569Z</time></trkpt><trkpt lat="43.7688599" lon="11.334886"><ele>57.0</ele><time>2026-05-01T11:26:08.569Z</time></trkpt><trkpt lat="43.7687898" lon="11.3348801"><ele>56.99999999999999</ele><time>2026-05-01T11:26:11.569Z</time></trkpt><trkpt lat="43.7687122" lon="11.3348792"><ele>57.0</ele><time>2026-05-01T11:26:14.567Z</time></trkpt><trkpt lat="43.7686401" lon="11.3348775"><ele>57.0</ele><time>2026-05-01T11:26:17.569Z</time></trkpt><trkpt lat="43.7685756" lon="11.3348671"><ele>57.0</ele><time>2026-05-01T11:26:20.569Z</time></trkpt><trkpt lat="43.7684922" lon="11.3348554"><ele>56.99999999999999</ele><time>2026-05-01T11:26:24.569Z</time></trkpt><trkpt lat="43.7684162" lon="11.3348453"><ele>57.0</ele><time>2026-05-01T11:26:27.568Z</time></trkpt><trkpt lat="43.7683467" lon="11.3348215"><ele>57.0</ele><time>2026-05-01T11:26:30.568Z</time></trkpt><trkpt lat="43.7682761" lon="11.3347721"><ele>56.99999999999999</ele><time>2026-05-01T11:26:34.569Z</time></trkpt><trkpt lat="43.7682233" lon="11.334715"><ele>57.0</ele><time>2026-05-01T11:26:38.569Z</time></trkpt><trkpt lat="43.768281" lon="11.3347668"><ele>57.0</ele><time>2026-05-01T11:38:00.567Z</time></trkpt><trkpt lat="43.7683341" lon="11.3348336"><ele>57.0</ele><time>2026-05-01T11:38:05.566Z</time></trkpt><trkpt lat="43.7684114" lon="11.3348561"><ele>57.0</ele><time>2026-05-01T11:38:11.566Z</time></trkpt><trkpt lat="43.7685006" lon="11.3348664"><ele>57.0</ele><time>2026-05-01T11:38:15.565Z</time></trkpt><trkpt lat="43.7685935" lon="11.3348735"><ele>57.0</ele><time>2026-05-01T11:38:18.566Z</time></trkpt><trkpt lat="43.7686851" lon="11.3348699"><ele>57.0</ele><time>2026-05-01T11:38:21.566Z</time></trkpt><trkpt lat="43.7687705" lon="11.3348625"><ele>57.0</ele><time>2026-05-01T11:38:24.565Z</time></trkpt><trkpt lat="43.7688566" lon="11.3348641"><ele>57.0</ele><time>2026-05-01T11:38:27.566Z</time></trkpt><trkpt lat="43.7689498" lon="11.3348655"><ele>56.99999999999999</ele><time>2026-05-01T11:38:30.567Z</time></trkpt><trkpt lat="43.7690138" lon="11.3348579"><ele>57.0</ele><time>2026-05-01T11:38:32.566Z</time></trkpt><trkpt lat="43.769077" lon="11.3348532"><ele>57.0</ele><time>2026-05-01T11:38:34.565Z</time></trkpt><trkpt lat="43.7691412" lon="11.3348463"><ele>56.99999999999999</ele><time>2026-05-01T11:38:36.566Z</time></trkpt><trkpt lat="43.7692057" lon="11.3348328"><ele>57.0</ele><time>2026-05-01T11:38:38.565Z</time></trkpt><trkpt lat="43.7692952" lon="11.3348106"><ele>57.0</ele><time>2026-05-01T11:38:41.567Z</time></trkpt><trkpt lat="43.7693848" lon="11.3347824"><ele>57.666666666666664</ele><time>2026-05-01T11:38:44.567Z</time></trkpt><trkpt lat="43.7694429" lon="11.3347483"><ele>58.33333333333333</ele><time>2026-05-01T11:38:46.567Z</time></trkpt><trkpt lat="43.7695213" lon="11.3346821"><ele>59.0</ele><time>2026-05-01T11:38:49.566Z</time></trkpt><trkpt lat="43.7695961" lon="11.334602"><ele>59.666666666666664</ele><time>2026-05-01T11:38:52.566Z</time></trkpt><trkpt lat="43.769646" lon="11.3345375"><ele>60.33333333333333</ele><time>2026-05-01T11:38:54.566Z</time></trkpt><trkpt lat="43.7696876" lon="11.3344682"><ele>61.0</ele><time>2026-05-01T11:38:56.565Z</time></trkpt><trkpt lat="43.769737" lon="11.3343679"><ele>60.99999999999999</ele><time>2026-05-01T11:38:59.565Z</time></trkpt><trkpt lat="43.7697911" lon="11.3342677"><ele>61.0</ele><time>2026-05-01T11:39:02.565Z</time></trkpt><trkpt lat="43.7698409" lon="11.3341689"><ele>61.0</ele><time>2026-05-01T11:39:05.567Z</time></trkpt><trkpt lat="43.7698787" lon="11.3340488"><ele>61.0</ele><time>2026-05-01T11:39:08.565Z</time></trkpt><trkpt lat="43.769906" lon="11.3339688"><ele>60.99999999999999</ele><time>2026-05-01T11:39:10.564Z</time></trkpt><trkpt lat="43.7699365" lon="11.3338873"><ele>61.0</ele><time>2026-05-01T11:39:12.565Z</time></trkpt><trkpt lat="43.7699688" lon="11.3338069"><ele>60.99999999999999</ele><time>2026-05-01T11:39:14.566Z</time></trkpt><trkpt lat="43.7699946" lon="11.3337247"><ele>61.0</ele><time>2026-05-01T11:39:16.567Z</time></trkpt><trkpt lat="43.770024" lon="11.333605"><ele>60.99999999999999</ele><time>2026-05-01T11:39:19.565Z</time></trkpt><trkpt lat="43.7700497" lon="11.3334818"><ele>60.99999999999999</ele><time>2026-05-01T11:39:22.564Z</time></trkpt><trkpt lat="43.7700618" lon="11.3333901"><ele>61.0</ele><time>2026-05-01T11:39:24.566Z</time></trkpt><trkpt lat="43.770073" lon="11.3333032"><ele>60.99999999999999</ele><time>2026-05-01T11:39:26.566Z</time></trkpt><trkpt lat="43.7700778" lon="11.3332106"><ele>60.99999999999999</ele><time>2026-05-01T11:39:28.566Z</time></trkpt><trkpt lat="43.7700735" lon="11.3331216"><ele>60.666666666666664</ele><time>2026-05-01T11:39:30.567Z</time></trkpt><trkpt lat="43.7700736" lon="11.3329977"><ele>60.33333333333333</ele><time>2026-05-01T11:39:33.564Z</time></trkpt><trkpt lat="43.7700826" lon="11.332869"><ele>60.0</ele><time>2026-05-01T11:39:36.566Z</time></trkpt><trkpt lat="43.7700807" lon="11.3327427"><ele>59.66666666666667</ele><time>2026-05-01T11:39:39.565Z</time></trkpt><trkpt lat="43.7700774" lon="11.332619"><ele>59.333333333333336</ele><time>2026-05-01T11:39:42.565Z</time></trkpt><trkpt lat="43.7700797" lon="11.3325065"><ele>59.0</ele><time>2026-05-01T11:39:45.565Z</time></trkpt><trkpt lat="43.770077" lon="11.3323938"><ele>59.0</ele><time>2026-05-01T11:39:48.564Z</time></trkpt><trkpt lat="43.7700714" lon="11.3323004"><ele>59.0</ele><time>2026-05-01T11:39:50.567Z</time></trkpt><trkpt lat="43.7700617" lon="11.3322027"><ele>59.0</ele><time>2026-05-01T11:39:52.566Z</time></trkpt><trkpt lat="43.7700493" lon="11.3320932"><ele>59.0</ele><time>2026-05-01T11:39:54.565Z</time></trkpt><trkpt lat="43.7700242" lon="11.3319869"><ele>59.0</ele><time>2026-05-01T11:39:56.566Z</time></trkpt><trkpt lat="43.7699937" lon="11.3318922"><ele>59.0</ele><time>2026-05-01T11:39:58.566Z</time></trkpt><trkpt lat="43.7699655" lon="11.3318091"><ele>59.0</ele><time>2026-05-01T11:40:00.566Z</time></trkpt><trkpt lat="43.7699399" lon="11.3317259"><ele>59.57142857142857</ele><time>2026-05-01T11:40:02.566Z</time></trkpt><trkpt lat="43.7699079" lon="11.3316473"><ele>60.142857142857146</ele><time>2026-05-01T11:40:04.565Z</time></trkpt><trkpt lat="43.7698768" lon="11.3315698"><ele>60.714285714285715</ele><time>2026-05-01T11:40:06.565Z</time></trkpt><trkpt lat="43.7698485" lon="11.3314863"><ele>61.285714285714285</ele><time>2026-05-01T11:40:08.565Z</time></trkpt><trkpt lat="43.769822" lon="11.3313996"><ele>61.85714285714286</ele><time>2026-05-01T11:40:10.567Z</time></trkpt><trkpt lat="43.769797" lon="11.3313127"><ele>62.42857142857143</ele><time>2026-05-01T11:40:12.565Z</time></trkpt><trkpt lat="43.7697719" lon="11.3312296"><ele>63.0</ele><time>2026-05-01T11:40:14.566Z</time></trkpt><trkpt lat="43.7697451" lon="11.3311435"><ele>64.0</ele><time>2026-05-01T11:40:16.565Z</time></trkpt><trkpt lat="43.7697171" lon="11.3310563"><ele>65.0</ele><time>2026-05-01T11:40:18.566Z</time></trkpt><trkpt lat="43.7696847" lon="11.3309723"><ele>66.0</ele><time>2026-05-01T11:40:20.566Z</time></trkpt><trkpt lat="43.7696516" lon="11.3308876"><ele>67.0</ele><time>2026-05-01T11:40:22.566Z</time></trkpt><trkpt lat="43.7696165" lon="11.3308071"><ele>68.0</ele><time>2026-05-01T11:40:24.566Z</time></trkpt><trkpt lat="43.7695839" lon="11.3307209"><ele>69.0</ele><time>2026-05-01T11:40:26.564Z</time></trkpt><trkpt lat="43.7695528" lon="11.3306356"><ele>70.0</ele><time>2026-05-01T11:40:28.565Z</time></trkpt><trkpt lat="43.7695222" lon="11.3305566"><ele>70.71428571428571</ele><time>2026-05-01T11:40:30.566Z</time></trkpt><trkpt lat="43.7694872" lon="11.3304349"><ele>71.42857142857143</ele><time>2026-05-01T11:40:33.566Z</time></trkpt><trkpt lat="43.7694621" lon="11.3303534"><ele>72.14285714285714</ele><time>2026-05-01T11:40:35.567Z</time></trkpt><trkpt lat="43.769425" lon="11.3302319"><ele>72.85714285714286</ele><time>2026-05-01T11:40:38.565Z</time></trkpt><trkpt lat="43.769398" lon="11.3301531"><ele>73.57142857142857</ele><time>2026-05-01T11:40:40.566Z</time></trkpt><trkpt lat="43.7693713" lon="11.3300722"><ele>74.28571428571428</ele><time>2026-05-01T11:40:42.566Z</time></trkpt><trkpt lat="43.7693431" lon="11.3299864"><ele>75.0</ele><time>2026-05-01T11:40:44.566Z</time></trkpt><trkpt lat="43.7693164" lon="11.3298989"><ele>72.99999999999999</ele><time>2026-05-01T11:40:46.566Z</time></trkpt><trkpt lat="43.7692899" lon="11.329812"><ele>71.0</ele><time>2026-05-01T11:40:48.566Z</time></trkpt><trkpt lat="43.7692649" lon="11.3297167"><ele>69.0</ele><time>2026-05-01T11:40:50.566Z</time></trkpt><trkpt lat="43.7692353" lon="11.3296249"><ele>67.0</ele><time>2026-05-01T11:40:52.565Z</time></trkpt><trkpt lat="43.7692031" lon="11.3295385"><ele>65.0</ele><time>2026-05-01T11:40:54.566Z</time></trkpt><trkpt lat="43.769172" lon="11.3294419"><ele>62.99999999999999</ele><time>2026-05-01T11:40:56.565Z</time></trkpt><trkpt lat="43.7691383" lon="11.3293557"><ele>60.99999999999999</ele><time>2026-05-01T11:40:58.566Z</time></trkpt><trkpt lat="43.7691002" lon="11.3292735"><ele>60.99999999999999</ele><time>2026-05-01T11:41:00.566Z</time></trkpt><trkpt lat="43.7690668" lon="11.3291889"><ele>61.0</ele><time>2026-05-01T11:41:02.564Z</time></trkpt><trkpt lat="43.7690383" lon="11.3290992"><ele>60.99999999999999</ele><time>2026-05-01T11:41:04.566Z</time></trkpt><trkpt lat="43.7690128" lon="11.3290107"><ele>60.99999999999999</ele><time>2026-05-01T11:41:06.566Z</time></trkpt><trkpt lat="43.7689849" lon="11.328928"><ele>61.0</ele><time>2026-05-01T11:41:08.565Z</time></trkpt><trkpt lat="43.7689513" lon="11.3288382"><ele>60.99999999999999</ele><time>2026-05-01T11:41:10.566Z</time></trkpt><trkpt lat="43.7689164" lon="11.3287358"><ele>60.99999999999999</ele><time>2026-05-01T11:41:12.566Z</time></trkpt><trkpt lat="43.768883" lon="11.3286403"><ele>61.166666666666664</ele><time>2026-05-01T11:41:14.566Z</time></trkpt><trkpt lat="43.7688529" lon="11.3285542"><ele>61.33333333333333</ele><time>2026-05-01T11:41:16.565Z</time></trkpt><trkpt lat="43.7688187" lon="11.3284688"><ele>61.5</ele><time>2026-05-01T11:41:18.566Z</time></trkpt><trkpt lat="43.7687851" lon="11.3283737"><ele>61.66666666666667</ele><time>2026-05-01T11:41:20.566Z</time></trkpt><trkpt lat="43.7687494" lon="11.3282657"><ele>61.833333333333336</ele><time>2026-05-01T11:41:22.564Z</time></trkpt><trkpt lat="43.7687028" lon="11.3281609"><ele>62.0</ele><time>2026-05-01T11:41:24.565Z</time></trkpt><trkpt lat="43.7686582" lon="11.3280454"><ele>62.333333333333336</ele><time>2026-05-01T11:41:26.565Z</time></trkpt><trkpt lat="43.7686253" lon="11.327943"><ele>62.66666666666667</ele><time>2026-05-01T11:41:28.564Z</time></trkpt><trkpt lat="43.7685842" lon="11.327846"><ele>63.0</ele><time>2026-05-01T11:41:30.566Z</time></trkpt><trkpt lat="43.768545" lon="11.3277553"><ele>63.33333333333333</ele><time>2026-05-01T11:41:32.565Z</time></trkpt><trkpt lat="43.7685" lon="11.327657"><ele>63.666666666666664</ele><time>2026-05-01T11:41:34.566Z</time></trkpt><trkpt lat="43.7684662" lon="11.3275484"><ele>64.0</ele><time>2026-05-01T11:41:36.565Z</time></trkpt><trkpt lat="43.7684259" lon="11.3274529"><ele>62.83333333333333</ele><time>2026-05-01T11:41:38.566Z</time></trkpt><trkpt lat="43.7683825" lon="11.3273589"><ele>61.666666666666664</ele><time>2026-05-01T11:41:40.566Z</time></trkpt><trkpt lat="43.7683453" lon="11.3272702"><ele>60.5</ele><time>2026-05-01T11:41:42.566Z</time></trkpt><trkpt lat="43.7683045" lon="11.3271794"><ele>59.33333333333333</ele><time>2026-05-01T11:41:44.565Z</time></trkpt><trkpt lat="43.7682595" lon="11.3270769"><ele>58.166666666666664</ele><time>2026-05-01T11:41:46.566Z</time></trkpt><trkpt lat="43.7682112" lon="11.3269772"><ele>57.0</ele><time>2026-05-01T11:41:48.564Z</time></trkpt><trkpt lat="43.7681654" lon="11.3268753"><ele>57.166666666666664</ele><time>2026-05-01T11:41:50.565Z</time></trkpt><trkpt lat="43.7681205" lon="11.3267654"><ele>57.33333333333333</ele><time>2026-05-01T11:41:52.566Z</time></trkpt><trkpt lat="43.7680551" lon="11.3266872"><ele>57.5</ele><time>2026-05-01T11:41:54.565Z</time></trkpt><trkpt lat="43.7679976" lon="11.3266139"><ele>57.666666666666664</ele><time>2026-05-01T11:41:56.566Z</time></trkpt><trkpt lat="43.7679448" lon="11.3265373"><ele>57.83333333333333</ele><time>2026-05-01T11:41:58.565Z</time></trkpt><trkpt lat="43.7678899" lon="11.3264497"><ele>58.0</ele><time>2026-05-01T11:42:00.566Z</time></trkpt><trkpt lat="43.7678609" lon="11.326351"><ele>58.00000000000001</ele><time>2026-05-01T11:42:02.565Z</time></trkpt><trkpt lat="43.7678153" lon="11.3262691"><ele>58.0</ele><time>2026-05-01T11:42:04.566Z</time></trkpt><trkpt lat="43.7677754" lon="11.326176"><ele>58.00000000000001</ele><time>2026-05-01T11:42:06.566Z</time></trkpt><trkpt lat="43.7677269" lon="11.3261116"><ele>58.00000000000001</ele><time>2026-05-01T11:42:08.565Z</time></trkpt><trkpt lat="43.7676763" lon="11.3260542"><ele>58.0</ele><time>2026-05-01T11:42:10.564Z</time></trkpt><trkpt lat="43.7676249" lon="11.325987"><ele>58.00000000000001</ele><time>2026-05-01T11:42:12.564Z</time></trkpt><trkpt lat="43.7675709" lon="11.3259138"><ele>58.00000000000001</ele><time>2026-05-01T11:42:14.565Z</time></trkpt><trkpt lat="43.7675119" lon="11.3258408"><ele>57.666666666666664</ele><time>2026-05-01T11:42:16.565Z</time></trkpt><trkpt lat="43.7674499" lon="11.3257581"><ele>57.33333333333333</ele><time>2026-05-01T11:42:18.565Z</time></trkpt><trkpt lat="43.7674011" lon="11.3256668"><ele>57.0</ele><time>2026-05-01T11:42:20.565Z</time></trkpt><trkpt lat="43.7673457" lon="11.3255835"><ele>56.66666666666667</ele><time>2026-05-01T11:42:22.556Z</time></trkpt><trkpt lat="43.7672943" lon="11.325501"><ele>56.333333333333336</ele><time>2026-05-01T11:42:24.565Z</time></trkpt><trkpt lat="43.7672379" lon="11.32543"><ele>56.0</ele><time>2026-05-01T11:42:26.564Z</time></trkpt><trkpt lat="43.7671829" lon="11.3253538"><ele>56.00000000000001</ele><time>2026-05-01T11:42:28.564Z</time></trkpt><trkpt lat="43.7671198" lon="11.3252823"><ele>56.0</ele><time>2026-05-01T11:42:30.598Z</time></trkpt><trkpt lat="43.7670622" lon="11.3252072"><ele>56.0</ele><time>2026-05-01T11:42:32.566Z</time></trkpt><trkpt lat="43.7670077" lon="11.3251335"><ele>56.0</ele><time>2026-05-01T11:42:34.565Z</time></trkpt><trkpt lat="43.7669478" lon="11.3250657"><ele>56.00000000000001</ele><time>2026-05-01T11:42:36.564Z</time></trkpt><trkpt lat="43.7668886" lon="11.32499"><ele>56.0</ele><time>2026-05-01T11:42:38.56Z</time></trkpt><trkpt lat="43.7668257" lon="11.3249179"><ele>55.833333333333336</ele><time>2026-05-01T11:42:40.565Z</time></trkpt><trkpt lat="43.7667654" lon="11.324845"><ele>55.66666666666667</ele><time>2026-05-01T11:42:42.566Z</time></trkpt><trkpt lat="43.7667084" lon="11.3247912"><ele>55.5</ele><time>2026-05-01T11:42:44.564Z</time></trkpt><trkpt lat="43.7666537" lon="11.3247286"><ele>55.33333333333333</ele><time>2026-05-01T11:42:46.566Z</time></trkpt><trkpt lat="43.7665985" lon="11.3246653"><ele>55.166666666666664</ele><time>2026-05-01T11:42:48.566Z</time></trkpt><trkpt lat="43.7665384" lon="11.3245959"><ele>55.0</ele><time>2026-05-01T11:42:50.563Z</time></trkpt><trkpt lat="43.7664773" lon="11.3245248"><ele>54.83333333333333</ele><time>2026-05-01T11:42:52.565Z</time></trkpt><trkpt lat="43.7664175" lon="11.3244511"><ele>54.666666666666664</ele><time>2026-05-01T11:42:54.564Z</time></trkpt><trkpt lat="43.7663577" lon="11.3243817"><ele>54.5</ele><time>2026-05-01T11:42:56.566Z</time></trkpt><trkpt lat="43.766298" lon="11.3243138"><ele>54.33333333333333</ele><time>2026-05-01T11:42:58.565Z</time></trkpt><trkpt lat="43.7662253" lon="11.3242521"><ele>54.166666666666664</ele><time>2026-05-01T11:43:00.564Z</time></trkpt><trkpt lat="43.7661224" lon="11.324199"><ele>54.0</ele><time>2026-05-01T11:43:02.564Z</time></trkpt><trkpt lat="43.7660265" lon="11.3241158"><ele>54.0</ele><time>2026-05-01T11:43:04.566Z</time></trkpt><trkpt lat="43.7659411" lon="11.324026"><ele>54.0</ele><time>2026-05-01T11:43:06.564Z</time></trkpt><trkpt lat="43.7658848" lon="11.3239213"><ele>54.0</ele><time>2026-05-01T11:43:08.563Z</time></trkpt><trkpt lat="43.7658395" lon="11.3238209"><ele>54.0</ele><time>2026-05-01T11:43:10.564Z</time></trkpt><trkpt lat="43.7658024" lon="11.323739"><ele>54.0</ele><time>2026-05-01T11:43:12.566Z</time></trkpt><trkpt lat="43.7657527" lon="11.3236344"><ele>54.0</ele><time>2026-05-01T11:43:15.565Z</time></trkpt><trkpt lat="43.7656978" lon="11.3235268"><ele>54.285714285714285</ele><time>2026-05-01T11:43:18.566Z</time></trkpt><trkpt lat="43.7656568" lon="11.3234519"><ele>54.57142857142857</ele><time>2026-05-01T11:43:20.564Z</time></trkpt><trkpt lat="43.7656165" lon="11.3233749"><ele>54.85714285714286</ele><time>2026-05-01T11:43:22.564Z</time></trkpt><trkpt lat="43.7655751" lon="11.3232948"><ele>55.14285714285714</ele><time>2026-05-01T11:43:24.564Z</time></trkpt><trkpt lat="43.7655286" lon="11.3232157"><ele>55.42857142857143</ele><time>2026-05-01T11:43:26.566Z</time></trkpt><trkpt lat="43.7654871" lon="11.3231273"><ele>55.714285714285715</ele><time>2026-05-01T11:43:28.564Z</time></trkpt><trkpt lat="43.7654472" lon="11.323033"><ele>56.0</ele><time>2026-05-01T11:43:30.565Z</time></trkpt><trkpt lat="43.7654009" lon="11.322942"><ele>56.00000000000001</ele><time>2026-05-01T11:43:32.565Z</time></trkpt><trkpt lat="43.7653514" lon="11.3228552"><ele>56.0</ele><time>2026-05-01T11:43:34.564Z</time></trkpt><trkpt lat="43.7652989" lon="11.3227699"><ele>56.0</ele><time>2026-05-01T11:43:36.565Z</time></trkpt><trkpt lat="43.7652409" lon="11.322681"><ele>56.0</ele><time>2026-05-01T11:43:38.565Z</time></trkpt><trkpt lat="43.765182" lon="11.3225897"><ele>56.00000000000001</ele><time>2026-05-01T11:43:40.564Z</time></trkpt><trkpt lat="43.7651279" lon="11.3224992"><ele>56.0</ele><time>2026-05-01T11:43:42.566Z</time></trkpt><trkpt lat="43.7650829" lon="11.3224087"><ele>55.833333333333336</ele><time>2026-05-01T11:43:44.564Z</time></trkpt><trkpt lat="43.7650402" lon="11.3223269"><ele>55.66666666666667</ele><time>2026-05-01T11:43:46.566Z</time></trkpt><trkpt lat="43.7650009" lon="11.3222386"><ele>55.5</ele><time>2026-05-01T11:43:48.565Z</time></trkpt><trkpt lat="43.7649598" lon="11.3221448"><ele>55.33333333333333</ele><time>2026-05-01T11:43:50.565Z</time></trkpt><trkpt lat="43.7649222" lon="11.3220549"><ele>55.166666666666664</ele><time>2026-05-01T11:43:52.564Z</time></trkpt><trkpt lat="43.7648854" lon="11.3219729"><ele>55.0</ele><time>2026-05-01T11:43:54.565Z</time></trkpt><trkpt lat="43.7648397" lon="11.3218574"><ele>54.99999999999999</ele><time>2026-05-01T11:43:57.566Z</time></trkpt><trkpt lat="43.7648018" lon="11.3217587"><ele>55.0</ele><time>2026-05-01T11:43:59.566Z</time></trkpt><trkpt lat="43.7647645" lon="11.3216517"><ele>55.0</ele><time>2026-05-01T11:44:01.566Z</time></trkpt><trkpt lat="43.7647297" lon="11.3215649"><ele>55.0</ele><time>2026-05-01T11:44:03.564Z</time></trkpt><trkpt lat="43.7646964" lon="11.321467"><ele>54.99999999999999</ele><time>2026-05-01T11:44:05.565Z</time></trkpt><trkpt lat="43.7646675" lon="11.32138"><ele>55.0</ele><time>2026-05-01T11:44:07.565Z</time></trkpt><trkpt lat="43.7646381" lon="11.321286"><ele>54.99999999999999</ele><time>2026-05-01T11:44:09.565Z</time></trkpt><trkpt lat="43.7646075" lon="11.3211981"><ele>55.0</ele><time>2026-05-01T11:44:11.565Z</time></trkpt><trkpt lat="43.7645863" lon="11.3210958"><ele>55.0</ele><time>2026-05-01T11:44:13.566Z</time></trkpt><trkpt lat="43.7645598" lon="11.3210027"><ele>55.0</ele><time>2026-05-01T11:44:15.564Z</time></trkpt><trkpt lat="43.764536" lon="11.3209106"><ele>55.0</ele><time>2026-05-01T11:44:17.564Z</time></trkpt><trkpt lat="43.7645126" lon="11.3208188"><ele>54.99999999999999</ele><time>2026-05-01T11:44:19.565Z</time></trkpt><trkpt lat="43.764486" lon="11.3207359"><ele>55.0</ele><time>2026-05-01T11:44:21.565Z</time></trkpt><trkpt lat="43.7644544" lon="11.3206371"><ele>54.99999999999999</ele><time>2026-05-01T11:44:23.565Z</time></trkpt><trkpt lat="43.7644215" lon="11.3205503"><ele>55.0</ele><time>2026-05-01T11:44:25.564Z</time></trkpt><trkpt lat="43.7643978" lon="11.3204627"><ele>55.0</ele><time>2026-05-01T11:44:27.564Z</time></trkpt><trkpt lat="43.7643793" lon="11.3203717"><ele>55.0</ele><time>2026-05-01T11:44:29.564Z</time></trkpt><trkpt lat="43.7643532" lon="11.3202893"><ele>55.0</ele><time>2026-05-01T11:44:31.565Z</time></trkpt><trkpt lat="43.7643245" lon="11.3202074"><ele>54.99999999999999</ele><time>2026-05-01T11:44:33.564Z</time></trkpt><trkpt lat="43.7642939" lon="11.3201166"><ele>55.0</ele><time>2026-05-01T11:44:35.566Z</time></trkpt><trkpt lat="43.7642624" lon="11.3200265"><ele>54.99999999999999</ele><time>2026-05-01T11:44:37.565Z</time></trkpt><trkpt lat="43.7642305" lon="11.3199324"><ele>55.0</ele><time>2026-05-01T11:44:39.528Z</time></trkpt><trkpt lat="43.7641932" lon="11.3198425"><ele>55.0</ele><time>2026-05-01T11:44:41.564Z</time></trkpt><trkpt lat="43.7641606" lon="11.3197529"><ele>55.0</ele><time>2026-05-01T11:44:43.524Z</time></trkpt><trkpt lat="43.7641326" lon="11.3196673"><ele>55.0</ele><time>2026-05-01T11:44:45.564Z</time></trkpt><trkpt lat="43.7640927" lon="11.3195565"><ele>54.99999999999999</ele><time>2026-05-01T11:44:48.565Z</time></trkpt><trkpt lat="43.7640588" lon="11.3194737"><ele>55.0</ele><time>2026-05-01T11:44:50.563Z</time></trkpt><trkpt lat="43.764016" lon="11.3193808"><ele>54.99999999999999</ele><time>2026-05-01T11:44:52.565Z</time></trkpt><trkpt lat="43.7639754" lon="11.3192841"><ele>55.0</ele><time>2026-05-01T11:44:54.564Z</time></trkpt><trkpt lat="43.7639362" lon="11.3191852"><ele>55.0</ele><time>2026-05-01T11:44:56.566Z</time></trkpt><trkpt lat="43.7638962" lon="11.3190817"><ele>55.0</ele><time>2026-05-01T11:44:58.567Z</time></trkpt><trkpt lat="43.763879" lon="11.3189898"><ele>54.99999999999999</ele><time>2026-05-01T11:45:00.564Z</time></trkpt><trkpt lat="43.7638589" lon="11.318892"><ele>55.0</ele><time>2026-05-01T11:45:02.564Z</time></trkpt><trkpt lat="43.7638372" lon="11.3187948"><ele>54.99999999999999</ele><time>2026-05-01T11:45:04.565Z</time></trkpt><trkpt lat="43.7638133" lon="11.3186941"><ele>55.0</ele><time>2026-05-01T11:45:06.564Z</time></trkpt><trkpt lat="43.7637881" lon="11.3185896"><ele>55.0</ele><time>2026-05-01T11:45:08.565Z</time></trkpt><trkpt lat="43.7637637" lon="11.3184817"><ele>55.0</ele><time>2026-05-01T11:45:10.49Z</time></trkpt><trkpt lat="43.7637395" lon="11.3183757"><ele>54.99999999999999</ele><time>2026-05-01T11:45:12.564Z</time></trkpt><trkpt lat="43.7637149" lon="11.3182724"><ele>55.0</ele><time>2026-05-01T11:45:14.572Z</time></trkpt><trkpt lat="43.7636911" lon="11.318168"><ele>54.857142857142854</ele><time>2026-05-01T11:45:16.563Z</time></trkpt><trkpt lat="43.763669" lon="11.3180645"><ele>54.714285714285715</ele><time>2026-05-01T11:45:18.565Z</time></trkpt><trkpt lat="43.7636623" lon="11.3179689"><ele>54.57142857142857</ele><time>2026-05-01T11:45:20.564Z</time></trkpt><trkpt lat="43.7636573" lon="11.3178666"><ele>54.42857142857143</ele><time>2026-05-01T11:45:22.565Z</time></trkpt><trkpt lat="43.7636527" lon="11.3177719"><ele>54.285714285714285</ele><time>2026-05-01T11:45:24.565Z</time></trkpt><trkpt lat="43.7636478" lon="11.3176789"><ele>54.14285714285714</ele><time>2026-05-01T11:45:26.565Z</time></trkpt><trkpt lat="43.7636422" lon="11.3175821"><ele>54.0</ele><time>2026-05-01T11:45:28.565Z</time></trkpt><trkpt lat="43.7636322" lon="11.3174863"><ele>54.0</ele><time>2026-05-01T11:45:30.566Z</time></trkpt><trkpt lat="43.7636168" lon="11.317387"><ele>54.0</ele><time>2026-05-01T11:45:32.565Z</time></trkpt><trkpt lat="43.7636049" lon="11.3172841"><ele>54.0</ele><time>2026-05-01T11:45:34.564Z</time></trkpt><trkpt lat="43.7635951" lon="11.3171859"><ele>54.0</ele><time>2026-05-01T11:45:36.565Z</time></trkpt><trkpt lat="43.763587" lon="11.3170906"><ele>54.0</ele><time>2026-05-01T11:45:38.564Z</time></trkpt><trkpt lat="43.7635824" lon="11.3169957"><ele>54.0</ele><time>2026-05-01T11:45:40.564Z</time></trkpt><trkpt lat="43.7635763" lon="11.3168996"><ele>54.0</ele><time>2026-05-01T11:45:42.564Z</time></trkpt><trkpt lat="43.7635682" lon="11.3168032"><ele>53.857142857142854</ele><time>2026-05-01T11:45:44.565Z</time></trkpt><trkpt lat="43.7635558" lon="11.3167075"><ele>53.71428571428571</ele><time>2026-05-01T11:45:46.565Z</time></trkpt><trkpt lat="43.7635439" lon="11.3166127"><ele>53.57142857142857</ele><time>2026-05-01T11:45:48.565Z</time></trkpt><trkpt lat="43.7635348" lon="11.316522"><ele>53.42857142857143</ele><time>2026-05-01T11:45:50.564Z</time></trkpt><trkpt lat="43.7635279" lon="11.3164286"><ele>53.285714285714285</ele><time>2026-05-01T11:45:52.565Z</time></trkpt><trkpt lat="43.7635256" lon="11.3163293"><ele>53.142857142857146</ele><time>2026-05-01T11:45:54.564Z</time></trkpt><trkpt lat="43.7635254" lon="11.3162254"><ele>53.0</ele><time>2026-05-01T11:45:56.563Z</time></trkpt><trkpt lat="43.7635179" lon="11.3161232"><ele>53.00000000000001</ele><time>2026-05-01T11:45:58.564Z</time></trkpt><trkpt lat="43.7635075" lon="11.3160219"><ele>53.0</ele><time>2026-05-01T11:46:00.565Z</time></trkpt><trkpt lat="43.7634986" lon="11.315918"><ele>53.0</ele><time>2026-05-01T11:46:02.563Z</time></trkpt><trkpt lat="43.7634889" lon="11.3158146"><ele>53.0</ele><time>2026-05-01T11:46:04.565Z</time></trkpt><trkpt lat="43.7634824" lon="11.3157057"><ele>53.00000000000001</ele><time>2026-05-01T11:46:06.565Z</time></trkpt><trkpt lat="43.7634788" lon="11.315596"><ele>53.0</ele><time>2026-05-01T11:46:08.565Z</time></trkpt><trkpt lat="43.7634811" lon="11.3154933"><ele>53.142857142857146</ele><time>2026-05-01T11:46:10.565Z</time></trkpt><trkpt lat="43.7634865" lon="11.3153954"><ele>53.285714285714285</ele><time>2026-05-01T11:46:12.565Z</time></trkpt><trkpt lat="43.7634964" lon="11.315306"><ele>53.42857142857143</ele><time>2026-05-01T11:46:14.563Z</time></trkpt><trkpt lat="43.7635218" lon="11.3151841"><ele>53.57142857142857</ele><time>2026-05-01T11:46:17.565Z</time></trkpt><trkpt lat="43.763538" lon="11.3150869"><ele>53.71428571428571</ele><time>2026-05-01T11:46:20.565Z</time></trkpt><trkpt lat="43.7635397" lon="11.3149923"><ele>53.857142857142854</ele><time>2026-05-01T11:46:22.565Z</time></trkpt><trkpt lat="43.7635524" lon="11.3148916"><ele>54.0</ele><time>2026-05-01T11:46:24.564Z</time></trkpt><trkpt lat="43.7635737" lon="11.3147909"><ele>54.0</ele><time>2026-05-01T11:46:26.564Z</time></trkpt><trkpt lat="43.7635919" lon="11.3146857"><ele>54.0</ele><time>2026-05-01T11:46:28.565Z</time></trkpt><trkpt lat="43.7635905" lon="11.3145729"><ele>54.0</ele><time>2026-05-01T11:46:30.565Z</time></trkpt><trkpt lat="43.763571" lon="11.3144665"><ele>54.0</ele><time>2026-05-01T11:46:32.566Z</time></trkpt><trkpt lat="43.7635464" lon="11.3143726"><ele>54.0</ele><time>2026-05-01T11:46:34.565Z</time></trkpt><trkpt lat="43.7635214" lon="11.3142884"><ele>54.0</ele><time>2026-05-01T11:46:36.564Z</time></trkpt><trkpt lat="43.7634946" lon="11.3141754"><ele>54.0</ele><time>2026-05-01T11:46:39.565Z</time></trkpt><trkpt lat="43.7634666" lon="11.3140728"><ele>54.0</ele><time>2026-05-01T11:46:42.564Z</time></trkpt><trkpt lat="43.76343" lon="11.3139862"><ele>54.0</ele><time>2026-05-01T11:46:44.566Z</time></trkpt><trkpt lat="43.7633729" lon="11.3139073"><ele>54.0</ele><time>2026-05-01T11:46:46.565Z</time></trkpt><trkpt lat="43.7633094" lon="11.3138255"><ele>54.0</ele><time>2026-05-01T11:46:48.565Z</time></trkpt><trkpt lat="43.7632423" lon="11.3137895"><ele>54.0</ele><time>2026-05-01T11:46:49.566Z</time></trkpt><trkpt lat="43.7631631" lon="11.3137026"><ele>53.666666666666664</ele><time>2026-05-01T11:46:51.564Z</time></trkpt><trkpt lat="43.7631114" lon="11.3136043"><ele>53.33333333333333</ele><time>2026-05-01T11:46:53.564Z</time></trkpt><trkpt lat="43.7630579" lon="11.3135145"><ele>53.0</ele><time>2026-05-01T11:46:55.564Z</time></trkpt><trkpt lat="43.7629987" lon="11.3134504"><ele>52.666666666666664</ele><time>2026-05-01T11:46:57.563Z</time></trkpt><trkpt lat="43.7629629" lon="11.313375"><ele>52.33333333333333</ele><time>2026-05-01T11:46:59.565Z</time></trkpt><trkpt lat="43.762961" lon="11.313253"><ele>52.0</ele><time>2026-05-01T11:47:02.565Z</time></trkpt><trkpt lat="43.7629838" lon="11.3131464"><ele>52.14285714285714</ele><time>2026-05-01T11:47:05.565Z</time></trkpt><trkpt lat="43.7630029" lon="11.3130543"><ele>52.28571428571429</ele><time>2026-05-01T11:47:07.564Z</time></trkpt><trkpt lat="43.7630187" lon="11.312951"><ele>52.42857142857143</ele><time>2026-05-01T11:47:09.565Z</time></trkpt><trkpt lat="43.7630273" lon="11.312846"><ele>52.57142857142857</ele><time>2026-05-01T11:47:11.565Z</time></trkpt><trkpt lat="43.7630386" lon="11.31275"><ele>52.71428571428571</ele><time>2026-05-01T11:47:13.564Z</time></trkpt><trkpt lat="43.7630488" lon="11.3126627"><ele>52.85714285714286</ele><time>2026-05-01T11:47:15.563Z</time></trkpt><trkpt lat="43.763054" lon="11.3125698"><ele>53.0</ele><time>2026-05-01T11:47:17.565Z</time></trkpt><trkpt lat="43.7630613" lon="11.3124741"><ele>53.0</ele><time>2026-05-01T11:47:19.563Z</time></trkpt><trkpt lat="43.7630713" lon="11.312379"><ele>53.0</ele><time>2026-05-01T11:47:21.565Z</time></trkpt><trkpt lat="43.7630805" lon="11.3122865"><ele>53.0</ele><time>2026-05-01T11:47:23.564Z</time></trkpt><trkpt lat="43.7630934" lon="11.3121945"><ele>53.0</ele><time>2026-05-01T11:47:25.565Z</time></trkpt><trkpt lat="43.763105" lon="11.3121016"><ele>53.0</ele><time>2026-05-01T11:47:27.565Z</time></trkpt><trkpt lat="43.7631173" lon="11.3120092"><ele>53.0</ele><time>2026-05-01T11:47:29.564Z</time></trkpt><trkpt lat="43.7631279" lon="11.3119127"><ele>53.0</ele><time>2026-05-01T11:47:31.564Z</time></trkpt><trkpt lat="43.7631407" lon="11.3118212"><ele>52.85714285714286</ele><time>2026-05-01T11:47:33.565Z</time></trkpt><trkpt lat="43.7631559" lon="11.3117299"><ele>52.71428571428571</ele><time>2026-05-01T11:47:35.565Z</time></trkpt><trkpt lat="43.7631693" lon="11.3116353"><ele>52.57142857142857</ele><time>2026-05-01T11:47:37.564Z</time></trkpt><trkpt lat="43.7631834" lon="11.3115404"><ele>52.42857142857143</ele><time>2026-05-01T11:47:39.564Z</time></trkpt><trkpt lat="43.7631946" lon="11.3114459"><ele>52.28571428571429</ele><time>2026-05-01T11:47:41.563Z</time></trkpt><trkpt lat="43.7632057" lon="11.3113488"><ele>52.14285714285714</ele><time>2026-05-01T11:47:43.563Z</time></trkpt><trkpt lat="43.7632132" lon="11.3112469"><ele>52.0</ele><time>2026-05-01T11:47:45.564Z</time></trkpt><trkpt lat="43.7632215" lon="11.3111484"><ele>52.0</ele><time>2026-05-01T11:47:47.564Z</time></trkpt><trkpt lat="43.7632335" lon="11.3110506"><ele>52.0</ele><time>2026-05-01T11:47:49.565Z</time></trkpt><trkpt lat="43.7632444" lon="11.3109507"><ele>52.0</ele><time>2026-05-01T11:47:51.564Z</time></trkpt><trkpt lat="43.7632563" lon="11.3108573"><ele>52.0</ele><time>2026-05-01T11:47:53.564Z</time></trkpt><trkpt lat="43.7632689" lon="11.3107717"><ele>52.0</ele><time>2026-05-01T11:47:55.564Z</time></trkpt><trkpt lat="43.7632856" lon="11.3106484"><ele>52.0</ele><time>2026-05-01T11:47:58.565Z</time></trkpt><trkpt lat="43.763291" lon="11.3105525"><ele>52.0</ele><time>2026-05-01T11:48:00.564Z</time></trkpt><trkpt lat="43.7632979" lon="11.310455"><ele>52.285714285714285</ele><time>2026-05-01T11:48:02.564Z</time></trkpt><trkpt lat="43.7633079" lon="11.31036"><ele>52.57142857142858</ele><time>2026-05-01T11:48:04.564Z</time></trkpt><trkpt lat="43.7633211" lon="11.3102673"><ele>52.85714285714286</ele><time>2026-05-01T11:48:06.563Z</time></trkpt><trkpt lat="43.763334" lon="11.3101746"><ele>53.14285714285714</ele><time>2026-05-01T11:48:08.564Z</time></trkpt><trkpt lat="43.7633429" lon="11.3100803"><ele>53.42857142857143</ele><time>2026-05-01T11:48:10.565Z</time></trkpt><trkpt lat="43.7633548" lon="11.309984"><ele>53.714285714285715</ele><time>2026-05-01T11:48:12.564Z</time></trkpt><trkpt lat="43.7633674" lon="11.309889"><ele>54.0</ele><time>2026-05-01T11:48:14.565Z</time></trkpt><trkpt lat="43.7633801" lon="11.3097966"><ele>53.714285714285715</ele><time>2026-05-01T11:48:16.563Z</time></trkpt><trkpt lat="43.7633946" lon="11.3097051"><ele>53.42857142857143</ele><time>2026-05-01T11:48:18.563Z</time></trkpt><trkpt lat="43.7634081" lon="11.3096104"><ele>53.14285714285714</ele><time>2026-05-01T11:48:20.563Z</time></trkpt><trkpt lat="43.76342" lon="11.3095125"><ele>52.85714285714286</ele><time>2026-05-01T11:48:22.564Z</time></trkpt><trkpt lat="43.7634324" lon="11.3094178"><ele>52.57142857142858</ele><time>2026-05-01T11:48:24.563Z</time></trkpt><trkpt lat="43.7634455" lon="11.3093232"><ele>52.285714285714285</ele><time>2026-05-01T11:48:26.564Z</time></trkpt><trkpt lat="43.7634593" lon="11.3092325"><ele>52.0</ele><time>2026-05-01T11:48:28.564Z</time></trkpt><trkpt lat="43.7634724" lon="11.3091386"><ele>52.0</ele><time>2026-05-01T11:48:30.563Z</time></trkpt><trkpt lat="43.7634831" lon="11.309052"><ele>52.0</ele><time>2026-05-01T11:48:32.565Z</time></trkpt><trkpt lat="43.763496" lon="11.3089595"><ele>52.0</ele><time>2026-05-01T11:48:34.565Z</time></trkpt><trkpt lat="43.7635076" lon="11.3088637"><ele>52.0</ele><time>2026-05-01T11:48:36.564Z</time></trkpt><trkpt lat="43.76352" lon="11.3087681"><ele>52.0</ele><time>2026-05-01T11:48:38.564Z</time></trkpt><trkpt lat="43.7635294" lon="11.3086625"><ele>52.0</ele><time>2026-05-01T11:48:40.371Z</time></trkpt><trkpt lat="43.7635466" lon="11.3085606"><ele>52.0</ele><time>2026-05-01T11:48:42.564Z</time></trkpt><trkpt lat="43.7635605" lon="11.3084656"><ele>52.285714285714285</ele><time>2026-05-01T11:48:44.565Z</time></trkpt><trkpt lat="43.7635745" lon="11.3083719"><ele>52.57142857142858</ele><time>2026-05-01T11:48:46.564Z</time></trkpt><trkpt lat="43.7635886" lon="11.3082765"><ele>52.85714285714286</ele><time>2026-05-01T11:48:48.565Z</time></trkpt><trkpt lat="43.7636019" lon="11.3081789"><ele>53.14285714285714</ele><time>2026-05-01T11:48:50.564Z</time></trkpt><trkpt lat="43.7636191" lon="11.308088"><ele>53.42857142857143</ele><time>2026-05-01T11:48:52.563Z</time></trkpt><trkpt lat="43.7636324" lon="11.3080024"><ele>53.714285714285715</ele><time>2026-05-01T11:48:54.506Z</time></trkpt><trkpt lat="43.7636466" lon="11.3079072"><ele>54.0</ele><time>2026-05-01T11:48:56.544Z</time></trkpt><trkpt lat="43.7636632" lon="11.3078119"><ele>54.0</ele><time>2026-05-01T11:48:58.544Z</time></trkpt><trkpt lat="43.7636812" lon="11.3077152"><ele>54.0</ele><time>2026-05-01T11:49:00.564Z</time></trkpt><trkpt lat="43.7636945" lon="11.3076157"><ele>54.0</ele><time>2026-05-01T11:49:02.565Z</time></trkpt><trkpt lat="43.7637083" lon="11.3075236"><ele>54.0</ele><time>2026-05-01T11:49:04.55Z</time></trkpt><trkpt lat="43.7637213" lon="11.3074166"><ele>54.0</ele><time>2026-05-01T11:49:07.564Z</time></trkpt><trkpt lat="43.7637364" lon="11.3073138"><ele>54.0</ele><time>2026-05-01T11:49:10.565Z</time></trkpt><trkpt lat="43.763754" lon="11.3071795"><ele>53.857142857142854</ele><time>2026-05-01T11:49:13.564Z</time></trkpt><trkpt lat="43.7637737" lon="11.3070811"><ele>53.71428571428571</ele><time>2026-05-01T11:49:15.564Z</time></trkpt><trkpt lat="43.7638026" lon="11.3069572"><ele>53.57142857142857</ele><time>2026-05-01T11:49:18.563Z</time></trkpt><trkpt lat="43.7638221" lon="11.3068721"><ele>53.42857142857143</ele><time>2026-05-01T11:49:20.564Z</time></trkpt><trkpt lat="43.7638434" lon="11.3067844"><ele>53.285714285714285</ele><time>2026-05-01T11:49:22.563Z</time></trkpt><trkpt lat="43.7638748" lon="11.3066997"><ele>53.142857142857146</ele><time>2026-05-01T11:49:24.564Z</time></trkpt><trkpt lat="43.7638975" lon="11.3066"><ele>53.0</ele><time>2026-05-01T11:49:26.564Z</time></trkpt><trkpt lat="43.7638839" lon="11.3065007"><ele>53.00000000000001</ele><time>2026-05-01T11:49:28.564Z</time></trkpt><trkpt lat="43.7638269" lon="11.3064177"><ele>53.0</ele><time>2026-05-01T11:49:30.563Z</time></trkpt><trkpt lat="43.7637673" lon="11.3063379"><ele>53.0</ele><time>2026-05-01T11:49:32.563Z</time></trkpt><trkpt lat="43.763728" lon="11.3062452"><ele>53.0</ele><time>2026-05-01T11:49:34.563Z</time></trkpt><trkpt lat="43.7637136" lon="11.306143"><ele>53.00000000000001</ele><time>2026-05-01T11:49:36.563Z</time></trkpt><trkpt lat="43.7637232" lon="11.3060442"><ele>53.0</ele><time>2026-05-01T11:49:38.563Z</time></trkpt><trkpt lat="43.7637443" lon="11.3059456"><ele>53.142857142857146</ele><time>2026-05-01T11:49:40.563Z</time></trkpt><trkpt lat="43.763766" lon="11.305845"><ele>53.285714285714285</ele><time>2026-05-01T11:49:42.564Z</time></trkpt><trkpt lat="43.7637867" lon="11.3057513"><ele>53.42857142857143</ele><time>2026-05-01T11:49:44.565Z</time></trkpt><trkpt lat="43.7638038" lon="11.3056558"><ele>53.57142857142857</ele><time>2026-05-01T11:49:46.564Z</time></trkpt><trkpt lat="43.7638208" lon="11.3055621"><ele>53.71428571428571</ele><time>2026-05-01T11:49:48.563Z</time></trkpt><trkpt lat="43.7638392" lon="11.305467"><ele>53.857142857142854</ele><time>2026-05-01T11:49:50.563Z</time></trkpt><trkpt lat="43.7638545" lon="11.3053642"><ele>54.0</ele><time>2026-05-01T11:49:52.563Z</time></trkpt><trkpt lat="43.7638663" lon="11.3052623"><ele>54.0</ele><time>2026-05-01T11:49:54.563Z</time></trkpt><trkpt lat="43.7638781" lon="11.3051668"><ele>54.0</ele><time>2026-05-01T11:49:56.564Z</time></trkpt><trkpt lat="43.7638952" lon="11.3050744"><ele>54.0</ele><time>2026-05-01T11:49:58.564Z</time></trkpt><trkpt lat="43.763913" lon="11.3049795"><ele>54.0</ele><time>2026-05-01T11:50:00.564Z</time></trkpt><trkpt lat="43.7639285" lon="11.3048817"><ele>54.0</ele><time>2026-05-01T11:50:02.563Z</time></trkpt><trkpt lat="43.7639415" lon="11.3047873"><ele>54.0</ele><time>2026-05-01T11:50:04.564Z</time></trkpt><trkpt lat="43.7639593" lon="11.3046887"><ele>54.0</ele><time>2026-05-01T11:50:06.563Z</time></trkpt><trkpt lat="43.7639755" lon="11.304595"><ele>53.285714285714285</ele><time>2026-05-01T11:50:08.563Z</time></trkpt><trkpt lat="43.7639918" lon="11.304505"><ele>52.57142857142857</ele><time>2026-05-01T11:50:10.564Z</time></trkpt><trkpt lat="43.7640105" lon="11.3044141"><ele>51.85714285714286</ele><time>2026-05-01T11:50:12.565Z</time></trkpt><trkpt lat="43.7640311" lon="11.3043181"><ele>51.14285714285714</ele><time>2026-05-01T11:50:14.563Z</time></trkpt><trkpt lat="43.7640526" lon="11.3042199"><ele>50.42857142857143</ele><time>2026-05-01T11:50:16.564Z</time></trkpt><trkpt lat="43.76407" lon="11.3041203"><ele>49.714285714285715</ele><time>2026-05-01T11:50:18.564Z</time></trkpt><trkpt lat="43.7640897" lon="11.3040195"><ele>49.0</ele><time>2026-05-01T11:50:20.563Z</time></trkpt><trkpt lat="43.7641054" lon="11.3039115"><ele>49.0</ele><time>2026-05-01T11:50:22.564Z</time></trkpt><trkpt lat="43.7641118" lon="11.3038208"><ele>49.0</ele><time>2026-05-01T11:50:24.563Z</time></trkpt><trkpt lat="43.7641145" lon="11.3037326"><ele>49.0</ele><time>2026-05-01T11:50:26.564Z</time></trkpt><trkpt lat="43.7641193" lon="11.303645"><ele>49.0</ele><time>2026-05-01T11:50:28.563Z</time></trkpt><trkpt lat="43.7641361" lon="11.3035187"><ele>49.0</ele><time>2026-05-01T11:50:31.563Z</time></trkpt><trkpt lat="43.7641495" lon="11.3033897"><ele>49.0</ele><time>2026-05-01T11:50:34.563Z</time></trkpt><trkpt lat="43.7641638" lon="11.3033011"><ele>49.0</ele><time>2026-05-01T11:50:36.564Z</time></trkpt><trkpt lat="43.7641783" lon="11.303213"><ele>49.0</ele><time>2026-05-01T11:50:38.564Z</time></trkpt><trkpt lat="43.7641934" lon="11.303125"><ele>49.0</ele><time>2026-05-01T11:50:40.564Z</time></trkpt><trkpt lat="43.764216" lon="11.3030111"><ele>49.0</ele><time>2026-05-01T11:50:43.563Z</time></trkpt><trkpt lat="43.7642417" lon="11.3028811"><ele>49.0</ele><time>2026-05-01T11:50:46.592Z</time></trkpt><trkpt lat="43.7642562" lon="11.3027955"><ele>49.0</ele><time>2026-05-01T11:50:48.564Z</time></trkpt><trkpt lat="43.7642707" lon="11.3027034"><ele>49.0</ele><time>2026-05-01T11:50:50.563Z</time></trkpt><trkpt lat="43.7642885" lon="11.3026147"><ele>49.0</ele><time>2026-05-01T11:50:52.563Z</time></trkpt><trkpt lat="43.7643124" lon="11.3025228"><ele>49.42857142857143</ele><time>2026-05-01T11:50:54.563Z</time></trkpt><trkpt lat="43.7643339" lon="11.3024387"><ele>49.85714285714286</ele><time>2026-05-01T11:50:56.564Z</time></trkpt><trkpt lat="43.7643652" lon="11.3023291"><ele>50.285714285714285</ele><time>2026-05-01T11:50:59.563Z</time></trkpt><trkpt lat="43.764397" lon="11.3022053"><ele>50.714285714285715</ele><time>2026-05-01T11:51:02.561Z</time></trkpt><trkpt lat="43.7644136" lon="11.3021153"><ele>51.142857142857146</ele><time>2026-05-01T11:51:04.564Z</time></trkpt><trkpt lat="43.7644304" lon="11.3020281"><ele>51.57142857142857</ele><time>2026-05-01T11:51:06.563Z</time></trkpt><trkpt lat="43.764457" lon="11.3019381"><ele>52.0</ele><time>2026-05-01T11:51:08.564Z</time></trkpt><trkpt lat="43.764484" lon="11.3018486"><ele>51.99999999999999</ele><time>2026-05-01T11:51:10.563Z</time></trkpt><trkpt lat="43.7645076" lon="11.3017611"><ele>52.0</ele><time>2026-05-01T11:51:12.563Z</time></trkpt><trkpt lat="43.7645382" lon="11.3016392"><ele>52.0</ele><time>2026-05-01T11:51:15.562Z</time></trkpt><trkpt lat="43.7645602" lon="11.3015496"><ele>52.0</ele><time>2026-05-01T11:51:17.563Z</time></trkpt><trkpt lat="43.7645892" lon="11.3014481"><ele>51.99999999999999</ele><time>2026-05-01T11:51:19.563Z</time></trkpt><trkpt lat="43.7646155" lon="11.3013447"><ele>52.0</ele><time>2026-05-01T11:51:21.563Z</time></trkpt><trkpt lat="43.7646415" lon="11.3012439"><ele>51.857142857142854</ele><time>2026-05-01T11:51:23.563Z</time></trkpt><trkpt lat="43.7646725" lon="11.3011526"><ele>51.714285714285715</ele><time>2026-05-01T11:51:25.562Z</time></trkpt><trkpt lat="43.7647029" lon="11.3010649"><ele>51.57142857142857</ele><time>2026-05-01T11:51:27.564Z</time></trkpt><trkpt lat="43.764728" lon="11.3009784"><ele>51.42857142857143</ele><time>2026-05-01T11:51:29.564Z</time></trkpt><trkpt lat="43.7647583" lon="11.3008923"><ele>51.28571428571429</ele><time>2026-05-01T11:51:31.563Z</time></trkpt><trkpt lat="43.7647947" lon="11.300804"><ele>51.142857142857146</ele><time>2026-05-01T11:51:33.564Z</time></trkpt><trkpt lat="43.7648271" lon="11.3007169"><ele>51.0</ele><time>2026-05-01T11:51:35.564Z</time></trkpt><trkpt lat="43.7648574" lon="11.3006321"><ele>51.166666666666664</ele><time>2026-05-01T11:51:37.563Z</time></trkpt><trkpt lat="43.7648982" lon="11.3005144"><ele>51.33333333333333</ele><time>2026-05-01T11:51:40.563Z</time></trkpt><trkpt lat="43.7649221" lon="11.3004325"><ele>51.5</ele><time>2026-05-01T11:51:42.564Z</time></trkpt><trkpt lat="43.7649507" lon="11.3003512"><ele>51.666666666666664</ele><time>2026-05-01T11:51:44.563Z</time></trkpt><trkpt lat="43.7650031" lon="11.3002528"><ele>51.83333333333333</ele><time>2026-05-01T11:51:47.564Z</time></trkpt><trkpt lat="43.7650466" lon="11.3001428"><ele>52.0</ele><time>2026-05-01T11:51:50.563Z</time></trkpt><trkpt lat="43.7650743" lon="11.3000594"><ele>51.99999999999999</ele><time>2026-05-01T11:51:52.564Z</time></trkpt><trkpt lat="43.7650971" lon="11.2999755"><ele>52.0</ele><time>2026-05-01T11:51:54.563Z</time></trkpt><trkpt lat="43.7651231" lon="11.2998525"><ele>52.0</ele><time>2026-05-01T11:51:57.564Z</time></trkpt><trkpt lat="43.76515" lon="11.2997368"><ele>52.0</ele><time>2026-05-01T11:52:00.563Z</time></trkpt><trkpt lat="43.7651829" lon="11.2996486"><ele>51.99999999999999</ele><time>2026-05-01T11:52:02.562Z</time></trkpt><trkpt lat="43.7652163" lon="11.2995589"><ele>52.0</ele><time>2026-05-01T11:52:04.564Z</time></trkpt><trkpt lat="43.7652579" lon="11.2994442"><ele>51.857142857142854</ele><time>2026-05-01T11:52:07.563Z</time></trkpt><trkpt lat="43.7652851" lon="11.2993635"><ele>51.714285714285715</ele><time>2026-05-01T11:52:09.564Z</time></trkpt><trkpt lat="43.765313" lon="11.2992777"><ele>51.57142857142857</ele><time>2026-05-01T11:52:11.563Z</time></trkpt><trkpt lat="43.7653429" lon="11.2991925"><ele>51.42857142857143</ele><time>2026-05-01T11:52:13.563Z</time></trkpt><trkpt lat="43.7653714" lon="11.2991094"><ele>51.28571428571429</ele><time>2026-05-01T11:52:15.562Z</time></trkpt><trkpt lat="43.7653993" lon="11.2990226"><ele>51.142857142857146</ele><time>2026-05-01T11:52:17.563Z</time></trkpt><trkpt lat="43.7654239" lon="11.29894"><ele>51.0</ele><time>2026-05-01T11:52:19.563Z</time></trkpt><trkpt lat="43.7654561" lon="11.2988189"><ele>51.0</ele><time>2026-05-01T11:52:22.562Z</time></trkpt><trkpt lat="43.765497" lon="11.298699"><ele>51.0</ele><time>2026-05-01T11:52:25.564Z</time></trkpt><trkpt lat="43.7655229" lon="11.2986139"><ele>51.0</ele><time>2026-05-01T11:52:27.564Z</time></trkpt><trkpt lat="43.7655464" lon="11.2985275"><ele>51.0</ele><time>2026-05-01T11:52:29.564Z</time></trkpt><trkpt lat="43.7655714" lon="11.2984411"><ele>51.0</ele><time>2026-05-01T11:52:31.563Z</time></trkpt><trkpt lat="43.7655981" lon="11.2983591"><ele>51.0</ele><time>2026-05-01T11:52:33.563Z</time></trkpt><trkpt lat="43.7656251" lon="11.2982756"><ele>51.0</ele><time>2026-05-01T11:52:35.564Z</time></trkpt><trkpt lat="43.7656567" lon="11.2981718"><ele>51.0</ele><time>2026-05-01T11:52:38.563Z</time></trkpt><trkpt lat="43.7656959" lon="11.2980743"><ele>51.0</ele><time>2026-05-01T11:52:41.563Z</time></trkpt><trkpt lat="43.7657351" lon="11.2979614"><ele>51.0</ele><time>2026-05-01T11:52:44.562Z</time></trkpt><trkpt lat="43.7657712" lon="11.2978467"><ele>51.0</ele><time>2026-05-01T11:52:47.563Z</time></trkpt><trkpt lat="43.7658109" lon="11.2977316"><ele>51.0</ele><time>2026-05-01T11:52:50.563Z</time></trkpt><trkpt lat="43.7658437" lon="11.2976203"><ele>51.0</ele><time>2026-05-01T11:52:53.564Z</time></trkpt><trkpt lat="43.7658751" lon="11.2975014"><ele>51.0</ele><time>2026-05-01T11:52:56.562Z</time></trkpt><trkpt lat="43.7658951" lon="11.2974185"><ele>51.0</ele><time>2026-05-01T11:52:58.563Z</time></trkpt><trkpt lat="43.7659303" lon="11.2973"><ele>51.0</ele><time>2026-05-01T11:53:01.564Z</time></trkpt><trkpt lat="43.7659638" lon="11.2971828"><ele>51.0</ele><time>2026-05-01T11:53:04.562Z</time></trkpt><trkpt lat="43.7659883" lon="11.2971022"><ele>51.0</ele><time>2026-05-01T11:53:06.563Z</time></trkpt><trkpt lat="43.7660148" lon="11.2970192"><ele>51.0</ele><time>2026-05-01T11:53:08.563Z</time></trkpt><trkpt lat="43.7660507" lon="11.2968992"><ele>51.333333333333336</ele><time>2026-05-01T11:53:11.563Z</time></trkpt><trkpt lat="43.7660727" lon="11.2968148"><ele>51.66666666666667</ele><time>2026-05-01T11:53:13.562Z</time></trkpt><trkpt lat="43.7660944" lon="11.2967277"><ele>52.0</ele><time>2026-05-01T11:53:15.562Z</time></trkpt><trkpt lat="43.766117" lon="11.2966447"><ele>52.333333333333336</ele><time>2026-05-01T11:53:17.563Z</time></trkpt><trkpt lat="43.7661467" lon="11.296527"><ele>52.66666666666667</ele><time>2026-05-01T11:53:20.563Z</time></trkpt><trkpt lat="43.7661723" lon="11.2964147"><ele>53.0</ele><time>2026-05-01T11:53:23.563Z</time></trkpt><trkpt lat="43.7661991" lon="11.29629"><ele>53.00000000000001</ele><time>2026-05-01T11:53:26.563Z</time></trkpt><trkpt lat="43.7662197" lon="11.296201"><ele>53.0</ele><time>2026-05-01T11:53:28.562Z</time></trkpt><trkpt lat="43.7662413" lon="11.2961156"><ele>53.0</ele><time>2026-05-01T11:53:30.563Z</time></trkpt><trkpt lat="43.7662622" lon="11.296033"><ele>53.0</ele><time>2026-05-01T11:53:32.562Z</time></trkpt><trkpt lat="43.7662987" lon="11.2959141"><ele>53.00000000000001</ele><time>2026-05-01T11:53:35.564Z</time></trkpt><trkpt lat="43.7663345" lon="11.2958031"><ele>53.0</ele><time>2026-05-01T11:53:38.562Z</time></trkpt><trkpt lat="43.766376" lon="11.2957027"><ele>53.00000000000001</ele><time>2026-05-01T11:53:41.564Z</time></trkpt><trkpt lat="43.7664095" lon="11.2956115"><ele>53.0</ele><time>2026-05-01T11:53:44.563Z</time></trkpt><trkpt lat="43.7664405" lon="11.2955007"><ele>53.0</ele><time>2026-05-01T11:53:47.563Z</time></trkpt><trkpt lat="43.7664659" lon="11.2953934"><ele>53.0</ele><time>2026-05-01T11:53:49.563Z</time></trkpt><trkpt lat="43.7664907" lon="11.2952915"><ele>53.00000000000001</ele><time>2026-05-01T11:53:51.564Z</time></trkpt><trkpt lat="43.7665127" lon="11.2951906"><ele>53.0</ele><time>2026-05-01T11:53:53.563Z</time></trkpt><trkpt lat="43.7665345" lon="11.2950967"><ele>53.0</ele><time>2026-05-01T11:53:55.564Z</time></trkpt><trkpt lat="43.7665518" lon="11.2949976"><ele>53.0</ele><time>2026-05-01T11:53:57.562Z</time></trkpt><trkpt lat="43.7665693" lon="11.2949071"><ele>53.0</ele><time>2026-05-01T11:53:59.563Z</time></trkpt><trkpt lat="43.7665891" lon="11.2948205"><ele>53.0</ele><time>2026-05-01T11:54:01.563Z</time></trkpt><trkpt lat="43.7666119" lon="11.2947345"><ele>53.0</ele><time>2026-05-01T11:54:03.562Z</time></trkpt><trkpt lat="43.7666342" lon="11.2946488"><ele>53.0</ele><time>2026-05-01T11:54:05.563Z</time></trkpt><trkpt lat="43.7666538" lon="11.2945572"><ele>53.0</ele><time>2026-05-01T11:54:07.563Z</time></trkpt><trkpt lat="43.7666796" lon="11.2944618"><ele>53.0</ele><time>2026-05-01T11:54:09.561Z</time></trkpt><trkpt lat="43.7667049" lon="11.2943733"><ele>53.0</ele><time>2026-05-01T11:54:11.562Z</time></trkpt><trkpt lat="43.7667287" lon="11.2942875"><ele>53.0</ele><time>2026-05-01T11:54:13.563Z</time></trkpt><trkpt lat="43.7667544" lon="11.294206"><ele>53.0</ele><time>2026-05-01T11:54:15.562Z</time></trkpt><trkpt lat="43.7667888" lon="11.2940945"><ele>53.0</ele><time>2026-05-01T11:54:18.563Z</time></trkpt><trkpt lat="43.7668145" lon="11.2940085"><ele>53.0</ele><time>2026-05-01T11:54:21.563Z</time></trkpt><trkpt lat="43.7668462" lon="11.2939317"><ele>53.0</ele><time>2026-05-01T11:54:24.564Z</time></trkpt><trkpt lat="43.7669182" lon="11.2938831"><ele>53.142857142857146</ele><time>2026-05-01T11:54:28.562Z</time></trkpt><trkpt lat="43.7669875" lon="11.2938959"><ele>53.285714285714285</ele><time>2026-05-01T11:54:31.561Z</time></trkpt><trkpt lat="43.7670551" lon="11.2939111"><ele>53.42857142857143</ele><time>2026-05-01T11:54:34.563Z</time></trkpt><trkpt lat="43.7670766" lon="11.2938192"><ele>53.57142857142857</ele><time>2026-05-01T11:54:38.563Z</time></trkpt><trkpt lat="43.767058" lon="11.2937261"><ele>53.71428571428571</ele><time>2026-05-01T11:54:40.562Z</time></trkpt><trkpt lat="43.7670479" lon="11.2936271"><ele>53.857142857142854</ele><time>2026-05-01T11:54:42.563Z</time></trkpt><trkpt lat="43.767043" lon="11.2935359"><ele>54.0</ele><time>2026-05-01T11:54:44.563Z</time></trkpt><trkpt lat="43.7670347" lon="11.2934458"><ele>54.0</ele><time>2026-05-01T11:54:46.563Z</time></trkpt><trkpt lat="43.7670231" lon="11.2933163"><ele>54.0</ele><time>2026-05-01T11:54:49.562Z</time></trkpt><trkpt lat="43.7670128" lon="11.2932256"><ele>54.0</ele><time>2026-05-01T11:54:51.563Z</time></trkpt><trkpt lat="43.7670024" lon="11.2931315"><ele>54.0</ele><time>2026-05-01T11:54:53.563Z</time></trkpt><trkpt lat="43.7669939" lon="11.2930364"><ele>54.0</ele><time>2026-05-01T11:54:55.562Z</time></trkpt><trkpt lat="43.7669854" lon="11.2929408"><ele>54.0</ele><time>2026-05-01T11:54:57.562Z</time></trkpt><trkpt lat="43.7669754" lon="11.2928446"><ele>54.0</ele><time>2026-05-01T11:54:59.564Z</time></trkpt><trkpt lat="43.7669698" lon="11.292756"><ele>54.14285714285714</ele><time>2026-05-01T11:55:01.563Z</time></trkpt><trkpt lat="43.7669632" lon="11.2926384"><ele>54.285714285714285</ele><time>2026-05-01T11:55:04.562Z</time></trkpt><trkpt lat="43.7669552" lon="11.2925507"><ele>54.42857142857143</ele><time>2026-05-01T11:55:06.562Z</time></trkpt><trkpt lat="43.7669421" lon="11.2924451"><ele>54.57142857142857</ele><time>2026-05-01T11:55:08.563Z</time></trkpt><trkpt lat="43.7669267" lon="11.2923477"><ele>54.714285714285715</ele><time>2026-05-01T11:55:10.563Z</time></trkpt><trkpt lat="43.7669086" lon="11.2922519"><ele>54.857142857142854</ele><time>2026-05-01T11:55:12.562Z</time></trkpt><trkpt lat="43.7668934" lon="11.2921575"><ele>55.0</ele><time>2026-05-01T11:55:14.562Z</time></trkpt><trkpt lat="43.7668802" lon="11.2920567"><ele>55.14285714285714</ele><time>2026-05-01T11:55:16.563Z</time></trkpt><trkpt lat="43.7668668" lon="11.2919553"><ele>55.285714285714285</ele><time>2026-05-01T11:55:18.563Z</time></trkpt><trkpt lat="43.7668558" lon="11.291852"><ele>55.42857142857143</ele><time>2026-05-01T11:55:20.563Z</time></trkpt><trkpt lat="43.7668482" lon="11.2917545"><ele>55.57142857142857</ele><time>2026-05-01T11:55:22.562Z</time></trkpt><trkpt lat="43.7668382" lon="11.2916679"><ele>55.714285714285715</ele><time>2026-05-01T11:55:24.563Z</time></trkpt><trkpt lat="43.7668272" lon="11.2915727"><ele>55.857142857142854</ele><time>2026-05-01T11:55:26.563Z</time></trkpt><trkpt lat="43.7668144" lon="11.2914722"><ele>56.0</ele><time>2026-05-01T11:55:28.562Z</time></trkpt><trkpt lat="43.7668049" lon="11.2913731"><ele>55.57142857142857</ele><time>2026-05-01T11:55:30.563Z</time></trkpt><trkpt lat="43.7667887" lon="11.2912782"><ele>55.14285714285714</ele><time>2026-05-01T11:55:32.563Z</time></trkpt><trkpt lat="43.7667723" lon="11.291181"><ele>54.714285714285715</ele><time>2026-05-01T11:55:34.563Z</time></trkpt><trkpt lat="43.7667641" lon="11.2910753"><ele>54.285714285714285</ele><time>2026-05-01T11:55:36.562Z</time></trkpt><trkpt lat="43.7667643" lon="11.2909655"><ele>53.857142857142854</ele><time>2026-05-01T11:55:38.563Z</time></trkpt><trkpt lat="43.7667481" lon="11.2908578"><ele>53.42857142857143</ele><time>2026-05-01T11:55:41.563Z</time></trkpt><trkpt lat="43.7667302" lon="11.2907693"><ele>53.0</ele><time>2026-05-01T11:55:43.563Z</time></trkpt><trkpt lat="43.766716" lon="11.2906761"><ele>53.42857142857143</ele><time>2026-05-01T11:55:45.561Z</time></trkpt><trkpt lat="43.7666959" lon="11.2905812"><ele>53.857142857142854</ele><time>2026-05-01T11:55:47.562Z</time></trkpt><trkpt lat="43.7666815" lon="11.2904909"><ele>54.285714285714285</ele><time>2026-05-01T11:55:49.562Z</time></trkpt><trkpt lat="43.7666723" lon="11.2903899"><ele>54.714285714285715</ele><time>2026-05-01T11:55:51.563Z</time></trkpt><trkpt lat="43.7666527" lon="11.2902946"><ele>55.14285714285714</ele><time>2026-05-01T11:55:53.563Z</time></trkpt><trkpt lat="43.766636" lon="11.2902012"><ele>55.57142857142857</ele><time>2026-05-01T11:55:55.562Z</time></trkpt><trkpt lat="43.7666303" lon="11.2900738"><ele>56.0</ele><time>2026-05-01T11:55:57.561Z</time></trkpt><trkpt lat="43.7666239" lon="11.2899555"><ele>56.00000000000001</ele><time>2026-05-01T11:55:59.562Z</time></trkpt><trkpt lat="43.7666148" lon="11.289836"><ele>56.0</ele><time>2026-05-01T11:56:01.561Z</time></trkpt><trkpt lat="43.7666045" lon="11.2897364"><ele>56.0</ele><time>2026-05-01T11:56:03.561Z</time></trkpt><trkpt lat="43.7665912" lon="11.2896379"><ele>56.0</ele><time>2026-05-01T11:56:05.563Z</time></trkpt><trkpt lat="43.7665806" lon="11.2895262"><ele>56.00000000000001</ele><time>2026-05-01T11:56:07.561Z</time></trkpt><trkpt lat="43.766572" lon="11.2894184"><ele>56.0</ele><time>2026-05-01T11:56:09.562Z</time></trkpt><trkpt lat="43.7665675" lon="11.2893279"><ele>56.0</ele><time>2026-05-01T11:56:11.562Z</time></trkpt><trkpt lat="43.7665606" lon="11.2892311"><ele>56.0</ele><time>2026-05-01T11:56:13.562Z</time></trkpt><trkpt lat="43.76655" lon="11.2891319"><ele>56.0</ele><time>2026-05-01T11:56:15.562Z</time></trkpt><trkpt lat="43.7665411" lon="11.2890333"><ele>56.0</ele><time>2026-05-01T11:56:17.562Z</time></trkpt><trkpt lat="43.7665287" lon="11.2889436"><ele>56.0</ele><time>2026-05-01T11:56:19.563Z</time></trkpt><trkpt lat="43.7665212" lon="11.2888512"><ele>56.0</ele><time>2026-05-01T11:56:21.562Z</time></trkpt><trkpt lat="43.7665102" lon="11.2887541"><ele>56.0</ele><time>2026-05-01T11:56:23.563Z</time></trkpt><trkpt lat="43.7664969" lon="11.288652"><ele>55.857142857142854</ele><time>2026-05-01T11:56:25.562Z</time></trkpt><trkpt lat="43.766482" lon="11.288551"><ele>55.714285714285715</ele><time>2026-05-01T11:56:27.561Z</time></trkpt><trkpt lat="43.7664683" lon="11.2884554"><ele>55.57142857142857</ele><time>2026-05-01T11:56:29.563Z</time></trkpt><trkpt lat="43.7664569" lon="11.2883601"><ele>55.42857142857143</ele><time>2026-05-01T11:56:31.563Z</time></trkpt><trkpt lat="43.7664457" lon="11.2882624"><ele>55.285714285714285</ele><time>2026-05-01T11:56:33.562Z</time></trkpt><trkpt lat="43.7664344" lon="11.2881586"><ele>55.14285714285714</ele><time>2026-05-01T11:56:35.562Z</time></trkpt><trkpt lat="43.7664238" lon="11.2880602"><ele>55.0</ele><time>2026-05-01T11:56:37.562Z</time></trkpt><trkpt lat="43.7664169" lon="11.2879708"><ele>54.99999999999999</ele><time>2026-05-01T11:56:39.561Z</time></trkpt><trkpt lat="43.7664058" lon="11.2878506"><ele>55.0</ele><time>2026-05-01T11:56:42.563Z</time></trkpt><trkpt lat="43.7664175" lon="11.2877264"><ele>55.0</ele><time>2026-05-01T11:56:45.563Z</time></trkpt><trkpt lat="43.7664213" lon="11.2876296"><ele>55.0</ele><time>2026-05-01T11:56:47.562Z</time></trkpt><trkpt lat="43.7664152" lon="11.2875262"><ele>54.99999999999999</ele><time>2026-05-01T11:56:49.561Z</time></trkpt><trkpt lat="43.7664085" lon="11.2873929"><ele>55.0</ele><time>2026-05-01T11:56:52.562Z</time></trkpt><trkpt lat="43.7663952" lon="11.2872945"><ele>54.99999999999999</ele><time>2026-05-01T11:56:54.562Z</time></trkpt><trkpt lat="43.7663752" lon="11.2871987"><ele>55.0</ele><time>2026-05-01T11:56:56.561Z</time></trkpt><trkpt lat="43.766361" lon="11.2871064"><ele>55.0</ele><time>2026-05-01T11:56:58.562Z</time></trkpt><trkpt lat="43.7663531" lon="11.2870061"><ele>55.0</ele><time>2026-05-01T11:57:00.561Z</time></trkpt><trkpt lat="43.7663435" lon="11.2869119"><ele>55.0</ele><time>2026-05-01T11:57:02.562Z</time></trkpt><trkpt lat="43.7663345" lon="11.2868216"><ele>54.99999999999999</ele><time>2026-05-01T11:57:04.562Z</time></trkpt><trkpt lat="43.7663259" lon="11.2867352"><ele>55.0</ele><time>2026-05-01T11:57:06.562Z</time></trkpt><trkpt lat="43.7663135" lon="11.2866484"><ele>54.99999999999999</ele><time>2026-05-01T11:57:08.562Z</time></trkpt><trkpt lat="43.7662994" lon="11.2865586"><ele>55.0</ele><time>2026-05-01T11:57:10.563Z</time></trkpt><trkpt lat="43.7662916" lon="11.2864661"><ele>55.0</ele><time>2026-05-01T11:57:12.56Z</time></trkpt><trkpt lat="43.7662903" lon="11.2863708"><ele>55.0</ele><time>2026-05-01T11:57:14.563Z</time></trkpt><trkpt lat="43.7662871" lon="11.2862792"><ele>55.0</ele><time>2026-05-01T11:57:16.562Z</time></trkpt><trkpt lat="43.7662797" lon="11.2861882"><ele>54.99999999999999</ele><time>2026-05-01T11:57:18.561Z</time></trkpt><trkpt lat="43.766271" lon="11.2860866"><ele>55.0</ele><time>2026-05-01T11:57:20.562Z</time></trkpt><trkpt lat="43.7662647" lon="11.2859739"><ele>54.99999999999999</ele><time>2026-05-01T11:57:22.563Z</time></trkpt><trkpt lat="43.7662576" lon="11.2858524"><ele>55.0</ele><time>2026-05-01T11:57:24.56Z</time></trkpt><trkpt lat="43.7662424" lon="11.2857351"><ele>55.0</ele><time>2026-05-01T11:57:26.562Z</time></trkpt><trkpt lat="43.7662264" lon="11.2856275"><ele>55.0</ele><time>2026-05-01T11:57:28.563Z</time></trkpt><trkpt lat="43.7662071" lon="11.2855406"><ele>54.99999999999999</ele><time>2026-05-01T11:57:30.562Z</time></trkpt><trkpt lat="43.7661918" lon="11.2854525"><ele>55.0</ele><time>2026-05-01T11:57:32.561Z</time></trkpt><trkpt lat="43.7661828" lon="11.2853619"><ele>54.99999999999999</ele><time>2026-05-01T11:57:34.563Z</time></trkpt><trkpt lat="43.7661718" lon="11.285264"><ele>55.0</ele><time>2026-05-01T11:57:36.563Z</time></trkpt><trkpt lat="43.7661596" lon="11.2851672"><ele>55.0</ele><time>2026-05-01T11:57:38.56Z</time></trkpt><trkpt lat="43.7661442" lon="11.2850716"><ele>55.0</ele><time>2026-05-01T11:57:40.562Z</time></trkpt><trkpt lat="43.7661324" lon="11.2849798"><ele>55.0</ele><time>2026-05-01T11:57:42.563Z</time></trkpt><trkpt lat="43.7661218" lon="11.2848831"><ele>54.99999999999999</ele><time>2026-05-01T11:57:44.561Z</time></trkpt><trkpt lat="43.7661109" lon="11.2847865"><ele>55.0</ele><time>2026-05-01T11:57:46.563Z</time></trkpt><trkpt lat="43.7661" lon="11.2846602"><ele>55.57142857142857</ele><time>2026-05-01T11:57:49.562Z</time></trkpt><trkpt lat="43.7660929" lon="11.2845634"><ele>56.14285714285714</ele><time>2026-05-01T11:57:51.562Z</time></trkpt><trkpt lat="43.7660779" lon="11.2844655"><ele>56.71428571428571</ele><time>2026-05-01T11:57:53.563Z</time></trkpt><trkpt lat="43.7660585" lon="11.2843671"><ele>57.285714285714285</ele><time>2026-05-01T11:57:55.562Z</time></trkpt><trkpt lat="43.7660434" lon="11.2842705"><ele>57.85714285714286</ele><time>2026-05-01T11:57:57.563Z</time></trkpt><trkpt lat="43.7660456" lon="11.2841569"><ele>58.42857142857142</ele><time>2026-05-01T11:57:59.562Z</time></trkpt><trkpt lat="43.7660482" lon="11.2840559"><ele>59.0</ele><time>2026-05-01T11:58:01.563Z</time></trkpt><trkpt lat="43.7660343" lon="11.2839567"><ele>57.66666666666667</ele><time>2026-05-01T11:58:03.562Z</time></trkpt><trkpt lat="43.7660205" lon="11.283857"><ele>56.333333333333336</ele><time>2026-05-01T11:58:05.562Z</time></trkpt><trkpt lat="43.7660046" lon="11.2837625"><ele>55.0</ele><time>2026-05-01T11:58:07.563Z</time></trkpt><trkpt lat="43.765991" lon="11.2836396"><ele>53.66666666666667</ele><time>2026-05-01T11:58:10.563Z</time></trkpt><trkpt lat="43.7659846" lon="11.2835434"><ele>52.333333333333336</ele><time>2026-05-01T11:58:13.562Z</time></trkpt><trkpt lat="43.7659264" lon="11.2834873"><ele>51.0</ele><time>2026-05-01T11:58:19.561Z</time></trkpt><trkpt lat="43.7659061" lon="11.2833695"><ele>51.0</ele><time>2026-05-01T11:58:22.563Z</time></trkpt><trkpt lat="43.765895" lon="11.2832791"><ele>51.0</ele><time>2026-05-01T11:58:24.561Z</time></trkpt><trkpt lat="43.765878" lon="11.2831888"><ele>51.0</ele><time>2026-05-01T11:58:26.56Z</time></trkpt><trkpt lat="43.7658645" lon="11.2830878"><ele>51.0</ele><time>2026-05-01T11:58:28.561Z</time></trkpt><trkpt lat="43.7658472" lon="11.2830001"><ele>51.0</ele><time>2026-05-01T11:58:30.563Z</time></trkpt><trkpt lat="43.7658281" lon="11.2829034"><ele>51.0</ele><time>2026-05-01T11:58:32.561Z</time></trkpt><trkpt lat="43.765812" lon="11.2828135"><ele>51.0</ele><time>2026-05-01T11:58:34.562Z</time></trkpt><trkpt lat="43.7658006" lon="11.2827232"><ele>51.42857142857143</ele><time>2026-05-01T11:58:36.562Z</time></trkpt><trkpt lat="43.7657863" lon="11.2826374"><ele>51.85714285714286</ele><time>2026-05-01T11:58:38.561Z</time></trkpt><trkpt lat="43.7657727" lon="11.2825517"><ele>52.285714285714285</ele><time>2026-05-01T11:58:40.561Z</time></trkpt><trkpt lat="43.7657621" lon="11.2824547"><ele>52.714285714285715</ele><time>2026-05-01T11:58:42.562Z</time></trkpt><trkpt lat="43.7657506" lon="11.2823572"><ele>53.14285714285714</ele><time>2026-05-01T11:58:44.562Z</time></trkpt><trkpt lat="43.7657405" lon="11.2822586"><ele>53.57142857142857</ele><time>2026-05-01T11:58:46.561Z</time></trkpt><trkpt lat="43.7657237" lon="11.2821655"><ele>54.0</ele><time>2026-05-01T11:58:48.562Z</time></trkpt><trkpt lat="43.7656812" lon="11.2820527"><ele>54.0</ele><time>2026-05-01T11:58:51.561Z</time></trkpt><trkpt lat="43.7656243" lon="11.2819687"><ele>54.0</ele><time>2026-05-01T11:58:54.562Z</time></trkpt><trkpt lat="43.7655605" lon="11.2819489"><ele>54.0</ele><time>2026-05-01T11:58:56.562Z</time></trkpt><trkpt lat="43.7654877" lon="11.2819472"><ele>54.0</ele><time>2026-05-01T11:58:58.563Z</time></trkpt><trkpt lat="43.765414" lon="11.2819434"><ele>54.0</ele><time>2026-05-01T11:59:00.562Z</time></trkpt><trkpt lat="43.7653386" lon="11.2819341"><ele>54.0</ele><time>2026-05-01T11:59:02.562Z</time></trkpt><trkpt lat="43.7652632" lon="11.2819242"><ele>54.0</ele><time>2026-05-01T11:59:04.562Z</time></trkpt><trkpt lat="43.765191" lon="11.2819149"><ele>53.57142857142857</ele><time>2026-05-01T11:59:06.56Z</time></trkpt><trkpt lat="43.7651196" lon="11.2819088"><ele>53.14285714285714</ele><time>2026-05-01T11:59:08.561Z</time></trkpt><trkpt lat="43.7650492" lon="11.2818981"><ele>52.714285714285715</ele><time>2026-05-01T11:59:10.561Z</time></trkpt><trkpt lat="43.7649768" lon="11.281885"><ele>52.285714285714285</ele><time>2026-05-01T11:59:12.562Z</time></trkpt><trkpt lat="43.7649034" lon="11.2818695"><ele>51.85714285714286</ele><time>2026-05-01T11:59:14.562Z</time></trkpt><trkpt lat="43.7648348" lon="11.2818623"><ele>51.42857142857143</ele><time>2026-05-01T11:59:16.561Z</time></trkpt><trkpt lat="43.764772" lon="11.2818548"><ele>51.0</ele><time>2026-05-01T11:59:18.56Z</time></trkpt><trkpt lat="43.7646841" lon="11.2818469"><ele>51.0</ele><time>2026-05-01T11:59:21.562Z</time></trkpt><trkpt lat="43.764597" lon="11.2818319"><ele>51.0</ele><time>2026-05-01T11:59:24.561Z</time></trkpt><trkpt lat="43.7645281" lon="11.2818234"><ele>51.0</ele><time>2026-05-01T11:59:26.561Z</time></trkpt><trkpt lat="43.7644554" lon="11.2818125"><ele>51.0</ele><time>2026-05-01T11:59:28.561Z</time></trkpt><trkpt lat="43.7643854" lon="11.2818009"><ele>51.0</ele><time>2026-05-01T11:59:30.563Z</time></trkpt><trkpt lat="43.7643169" lon="11.2817815"><ele>51.0</ele><time>2026-05-01T11:59:32.561Z</time></trkpt><trkpt lat="43.7642529" lon="11.2817499"><ele>51.0</ele><time>2026-05-01T11:59:34.562Z</time></trkpt><trkpt lat="43.7641941" lon="11.2817075"><ele>51.285714285714285</ele><time>2026-05-01T11:59:36.561Z</time></trkpt><trkpt lat="43.76419" lon="11.2815986"><ele>51.57142857142857</ele><time>2026-05-01T11:59:39.562Z</time></trkpt><trkpt lat="43.7641967" lon="11.2815103"><ele>51.85714285714286</ele><time>2026-05-01T11:59:41.561Z</time></trkpt><trkpt lat="43.7641602" lon="11.2814277"><ele>52.14285714285714</ele><time>2026-05-01T11:59:43.562Z</time></trkpt><trkpt lat="43.7641086" lon="11.2813585"><ele>52.42857142857142</ele><time>2026-05-01T11:59:45.562Z</time></trkpt><trkpt lat="43.7640419" lon="11.2812784"><ele>52.714285714285715</ele><time>2026-05-01T11:59:48.562Z</time></trkpt><trkpt lat="43.7640006" lon="11.2812032"><ele>53.0</ele><time>2026-05-01T11:59:51.56Z</time></trkpt><trkpt lat="43.7639904" lon="11.2810746"><ele>53.00000000000001</ele><time>2026-05-01T11:59:54.561Z</time></trkpt><trkpt lat="43.7639857" lon="11.2809686"><ele>53.0</ele><time>2026-05-01T11:59:56.561Z</time></trkpt><trkpt lat="43.7639845" lon="11.2808565"><ele>53.0</ele><time>2026-05-01T11:59:58.561Z</time></trkpt><trkpt lat="43.7639869" lon="11.2807502"><ele>53.0</ele><time>2026-05-01T12:00:00.561Z</time></trkpt><trkpt lat="43.7639875" lon="11.2806416"><ele>53.00000000000001</ele><time>2026-05-01T12:00:02.562Z</time></trkpt><trkpt lat="43.7639698" lon="11.2805274"><ele>53.0</ele><time>2026-05-01T12:00:05.562Z</time></trkpt><trkpt lat="43.7639733" lon="11.2804103"><ele>52.50000000000001</ele><time>2026-05-01T12:00:08.563Z</time></trkpt><trkpt lat="43.7639697" lon="11.2802807"><ele>52.0</ele><time>2026-05-01T12:00:11.562Z</time></trkpt><trkpt lat="43.7639686" lon="11.2801648"><ele>51.5</ele><time>2026-05-01T12:00:13.561Z</time></trkpt><trkpt lat="43.7639593" lon="11.280067"><ele>51.0</ele><time>2026-05-01T12:00:15.562Z</time></trkpt><trkpt lat="43.7639453" lon="11.2799712"><ele>50.50000000000001</ele><time>2026-05-01T12:00:17.561Z</time></trkpt><trkpt lat="43.763915" lon="11.2798369"><ele>50.0</ele><time>2026-05-01T12:00:20.562Z</time></trkpt><trkpt lat="43.7638934" lon="11.2796102"><ele>50.00000000000001</ele><time>2026-05-01T12:00:22.561Z</time></trkpt><trkpt lat="43.7638932" lon="11.2795128"><ele>50.0</ele><time>2026-05-01T12:00:23.561Z</time></trkpt><trkpt lat="43.7639042" lon="11.2794089"><ele>50.0</ele><time>2026-05-01T12:00:24.56Z</time></trkpt><trkpt lat="43.7639609" lon="11.2793249"><ele>50.0</ele><time>2026-05-01T12:00:26.561Z</time></trkpt><trkpt lat="43.7639581" lon="11.2791774"><ele>50.00000000000001</ele><time>2026-05-01T12:00:29.561Z</time></trkpt><trkpt lat="43.7639502" lon="11.2790695"><ele>50.0</ele><time>2026-05-01T12:00:31.56Z</time></trkpt><trkpt lat="43.7639572" lon="11.2789795"><ele>50.00000000000001</ele><time>2026-05-01T12:00:33.562Z</time></trkpt><trkpt lat="43.7639541" lon="11.2788669"><ele>50.0</ele><time>2026-05-01T12:00:36.562Z</time></trkpt><trkpt lat="43.7639587" lon="11.2787711"><ele>50.0</ele><time>2026-05-01T12:00:38.561Z</time></trkpt><trkpt lat="43.7639619" lon="11.2786505"><ele>50.0</ele><time>2026-05-01T12:00:41.562Z</time></trkpt><trkpt lat="43.7639619" lon="11.2785328"><ele>50.00000000000001</ele><time>2026-05-01T12:00:44.561Z</time></trkpt><trkpt lat="43.7639659" lon="11.2784276"><ele>50.0</ele><time>2026-05-01T12:00:46.562Z</time></trkpt><trkpt lat="43.7639692" lon="11.2783125"><ele>50.00000000000001</ele><time>2026-05-01T12:00:48.562Z</time></trkpt><trkpt lat="43.7639719" lon="11.2782025"><ele>50.0</ele><time>2026-05-01T12:00:50.561Z</time></trkpt><trkpt lat="43.7639792" lon="11.2780941"><ele>50.0</ele><time>2026-05-01T12:00:52.561Z</time></trkpt><trkpt lat="43.7639894" lon="11.277992"><ele>50.0</ele><time>2026-05-01T12:00:54.561Z</time></trkpt><trkpt lat="43.763995" lon="11.2778969"><ele>50.00000000000001</ele><time>2026-05-01T12:00:56.561Z</time></trkpt><trkpt lat="43.7640035" lon="11.2777975"><ele>50.0</ele><time>2026-05-01T12:00:58.562Z</time></trkpt><trkpt lat="43.7640094" lon="11.2776926"><ele>49.833333333333336</ele><time>2026-05-01T12:01:00.562Z</time></trkpt><trkpt lat="43.7640133" lon="11.2775864"><ele>49.66666666666667</ele><time>2026-05-01T12:01:02.562Z</time></trkpt><trkpt lat="43.7640212" lon="11.2774785"><ele>49.5</ele><time>2026-05-01T12:01:04.562Z</time></trkpt><trkpt lat="43.7640266" lon="11.2773691"><ele>49.33333333333333</ele><time>2026-05-01T12:01:06.561Z</time></trkpt><trkpt lat="43.7640307" lon="11.2772589"><ele>49.166666666666664</ele><time>2026-05-01T12:01:08.563Z</time></trkpt><trkpt lat="43.7640336" lon="11.2771514"><ele>49.0</ele><time>2026-05-01T12:01:10.562Z</time></trkpt><trkpt lat="43.7640335" lon="11.2770444"><ele>48.99999999999999</ele><time>2026-05-01T12:01:12.561Z</time></trkpt><trkpt lat="43.764039" lon="11.276936"><ele>49.0</ele><time>2026-05-01T12:01:14.561Z</time></trkpt><trkpt lat="43.7640536" lon="11.2768407"><ele>49.0</ele><time>2026-05-01T12:01:16.563Z</time></trkpt><trkpt lat="43.7640645" lon="11.2767201"><ele>49.0</ele><time>2026-05-01T12:01:19.56Z</time></trkpt><trkpt lat="43.7640642" lon="11.2766209"><ele>48.99999999999999</ele><time>2026-05-01T12:01:21.561Z</time></trkpt><trkpt lat="43.7640618" lon="11.2765218"><ele>49.0</ele><time>2026-05-01T12:01:23.562Z</time></trkpt><trkpt lat="43.7640542" lon="11.2764226"><ele>48.99999999999999</ele><time>2026-05-01T12:01:25.562Z</time></trkpt><trkpt lat="43.7640625" lon="11.2763165"><ele>49.0</ele><time>2026-05-01T12:01:27.563Z</time></trkpt><trkpt lat="43.7640734" lon="11.2761982"><ele>49.0</ele><time>2026-05-01T12:01:29.561Z</time></trkpt><trkpt lat="43.7640789" lon="11.276077"><ele>49.0</ele><time>2026-05-01T12:01:31.56Z</time></trkpt><trkpt lat="43.7640778" lon="11.2759681"><ele>48.99999999999999</ele><time>2026-05-01T12:01:33.562Z</time></trkpt><trkpt lat="43.7640811" lon="11.2758711"><ele>49.0</ele><time>2026-05-01T12:01:35.56Z</time></trkpt><trkpt lat="43.7640845" lon="11.2757681"><ele>48.99999999999999</ele><time>2026-05-01T12:01:37.562Z</time></trkpt><trkpt lat="43.7640856" lon="11.2756766"><ele>49.0</ele><time>2026-05-01T12:01:39.562Z</time></trkpt><trkpt lat="43.764084" lon="11.2755802"><ele>49.0</ele><time>2026-05-01T12:01:41.561Z</time></trkpt><trkpt lat="43.764084" lon="11.2754474"><ele>49.0</ele><time>2026-05-01T12:01:44.561Z</time></trkpt><trkpt lat="43.764082" lon="11.2753528"><ele>48.99999999999999</ele><time>2026-05-01T12:01:46.562Z</time></trkpt><trkpt lat="43.7640824" lon="11.2752474"><ele>49.0</ele><time>2026-05-01T12:01:48.563Z</time></trkpt><trkpt lat="43.7640834" lon="11.2751311"><ele>49.166666666666664</ele><time>2026-05-01T12:01:50.561Z</time></trkpt><trkpt lat="43.764075" lon="11.2750212"><ele>49.33333333333333</ele><time>2026-05-01T12:01:52.559Z</time></trkpt><trkpt lat="43.7640726" lon="11.2749315"><ele>49.5</ele><time>2026-05-01T12:01:54.562Z</time></trkpt><trkpt lat="43.7640608" lon="11.2748306"><ele>49.66666666666667</ele><time>2026-05-01T12:01:56.56Z</time></trkpt><trkpt lat="43.7640496" lon="11.2747222"><ele>49.833333333333336</ele><time>2026-05-01T12:01:58.561Z</time></trkpt><trkpt lat="43.7640411" lon="11.27461"><ele>50.0</ele><time>2026-05-01T12:02:00.559Z</time></trkpt><trkpt lat="43.7640347" lon="11.274501"><ele>50.333333333333336</ele><time>2026-05-01T12:02:02.561Z</time></trkpt><trkpt lat="43.7640382" lon="11.2743895"><ele>50.66666666666667</ele><time>2026-05-01T12:02:04.561Z</time></trkpt><trkpt lat="43.7640379" lon="11.2742818"><ele>51.0</ele><time>2026-05-01T12:02:06.561Z</time></trkpt><trkpt lat="43.7640352" lon="11.2741777"><ele>51.33333333333333</ele><time>2026-05-01T12:02:08.56Z</time></trkpt><trkpt lat="43.7640375" lon="11.2740768"><ele>51.666666666666664</ele><time>2026-05-01T12:02:10.561Z</time></trkpt><trkpt lat="43.7640394" lon="11.2739757"><ele>52.0</ele><time>2026-05-01T12:02:12.562Z</time></trkpt><trkpt lat="43.764043" lon="11.2738755"><ele>52.285714285714285</ele><time>2026-05-01T12:02:14.561Z</time></trkpt><trkpt lat="43.7640454" lon="11.2737828"><ele>52.57142857142858</ele><time>2026-05-01T12:02:16.562Z</time></trkpt><trkpt lat="43.764045" lon="11.273687"><ele>52.85714285714286</ele><time>2026-05-01T12:02:18.561Z</time></trkpt><trkpt lat="43.7640411" lon="11.2735917"><ele>53.14285714285714</ele><time>2026-05-01T12:02:20.561Z</time></trkpt><trkpt lat="43.7640414" lon="11.2734945"><ele>53.42857142857143</ele><time>2026-05-01T12:02:22.561Z</time></trkpt><trkpt lat="43.764041" lon="11.2733928"><ele>53.714285714285715</ele><time>2026-05-01T12:02:24.559Z</time></trkpt><trkpt lat="43.7640438" lon="11.2732886"><ele>54.0</ele><time>2026-05-01T12:02:26.561Z</time></trkpt><trkpt lat="43.7640466" lon="11.2731758"><ele>53.857142857142854</ele><time>2026-05-01T12:02:28.56Z</time></trkpt><trkpt lat="43.7640486" lon="11.2730676"><ele>53.71428571428571</ele><time>2026-05-01T12:02:30.561Z</time></trkpt><trkpt lat="43.7640496" lon="11.2729711"><ele>53.57142857142857</ele><time>2026-05-01T12:02:32.56Z</time></trkpt><trkpt lat="43.7640479" lon="11.2728833"><ele>53.42857142857143</ele><time>2026-05-01T12:02:34.561Z</time></trkpt><trkpt lat="43.7640461" lon="11.2727911"><ele>53.285714285714285</ele><time>2026-05-01T12:02:36.56Z</time></trkpt><trkpt lat="43.7640406" lon="11.272687"><ele>53.142857142857146</ele><time>2026-05-01T12:02:38.56Z</time></trkpt><trkpt lat="43.7640335" lon="11.2725832"><ele>53.0</ele><time>2026-05-01T12:02:40.562Z</time></trkpt><trkpt lat="43.7640276" lon="11.2724834"><ele>53.00000000000001</ele><time>2026-05-01T12:02:42.561Z</time></trkpt><trkpt lat="43.764028" lon="11.2723853"><ele>53.0</ele><time>2026-05-01T12:02:44.561Z</time></trkpt><trkpt lat="43.7640367" lon="11.2722854"><ele>53.0</ele><time>2026-05-01T12:02:46.561Z</time></trkpt><trkpt lat="43.7640431" lon="11.2721855"><ele>53.0</ele><time>2026-05-01T12:02:48.562Z</time></trkpt><trkpt lat="43.7640502" lon="11.2720537"><ele>53.00000000000001</ele><time>2026-05-01T12:02:51.56Z</time></trkpt><trkpt lat="43.7640606" lon="11.2719603"><ele>53.0</ele><time>2026-05-01T12:02:53.562Z</time></trkpt><trkpt lat="43.7640686" lon="11.2718562"><ele>52.50000000000001</ele><time>2026-05-01T12:02:55.561Z</time></trkpt><trkpt lat="43.7640845" lon="11.2717556"><ele>52.0</ele><time>2026-05-01T12:02:57.56Z</time></trkpt><trkpt lat="43.7640976" lon="11.2716679"><ele>51.5</ele><time>2026-05-01T12:02:59.562Z</time></trkpt><trkpt lat="43.7640346" lon="11.271595"><ele>51.0</ele><time>2026-05-01T12:03:02.561Z</time></trkpt><trkpt lat="43.7639556" lon="11.2715692"><ele>50.50000000000001</ele><time>2026-05-01T12:03:05.56Z</time></trkpt><trkpt lat="43.7639529" lon="11.2714524"><ele>50.0</ele><time>2026-05-01T12:03:08.561Z</time></trkpt><trkpt lat="43.7639541" lon="11.2713649"><ele>49.833333333333336</ele><time>2026-05-01T12:03:10.561Z</time></trkpt><trkpt lat="43.7639624" lon="11.2712747"><ele>49.66666666666667</ele><time>2026-05-01T12:03:12.56Z</time></trkpt><trkpt lat="43.7639977" lon="11.2711549"><ele>49.5</ele><time>2026-05-01T12:03:15.562Z</time></trkpt><trkpt lat="43.7640414" lon="11.2710578"><ele>49.33333333333333</ele><time>2026-05-01T12:03:18.561Z</time></trkpt><trkpt lat="43.7640687" lon="11.2709419"><ele>49.166666666666664</ele><time>2026-05-01T12:03:22.561Z</time></trkpt><trkpt lat="43.7640781" lon="11.2708386"><ele>49.0</ele><time>2026-05-01T12:03:26.561Z</time></trkpt><trkpt lat="43.764103" lon="11.2707531"><ele>49.0</ele><time>2026-05-01T12:03:29.561Z</time></trkpt><trkpt lat="43.7641474" lon="11.270642"><ele>49.0</ele><time>2026-05-01T12:03:32.56Z</time></trkpt><trkpt lat="43.7641723" lon="11.2705582"><ele>49.0</ele><time>2026-05-01T12:03:34.561Z</time></trkpt><trkpt lat="43.7642052" lon="11.2704794"><ele>49.0</ele><time>2026-05-01T12:03:36.56Z</time></trkpt><trkpt lat="43.7642345" lon="11.2703947"><ele>49.0</ele><time>2026-05-01T12:03:38.56Z</time></trkpt><trkpt lat="43.7642557" lon="11.2702963"><ele>49.0</ele><time>2026-05-01T12:03:40.561Z</time></trkpt><trkpt lat="43.7642789" lon="11.270191"><ele>49.0</ele><time>2026-05-01T12:03:42.561Z</time></trkpt><trkpt lat="43.7642992" lon="11.2700858"><ele>49.166666666666664</ele><time>2026-05-01T12:03:45.561Z</time></trkpt><trkpt lat="43.7643166" lon="11.2699935"><ele>49.33333333333333</ele><time>2026-05-01T12:03:48.56Z</time></trkpt><trkpt lat="43.7643268" lon="11.2698779"><ele>49.5</ele><time>2026-05-01T12:03:51.561Z</time></trkpt><trkpt lat="43.7643321" lon="11.2697714"><ele>49.66666666666667</ele><time>2026-05-01T12:03:53.56Z</time></trkpt><trkpt lat="43.7643384" lon="11.2696524"><ele>49.833333333333336</ele><time>2026-05-01T12:03:55.56Z</time></trkpt><trkpt lat="43.7643515" lon="11.269539"><ele>50.0</ele><time>2026-05-01T12:03:57.56Z</time></trkpt><trkpt lat="43.7643686" lon="11.2694218"><ele>50.00000000000001</ele><time>2026-05-01T12:03:59.561Z</time></trkpt><trkpt lat="43.7643853" lon="11.2693008"><ele>50.0</ele><time>2026-05-01T12:04:01.561Z</time></trkpt><trkpt lat="43.7643962" lon="11.2691842"><ele>50.0</ele><time>2026-05-01T12:04:03.56Z</time></trkpt><trkpt lat="43.7644204" lon="11.2690766"><ele>50.0</ele><time>2026-05-01T12:04:05.56Z</time></trkpt><trkpt lat="43.7644322" lon="11.2689709"><ele>50.00000000000001</ele><time>2026-05-01T12:04:07.56Z</time></trkpt><trkpt lat="43.7644437" lon="11.2688622"><ele>50.0</ele><time>2026-05-01T12:04:09.56Z</time></trkpt><trkpt lat="43.7644435" lon="11.2687716"><ele>49.833333333333336</ele><time>2026-05-01T12:04:11.561Z</time></trkpt><trkpt lat="43.7644629" lon="11.2686591"><ele>49.66666666666667</ele><time>2026-05-01T12:04:13.56Z</time></trkpt><trkpt lat="43.7644741" lon="11.2685502"><ele>49.5</ele><time>2026-05-01T12:04:15.561Z</time></trkpt><trkpt lat="43.7644903" lon="11.2684395"><ele>49.33333333333333</ele><time>2026-05-01T12:04:17.561Z</time></trkpt><trkpt lat="43.764507" lon="11.2683287"><ele>49.166666666666664</ele><time>2026-05-01T12:04:19.561Z</time></trkpt><trkpt lat="43.7645266" lon="11.2682153"><ele>49.0</ele><time>2026-05-01T12:04:21.56Z</time></trkpt><trkpt lat="43.7645374" lon="11.2681125"><ele>49.166666666666664</ele><time>2026-05-01T12:04:23.561Z</time></trkpt><trkpt lat="43.7645494" lon="11.2680057"><ele>49.33333333333333</ele><time>2026-05-01T12:04:25.559Z</time></trkpt><trkpt lat="43.764563" lon="11.2678889"><ele>49.5</ele><time>2026-05-01T12:04:27.561Z</time></trkpt><trkpt lat="43.7645714" lon="11.267772"><ele>49.66666666666667</ele><time>2026-05-01T12:04:29.561Z</time></trkpt><trkpt lat="43.7645791" lon="11.267658"><ele>49.833333333333336</ele><time>2026-05-01T12:04:31.561Z</time></trkpt><trkpt lat="43.7645848" lon="11.2675394"><ele>50.0</ele><time>2026-05-01T12:04:33.56Z</time></trkpt><trkpt lat="43.7645881" lon="11.2674305"><ele>50.00000000000001</ele><time>2026-05-01T12:04:35.56Z</time></trkpt><trkpt lat="43.7646053" lon="11.2673245"><ele>50.0</ele><time>2026-05-01T12:04:37.561Z</time></trkpt><trkpt lat="43.7646092" lon="11.267215"><ele>50.0</ele><time>2026-05-01T12:04:39.56Z</time></trkpt><trkpt lat="43.7646126" lon="11.2671042"><ele>50.0</ele><time>2026-05-01T12:04:41.561Z</time></trkpt><trkpt lat="43.764619" lon="11.2669939"><ele>50.00000000000001</ele><time>2026-05-01T12:04:43.561Z</time></trkpt><trkpt lat="43.7646321" lon="11.2668744"><ele>50.0</ele><time>2026-05-01T12:04:45.559Z</time></trkpt><trkpt lat="43.7646453" lon="11.2667586"><ele>50.00000000000001</ele><time>2026-05-01T12:04:47.559Z</time></trkpt><trkpt lat="43.764658" lon="11.2666483"><ele>50.0</ele><time>2026-05-01T12:04:49.56Z</time></trkpt><trkpt lat="43.7646594" lon="11.2665304"><ele>50.0</ele><time>2026-05-01T12:04:51.56Z</time></trkpt><trkpt lat="43.7646656" lon="11.2664087"><ele>50.0</ele><time>2026-05-01T12:04:53.56Z</time></trkpt><trkpt lat="43.7646774" lon="11.2662957"><ele>50.00000000000001</ele><time>2026-05-01T12:04:55.56Z</time></trkpt><trkpt lat="43.7646924" lon="11.2661857"><ele>50.0</ele><time>2026-05-01T12:04:57.561Z</time></trkpt><trkpt lat="43.7647055" lon="11.2660735"><ele>50.00000000000001</ele><time>2026-05-01T12:04:59.561Z</time></trkpt><trkpt lat="43.7647225" lon="11.2659614"><ele>50.0</ele><time>2026-05-01T12:05:01.561Z</time></trkpt><trkpt lat="43.7647348" lon="11.2658473"><ele>50.0</ele><time>2026-05-01T12:05:03.561Z</time></trkpt><trkpt lat="43.7647497" lon="11.2657318"><ele>50.0</ele><time>2026-05-01T12:05:05.561Z</time></trkpt><trkpt lat="43.7647626" lon="11.2656125"><ele>50.00000000000001</ele><time>2026-05-01T12:05:07.56Z</time></trkpt><trkpt lat="43.764778" lon="11.2654967"><ele>50.0</ele><time>2026-05-01T12:05:09.56Z</time></trkpt><trkpt lat="43.7647956" lon="11.2653868"><ele>50.50000000000001</ele><time>2026-05-01T12:05:11.56Z</time></trkpt><trkpt lat="43.7648131" lon="11.265281"><ele>51.0</ele><time>2026-05-01T12:05:13.559Z</time></trkpt><trkpt lat="43.7648316" lon="11.2651737"><ele>51.5</ele><time>2026-05-01T12:05:15.561Z</time></trkpt><trkpt lat="43.7648579" lon="11.2650623"><ele>52.0</ele><time>2026-05-01T12:05:17.561Z</time></trkpt><trkpt lat="43.7648779" lon="11.2649534"><ele>52.50000000000001</ele><time>2026-05-01T12:05:19.561Z</time></trkpt><trkpt lat="43.764891" lon="11.2648406"><ele>53.0</ele><time>2026-05-01T12:05:21.561Z</time></trkpt><trkpt lat="43.7649079" lon="11.2647229"><ele>53.0</ele><time>2026-05-01T12:05:23.56Z</time></trkpt><trkpt lat="43.764919" lon="11.2646154"><ele>53.0</ele><time>2026-05-01T12:05:25.56Z</time></trkpt><trkpt lat="43.7649288" lon="11.2645212"><ele>53.0</ele><time>2026-05-01T12:05:27.561Z</time></trkpt><trkpt lat="43.7649397" lon="11.2644333"><ele>53.0</ele><time>2026-05-01T12:05:29.561Z</time></trkpt><trkpt lat="43.7649531" lon="11.2643383"><ele>53.0</ele><time>2026-05-01T12:05:31.56Z</time></trkpt><trkpt lat="43.7649668" lon="11.2642327"><ele>53.0</ele><time>2026-05-01T12:05:33.56Z</time></trkpt><trkpt lat="43.7649759" lon="11.2641196"><ele>53.0</ele><time>2026-05-01T12:05:35.56Z</time></trkpt><trkpt lat="43.7649836" lon="11.2640076"><ele>52.50000000000001</ele><time>2026-05-01T12:05:37.56Z</time></trkpt><trkpt lat="43.7649918" lon="11.2638999"><ele>52.0</ele><time>2026-05-01T12:05:39.561Z</time></trkpt><trkpt lat="43.7650063" lon="11.2637989"><ele>51.5</ele><time>2026-05-01T12:05:41.561Z</time></trkpt><trkpt lat="43.7650163" lon="11.2636997"><ele>51.0</ele><time>2026-05-01T12:05:43.56Z</time></trkpt><trkpt lat="43.7650247" lon="11.2635998"><ele>50.50000000000001</ele><time>2026-05-01T12:05:45.56Z</time></trkpt><trkpt lat="43.7650282" lon="11.2634894"><ele>50.0</ele><time>2026-05-01T12:05:47.56Z</time></trkpt><trkpt lat="43.7650369" lon="11.2633805"><ele>50.00000000000001</ele><time>2026-05-01T12:05:49.56Z</time></trkpt><trkpt lat="43.7650468" lon="11.2632664"><ele>50.0</ele><time>2026-05-01T12:05:51.561Z</time></trkpt><trkpt lat="43.7650557" lon="11.2631577"><ele>50.0</ele><time>2026-05-01T12:05:53.558Z</time></trkpt><trkpt lat="43.7650654" lon="11.2630578"><ele>50.0</ele><time>2026-05-01T12:05:55.56Z</time></trkpt><trkpt lat="43.7650739" lon="11.2629579"><ele>50.00000000000001</ele><time>2026-05-01T12:05:57.559Z</time></trkpt><trkpt lat="43.7650846" lon="11.2628609"><ele>50.0</ele><time>2026-05-01T12:05:59.561Z</time></trkpt><trkpt lat="43.7650978" lon="11.262753"><ele>50.833333333333336</ele><time>2026-05-01T12:06:01.561Z</time></trkpt><trkpt lat="43.7651072" lon="11.262644"><ele>51.66666666666667</ele><time>2026-05-01T12:06:03.561Z</time></trkpt><trkpt lat="43.7651122" lon="11.2625319"><ele>52.5</ele><time>2026-05-01T12:06:05.559Z</time></trkpt><trkpt lat="43.7651228" lon="11.2624195"><ele>53.33333333333333</ele><time>2026-05-01T12:06:07.561Z</time></trkpt><trkpt lat="43.7651338" lon="11.2623105"><ele>54.166666666666664</ele><time>2026-05-01T12:06:09.559Z</time></trkpt><trkpt lat="43.7651408" lon="11.2622054"><ele>55.0</ele><time>2026-05-01T12:06:11.56Z</time></trkpt><trkpt lat="43.7651453" lon="11.262106"><ele>55.99999999999999</ele><time>2026-05-01T12:06:13.559Z</time></trkpt><trkpt lat="43.7651559" lon="11.2620087"><ele>57.0</ele><time>2026-05-01T12:06:15.559Z</time></trkpt><trkpt lat="43.7651668" lon="11.2619061"><ele>58.0</ele><time>2026-05-01T12:06:17.56Z</time></trkpt><trkpt lat="43.7651758" lon="11.2617931"><ele>59.0</ele><time>2026-05-01T12:06:19.559Z</time></trkpt><trkpt lat="43.7651837" lon="11.2616791"><ele>59.99999999999999</ele><time>2026-05-01T12:06:21.561Z</time></trkpt><trkpt lat="43.7651944" lon="11.2615714"><ele>61.0</ele><time>2026-05-01T12:06:23.56Z</time></trkpt><trkpt lat="43.7652048" lon="11.2614726"><ele>58.83333333333333</ele><time>2026-05-01T12:06:25.56Z</time></trkpt><trkpt lat="43.7652168" lon="11.2613756"><ele>56.666666666666664</ele><time>2026-05-01T12:06:27.559Z</time></trkpt><trkpt lat="43.7652282" lon="11.2612774"><ele>54.5</ele><time>2026-05-01T12:06:29.561Z</time></trkpt><trkpt lat="43.765234" lon="11.2611748"><ele>52.33333333333333</ele><time>2026-05-01T12:06:31.56Z</time></trkpt><trkpt lat="43.7652439" lon="11.2610712"><ele>50.166666666666664</ele><time>2026-05-01T12:06:33.561Z</time></trkpt><trkpt lat="43.7652533" lon="11.2609626"><ele>48.0</ele><time>2026-05-01T12:06:35.561Z</time></trkpt><trkpt lat="43.765262" lon="11.2608503"><ele>48.0</ele><time>2026-05-01T12:06:37.56Z</time></trkpt><trkpt lat="43.7652798" lon="11.2607407"><ele>48.0</ele><time>2026-05-01T12:06:39.56Z</time></trkpt><trkpt lat="43.7652946" lon="11.2606324"><ele>48.0</ele><time>2026-05-01T12:06:41.559Z</time></trkpt><trkpt lat="43.7653094" lon="11.2605233"><ele>48.0</ele><time>2026-05-01T12:06:43.56Z</time></trkpt><trkpt lat="43.7653227" lon="11.2604153"><ele>48.0</ele><time>2026-05-01T12:06:45.56Z</time></trkpt><trkpt lat="43.765337" lon="11.2603089"><ele>48.0</ele><time>2026-05-01T12:06:47.559Z</time></trkpt><trkpt lat="43.7653502" lon="11.2602068"><ele>47.57142857142857</ele><time>2026-05-01T12:06:49.56Z</time></trkpt><trkpt lat="43.7653588" lon="11.260107"><ele>47.14285714285714</ele><time>2026-05-01T12:06:51.559Z</time></trkpt><trkpt lat="43.7653677" lon="11.2600047"><ele>46.71428571428571</ele><time>2026-05-01T12:06:53.56Z</time></trkpt><trkpt lat="43.7653803" lon="11.2599031"><ele>46.285714285714285</ele><time>2026-05-01T12:06:55.561Z</time></trkpt><trkpt lat="43.7653893" lon="11.2598025"><ele>45.85714285714286</ele><time>2026-05-01T12:06:57.559Z</time></trkpt><trkpt lat="43.7653918" lon="11.2596991"><ele>45.42857142857142</ele><time>2026-05-01T12:06:59.56Z</time></trkpt><trkpt lat="43.7653985" lon="11.2596035"><ele>45.0</ele><time>2026-05-01T12:07:01.559Z</time></trkpt><trkpt lat="43.7654057" lon="11.2595105"><ele>44.857142857142854</ele><time>2026-05-01T12:07:03.56Z</time></trkpt><trkpt lat="43.7654147" lon="11.2594163"><ele>44.714285714285715</ele><time>2026-05-01T12:07:05.56Z</time></trkpt><trkpt lat="43.7654277" lon="11.2593254"><ele>44.57142857142857</ele><time>2026-05-01T12:07:07.561Z</time></trkpt><trkpt lat="43.7654408" lon="11.2592341"><ele>44.42857142857143</ele><time>2026-05-01T12:07:09.56Z</time></trkpt><trkpt lat="43.7654483" lon="11.2591462"><ele>44.285714285714285</ele><time>2026-05-01T12:07:11.561Z</time></trkpt><trkpt lat="43.7654429" lon="11.2590192"><ele>44.142857142857146</ele><time>2026-05-01T12:07:14.56Z</time></trkpt><trkpt lat="43.7654558" lon="11.2589159"><ele>44.0</ele><time>2026-05-01T12:07:16.559Z</time></trkpt><trkpt lat="43.7654604" lon="11.2588065"><ele>44.0</ele><time>2026-05-01T12:07:18.559Z</time></trkpt><trkpt lat="43.7654603" lon="11.2586975"><ele>44.0</ele><time>2026-05-01T12:07:20.561Z</time></trkpt><trkpt lat="43.7654644" lon="11.2585997"><ele>44.0</ele><time>2026-05-01T12:07:22.56Z</time></trkpt><trkpt lat="43.7654877" lon="11.2584749"><ele>44.0</ele><time>2026-05-01T12:07:25.559Z</time></trkpt><trkpt lat="43.7655148" lon="11.2583829"><ele>44.0</ele><time>2026-05-01T12:07:27.559Z</time></trkpt><trkpt lat="43.7655453" lon="11.258284"><ele>44.0</ele><time>2026-05-01T12:07:29.559Z</time></trkpt><trkpt lat="43.7655837" lon="11.2581814"><ele>45.0</ele><time>2026-05-01T12:07:31.56Z</time></trkpt><trkpt lat="43.7656191" lon="11.2580768"><ele>46.0</ele><time>2026-05-01T12:07:33.56Z</time></trkpt><trkpt lat="43.7656484" lon="11.2579764"><ele>47.0</ele><time>2026-05-01T12:07:35.561Z</time></trkpt><trkpt lat="43.7656828" lon="11.2578798"><ele>48.0</ele><time>2026-05-01T12:07:37.561Z</time></trkpt><trkpt lat="43.7657247" lon="11.2577822"><ele>49.00000000000001</ele><time>2026-05-01T12:07:39.559Z</time></trkpt><trkpt lat="43.7657678" lon="11.2576838"><ele>50.0</ele><time>2026-05-01T12:07:41.561Z</time></trkpt><trkpt lat="43.765803" lon="11.2575937"><ele>50.00000000000001</ele><time>2026-05-01T12:07:43.56Z</time></trkpt><trkpt lat="43.7658338" lon="11.2575048"><ele>50.0</ele><time>2026-05-01T12:07:45.56Z</time></trkpt><trkpt lat="43.7658737" lon="11.2573996"><ele>50.0</ele><time>2026-05-01T12:07:47.56Z</time></trkpt><trkpt lat="43.7659147" lon="11.2572925"><ele>50.0</ele><time>2026-05-01T12:07:49.559Z</time></trkpt><trkpt lat="43.765952" lon="11.2571975"><ele>50.00000000000001</ele><time>2026-05-01T12:07:51.56Z</time></trkpt><trkpt lat="43.7659828" lon="11.2570988"><ele>50.0</ele><time>2026-05-01T12:07:53.56Z</time></trkpt><trkpt lat="43.766012" lon="11.2570059"><ele>50.333333333333336</ele><time>2026-05-01T12:07:55.56Z</time></trkpt><trkpt lat="43.7660483" lon="11.2569106"><ele>50.66666666666667</ele><time>2026-05-01T12:07:57.559Z</time></trkpt><trkpt lat="43.7660861" lon="11.2568115"><ele>51.0</ele><time>2026-05-01T12:07:59.559Z</time></trkpt><trkpt lat="43.7661224" lon="11.2567092"><ele>51.33333333333333</ele><time>2026-05-01T12:08:01.559Z</time></trkpt><trkpt lat="43.7661564" lon="11.2566126"><ele>51.666666666666664</ele><time>2026-05-01T12:08:03.558Z</time></trkpt><trkpt lat="43.7661844" lon="11.2565236"><ele>52.0</ele><time>2026-05-01T12:08:05.56Z</time></trkpt><trkpt lat="43.766213" lon="11.2564374"><ele>53.0</ele><time>2026-05-01T12:08:07.559Z</time></trkpt><trkpt lat="43.7662399" lon="11.2563571"><ele>54.0</ele><time>2026-05-01T12:08:09.56Z</time></trkpt><trkpt lat="43.7662665" lon="11.256274"><ele>55.0</ele><time>2026-05-01T12:08:11.561Z</time></trkpt><trkpt lat="43.7662949" lon="11.2561751"><ele>56.0</ele><time>2026-05-01T12:08:13.56Z</time></trkpt><trkpt lat="43.7663327" lon="11.2560609"><ele>57.0</ele><time>2026-05-01T12:08:15.558Z</time></trkpt><trkpt lat="43.7663709" lon="11.255977"><ele>58.0</ele><time>2026-05-01T12:08:17.559Z</time></trkpt><trkpt lat="43.7664044" lon="11.2558857"><ele>59.0</ele><time>2026-05-01T12:08:19.56Z</time></trkpt><trkpt lat="43.7664325" lon="11.2558001"><ele>59.0</ele><time>2026-05-01T12:08:21.559Z</time></trkpt><trkpt lat="43.7664711" lon="11.255725"><ele>59.0</ele><time>2026-05-01T12:08:23.559Z</time></trkpt><trkpt lat="43.7665056" lon="11.2556341"><ele>59.0</ele><time>2026-05-01T12:08:25.56Z</time></trkpt><trkpt lat="43.7665424" lon="11.2555431"><ele>59.0</ele><time>2026-05-01T12:08:27.559Z</time></trkpt><trkpt lat="43.7665812" lon="11.2554496"><ele>59.0</ele><time>2026-05-01T12:08:29.56Z</time></trkpt><trkpt lat="43.7666136" lon="11.255357"><ele>59.0</ele><time>2026-05-01T12:08:31.559Z</time></trkpt><trkpt lat="43.7666364" lon="11.2552715"><ele>59.0</ele><time>2026-05-01T12:08:33.559Z</time></trkpt><trkpt lat="43.7666584" lon="11.2551831"><ele>58.66666666666667</ele><time>2026-05-01T12:08:35.56Z</time></trkpt><trkpt lat="43.7666809" lon="11.2550911"><ele>58.333333333333336</ele><time>2026-05-01T12:08:37.559Z</time></trkpt><trkpt lat="43.7667055" lon="11.2549985"><ele>58.0</ele><time>2026-05-01T12:08:39.558Z</time></trkpt><trkpt lat="43.7667491" lon="11.2549056"><ele>57.66666666666667</ele><time>2026-05-01T12:08:41.56Z</time></trkpt><trkpt lat="43.7667924" lon="11.254824"><ele>57.333333333333336</ele><time>2026-05-01T12:08:43.559Z</time></trkpt><trkpt lat="43.7668362" lon="11.2547278"><ele>57.0</ele><time>2026-05-01T12:08:45.56Z</time></trkpt><trkpt lat="43.7668708" lon="11.2546311"><ele>57.0</ele><time>2026-05-01T12:08:47.558Z</time></trkpt><trkpt lat="43.766899" lon="11.2545388"><ele>56.99999999999999</ele><time>2026-05-01T12:08:49.56Z</time></trkpt><trkpt lat="43.7669125" lon="11.2544399"><ele>57.0</ele><time>2026-05-01T12:08:51.559Z</time></trkpt><trkpt lat="43.7669372" lon="11.2543363"><ele>57.0</ele><time>2026-05-01T12:08:53.56Z</time></trkpt><trkpt lat="43.7669485" lon="11.2542426"><ele>56.99999999999999</ele><time>2026-05-01T12:08:55.56Z</time></trkpt><trkpt lat="43.766954" lon="11.2541534"><ele>57.0</ele><time>2026-05-01T12:08:57.56Z</time></trkpt><trkpt lat="43.7669543" lon="11.2540647"><ele>57.0</ele><time>2026-05-01T12:08:59.56Z</time></trkpt><trkpt lat="43.7669618" lon="11.2539705"><ele>57.166666666666664</ele><time>2026-05-01T12:09:01.56Z</time></trkpt><trkpt lat="43.7669842" lon="11.2538787"><ele>57.33333333333333</ele><time>2026-05-01T12:09:03.56Z</time></trkpt><trkpt lat="43.7670192" lon="11.2538012"><ele>57.5</ele><time>2026-05-01T12:09:05.559Z</time></trkpt><trkpt lat="43.7670526" lon="11.2537266"><ele>57.666666666666664</ele><time>2026-05-01T12:09:07.558Z</time></trkpt><trkpt lat="43.7671011" lon="11.2536064"><ele>57.83333333333333</ele><time>2026-05-01T12:09:10.559Z</time></trkpt><trkpt lat="43.7671337" lon="11.2534994"><ele>58.0</ele><time>2026-05-01T12:09:12.559Z</time></trkpt><trkpt lat="43.7671639" lon="11.2533898"><ele>57.99999999999999</ele><time>2026-05-01T12:09:14.56Z</time></trkpt><trkpt lat="43.767195" lon="11.253282"><ele>58.0</ele><time>2026-05-01T12:09:16.56Z</time></trkpt><trkpt lat="43.7672348" lon="11.2531833"><ele>58.0</ele><time>2026-05-01T12:09:18.559Z</time></trkpt><trkpt lat="43.7672703" lon="11.2530903"><ele>58.0</ele><time>2026-05-01T12:09:20.56Z</time></trkpt><trkpt lat="43.7672931" lon="11.2529963"><ele>57.99999999999999</ele><time>2026-05-01T12:09:22.56Z</time></trkpt><trkpt lat="43.7672949" lon="11.252894"><ele>58.0</ele><time>2026-05-01T12:09:25.56Z</time></trkpt><trkpt lat="43.7672945" lon="11.2528006"><ele>58.666666666666664</ele><time>2026-05-01T12:09:28.559Z</time></trkpt><trkpt lat="43.767308" lon="11.2527076"><ele>59.33333333333333</ele><time>2026-05-01T12:09:30.56Z</time></trkpt><trkpt lat="43.7673291" lon="11.2526246"><ele>60.0</ele><time>2026-05-01T12:09:33.559Z</time></trkpt><trkpt lat="43.7673615" lon="11.2525381"><ele>60.66666666666667</ele><time>2026-05-01T12:09:35.56Z</time></trkpt><trkpt lat="43.7673958" lon="11.2523977"><ele>61.333333333333336</ele><time>2026-05-01T12:09:37.559Z</time></trkpt><trkpt lat="43.7674369" lon="11.2522426"><ele>62.0</ele><time>2026-05-01T12:09:38.559Z</time></trkpt><trkpt lat="43.7674412" lon="11.2521129"><ele>62.50000000000001</ele><time>2026-05-01T12:09:40.559Z</time></trkpt><trkpt lat="43.7674339" lon="11.2519863"><ele>63.0</ele><time>2026-05-01T12:09:42.56Z</time></trkpt><trkpt lat="43.7674689" lon="11.2518753"><ele>63.5</ele><time>2026-05-01T12:09:44.56Z</time></trkpt><trkpt lat="43.7674647" lon="11.2517275"><ele>64.0</ele><time>2026-05-01T12:09:47.56Z</time></trkpt><trkpt lat="43.7674555" lon="11.2516312"><ele>64.5</ele><time>2026-05-01T12:09:49.559Z</time></trkpt><trkpt lat="43.7674624" lon="11.2515332"><ele>65.0</ele><time>2026-05-01T12:09:52.56Z</time></trkpt><trkpt lat="43.7675352" lon="11.2515112"><ele>65.0</ele><time>2026-05-01T12:09:58.56Z</time></trkpt><trkpt lat="43.7676292" lon="11.2515359"><ele>65.0</ele><time>2026-05-01T12:10:01.56Z</time></trkpt><trkpt lat="43.7677031" lon="11.2515292"><ele>65.0</ele><time>2026-05-01T12:10:03.56Z</time></trkpt><trkpt lat="43.7677744" lon="11.2514714"><ele>65.0</ele><time>2026-05-01T12:10:05.559Z</time></trkpt><trkpt lat="43.7678156" lon="11.2513903"><ele>65.0</ele><time>2026-05-01T12:10:07.558Z</time></trkpt><trkpt lat="43.7678455" lon="11.2512943"><ele>65.0</ele><time>2026-05-01T12:10:09.56Z</time></trkpt><trkpt lat="43.767872" lon="11.2512019"><ele>63.66666666666667</ele><time>2026-05-01T12:10:11.559Z</time></trkpt><trkpt lat="43.7678975" lon="11.2511055"><ele>62.333333333333336</ele><time>2026-05-01T12:10:13.56Z</time></trkpt><trkpt lat="43.7679303" lon="11.2509965"><ele>61.0</ele><time>2026-05-01T12:10:15.56Z</time></trkpt><trkpt lat="43.7679619" lon="11.2508889"><ele>59.66666666666667</ele><time>2026-05-01T12:10:17.56Z</time></trkpt><trkpt lat="43.7679822" lon="11.2507833"><ele>58.333333333333336</ele><time>2026-05-01T12:10:19.56Z</time></trkpt><trkpt lat="43.7680056" lon="11.2506693"><ele>57.0</ele><time>2026-05-01T12:10:21.56Z</time></trkpt><trkpt lat="43.7680323" lon="11.2505665"><ele>56.857142857142854</ele><time>2026-05-01T12:10:23.559Z</time></trkpt><trkpt lat="43.7680522" lon="11.2504619"><ele>56.71428571428571</ele><time>2026-05-01T12:10:25.56Z</time></trkpt><trkpt lat="43.7680709" lon="11.2503759"><ele>56.57142857142857</ele><time>2026-05-01T12:10:27.56Z</time></trkpt><trkpt lat="43.7680861" lon="11.2502809"><ele>56.42857142857143</ele><time>2026-05-01T12:10:29.559Z</time></trkpt><trkpt lat="43.7680975" lon="11.2501831"><ele>56.285714285714285</ele><time>2026-05-01T12:10:31.559Z</time></trkpt><trkpt lat="43.7681066" lon="11.2500864"><ele>56.14285714285714</ele><time>2026-05-01T12:10:33.56Z</time></trkpt><trkpt lat="43.7681185" lon="11.2499711"><ele>56.0</ele><time>2026-05-01T12:10:36.559Z</time></trkpt><trkpt lat="43.7681216" lon="11.2498801"><ele>56.00000000000001</ele><time>2026-05-01T12:11:28.558Z</time></trkpt><trkpt lat="43.7682148" lon="11.2498502"><ele>56.0</ele><time>2026-05-01T12:11:32.558Z</time></trkpt><trkpt lat="43.7682973" lon="11.2498916"><ele>56.0</ele><time>2026-05-01T12:11:35.559Z</time></trkpt><trkpt lat="43.7683766" lon="11.2499296"><ele>56.0</ele><time>2026-05-01T12:11:37.558Z</time></trkpt><trkpt lat="43.7684555" lon="11.2499565"><ele>56.00000000000001</ele><time>2026-05-01T12:11:39.558Z</time></trkpt><trkpt lat="43.7685214" lon="11.249961"><ele>56.0</ele><time>2026-05-01T12:11:41.557Z</time></trkpt><trkpt lat="43.7686101" lon="11.2499857"><ele>55.0</ele><time>2026-05-01T12:11:44.558Z</time></trkpt><trkpt lat="43.7686923" lon="11.250049"><ele>54.0</ele><time>2026-05-01T12:11:47.559Z</time></trkpt><trkpt lat="43.7687499" lon="11.2500979"><ele>53.0</ele><time>2026-05-01T12:11:49.558Z</time></trkpt><trkpt lat="43.7688089" lon="11.2501525"><ele>52.0</ele><time>2026-05-01T12:11:51.558Z</time></trkpt><trkpt lat="43.7688708" lon="11.2501994"><ele>51.0</ele><time>2026-05-01T12:11:53.558Z</time></trkpt><trkpt lat="43.768933" lon="11.2502424"><ele>50.0</ele><time>2026-05-01T12:11:55.559Z</time></trkpt><trkpt lat="43.7689971" lon="11.2502831"><ele>49.0</ele><time>2026-05-01T12:11:57.559Z</time></trkpt><trkpt lat="43.769061" lon="11.2503268"><ele>48.99999999999999</ele><time>2026-05-01T12:11:59.56Z</time></trkpt><trkpt lat="43.7691416" lon="11.2503819"><ele>49.0</ele><time>2026-05-01T12:12:02.558Z</time></trkpt><trkpt lat="43.7692105" lon="11.2504289"><ele>49.0</ele><time>2026-05-01T12:12:06.559Z</time></trkpt><trkpt lat="43.7692775" lon="11.25048"><ele>49.0</ele><time>2026-05-01T12:12:08.558Z</time></trkpt><trkpt lat="43.769345" lon="11.2505262"><ele>48.99999999999999</ele><time>2026-05-01T12:12:10.558Z</time></trkpt><trkpt lat="43.7694086" lon="11.2505646"><ele>49.0</ele><time>2026-05-01T12:12:14.56Z</time></trkpt><trkpt lat="43.7694856" lon="11.2505964"><ele>49.6</ele><time>2026-05-01T12:12:17.559Z</time></trkpt><trkpt lat="43.7695632" lon="11.2504979"><ele>50.2</ele><time>2026-05-01T12:12:20.559Z</time></trkpt><trkpt lat="43.7696065" lon="11.2504281"><ele>50.800000000000004</ele><time>2026-05-01T12:12:21.56Z</time></trkpt><trkpt lat="43.7696568" lon="11.2503067"><ele>51.400000000000006</ele><time>2026-05-01T12:12:23.558Z</time></trkpt><trkpt lat="43.7697216" lon="11.2501797"><ele>52.0</ele><time>2026-05-01T12:12:25.559Z</time></trkpt><trkpt lat="43.7697851" lon="11.2500552"><ele>52.0</ele><time>2026-05-01T12:12:27.558Z</time></trkpt><trkpt lat="43.7698485" lon="11.2499368"><ele>52.0</ele><time>2026-05-01T12:12:29.559Z</time></trkpt><trkpt lat="43.7698985" lon="11.2498195"><ele>52.0</ele><time>2026-05-01T12:12:31.56Z</time></trkpt><trkpt lat="43.7699571" lon="11.2497235"><ele>52.0</ele><time>2026-05-01T12:12:33.56Z</time></trkpt><trkpt lat="43.7700082" lon="11.2496249"><ele>52.0</ele><time>2026-05-01T12:12:35.56Z</time></trkpt><trkpt lat="43.7700586" lon="11.249531"><ele>52.2</ele><time>2026-05-01T12:12:37.558Z</time></trkpt><trkpt lat="43.7700976" lon="11.2494206"><ele>52.400000000000006</ele><time>2026-05-01T12:12:39.558Z</time></trkpt><trkpt lat="43.7701484" lon="11.2493112"><ele>52.599999999999994</ele><time>2026-05-01T12:12:41.558Z</time></trkpt><trkpt lat="43.7701962" lon="11.2492114"><ele>52.8</ele><time>2026-05-01T12:12:43.557Z</time></trkpt><trkpt lat="43.7702469" lon="11.2491009"><ele>53.0</ele><time>2026-05-01T12:12:45.559Z</time></trkpt><trkpt lat="43.7702936" lon="11.2489888"><ele>53.16666666666667</ele><time>2026-05-01T12:12:47.558Z</time></trkpt><trkpt lat="43.7703343" lon="11.2488731"><ele>53.333333333333336</ele><time>2026-05-01T12:12:49.559Z</time></trkpt><trkpt lat="43.7703804" lon="11.2487676"><ele>53.5</ele><time>2026-05-01T12:12:51.559Z</time></trkpt><trkpt lat="43.7704243" lon="11.2486638"><ele>53.66666666666667</ele><time>2026-05-01T12:12:53.559Z</time></trkpt><trkpt lat="43.7704674" lon="11.2485864"><ele>53.833333333333336</ele><time>2026-05-01T12:12:55.557Z</time></trkpt><trkpt lat="43.7705193" lon="11.2484959"><ele>54.0</ele><time>2026-05-01T12:12:57.559Z</time></trkpt><trkpt lat="43.7705605" lon="11.2483942"><ele>54.0</ele><time>2026-05-01T12:12:59.559Z</time></trkpt><trkpt lat="43.7706039" lon="11.2482957"><ele>54.0</ele><time>2026-05-01T12:13:01.558Z</time></trkpt><trkpt lat="43.7706449" lon="11.2482045"><ele>54.0</ele><time>2026-05-01T12:13:03.559Z</time></trkpt><trkpt lat="43.7706837" lon="11.2481169"><ele>54.0</ele><time>2026-05-01T12:13:05.558Z</time></trkpt><trkpt lat="43.7707258" lon="11.2480281"><ele>54.0</ele><time>2026-05-01T12:13:07.559Z</time></trkpt><trkpt lat="43.7707662" lon="11.2479429"><ele>54.0</ele><time>2026-05-01T12:13:09.559Z</time></trkpt><trkpt lat="43.770811" lon="11.2478436"><ele>53.800000000000004</ele><time>2026-05-01T12:13:12.558Z</time></trkpt><trkpt lat="43.7708615" lon="11.2477319"><ele>53.60000000000001</ele><time>2026-05-01T12:13:15.558Z</time></trkpt><trkpt lat="43.7708944" lon="11.2476425"><ele>53.4</ele><time>2026-05-01T12:13:18.56Z</time></trkpt><trkpt lat="43.7709465" lon="11.2475415"><ele>53.2</ele><time>2026-05-01T12:13:21.558Z</time></trkpt><trkpt lat="43.7710064" lon="11.247426"><ele>53.0</ele><time>2026-05-01T12:13:23.558Z</time></trkpt><trkpt lat="43.7710595" lon="11.2473091"><ele>53.8</ele><time>2026-05-01T12:13:25.558Z</time></trkpt><trkpt lat="43.7711148" lon="11.2472096"><ele>54.599999999999994</ele><time>2026-05-01T12:13:27.558Z</time></trkpt><trkpt lat="43.7711606" lon="11.2471079"><ele>55.400000000000006</ele><time>2026-05-01T12:13:29.559Z</time></trkpt><trkpt lat="43.771226" lon="11.2469988"><ele>56.2</ele><time>2026-05-01T12:13:31.559Z</time></trkpt><trkpt lat="43.7712833" lon="11.2468732"><ele>57.0</ele><time>2026-05-01T12:13:33.559Z</time></trkpt><trkpt lat="43.7713395" lon="11.2467523"><ele>57.0</ele><time>2026-05-01T12:13:35.559Z</time></trkpt><trkpt lat="43.7713852" lon="11.2466338"><ele>57.0</ele><time>2026-05-01T12:13:37.558Z</time></trkpt><trkpt lat="43.7714398" lon="11.2465246"><ele>57.0</ele><time>2026-05-01T12:13:39.559Z</time></trkpt><trkpt lat="43.7714787" lon="11.2464148"><ele>57.0</ele><time>2026-05-01T12:13:41.558Z</time></trkpt><trkpt lat="43.7715283" lon="11.2463041"><ele>57.0</ele><time>2026-05-01T12:13:43.557Z</time></trkpt><trkpt lat="43.7715781" lon="11.2461987"><ele>58.166666666666664</ele><time>2026-05-01T12:13:45.558Z</time></trkpt><trkpt lat="43.7716241" lon="11.2461048"><ele>59.33333333333333</ele><time>2026-05-01T12:13:47.559Z</time></trkpt><trkpt lat="43.7716635" lon="11.2460083"><ele>60.5</ele><time>2026-05-01T12:13:49.559Z</time></trkpt><trkpt lat="43.7717" lon="11.2459178"><ele>61.666666666666664</ele><time>2026-05-01T12:13:51.558Z</time></trkpt><trkpt lat="43.7717387" lon="11.245827"><ele>62.83333333333333</ele><time>2026-05-01T12:13:53.559Z</time></trkpt><trkpt lat="43.7717824" lon="11.2457495"><ele>64.0</ele><time>2026-05-01T12:13:55.558Z</time></trkpt><trkpt lat="43.7718274" lon="11.2456533"><ele>62.33333333333333</ele><time>2026-05-01T12:13:57.559Z</time></trkpt><trkpt lat="43.7718676" lon="11.2455529"><ele>60.666666666666664</ele><time>2026-05-01T12:13:59.559Z</time></trkpt><trkpt lat="43.7719097" lon="11.245455"><ele>59.0</ele><time>2026-05-01T12:14:01.558Z</time></trkpt><trkpt lat="43.7719436" lon="11.2453547"><ele>57.33333333333333</ele><time>2026-05-01T12:14:03.559Z</time></trkpt><trkpt lat="43.7719758" lon="11.2452564"><ele>55.666666666666664</ele><time>2026-05-01T12:14:05.559Z</time></trkpt><trkpt lat="43.7720074" lon="11.2451586"><ele>54.0</ele><time>2026-05-01T12:14:07.558Z</time></trkpt><trkpt lat="43.7720443" lon="11.2450609"><ele>54.0</ele><time>2026-05-01T12:14:09.558Z</time></trkpt><trkpt lat="43.7720832" lon="11.2449631"><ele>54.0</ele><time>2026-05-01T12:14:11.559Z</time></trkpt><trkpt lat="43.7721184" lon="11.2448508"><ele>54.0</ele><time>2026-05-01T12:14:13.557Z</time></trkpt><trkpt lat="43.7721603" lon="11.2447383"><ele>54.0</ele><time>2026-05-01T12:14:15.558Z</time></trkpt><trkpt lat="43.7722023" lon="11.2446421"><ele>54.0</ele><time>2026-05-01T12:14:17.558Z</time></trkpt><trkpt lat="43.7722483" lon="11.2445366"><ele>54.0</ele><time>2026-05-01T12:14:19.558Z</time></trkpt><trkpt lat="43.7722894" lon="11.2444452"><ele>54.166666666666664</ele><time>2026-05-01T12:14:21.559Z</time></trkpt><trkpt lat="43.7723257" lon="11.2443482"><ele>54.33333333333333</ele><time>2026-05-01T12:14:23.557Z</time></trkpt><trkpt lat="43.7723646" lon="11.2442507"><ele>54.5</ele><time>2026-05-01T12:14:25.559Z</time></trkpt><trkpt lat="43.7723992" lon="11.2441603"><ele>54.666666666666664</ele><time>2026-05-01T12:14:27.559Z</time></trkpt><trkpt lat="43.7724362" lon="11.2440732"><ele>54.83333333333333</ele><time>2026-05-01T12:14:29.558Z</time></trkpt><trkpt lat="43.7724709" lon="11.2439879"><ele>55.0</ele><time>2026-05-01T12:14:31.558Z</time></trkpt><trkpt lat="43.7725158" lon="11.2438749"><ele>54.83333333333333</ele><time>2026-05-01T12:14:34.559Z</time></trkpt><trkpt lat="43.7725481" lon="11.2437819"><ele>54.666666666666664</ele><time>2026-05-01T12:14:37.557Z</time></trkpt><trkpt lat="43.7725824" lon="11.2436886"><ele>54.5</ele><time>2026-05-01T12:14:46.559Z</time></trkpt><trkpt lat="43.7726367" lon="11.2435799"><ele>54.33333333333333</ele><time>2026-05-01T12:14:49.559Z</time></trkpt><trkpt lat="43.7726653" lon="11.2434818"><ele>54.166666666666664</ele><time>2026-05-01T12:14:51.559Z</time></trkpt><trkpt lat="43.7726994" lon="11.2433804"><ele>54.0</ele><time>2026-05-01T12:14:53.559Z</time></trkpt><trkpt lat="43.772744" lon="11.2432799"><ele>54.0</ele><time>2026-05-01T12:14:55.559Z</time></trkpt><trkpt lat="43.7727841" lon="11.2431734"><ele>54.00000000000001</ele><time>2026-05-01T12:14:57.558Z</time></trkpt><trkpt lat="43.7728227" lon="11.2430538"><ele>54.00000000000001</ele><time>2026-05-01T12:14:59.558Z</time></trkpt><trkpt lat="43.7728653" lon="11.2429448"><ele>54.0</ele><time>2026-05-01T12:15:01.558Z</time></trkpt><trkpt lat="43.7729109" lon="11.2428261"><ele>54.0</ele><time>2026-05-01T12:15:03.558Z</time></trkpt><trkpt lat="43.7729582" lon="11.2427114"><ele>53.5</ele><time>2026-05-01T12:15:05.557Z</time></trkpt><trkpt lat="43.7729884" lon="11.2426053"><ele>53.0</ele><time>2026-05-01T12:15:07.557Z</time></trkpt><trkpt lat="43.7730151" lon="11.2425091"><ele>52.5</ele><time>2026-05-01T12:15:09.558Z</time></trkpt><trkpt lat="43.7730511" lon="11.2424114"><ele>52.0</ele><time>2026-05-01T12:15:11.559Z</time></trkpt><trkpt lat="43.7730837" lon="11.2423186"><ele>51.5</ele><time>2026-05-01T12:15:13.559Z</time></trkpt><trkpt lat="43.7731084" lon="11.2422323"><ele>51.0</ele><time>2026-05-01T12:15:15.558Z</time></trkpt><trkpt lat="43.7731422" lon="11.2421343"><ele>50.0</ele><time>2026-05-01T12:15:17.558Z</time></trkpt><trkpt lat="43.7731796" lon="11.2420494"><ele>49.0</ele><time>2026-05-01T12:15:19.557Z</time></trkpt><trkpt lat="43.7732134" lon="11.2419608"><ele>48.0</ele><time>2026-05-01T12:15:21.559Z</time></trkpt><trkpt lat="43.773253" lon="11.2418749"><ele>47.0</ele><time>2026-05-01T12:15:23.558Z</time></trkpt><trkpt lat="43.7732921" lon="11.241792"><ele>46.0</ele><time>2026-05-01T12:15:25.557Z</time></trkpt><trkpt lat="43.7733295" lon="11.2417026"><ele>45.0</ele><time>2026-05-01T12:15:27.559Z</time></trkpt><trkpt lat="43.7733653" lon="11.2416081"><ele>44.0</ele><time>2026-05-01T12:15:29.558Z</time></trkpt><trkpt lat="43.773396" lon="11.2415097"><ele>44.166666666666664</ele><time>2026-05-01T12:15:31.559Z</time></trkpt><trkpt lat="43.7734217" lon="11.2414116"><ele>44.33333333333333</ele><time>2026-05-01T12:15:33.558Z</time></trkpt><trkpt lat="43.7734481" lon="11.2413122"><ele>44.5</ele><time>2026-05-01T12:15:35.558Z</time></trkpt><trkpt lat="43.7734773" lon="11.2412153"><ele>44.666666666666664</ele><time>2026-05-01T12:15:37.559Z</time></trkpt><trkpt lat="43.7735058" lon="11.2411247"><ele>44.833333333333336</ele><time>2026-05-01T12:15:39.557Z</time></trkpt><trkpt lat="43.7735392" lon="11.241028"><ele>45.0</ele><time>2026-05-01T12:15:42.559Z</time></trkpt><trkpt lat="43.7735934" lon="11.2409221"><ele>45.857142857142854</ele><time>2026-05-01T12:15:45.557Z</time></trkpt><trkpt lat="43.7736313" lon="11.2408304"><ele>46.714285714285715</ele><time>2026-05-01T12:15:47.557Z</time></trkpt><trkpt lat="43.7736617" lon="11.240736"><ele>47.57142857142857</ele><time>2026-05-01T12:15:49.559Z</time></trkpt><trkpt lat="43.7736825" lon="11.2406407"><ele>48.42857142857143</ele><time>2026-05-01T12:15:51.558Z</time></trkpt><trkpt lat="43.7737061" lon="11.2405481"><ele>49.28571428571429</ele><time>2026-05-01T12:15:53.558Z</time></trkpt><trkpt lat="43.773737" lon="11.2404649"><ele>50.142857142857146</ele><time>2026-05-01T12:15:55.559Z</time></trkpt><trkpt lat="43.7737676" lon="11.240385"><ele>51.0</ele><time>2026-05-01T12:15:57.559Z</time></trkpt><trkpt lat="43.7738046" lon="11.2402691"><ele>51.142857142857146</ele><time>2026-05-01T12:16:00.559Z</time></trkpt><trkpt lat="43.7738321" lon="11.2401905"><ele>51.28571428571429</ele><time>2026-05-01T12:16:02.558Z</time></trkpt><trkpt lat="43.7738619" lon="11.2401115"><ele>51.42857142857143</ele><time>2026-05-01T12:16:04.558Z</time></trkpt><trkpt lat="43.7739083" lon="11.239999"><ele>51.57142857142857</ele><time>2026-05-01T12:16:07.558Z</time></trkpt><trkpt lat="43.7739397" lon="11.239911"><ele>51.714285714285715</ele><time>2026-05-01T12:16:09.559Z</time></trkpt><trkpt lat="43.773964" lon="11.2398235"><ele>51.857142857142854</ele><time>2026-05-01T12:16:11.558Z</time></trkpt><trkpt lat="43.774007" lon="11.2397214"><ele>52.0</ele><time>2026-05-01T12:16:14.559Z</time></trkpt><trkpt lat="43.7740348" lon="11.239623"><ele>51.666666666666664</ele><time>2026-05-01T12:16:17.557Z</time></trkpt><trkpt lat="43.7740531" lon="11.2395281"><ele>51.33333333333333</ele><time>2026-05-01T12:16:22.559Z</time></trkpt><trkpt lat="43.7741046" lon="11.2394212"><ele>51.0</ele><time>2026-05-01T12:16:25.558Z</time></trkpt><trkpt lat="43.7741549" lon="11.2393343"><ele>50.66666666666667</ele><time>2026-05-01T12:16:27.559Z</time></trkpt><trkpt lat="43.7741933" lon="11.2392296"><ele>50.333333333333336</ele><time>2026-05-01T12:16:29.557Z</time></trkpt><trkpt lat="43.7742174" lon="11.2391151"><ele>50.0</ele><time>2026-05-01T12:16:31.558Z</time></trkpt><trkpt lat="43.7742423" lon="11.2390115"><ele>50.333333333333336</ele><time>2026-05-01T12:16:33.557Z</time></trkpt><trkpt lat="43.7742725" lon="11.2389126"><ele>50.66666666666667</ele><time>2026-05-01T12:16:35.558Z</time></trkpt><trkpt lat="43.7743001" lon="11.23882"><ele>51.0</ele><time>2026-05-01T12:16:37.558Z</time></trkpt><trkpt lat="43.7743288" lon="11.2387263"><ele>51.33333333333333</ele><time>2026-05-01T12:16:39.557Z</time></trkpt><trkpt lat="43.7743611" lon="11.2386295"><ele>51.666666666666664</ele><time>2026-05-01T12:16:41.557Z</time></trkpt><trkpt lat="43.7743998" lon="11.2385324"><ele>52.0</ele><time>2026-05-01T12:16:43.558Z</time></trkpt><trkpt lat="43.7744349" lon="11.2384363"><ele>51.99999999999999</ele><time>2026-05-01T12:16:45.558Z</time></trkpt><trkpt lat="43.7744762" lon="11.2383573"><ele>52.0</ele><time>2026-05-01T12:16:47.557Z</time></trkpt><trkpt lat="43.7745699" lon="11.2383489"><ele>52.0</ele><time>2026-05-01T12:16:50.557Z</time></trkpt><trkpt lat="43.7746334" lon="11.2384081"><ele>52.0</ele><time>2026-05-01T12:16:52.558Z</time></trkpt><trkpt lat="43.7747" lon="11.2384748"><ele>51.99999999999999</ele><time>2026-05-01T12:16:54.558Z</time></trkpt><trkpt lat="43.7747622" lon="11.2385287"><ele>52.0</ele><time>2026-05-01T12:16:56.557Z</time></trkpt><trkpt lat="43.7748162" lon="11.2385842"><ele>51.99999999999999</ele><time>2026-05-01T12:16:58.557Z</time></trkpt><trkpt lat="43.774889" lon="11.2386351"><ele>52.0</ele><time>2026-05-01T12:17:01.558Z</time></trkpt><trkpt lat="43.7749434" lon="11.2385608"><ele>52.0</ele><time>2026-05-01T12:17:04.556Z</time></trkpt><trkpt lat="43.7749768" lon="11.2384621"><ele>52.0</ele><time>2026-05-01T12:17:06.559Z</time></trkpt><trkpt lat="43.7750128" lon="11.2383572"><ele>51.99999999999999</ele><time>2026-05-01T12:17:08.558Z</time></trkpt><trkpt lat="43.7750534" lon="11.2382597"><ele>52.0</ele><time>2026-05-01T12:17:10.559Z</time></trkpt><trkpt lat="43.7750943" lon="11.2381625"><ele>51.83333333333333</ele><time>2026-05-01T12:17:12.558Z</time></trkpt><trkpt lat="43.7751366" lon="11.2380714"><ele>51.666666666666664</ele><time>2026-05-01T12:17:14.558Z</time></trkpt><trkpt lat="43.7751755" lon="11.2379788"><ele>51.5</ele><time>2026-05-01T12:17:16.559Z</time></trkpt><trkpt lat="43.7752154" lon="11.2378775"><ele>51.33333333333333</ele><time>2026-05-01T12:17:18.559Z</time></trkpt><trkpt lat="43.7752647" lon="11.237781"><ele>51.166666666666664</ele><time>2026-05-01T12:17:20.558Z</time></trkpt><trkpt lat="43.7753122" lon="11.2376855"><ele>51.0</ele><time>2026-05-01T12:17:22.558Z</time></trkpt><trkpt lat="43.7753626" lon="11.2375863"><ele>51.5</ele><time>2026-05-01T12:17:24.559Z</time></trkpt><trkpt lat="43.7754083" lon="11.2375048"><ele>52.0</ele><time>2026-05-01T12:17:26.558Z</time></trkpt><trkpt lat="43.7754473" lon="11.2374206"><ele>52.5</ele><time>2026-05-01T12:17:28.558Z</time></trkpt><trkpt lat="43.7754827" lon="11.2373359"><ele>53.0</ele><time>2026-05-01T12:17:30.558Z</time></trkpt><trkpt lat="43.7755351" lon="11.2372315"><ele>53.5</ele><time>2026-05-01T12:17:33.557Z</time></trkpt><trkpt lat="43.7755802" lon="11.2371301"><ele>54.0</ele><time>2026-05-01T12:17:36.557Z</time></trkpt><trkpt lat="43.7756145" lon="11.2370176"><ele>52.833333333333336</ele><time>2026-05-01T12:17:39.556Z</time></trkpt><trkpt lat="43.7756554" lon="11.2369158"><ele>51.666666666666664</ele><time>2026-05-01T12:17:42.557Z</time></trkpt><trkpt lat="43.7757088" lon="11.2368632"><ele>50.5</ele><time>2026-05-01T12:17:44.557Z</time></trkpt><trkpt lat="43.7757483" lon="11.2367754"><ele>49.33333333333333</ele><time>2026-05-01T12:17:46.557Z</time></trkpt><trkpt lat="43.7757829" lon="11.2366687"><ele>48.166666666666664</ele><time>2026-05-01T12:17:48.558Z</time></trkpt><trkpt lat="43.7758196" lon="11.2365595"><ele>47.0</ele><time>2026-05-01T12:17:50.558Z</time></trkpt><trkpt lat="43.7758495" lon="11.2364518"><ele>46.83333333333333</ele><time>2026-05-01T12:17:52.558Z</time></trkpt><trkpt lat="43.7758624" lon="11.236355"><ele>46.666666666666664</ele><time>2026-05-01T12:17:54.557Z</time></trkpt><trkpt lat="43.7758718" lon="11.2362571"><ele>46.5</ele><time>2026-05-01T12:17:56.557Z</time></trkpt><trkpt lat="43.7758858" lon="11.2361535"><ele>46.333333333333336</ele><time>2026-05-01T12:17:58.558Z</time></trkpt><trkpt lat="43.7759114" lon="11.2360513"><ele>46.16666666666667</ele><time>2026-05-01T12:18:00.558Z</time></trkpt><trkpt lat="43.7759437" lon="11.2359524"><ele>46.0</ele><time>2026-05-01T12:18:02.559Z</time></trkpt><trkpt lat="43.7759757" lon="11.2358425"><ele>46.0</ele><time>2026-05-01T12:18:04.558Z</time></trkpt><trkpt lat="43.7760103" lon="11.2357238"><ele>46.0</ele><time>2026-05-01T12:18:06.556Z</time></trkpt><trkpt lat="43.7760429" lon="11.2355991"><ele>46.0</ele><time>2026-05-01T12:18:08.559Z</time></trkpt><trkpt lat="43.7760713" lon="11.2354805"><ele>46.0</ele><time>2026-05-01T12:18:10.557Z</time></trkpt><trkpt lat="43.7760887" lon="11.2353707"><ele>46.0</ele><time>2026-05-01T12:18:12.558Z</time></trkpt><trkpt lat="43.7760938" lon="11.235267"><ele>46.0</ele><time>2026-05-01T12:18:14.557Z</time></trkpt><trkpt lat="43.7760929" lon="11.2351516"><ele>45.66666666666667</ele><time>2026-05-01T12:18:16.558Z</time></trkpt><trkpt lat="43.7760817" lon="11.2350346"><ele>45.333333333333336</ele><time>2026-05-01T12:18:18.559Z</time></trkpt><trkpt lat="43.7760738" lon="11.2349225"><ele>45.0</ele><time>2026-05-01T12:18:20.556Z</time></trkpt><trkpt lat="43.7760481" lon="11.2348211"><ele>44.666666666666664</ele><time>2026-05-01T12:18:22.558Z</time></trkpt><trkpt lat="43.776008" lon="11.2347406"><ele>44.33333333333333</ele><time>2026-05-01T12:18:24.558Z</time></trkpt><trkpt lat="43.7759569" lon="11.2346637"><ele>44.0</ele><time>2026-05-01T12:18:26.558Z</time></trkpt><trkpt lat="43.7759064" lon="11.2345883"><ele>44.0</ele><time>2026-05-01T12:18:28.557Z</time></trkpt><trkpt lat="43.7758678" lon="11.2345031"><ele>44.0</ele><time>2026-05-01T12:18:30.557Z</time></trkpt><trkpt lat="43.775835" lon="11.2344166"><ele>44.0</ele><time>2026-05-01T12:18:32.558Z</time></trkpt><trkpt lat="43.7758251" lon="11.2343265"><ele>44.0</ele><time>2026-05-01T12:18:34.556Z</time></trkpt><trkpt lat="43.7758413" lon="11.2342286"><ele>44.0</ele><time>2026-05-01T12:18:36.557Z</time></trkpt><trkpt lat="43.7758565" lon="11.2341188"><ele>44.0</ele><time>2026-05-01T12:18:38.557Z</time></trkpt><trkpt lat="43.7758703" lon="11.234012"><ele>44.0</ele><time>2026-05-01T12:18:40.558Z</time></trkpt><trkpt lat="43.7758905" lon="11.2339086"><ele>43.83333333333333</ele><time>2026-05-01T12:18:42.557Z</time></trkpt><trkpt lat="43.7759121" lon="11.2338127"><ele>43.666666666666664</ele><time>2026-05-01T12:18:44.558Z</time></trkpt><trkpt lat="43.7759433" lon="11.2337208"><ele>43.5</ele><time>2026-05-01T12:18:46.558Z</time></trkpt><trkpt lat="43.7759696" lon="11.2336245"><ele>43.333333333333336</ele><time>2026-05-01T12:18:48.557Z</time></trkpt><trkpt lat="43.7759945" lon="11.2335195"><ele>43.16666666666667</ele><time>2026-05-01T12:18:50.557Z</time></trkpt><trkpt lat="43.7760194" lon="11.2334123"><ele>43.0</ele><time>2026-05-01T12:18:52.558Z</time></trkpt><trkpt lat="43.7760428" lon="11.2333056"><ele>43.5</ele><time>2026-05-01T12:18:54.557Z</time></trkpt><trkpt lat="43.7760688" lon="11.2331963"><ele>44.0</ele><time>2026-05-01T12:18:56.558Z</time></trkpt><trkpt lat="43.7760983" lon="11.2330936"><ele>44.5</ele><time>2026-05-01T12:18:58.558Z</time></trkpt><trkpt lat="43.7761274" lon="11.2330011"><ele>45.0</ele><time>2026-05-01T12:19:00.557Z</time></trkpt><trkpt lat="43.7761544" lon="11.2329123"><ele>45.5</ele><time>2026-05-01T12:19:02.556Z</time></trkpt><trkpt lat="43.7761828" lon="11.2328193"><ele>46.0</ele><time>2026-05-01T12:19:04.556Z</time></trkpt><trkpt lat="43.7762098" lon="11.2327216"><ele>46.333333333333336</ele><time>2026-05-01T12:19:06.557Z</time></trkpt><trkpt lat="43.7762338" lon="11.2326177"><ele>46.66666666666667</ele><time>2026-05-01T12:19:08.557Z</time></trkpt><trkpt lat="43.7762584" lon="11.2325154"><ele>47.0</ele><time>2026-05-01T12:19:10.556Z</time></trkpt><trkpt lat="43.7762851" lon="11.2324157"><ele>47.333333333333336</ele><time>2026-05-01T12:19:12.558Z</time></trkpt><trkpt lat="43.7763107" lon="11.2323111"><ele>47.666666666666664</ele><time>2026-05-01T12:19:14.557Z</time></trkpt><trkpt lat="43.7763444" lon="11.2321985"><ele>48.0</ele><time>2026-05-01T12:19:16.557Z</time></trkpt><trkpt lat="43.7763778" lon="11.2320975"><ele>48.0</ele><time>2026-05-01T12:19:18.558Z</time></trkpt><trkpt lat="43.7764051" lon="11.2319907"><ele>48.0</ele><time>2026-05-01T12:19:20.557Z</time></trkpt><trkpt lat="43.776436" lon="11.2318835"><ele>48.0</ele><time>2026-05-01T12:19:22.558Z</time></trkpt><trkpt lat="43.7764667" lon="11.2317807"><ele>48.0</ele><time>2026-05-01T12:19:24.557Z</time></trkpt><trkpt lat="43.7764938" lon="11.2316866"><ele>48.0</ele><time>2026-05-01T12:19:26.558Z</time></trkpt><trkpt lat="43.7765165" lon="11.2315823"><ele>48.0</ele><time>2026-05-01T12:19:28.558Z</time></trkpt><trkpt lat="43.7765456" lon="11.2314818"><ele>47.42857142857142</ele><time>2026-05-01T12:19:30.558Z</time></trkpt><trkpt lat="43.7765785" lon="11.2313818"><ele>46.857142857142854</ele><time>2026-05-01T12:19:32.557Z</time></trkpt><trkpt lat="43.7766018" lon="11.2312864"><ele>46.285714285714285</ele><time>2026-05-01T12:19:34.557Z</time></trkpt><trkpt lat="43.7766201" lon="11.2311963"><ele>45.71428571428571</ele><time>2026-05-01T12:19:36.557Z</time></trkpt><trkpt lat="43.7766398" lon="11.2311035"><ele>45.14285714285714</ele><time>2026-05-01T12:19:38.558Z</time></trkpt><trkpt lat="43.7766613" lon="11.231005"><ele>44.57142857142857</ele><time>2026-05-01T12:19:40.558Z</time></trkpt><trkpt lat="43.7766885" lon="11.2308992"><ele>44.0</ele><time>2026-05-01T12:19:42.558Z</time></trkpt><trkpt lat="43.7767166" lon="11.230796"><ele>44.0</ele><time>2026-05-01T12:19:44.557Z</time></trkpt><trkpt lat="43.7767449" lon="11.2306919"><ele>44.0</ele><time>2026-05-01T12:19:46.557Z</time></trkpt><trkpt lat="43.7767751" lon="11.2305855"><ele>44.0</ele><time>2026-05-01T12:19:48.557Z</time></trkpt><trkpt lat="43.7768054" lon="11.2304769"><ele>44.0</ele><time>2026-05-01T12:19:50.558Z</time></trkpt><trkpt lat="43.7768399" lon="11.2303689"><ele>44.0</ele><time>2026-05-01T12:19:52.558Z</time></trkpt><trkpt lat="43.7768728" lon="11.2302717"><ele>44.0</ele><time>2026-05-01T12:19:54.556Z</time></trkpt><trkpt lat="43.776903" lon="11.230185"><ele>44.57142857142857</ele><time>2026-05-01T12:19:56.558Z</time></trkpt><trkpt lat="43.7769341" lon="11.230095"><ele>45.14285714285714</ele><time>2026-05-01T12:19:58.556Z</time></trkpt><trkpt lat="43.776961" lon="11.2300081"><ele>45.71428571428571</ele><time>2026-05-01T12:20:00.557Z</time></trkpt><trkpt lat="43.7769821" lon="11.2299247"><ele>46.285714285714285</ele><time>2026-05-01T12:20:02.558Z</time></trkpt><trkpt lat="43.7770113" lon="11.229803"><ele>46.857142857142854</ele><time>2026-05-01T12:20:05.558Z</time></trkpt><trkpt lat="43.777033" lon="11.2297125"><ele>47.42857142857142</ele><time>2026-05-01T12:20:07.558Z</time></trkpt><trkpt lat="43.7770588" lon="11.2296108"><ele>48.0</ele><time>2026-05-01T12:20:09.558Z</time></trkpt><trkpt lat="43.7770868" lon="11.2295122"><ele>48.42857142857142</ele><time>2026-05-01T12:20:11.557Z</time></trkpt><trkpt lat="43.7771117" lon="11.2294226"><ele>48.857142857142854</ele><time>2026-05-01T12:20:13.558Z</time></trkpt><trkpt lat="43.777135" lon="11.2293263"><ele>49.285714285714285</ele><time>2026-05-01T12:20:15.558Z</time></trkpt><trkpt lat="43.7771633" lon="11.2292386"><ele>49.71428571428571</ele><time>2026-05-01T12:20:17.557Z</time></trkpt><trkpt lat="43.7771872" lon="11.2291467"><ele>50.142857142857146</ele><time>2026-05-01T12:20:19.557Z</time></trkpt><trkpt lat="43.7772093" lon="11.2290525"><ele>50.57142857142857</ele><time>2026-05-01T12:20:21.555Z</time></trkpt><trkpt lat="43.7772341" lon="11.2289578"><ele>51.0</ele><time>2026-05-01T12:20:23.556Z</time></trkpt><trkpt lat="43.7772573" lon="11.2288588"><ele>51.0</ele><time>2026-05-01T12:20:25.558Z</time></trkpt><trkpt lat="43.777277" lon="11.2287665"><ele>51.0</ele><time>2026-05-01T12:20:27.558Z</time></trkpt><trkpt lat="43.7772983" lon="11.2286782"><ele>51.0</ele><time>2026-05-01T12:20:29.557Z</time></trkpt><trkpt lat="43.7773166" lon="11.2285834"><ele>51.0</ele><time>2026-05-01T12:20:31.558Z</time></trkpt><trkpt lat="43.7773417" lon="11.2284943"><ele>51.0</ele><time>2026-05-01T12:20:33.557Z</time></trkpt><trkpt lat="43.7773678" lon="11.22841"><ele>51.0</ele><time>2026-05-01T12:20:35.557Z</time></trkpt><trkpt lat="43.7773936" lon="11.2283247"><ele>51.0</ele><time>2026-05-01T12:20:37.557Z</time></trkpt><trkpt lat="43.7774185" lon="11.2282431"><ele>51.0</ele><time>2026-05-01T12:20:39.558Z</time></trkpt><trkpt lat="43.7774478" lon="11.228161"><ele>51.0</ele><time>2026-05-01T12:20:41.557Z</time></trkpt><trkpt lat="43.7774764" lon="11.2280769"><ele>51.0</ele><time>2026-05-01T12:20:43.557Z</time></trkpt><trkpt lat="43.7775001" lon="11.2279961"><ele>51.0</ele><time>2026-05-01T12:20:45.557Z</time></trkpt><trkpt lat="43.7775346" lon="11.2278858"><ele>51.0</ele><time>2026-05-01T12:20:48.556Z</time></trkpt><trkpt lat="43.7775669" lon="11.2277836"><ele>51.0</ele><time>2026-05-01T12:20:51.558Z</time></trkpt><trkpt lat="43.7775973" lon="11.2276996"><ele>51.0</ele><time>2026-05-01T12:20:54.558Z</time></trkpt><trkpt lat="43.7776138" lon="11.2275989"><ele>50.333333333333336</ele><time>2026-05-01T12:20:58.556Z</time></trkpt><trkpt lat="43.7776335" lon="11.2275117"><ele>49.666666666666664</ele><time>2026-05-01T12:21:03.558Z</time></trkpt><trkpt lat="43.7776071" lon="11.2274171"><ele>49.0</ele><time>2026-05-01T12:21:08.558Z</time></trkpt><trkpt lat="43.7775631" lon="11.2273404"><ele>48.33333333333333</ele><time>2026-05-01T12:21:12.557Z</time></trkpt><trkpt lat="43.7776038" lon="11.2272319"><ele>47.666666666666664</ele><time>2026-05-01T12:21:15.557Z</time></trkpt><trkpt lat="43.7776434" lon="11.2271228"><ele>47.0</ele><time>2026-05-01T12:21:18.556Z</time></trkpt><trkpt lat="43.7776725" lon="11.2270139"><ele>47.42857142857143</ele><time>2026-05-01T12:21:21.556Z</time></trkpt><trkpt lat="43.7776983" lon="11.2269231"><ele>47.857142857142854</ele><time>2026-05-01T12:21:24.558Z</time></trkpt><trkpt lat="43.7777281" lon="11.2268302"><ele>48.28571428571429</ele><time>2026-05-01T12:21:28.557Z</time></trkpt><trkpt lat="43.7777444" lon="11.2267227"><ele>48.714285714285715</ele><time>2026-05-01T12:21:32.557Z</time></trkpt><trkpt lat="43.7777699" lon="11.2266319"><ele>49.142857142857146</ele><time>2026-05-01T12:21:35.557Z</time></trkpt><trkpt lat="43.7777894" lon="11.2265342"><ele>49.57142857142858</ele><time>2026-05-01T12:21:38.557Z</time></trkpt><trkpt lat="43.7778172" lon="11.2264456"><ele>50.0</ele><time>2026-05-01T12:21:41.556Z</time></trkpt><trkpt lat="43.7778405" lon="11.2263507"><ele>50.00000000000001</ele><time>2026-05-01T12:21:44.556Z</time></trkpt><trkpt lat="43.7778713" lon="11.2262496"><ele>50.0</ele><time>2026-05-01T12:21:47.557Z</time></trkpt><trkpt lat="43.7779007" lon="11.2261362"><ele>50.0</ele><time>2026-05-01T12:21:50.558Z</time></trkpt><trkpt lat="43.7779282" lon="11.2260537"><ele>50.0</ele><time>2026-05-01T12:21:52.557Z</time></trkpt><trkpt lat="43.7779657" lon="11.22593"><ele>50.00000000000001</ele><time>2026-05-01T12:21:55.557Z</time></trkpt><trkpt lat="43.7779901" lon="11.2258488"><ele>50.0</ele><time>2026-05-01T12:21:57.557Z</time></trkpt><trkpt lat="43.778017" lon="11.2257413"><ele>49.50000000000001</ele><time>2026-05-01T12:22:00.556Z</time></trkpt><trkpt lat="43.7780481" lon="11.225629"><ele>49.0</ele><time>2026-05-01T12:22:03.557Z</time></trkpt><trkpt lat="43.7780879" lon="11.2255219"><ele>48.5</ele><time>2026-05-01T12:22:06.557Z</time></trkpt><trkpt lat="43.7781329" lon="11.2254173"><ele>48.0</ele><time>2026-05-01T12:22:09.557Z</time></trkpt><trkpt lat="43.7781653" lon="11.2253019"><ele>47.5</ele><time>2026-05-01T12:22:12.556Z</time></trkpt><trkpt lat="43.7781971" lon="11.2251837"><ele>47.0</ele><time>2026-05-01T12:22:15.558Z</time></trkpt><trkpt lat="43.7782339" lon="11.2250705"><ele>47.0</ele><time>2026-05-01T12:22:18.557Z</time></trkpt><trkpt lat="43.7782652" lon="11.2249904"><ele>47.0</ele><time>2026-05-01T12:22:20.557Z</time></trkpt><trkpt lat="43.7782988" lon="11.2248685"><ele>47.0</ele><time>2026-05-01T12:22:23.557Z</time></trkpt><trkpt lat="43.7783416" lon="11.2247674"><ele>47.0</ele><time>2026-05-01T12:22:26.556Z</time></trkpt><trkpt lat="43.7783769" lon="11.224673"><ele>47.0</ele><time>2026-05-01T12:22:29.555Z</time></trkpt><trkpt lat="43.7784143" lon="11.2245716"><ele>47.0</ele><time>2026-05-01T12:22:32.556Z</time></trkpt><trkpt lat="43.7784547" lon="11.2244606"><ele>47.166666666666664</ele><time>2026-05-01T12:22:35.557Z</time></trkpt><trkpt lat="43.7784984" lon="11.2243502"><ele>47.33333333333333</ele><time>2026-05-01T12:22:38.557Z</time></trkpt><trkpt lat="43.778543" lon="11.2242372"><ele>47.5</ele><time>2026-05-01T12:22:41.556Z</time></trkpt><trkpt lat="43.7785754" lon="11.2241303"><ele>47.666666666666664</ele><time>2026-05-01T12:22:44.557Z</time></trkpt><trkpt lat="43.7786048" lon="11.224044"><ele>47.833333333333336</ele><time>2026-05-01T12:22:46.557Z</time></trkpt><trkpt lat="43.7786331" lon="11.2239623"><ele>48.0</ele><time>2026-05-01T12:22:48.556Z</time></trkpt><trkpt lat="43.7786725" lon="11.2238575"><ele>48.0</ele><time>2026-05-01T12:22:51.557Z</time></trkpt><trkpt lat="43.7787182" lon="11.2237555"><ele>48.0</ele><time>2026-05-01T12:22:54.556Z</time></trkpt><trkpt lat="43.7787617" lon="11.2236526"><ele>48.0</ele><time>2026-05-01T12:22:57.557Z</time></trkpt><trkpt lat="43.7788061" lon="11.2235508"><ele>48.0</ele><time>2026-05-01T12:23:00.558Z</time></trkpt><trkpt lat="43.7788401" lon="11.2234297"><ele>48.0</ele><time>2026-05-01T12:23:03.556Z</time></trkpt><trkpt lat="43.7788821" lon="11.2233146"><ele>48.0</ele><time>2026-05-01T12:23:06.557Z</time></trkpt><trkpt lat="43.7789096" lon="11.2232304"><ele>47.857142857142854</ele><time>2026-05-01T12:23:08.556Z</time></trkpt><trkpt lat="43.7789325" lon="11.2231424"><ele>47.714285714285715</ele><time>2026-05-01T12:23:10.557Z</time></trkpt><trkpt lat="43.7789631" lon="11.22306"><ele>47.57142857142857</ele><time>2026-05-01T12:23:12.557Z</time></trkpt><trkpt lat="43.7789926" lon="11.2229786"><ele>47.42857142857143</ele><time>2026-05-01T12:23:14.557Z</time></trkpt><trkpt lat="43.7790264" lon="11.2229049"><ele>47.285714285714285</ele><time>2026-05-01T12:23:16.556Z</time></trkpt><trkpt lat="43.7790711" lon="11.2227978"><ele>47.14285714285714</ele><time>2026-05-01T12:23:19.557Z</time></trkpt><trkpt lat="43.7791128" lon="11.2226879"><ele>47.0</ele><time>2026-05-01T12:23:22.556Z</time></trkpt><trkpt lat="43.7791433" lon="11.2226112"><ele>47.0</ele><time>2026-05-01T12:23:24.557Z</time></trkpt><trkpt lat="43.7791741" lon="11.2225285"><ele>47.0</ele><time>2026-05-01T12:23:26.556Z</time></trkpt><trkpt lat="43.779204" lon="11.2224474"><ele>47.0</ele><time>2026-05-01T12:23:28.557Z</time></trkpt><trkpt lat="43.7792302" lon="11.2223641"><ele>47.0</ele><time>2026-05-01T12:23:30.557Z</time></trkpt><trkpt lat="43.7792503" lon="11.2222754"><ele>47.0</ele><time>2026-05-01T12:23:32.555Z</time></trkpt><trkpt lat="43.7792993" lon="11.222162"><ele>47.0</ele><time>2026-05-01T12:23:35.557Z</time></trkpt><trkpt lat="43.7793297" lon="11.2220848"><ele>47.0</ele><time>2026-05-01T12:23:37.556Z</time></trkpt><trkpt lat="43.7793649" lon="11.2219863"><ele>47.166666666666664</ele><time>2026-05-01T12:23:40.557Z</time></trkpt><trkpt lat="43.7793973" lon="11.2219025"><ele>47.33333333333333</ele><time>2026-05-01T12:23:43.557Z</time></trkpt><trkpt lat="43.779426" lon="11.2218228"><ele>47.5</ele><time>2026-05-01T12:23:47.556Z</time></trkpt><trkpt lat="43.779486" lon="11.2217313"><ele>47.666666666666664</ele><time>2026-05-01T12:23:50.557Z</time></trkpt><trkpt lat="43.7795438" lon="11.221617"><ele>47.833333333333336</ele><time>2026-05-01T12:23:53.556Z</time></trkpt><trkpt lat="43.7795786" lon="11.2215255"><ele>48.0</ele><time>2026-05-01T12:23:55.556Z</time></trkpt><trkpt lat="43.7796182" lon="11.2214308"><ele>47.99999999999999</ele><time>2026-05-01T12:23:57.556Z</time></trkpt><trkpt lat="43.7796543" lon="11.2213386"><ele>48.0</ele><time>2026-05-01T12:23:59.555Z</time></trkpt><trkpt lat="43.7796884" lon="11.2212499"><ele>48.0</ele><time>2026-05-01T12:24:01.555Z</time></trkpt><trkpt lat="43.779717" lon="11.2211626"><ele>48.0</ele><time>2026-05-01T12:24:03.556Z</time></trkpt><trkpt lat="43.7797485" lon="11.2210728"><ele>48.0</ele><time>2026-05-01T12:24:05.556Z</time></trkpt><trkpt lat="43.7797759" lon="11.2209864"><ele>47.99999999999999</ele><time>2026-05-01T12:24:07.557Z</time></trkpt><trkpt lat="43.779804" lon="11.2209007"><ele>48.0</ele><time>2026-05-01T12:24:09.555Z</time></trkpt><trkpt lat="43.7798335" lon="11.2208221"><ele>47.99999999999999</ele><time>2026-05-01T12:24:11.556Z</time></trkpt><trkpt lat="43.779867" lon="11.2207445"><ele>48.0</ele><time>2026-05-01T12:24:13.557Z</time></trkpt><trkpt lat="43.7798977" lon="11.2206609"><ele>48.0</ele><time>2026-05-01T12:24:15.557Z</time></trkpt><trkpt lat="43.7799328" lon="11.2205811"><ele>48.0</ele><time>2026-05-01T12:24:17.555Z</time></trkpt><trkpt lat="43.7799642" lon="11.2204969"><ele>48.0</ele><time>2026-05-01T12:24:19.556Z</time></trkpt><trkpt lat="43.7799867" lon="11.2204109"><ele>47.99999999999999</ele><time>2026-05-01T12:24:21.555Z</time></trkpt><trkpt lat="43.7800153" lon="11.2203332"><ele>48.0</ele><time>2026-05-01T12:24:23.556Z</time></trkpt><trkpt lat="43.7800481" lon="11.2202541"><ele>47.857142857142854</ele><time>2026-05-01T12:24:25.555Z</time></trkpt><trkpt lat="43.7800769" lon="11.2201718"><ele>47.714285714285715</ele><time>2026-05-01T12:24:27.555Z</time></trkpt><trkpt lat="43.7801091" lon="11.2200915"><ele>47.57142857142857</ele><time>2026-05-01T12:24:29.556Z</time></trkpt><trkpt lat="43.7801439" lon="11.2200113"><ele>47.42857142857143</ele><time>2026-05-01T12:24:31.555Z</time></trkpt><trkpt lat="43.7801808" lon="11.2199325"><ele>47.285714285714285</ele><time>2026-05-01T12:24:33.557Z</time></trkpt><trkpt lat="43.780216" lon="11.2198536"><ele>47.14285714285714</ele><time>2026-05-01T12:24:35.556Z</time></trkpt><trkpt lat="43.7802463" lon="11.2197761"><ele>47.0</ele><time>2026-05-01T12:24:37.556Z</time></trkpt><trkpt lat="43.7802759" lon="11.2196986"><ele>46.57142857142857</ele><time>2026-05-01T12:24:39.556Z</time></trkpt><trkpt lat="43.7803149" lon="11.2195921"><ele>46.14285714285714</ele><time>2026-05-01T12:24:42.557Z</time></trkpt><trkpt lat="43.7803467" lon="11.2195158"><ele>45.714285714285715</ele><time>2026-05-01T12:24:44.556Z</time></trkpt><trkpt lat="43.7803781" lon="11.2194302"><ele>45.285714285714285</ele><time>2026-05-01T12:24:46.556Z</time></trkpt><trkpt lat="43.7804151" lon="11.2193493"><ele>44.857142857142854</ele><time>2026-05-01T12:24:48.557Z</time></trkpt><trkpt lat="43.7804442" lon="11.2192657"><ele>44.42857142857143</ele><time>2026-05-01T12:24:50.557Z</time></trkpt><trkpt lat="43.780486" lon="11.2191534"><ele>44.0</ele><time>2026-05-01T12:24:53.555Z</time></trkpt><trkpt lat="43.7805216" lon="11.2190579"><ele>43.714285714285715</ele><time>2026-05-01T12:24:56.555Z</time></trkpt><trkpt lat="43.7805519" lon="11.2189769"><ele>43.42857142857143</ele><time>2026-05-01T12:24:59.557Z</time></trkpt><trkpt lat="43.7805911" lon="11.2188713"><ele>43.14285714285714</ele><time>2026-05-01T12:25:02.556Z</time></trkpt><trkpt lat="43.7806278" lon="11.2187905"><ele>42.85714285714286</ele><time>2026-05-01T12:25:04.555Z</time></trkpt><trkpt lat="43.7806699" lon="11.2187051"><ele>42.57142857142857</ele><time>2026-05-01T12:25:06.557Z</time></trkpt><trkpt lat="43.7807094" lon="11.2186179"><ele>42.285714285714285</ele><time>2026-05-01T12:25:08.556Z</time></trkpt><trkpt lat="43.7807456" lon="11.2185326"><ele>42.0</ele><time>2026-05-01T12:25:10.556Z</time></trkpt><trkpt lat="43.7807817" lon="11.218453"><ele>42.0</ele><time>2026-05-01T12:25:12.556Z</time></trkpt><trkpt lat="43.7808258" lon="11.2183486"><ele>42.0</ele><time>2026-05-01T12:25:15.557Z</time></trkpt><trkpt lat="43.7808675" lon="11.218256"><ele>42.0</ele><time>2026-05-01T12:25:18.556Z</time></trkpt><trkpt lat="43.78091" lon="11.2181545"><ele>42.0</ele><time>2026-05-01T12:25:21.556Z</time></trkpt><trkpt lat="43.7809402" lon="11.2180711"><ele>42.0</ele><time>2026-05-01T12:25:23.556Z</time></trkpt><trkpt lat="43.7809754" lon="11.2179905"><ele>42.0</ele><time>2026-05-01T12:25:25.555Z</time></trkpt><trkpt lat="43.7810073" lon="11.2179146"><ele>42.833333333333336</ele><time>2026-05-01T12:25:27.554Z</time></trkpt><trkpt lat="43.781043" lon="11.2177981"><ele>43.666666666666664</ele><time>2026-05-01T12:25:30.556Z</time></trkpt><trkpt lat="43.7810903" lon="11.2177065"><ele>44.5</ele><time>2026-05-01T12:25:33.556Z</time></trkpt><trkpt lat="43.7811705" lon="11.2177239"><ele>45.33333333333333</ele><time>2026-05-01T12:25:37.555Z</time></trkpt><trkpt lat="43.7812183" lon="11.2178265"><ele>46.166666666666664</ele><time>2026-05-01T12:25:40.557Z</time></trkpt><trkpt lat="43.7812694" lon="11.2178938"><ele>47.0</ele><time>2026-05-01T12:25:42.557Z</time></trkpt><trkpt lat="43.7813146" lon="11.2179686"><ele>47.0</ele><time>2026-05-01T12:25:44.557Z</time></trkpt><trkpt lat="43.7813825" lon="11.2180539"><ele>47.0</ele><time>2026-05-01T12:25:47.555Z</time></trkpt><trkpt lat="43.7814382" lon="11.2181006"><ele>47.0</ele><time>2026-05-01T12:25:49.557Z</time></trkpt><trkpt lat="43.7814956" lon="11.2181463"><ele>47.0</ele><time>2026-05-01T12:25:51.556Z</time></trkpt><trkpt lat="43.7815548" lon="11.2181947"><ele>47.0</ele><time>2026-05-01T12:25:53.556Z</time></trkpt><trkpt lat="43.7816131" lon="11.218245"><ele>47.0</ele><time>2026-05-01T12:25:55.557Z</time></trkpt><trkpt lat="43.7816677" lon="11.2182962"><ele>47.0</ele><time>2026-05-01T12:25:57.555Z</time></trkpt><trkpt lat="43.7817247" lon="11.2183513"><ele>46.714285714285715</ele><time>2026-05-01T12:25:59.556Z</time></trkpt><trkpt lat="43.7817746" lon="11.2184098"><ele>46.42857142857143</ele><time>2026-05-01T12:26:01.557Z</time></trkpt><trkpt lat="43.7818249" lon="11.2184644"><ele>46.14285714285714</ele><time>2026-05-01T12:26:03.556Z</time></trkpt><trkpt lat="43.7818828" lon="11.2185174"><ele>45.85714285714286</ele><time>2026-05-01T12:26:05.555Z</time></trkpt><trkpt lat="43.7819385" lon="11.218573"><ele>45.57142857142858</ele><time>2026-05-01T12:26:07.556Z</time></trkpt><trkpt lat="43.7820081" lon="11.2186456"><ele>45.285714285714285</ele><time>2026-05-01T12:26:10.556Z</time></trkpt><trkpt lat="43.7820883" lon="11.2186995"><ele>45.0</ele><time>2026-05-01T12:26:13.557Z</time></trkpt><trkpt lat="43.7821607" lon="11.2187564"><ele>45.0</ele><time>2026-05-01T12:26:16.556Z</time></trkpt><trkpt lat="43.7822085" lon="11.2188232"><ele>45.0</ele><time>2026-05-01T12:26:19.557Z</time></trkpt><trkpt lat="43.7822702" lon="11.2188748"><ele>45.0</ele><time>2026-05-01T12:26:22.557Z</time></trkpt><trkpt lat="43.7823227" lon="11.2189365"><ele>45.0</ele><time>2026-05-01T12:26:28.555Z</time></trkpt><trkpt lat="43.782275" lon="11.2188779"><ele>45.0</ele><time>2026-05-01T12:26:39.556Z</time></trkpt><trkpt lat="43.7822041" lon="11.2188418"><ele>45.0</ele><time>2026-05-01T12:26:42.555Z</time></trkpt><trkpt lat="43.7821347" lon="11.2187689"><ele>45.0</ele><time>2026-05-01T12:26:45.556Z</time></trkpt><trkpt lat="43.7820606" lon="11.218691"><ele>45.0</ele><time>2026-05-01T12:26:48.555Z</time></trkpt><trkpt lat="43.7820046" lon="11.218639"><ele>45.0</ele><time>2026-05-01T12:26:50.556Z</time></trkpt><trkpt lat="43.7819194" lon="11.2185827"><ele>45.0</ele><time>2026-05-01T12:26:53.555Z</time></trkpt><trkpt lat="43.7818576" lon="11.2185419"><ele>45.0</ele><time>2026-05-01T12:26:55.556Z</time></trkpt><trkpt lat="43.7817951" lon="11.2184992"><ele>45.0</ele><time>2026-05-01T12:26:57.554Z</time></trkpt><trkpt lat="43.7817346" lon="11.2184355"><ele>45.0</ele><time>2026-05-01T12:26:59.556Z</time></trkpt><trkpt lat="43.7816814" lon="11.218378"><ele>45.0</ele><time>2026-05-01T12:27:01.556Z</time></trkpt><trkpt lat="43.7816237" lon="11.2183308"><ele>45.0</ele><time>2026-05-01T12:27:03.556Z</time></trkpt><trkpt lat="43.7815632" lon="11.2182597"><ele>45.0</ele><time>2026-05-01T12:27:06.556Z</time></trkpt><trkpt lat="43.781495" lon="11.2181909"><ele>45.0</ele><time>2026-05-01T12:27:09.556Z</time></trkpt><trkpt lat="43.7814235" lon="11.2181332"><ele>45.0</ele><time>2026-05-01T12:27:12.555Z</time></trkpt><trkpt lat="43.7813527" lon="11.218091"><ele>45.0</ele><time>2026-05-01T12:27:15.556Z</time></trkpt><trkpt lat="43.7812774" lon="11.2180543"><ele>45.0</ele><time>2026-05-01T12:27:18.555Z</time></trkpt><trkpt lat="43.7812144" lon="11.2180413"><ele>45.285714285714285</ele><time>2026-05-01T12:27:23.556Z</time></trkpt><trkpt lat="43.7811592" lon="11.2179748"><ele>45.57142857142858</ele><time>2026-05-01T12:27:29.556Z</time></trkpt><trkpt lat="43.7811272" lon="11.2178871"><ele>45.85714285714286</ele><time>2026-05-01T12:27:33.555Z</time></trkpt><trkpt lat="43.7811334" lon="11.2177905"><ele>46.14285714285714</ele><time>2026-05-01T12:27:36.556Z</time></trkpt><trkpt lat="43.7810753" lon="11.2177414"><ele>46.42857142857143</ele><time>2026-05-01T12:27:40.556Z</time></trkpt><trkpt lat="43.7810342" lon="11.2178192"><ele>46.714285714285715</ele><time>2026-05-01T12:27:42.556Z</time></trkpt><trkpt lat="43.7809969" lon="11.2179033"><ele>47.0</ele><time>2026-05-01T12:27:44.554Z</time></trkpt><trkpt lat="43.7809588" lon="11.2179783"><ele>46.285714285714285</ele><time>2026-05-01T12:27:46.556Z</time></trkpt><trkpt lat="43.7809132" lon="11.2180644"><ele>45.57142857142857</ele><time>2026-05-01T12:27:49.555Z</time></trkpt><trkpt lat="43.7808716" lon="11.2181595"><ele>44.85714285714286</ele><time>2026-05-01T12:27:52.555Z</time></trkpt><trkpt lat="43.7808292" lon="11.2182523"><ele>44.14285714285714</ele><time>2026-05-01T12:27:55.556Z</time></trkpt><trkpt lat="43.7807884" lon="11.2183286"><ele>43.42857142857143</ele><time>2026-05-01T12:27:58.556Z</time></trkpt><trkpt lat="43.7807592" lon="11.2184163"><ele>42.714285714285715</ele><time>2026-05-01T12:28:02.555Z</time></trkpt><trkpt lat="43.7807189" lon="11.2184856"><ele>42.0</ele><time>2026-05-01T12:28:05.555Z</time></trkpt><trkpt lat="43.7806794" lon="11.2185569"><ele>42.0</ele><time>2026-05-01T12:28:09.556Z</time></trkpt><trkpt lat="43.7806423" lon="11.2186519"><ele>42.0</ele><time>2026-05-01T12:28:17.556Z</time></trkpt><trkpt lat="43.780566" lon="11.2186717"><ele>42.0</ele><time>2026-05-01T12:28:20.555Z</time></trkpt><trkpt lat="43.7804974" lon="11.2186145"><ele>42.0</ele><time>2026-05-01T12:28:23.555Z</time></trkpt><trkpt lat="43.7804433" lon="11.218562"><ele>42.0</ele><time>2026-05-01T12:28:26.556Z</time></trkpt><trkpt lat="43.7803901" lon="11.2185062"><ele>42.0</ele><time>2026-05-01T12:28:38.556Z</time></trkpt><trkpt lat="43.7803283" lon="11.2184707"><ele>42.0</ele><time>2026-05-01T12:28:43.555Z</time></trkpt><trkpt lat="43.7802674" lon="11.2184336"><ele>42.0</ele><time>2026-05-01T12:28:48.553Z</time></trkpt><trkpt lat="43.7802038" lon="11.2183998"><ele>42.0</ele><time>2026-05-01T12:28:54.556Z</time></trkpt><trkpt lat="43.7801381" lon="11.2183696"><ele>42.0</ele><time>2026-05-01T12:29:00.555Z</time></trkpt><trkpt lat="43.7800817" lon="11.2183288"><ele>42.0</ele><time>2026-05-01T12:29:06.556Z</time></trkpt><trkpt lat="43.780014" lon="11.2183"><ele>42.0</ele><time>2026-05-01T12:29:13.554Z</time></trkpt><trkpt lat="43.779958" lon="11.2182564"><ele>42.0</ele><time>2026-05-01T12:29:19.555Z</time></trkpt><trkpt lat="43.7798903" lon="11.2182142"><ele>42.0</ele><time>2026-05-01T12:29:25.555Z</time></trkpt><trkpt lat="43.7798271" lon="11.2181663"><ele>41.666666666666664</ele><time>2026-05-01T12:29:31.555Z</time></trkpt><trkpt lat="43.779766" lon="11.2181088"><ele>41.333333333333336</ele><time>2026-05-01T12:29:37.555Z</time></trkpt><trkpt lat="43.7797014" lon="11.2180616"><ele>41.0</ele><time>2026-05-01T12:29:43.555Z</time></trkpt><trkpt lat="43.7796381" lon="11.218009"><ele>40.66666666666667</ele><time>2026-05-01T12:29:52.554Z</time></trkpt><trkpt lat="43.7795775" lon="11.2179712"><ele>40.333333333333336</ele><time>2026-05-01T12:29:54.555Z</time></trkpt><trkpt lat="43.7795035" lon="11.217916"><ele>40.0</ele><time>2026-05-01T12:29:56.556Z</time></trkpt><trkpt lat="43.7794308" lon="11.2178721"><ele>40.0</ele><time>2026-05-01T12:29:59.554Z</time></trkpt><trkpt lat="43.7793653" lon="11.2178519"><ele>40.0</ele><time>2026-05-01T12:30:02.554Z</time></trkpt><trkpt lat="43.7792887" lon="11.217811"><ele>40.0</ele><time>2026-05-01T12:30:05.556Z</time></trkpt><trkpt lat="43.7792389" lon="11.2177297"><ele>40.0</ele><time>2026-05-01T12:30:08.556Z</time></trkpt><trkpt lat="43.779217" lon="11.2176419"><ele>40.0</ele><time>2026-05-01T12:30:10.555Z</time></trkpt><trkpt lat="43.7791627" lon="11.21758"><ele>40.0</ele><time>2026-05-01T12:30:12.555Z</time></trkpt><trkpt lat="43.7791007" lon="11.2175323"><ele>40.0</ele><time>2026-05-01T12:30:14.556Z</time></trkpt><trkpt lat="43.7790386" lon="11.2174727"><ele>40.57142857142857</ele><time>2026-05-01T12:30:16.553Z</time></trkpt><trkpt lat="43.7789813" lon="11.2174234"><ele>41.142857142857146</ele><time>2026-05-01T12:30:18.555Z</time></trkpt><trkpt lat="43.7789241" lon="11.2173613"><ele>41.714285714285715</ele><time>2026-05-01T12:30:20.556Z</time></trkpt><trkpt lat="43.7788644" lon="11.2172946"><ele>42.285714285714285</ele><time>2026-05-01T12:30:22.555Z</time></trkpt><trkpt lat="43.7788021" lon="11.2172428"><ele>42.857142857142854</ele><time>2026-05-01T12:30:24.555Z</time></trkpt><trkpt lat="43.7787372" lon="11.2171833"><ele>43.42857142857143</ele><time>2026-05-01T12:30:26.555Z</time></trkpt><trkpt lat="43.778683" lon="11.2171272"><ele>44.0</ele><time>2026-05-01T12:30:28.554Z</time></trkpt><trkpt lat="43.7786286" lon="11.2170734"><ele>44.0</ele><time>2026-05-01T12:30:30.555Z</time></trkpt><trkpt lat="43.7785736" lon="11.2170228"><ele>44.0</ele><time>2026-05-01T12:30:32.554Z</time></trkpt><trkpt lat="43.7785183" lon="11.2169721"><ele>44.0</ele><time>2026-05-01T12:30:34.555Z</time></trkpt><trkpt lat="43.7784601" lon="11.2169146"><ele>44.0</ele><time>2026-05-01T12:30:36.556Z</time></trkpt><trkpt lat="43.7784064" lon="11.2168601"><ele>44.0</ele><time>2026-05-01T12:30:38.556Z</time></trkpt><trkpt lat="43.7783338" lon="11.2167933"><ele>44.0</ele><time>2026-05-01T12:30:41.554Z</time></trkpt><trkpt lat="43.7782683" lon="11.2167337"><ele>44.0</ele><time>2026-05-01T12:30:44.555Z</time></trkpt><trkpt lat="43.778199" lon="11.2166718"><ele>44.0</ele><time>2026-05-01T12:30:47.555Z</time></trkpt><trkpt lat="43.7781312" lon="11.2165855"><ele>44.0</ele><time>2026-05-01T12:30:50.555Z</time></trkpt><trkpt lat="43.77809" lon="11.2165181"><ele>44.0</ele><time>2026-05-01T12:30:52.555Z</time></trkpt><trkpt lat="43.7780479" lon="11.2164532"><ele>44.0</ele><time>2026-05-01T12:30:54.554Z</time></trkpt><trkpt lat="43.7780025" lon="11.2163916"><ele>44.0</ele><time>2026-05-01T12:30:56.553Z</time></trkpt><trkpt lat="43.7779507" lon="11.2163343"><ele>44.0</ele><time>2026-05-01T12:30:58.554Z</time></trkpt><trkpt lat="43.777894" lon="11.2162834"><ele>44.0</ele><time>2026-05-01T12:31:00.555Z</time></trkpt><trkpt lat="43.7778417" lon="11.2162318"><ele>44.0</ele><time>2026-05-01T12:31:02.555Z</time></trkpt><trkpt lat="43.7777845" lon="11.216179"><ele>44.0</ele><time>2026-05-01T12:31:04.555Z</time></trkpt><trkpt lat="43.7777255" lon="11.2161258"><ele>44.0</ele><time>2026-05-01T12:31:06.556Z</time></trkpt><trkpt lat="43.7776719" lon="11.2160775"><ele>44.0</ele><time>2026-05-01T12:31:08.554Z</time></trkpt><trkpt lat="43.7776172" lon="11.216033"><ele>44.0</ele><time>2026-05-01T12:31:10.554Z</time></trkpt><trkpt lat="43.7775606" lon="11.2159832"><ele>44.0</ele><time>2026-05-01T12:31:12.554Z</time></trkpt><trkpt lat="43.777503" lon="11.215931"><ele>44.0</ele><time>2026-05-01T12:31:14.555Z</time></trkpt><trkpt lat="43.7774462" lon="11.2158797"><ele>43.85714285714286</ele><time>2026-05-01T12:31:16.554Z</time></trkpt><trkpt lat="43.7773949" lon="11.2158236"><ele>43.714285714285715</ele><time>2026-05-01T12:31:18.556Z</time></trkpt><trkpt lat="43.7773407" lon="11.2157675"><ele>43.57142857142857</ele><time>2026-05-01T12:31:20.554Z</time></trkpt><trkpt lat="43.7772848" lon="11.2157132"><ele>43.42857142857143</ele><time>2026-05-01T12:31:22.556Z</time></trkpt><trkpt lat="43.777233" lon="11.2156565"><ele>43.285714285714285</ele><time>2026-05-01T12:31:24.555Z</time></trkpt><trkpt lat="43.7771826" lon="11.2156001"><ele>43.142857142857146</ele><time>2026-05-01T12:31:26.553Z</time></trkpt><trkpt lat="43.7771057" lon="11.2155291"><ele>43.0</ele><time>2026-05-01T12:31:29.555Z</time></trkpt><trkpt lat="43.7770306" lon="11.2154762"><ele>43.00000000000001</ele><time>2026-05-01T12:31:32.556Z</time></trkpt><trkpt lat="43.7769673" lon="11.2154301"><ele>43.0</ele><time>2026-05-01T12:31:36.556Z</time></trkpt><trkpt lat="43.7769162" lon="11.2153576"><ele>43.0</ele><time>2026-05-01T12:32:25.555Z</time></trkpt><trkpt lat="43.7769452" lon="11.2152731"><ele>43.0</ele><time>2026-05-01T12:32:27.554Z</time></trkpt><trkpt lat="43.7769872" lon="11.2151883"><ele>43.0</ele><time>2026-05-01T12:32:29.556Z</time></trkpt><trkpt lat="43.7770269" lon="11.2151002"><ele>43.00000000000001</ele><time>2026-05-01T12:32:31.555Z</time></trkpt><trkpt lat="43.7770664" lon="11.2150053"><ele>43.0</ele><time>2026-05-01T12:32:33.554Z</time></trkpt><trkpt lat="43.777105" lon="11.2149076"><ele>42.85714285714286</ele><time>2026-05-01T12:32:35.555Z</time></trkpt><trkpt lat="43.7771475" lon="11.2148153"><ele>42.714285714285715</ele><time>2026-05-01T12:32:37.556Z</time></trkpt><trkpt lat="43.777195" lon="11.2147369"><ele>42.57142857142857</ele><time>2026-05-01T12:32:39.554Z</time></trkpt><trkpt lat="43.7772437" lon="11.2146707"><ele>42.42857142857143</ele><time>2026-05-01T12:32:41.554Z</time></trkpt><trkpt lat="43.7772906" lon="11.214605"><ele>42.285714285714285</ele><time>2026-05-01T12:32:43.555Z</time></trkpt><trkpt lat="43.7773268" lon="11.2145317"><ele>42.142857142857146</ele><time>2026-05-01T12:32:45.556Z</time></trkpt><trkpt lat="43.7773592" lon="11.214448"><ele>42.0</ele><time>2026-05-01T12:32:47.554Z</time></trkpt><trkpt lat="43.7773969" lon="11.214368"><ele>42.0</ele><time>2026-05-01T12:32:49.554Z</time></trkpt><trkpt lat="43.7774519" lon="11.2142674"><ele>42.0</ele><time>2026-05-01T12:32:52.556Z</time></trkpt><trkpt lat="43.7774882" lon="11.2141956"><ele>42.0</ele><time>2026-05-01T12:32:54.556Z</time></trkpt><trkpt lat="43.7775348" lon="11.2141158"><ele>42.0</ele><time>2026-05-01T12:32:56.555Z</time></trkpt><trkpt lat="43.7775844" lon="11.2140331"><ele>42.0</ele><time>2026-05-01T12:32:58.553Z</time></trkpt><trkpt lat="43.77763" lon="11.2139415"><ele>42.0</ele><time>2026-05-01T12:33:00.555Z</time></trkpt><trkpt lat="43.7776748" lon="11.2138523"><ele>42.5</ele><time>2026-05-01T12:33:02.555Z</time></trkpt><trkpt lat="43.7777181" lon="11.2137638"><ele>43.0</ele><time>2026-05-01T12:33:04.554Z</time></trkpt><trkpt lat="43.7777583" lon="11.2136748"><ele>43.5</ele><time>2026-05-01T12:33:06.554Z</time></trkpt><trkpt lat="43.7777976" lon="11.2135841"><ele>44.0</ele><time>2026-05-01T12:33:08.555Z</time></trkpt><trkpt lat="43.7778405" lon="11.21349"><ele>44.5</ele><time>2026-05-01T12:33:10.554Z</time></trkpt><trkpt lat="43.7778807" lon="11.213395"><ele>45.0</ele><time>2026-05-01T12:33:12.555Z</time></trkpt><trkpt lat="43.777919" lon="11.2132991"><ele>45.0</ele><time>2026-05-01T12:33:14.554Z</time></trkpt><trkpt lat="43.7779577" lon="11.2132091"><ele>45.0</ele><time>2026-05-01T12:33:16.553Z</time></trkpt><trkpt lat="43.777991" lon="11.2131233"><ele>45.0</ele><time>2026-05-01T12:33:18.555Z</time></trkpt><trkpt lat="43.7780225" lon="11.2130343"><ele>45.0</ele><time>2026-05-01T12:33:20.555Z</time></trkpt><trkpt lat="43.7780569" lon="11.212947"><ele>45.0</ele><time>2026-05-01T12:33:22.554Z</time></trkpt><trkpt lat="43.7780776" lon="11.212844"><ele>45.0</ele><time>2026-05-01T12:33:24.554Z</time></trkpt><trkpt lat="43.7781084" lon="11.2127353"><ele>44.666666666666664</ele><time>2026-05-01T12:33:26.553Z</time></trkpt><trkpt lat="43.7781471" lon="11.2126251"><ele>44.333333333333336</ele><time>2026-05-01T12:33:28.554Z</time></trkpt><trkpt lat="43.7781896" lon="11.2125188"><ele>44.0</ele><time>2026-05-01T12:33:30.554Z</time></trkpt><trkpt lat="43.7782243" lon="11.2124171"><ele>43.66666666666667</ele><time>2026-05-01T12:33:32.555Z</time></trkpt><trkpt lat="43.778241" lon="11.2123164"><ele>43.333333333333336</ele><time>2026-05-01T12:33:34.555Z</time></trkpt><trkpt lat="43.7782432" lon="11.2122144"><ele>43.0</ele><time>2026-05-01T12:33:36.554Z</time></trkpt><trkpt lat="43.7782534" lon="11.2121041"><ele>43.0</ele><time>2026-05-01T12:33:38.555Z</time></trkpt><trkpt lat="43.7782641" lon="11.2119846"><ele>43.0</ele><time>2026-05-01T12:33:40.554Z</time></trkpt><trkpt lat="43.7782789" lon="11.2118692"><ele>43.0</ele><time>2026-05-01T12:33:42.553Z</time></trkpt><trkpt lat="43.7782941" lon="11.2117596"><ele>43.0</ele><time>2026-05-01T12:33:44.555Z</time></trkpt><trkpt lat="43.7783109" lon="11.2116522"><ele>43.0</ele><time>2026-05-01T12:33:46.554Z</time></trkpt><trkpt lat="43.7783291" lon="11.2115448"><ele>43.0</ele><time>2026-05-01T12:33:48.554Z</time></trkpt><trkpt lat="43.7783498" lon="11.2114378"><ele>43.16666666666667</ele><time>2026-05-01T12:33:50.555Z</time></trkpt><trkpt lat="43.7783673" lon="11.2113329"><ele>43.333333333333336</ele><time>2026-05-01T12:33:52.554Z</time></trkpt><trkpt lat="43.7783844" lon="11.2112196"><ele>43.5</ele><time>2026-05-01T12:33:54.554Z</time></trkpt><trkpt lat="43.7784011" lon="11.211121"><ele>43.666666666666664</ele><time>2026-05-01T12:33:56.553Z</time></trkpt><trkpt lat="43.7784129" lon="11.2110261"><ele>43.83333333333333</ele><time>2026-05-01T12:33:58.553Z</time></trkpt><trkpt lat="43.7784264" lon="11.2109267"><ele>44.0</ele><time>2026-05-01T12:34:00.555Z</time></trkpt><trkpt lat="43.7784393" lon="11.2108265"><ele>44.0</ele><time>2026-05-01T12:34:02.554Z</time></trkpt><trkpt lat="43.7784534" lon="11.2107299"><ele>44.0</ele><time>2026-05-01T12:34:04.555Z</time></trkpt><trkpt lat="43.7784738" lon="11.2106348"><ele>44.0</ele><time>2026-05-01T12:34:06.553Z</time></trkpt><trkpt lat="43.7784942" lon="11.2105418"><ele>44.0</ele><time>2026-05-01T12:34:08.553Z</time></trkpt><trkpt lat="43.7785188" lon="11.2104564"><ele>44.0</ele><time>2026-05-01T12:34:10.555Z</time></trkpt><trkpt lat="43.7785462" lon="11.2103728"><ele>44.0</ele><time>2026-05-01T12:34:12.555Z</time></trkpt><trkpt lat="43.7785809" lon="11.2102715"><ele>44.0</ele><time>2026-05-01T12:34:15.554Z</time></trkpt><trkpt lat="43.7785992" lon="11.2101819"><ele>43.85714285714286</ele><time>2026-05-01T12:34:18.555Z</time></trkpt><trkpt lat="43.7786258" lon="11.2100573"><ele>43.714285714285715</ele><time>2026-05-01T12:34:21.555Z</time></trkpt><trkpt lat="43.7786398" lon="11.2099644"><ele>43.57142857142857</ele><time>2026-05-01T12:34:23.553Z</time></trkpt><trkpt lat="43.7786562" lon="11.2098794"><ele>43.42857142857143</ele><time>2026-05-01T12:34:25.553Z</time></trkpt><trkpt lat="43.7786695" lon="11.2097914"><ele>43.285714285714285</ele><time>2026-05-01T12:34:27.554Z</time></trkpt><trkpt lat="43.778685" lon="11.2096949"><ele>43.142857142857146</ele><time>2026-05-01T12:34:29.553Z</time></trkpt><trkpt lat="43.7787045" lon="11.2095963"><ele>43.0</ele><time>2026-05-01T12:34:31.555Z</time></trkpt><trkpt lat="43.778729" lon="11.2095009"><ele>43.0</ele><time>2026-05-01T12:34:33.553Z</time></trkpt><trkpt lat="43.7787548" lon="11.2094011"><ele>43.0</ele><time>2026-05-01T12:34:35.553Z</time></trkpt><trkpt lat="43.7787687" lon="11.2092948"><ele>43.0</ele><time>2026-05-01T12:34:37.555Z</time></trkpt><trkpt lat="43.7787845" lon="11.2091799"><ele>43.0</ele><time>2026-05-01T12:34:39.555Z</time></trkpt><trkpt lat="43.7788006" lon="11.2090703"><ele>43.0</ele><time>2026-05-01T12:34:41.554Z</time></trkpt><trkpt lat="43.7788176" lon="11.2089649"><ele>43.0</ele><time>2026-05-01T12:34:43.555Z</time></trkpt><trkpt lat="43.7788358" lon="11.2088681"><ele>42.714285714285715</ele><time>2026-05-01T12:34:45.555Z</time></trkpt><trkpt lat="43.7788544" lon="11.2087792"><ele>42.42857142857143</ele><time>2026-05-01T12:34:47.555Z</time></trkpt><trkpt lat="43.7788773" lon="11.2086555"><ele>42.14285714285714</ele><time>2026-05-01T12:34:50.554Z</time></trkpt><trkpt lat="43.7788951" lon="11.2085665"><ele>41.85714285714286</ele><time>2026-05-01T12:34:52.553Z</time></trkpt><trkpt lat="43.7789133" lon="11.2084717"><ele>41.57142857142857</ele><time>2026-05-01T12:34:54.554Z</time></trkpt><trkpt lat="43.7789316" lon="11.2083813"><ele>41.285714285714285</ele><time>2026-05-01T12:34:56.554Z</time></trkpt><trkpt lat="43.7789531" lon="11.2082869"><ele>41.0</ele><time>2026-05-01T12:34:58.555Z</time></trkpt><trkpt lat="43.7789714" lon="11.208195"><ele>40.99999999999999</ele><time>2026-05-01T12:35:00.552Z</time></trkpt><trkpt lat="43.7789908" lon="11.2080931"><ele>41.0</ele><time>2026-05-01T12:35:02.554Z</time></trkpt><trkpt lat="43.7790021" lon="11.2079915"><ele>41.0</ele><time>2026-05-01T12:35:04.553Z</time></trkpt><trkpt lat="43.7790195" lon="11.2078876"><ele>41.0</ele><time>2026-05-01T12:35:06.553Z</time></trkpt><trkpt lat="43.7790396" lon="11.2077915"><ele>41.0</ele><time>2026-05-01T12:35:08.554Z</time></trkpt><trkpt lat="43.7790529" lon="11.2076929"><ele>40.99999999999999</ele><time>2026-05-01T12:35:10.554Z</time></trkpt><trkpt lat="43.7790658" lon="11.2075887"><ele>41.0</ele><time>2026-05-01T12:35:12.555Z</time></trkpt><trkpt lat="43.7790818" lon="11.2074815"><ele>41.0</ele><time>2026-05-01T12:35:14.554Z</time></trkpt><trkpt lat="43.7790945" lon="11.2073778"><ele>41.0</ele><time>2026-05-01T12:35:16.555Z</time></trkpt><trkpt lat="43.7791056" lon="11.2072729"><ele>41.0</ele><time>2026-05-01T12:35:18.555Z</time></trkpt><trkpt lat="43.7791212" lon="11.2071733"><ele>41.0</ele><time>2026-05-01T12:35:20.554Z</time></trkpt><trkpt lat="43.7791387" lon="11.2070839"><ele>41.0</ele><time>2026-05-01T12:35:22.554Z</time></trkpt><trkpt lat="43.7791588" lon="11.2069575"><ele>41.0</ele><time>2026-05-01T12:35:25.553Z</time></trkpt><trkpt lat="43.7791713" lon="11.2068654"><ele>40.99999999999999</ele><time>2026-05-01T12:35:27.555Z</time></trkpt><trkpt lat="43.7791899" lon="11.2067621"><ele>41.0</ele><time>2026-05-01T12:35:29.555Z</time></trkpt><trkpt lat="43.7792095" lon="11.2066551"><ele>41.0</ele><time>2026-05-01T12:35:31.554Z</time></trkpt><trkpt lat="43.7792258" lon="11.2065466"><ele>41.0</ele><time>2026-05-01T12:35:33.554Z</time></trkpt><trkpt lat="43.7792397" lon="11.2064474"><ele>41.0</ele><time>2026-05-01T12:35:35.552Z</time></trkpt><trkpt lat="43.779255" lon="11.2063586"><ele>40.99999999999999</ele><time>2026-05-01T12:35:37.554Z</time></trkpt><trkpt lat="43.7792733" lon="11.2062665"><ele>41.0</ele><time>2026-05-01T12:35:39.554Z</time></trkpt><trkpt lat="43.7792908" lon="11.2061746"><ele>40.0</ele><time>2026-05-01T12:35:41.555Z</time></trkpt><trkpt lat="43.7793018" lon="11.2060883"><ele>40.0</ele><time>2026-05-01T12:35:43.553Z</time></trkpt><trkpt lat="43.7792683" lon="11.2060096"><ele>40.0</ele><time>2026-05-01T12:35:46.554Z</time></trkpt><trkpt lat="43.7792032" lon="11.205974"><ele>40.0</ele><time>2026-05-01T12:35:49.553Z</time></trkpt><trkpt lat="43.7791645" lon="11.205897"><ele>40.0</ele><time>2026-05-01T12:35:58.554Z</time></trkpt><trkpt lat="43.7790996" lon="11.2059087"><ele>40.0</ele><time>2026-05-01T12:39:09.553Z</time></trkpt><trkpt lat="43.7790411" lon="11.2058573"><ele>40.0</ele><time>2026-05-01T12:39:13.553Z</time></trkpt></trkseg></trk></gpx>